<?xml version="1.0" encoding="UTF-8" standalone="no" ?>
<gpx xmlns="http://www.topografix.com/GPX/1/1" xmlns:xsi="http://www.w3.org/2001/XMLSchema-instance" xsi:schemaLocation="http://www.topografix.com/GPX/1/1 http://www.topografix.com/GPX/1/1/gpx.xsd" version="1.1" creator="VisuGPX - https://www.visugpx.com">
  <metadata>
    <name>La Fermeté </name>
    <desc><![CDATA[Super , le repérage pour la rando des QFicelés est faite , juste un petit détail à régler au départ ! ]]></desc>
  </metadata>
  <trk>
    <name><![CDATA[La Fermeté _1]]></name>
    <trkseg>
      <trkpt lat="46.96675" lon="3.33368">
        <ele>242.03672790527</ele>
        <time>2016-04-03T07:04:03.000Z</time>
      </trkpt>
      <trkpt lat="46.96675" lon="3.33372">
        <ele>242.00741577148</ele>
        <time>2016-04-03T07:04:05.000Z</time>
      </trkpt>
      <trkpt lat="46.96674" lon="3.33379">
        <ele>241.94630432129</ele>
        <time>2016-04-03T07:04:08.000Z</time>
      </trkpt>
      <trkpt lat="46.96678" lon="3.33375">
        <ele>241.98300170898</ele>
        <time>2016-04-03T07:04:17.000Z</time>
      </trkpt>
      <trkpt lat="46.9668" lon="3.33367">
        <ele>242.0541229248</ele>
        <time>2016-04-03T07:04:33.000Z</time>
      </trkpt>
      <trkpt lat="46.96681" lon="3.33359">
        <ele>242.15058898926</ele>
        <time>2016-04-03T07:04:36.000Z</time>
      </trkpt>
      <trkpt lat="46.96682" lon="3.33355">
        <ele>242.28479003906</ele>
        <time>2016-04-03T07:04:37.000Z</time>
      </trkpt>
      <trkpt lat="46.96684" lon="3.33351">
        <ele>242.46948242188</ele>
        <time>2016-04-03T07:04:37.000Z</time>
      </trkpt>
      <trkpt lat="46.96684" lon="3.33347">
        <ele>242.61563110352</ele>
        <time>2016-04-03T07:04:37.000Z</time>
      </trkpt>
      <trkpt lat="46.96684" lon="3.33345">
        <ele>242.71994018555</ele>
        <time>2016-04-03T07:04:37.000Z</time>
      </trkpt>
      <trkpt lat="46.96685" lon="3.33341">
        <ele>242.81205749512</ele>
        <time>2016-04-03T07:04:38.000Z</time>
      </trkpt>
      <trkpt lat="46.96688" lon="3.33339">
        <ele>242.92245483398</ele>
        <time>2016-04-03T07:04:38.000Z</time>
      </trkpt>
      <trkpt lat="46.96692" lon="3.33337">
        <ele>243.05842590332</ele>
        <time>2016-04-03T07:04:38.000Z</time>
      </trkpt>
      <trkpt lat="46.96694" lon="3.33336">
        <ele>243.21231079102</ele>
        <time>2016-04-03T07:04:38.000Z</time>
      </trkpt>
      <trkpt lat="46.96697" lon="3.33336">
        <ele>243.39819335938</ele>
        <time>2016-04-03T07:04:38.000Z</time>
      </trkpt>
      <trkpt lat="46.967" lon="3.33336">
        <ele>243.59268188477</ele>
        <time>2016-04-03T07:04:39.000Z</time>
      </trkpt>
      <trkpt lat="46.96702" lon="3.33337">
        <ele>243.76528930664</ele>
        <time>2016-04-03T07:04:39.000Z</time>
      </trkpt>
      <trkpt lat="46.96705" lon="3.33338">
        <ele>243.92292785645</ele>
        <time>2016-04-03T07:04:42.000Z</time>
      </trkpt>
      <trkpt lat="46.96707" lon="3.33339">
        <ele>244.07238769531</ele>
        <time>2016-04-03T07:04:45.000Z</time>
      </trkpt>
      <trkpt lat="46.96708" lon="3.3334">
        <ele>244.18334960938</ele>
        <time>2016-04-03T07:04:59.000Z</time>
      </trkpt>
      <trkpt lat="46.96707" lon="3.33339">
        <ele>244.25500488281</ele>
        <time>2016-04-03T07:05:01.000Z</time>
      </trkpt>
      <trkpt lat="46.96706" lon="3.3334">
        <ele>244.2864074707</ele>
        <time>2016-04-03T07:05:01.000Z</time>
      </trkpt>
      <trkpt lat="46.96704" lon="3.33341">
        <ele>244.26904296875</ele>
        <time>2016-04-03T07:05:01.000Z</time>
      </trkpt>
      <trkpt lat="46.96704" lon="3.33343">
        <ele>244.22201538086</ele>
        <time>2016-04-03T07:05:04.000Z</time>
      </trkpt>
      <trkpt lat="46.96706" lon="3.33344">
        <ele>244.18984985352</ele>
        <time>2016-04-03T07:05:06.000Z</time>
      </trkpt>
      <trkpt lat="46.96709" lon="3.33346">
        <ele>244.1960144043</ele>
        <time>2016-04-03T07:05:09.000Z</time>
      </trkpt>
      <trkpt lat="46.96711" lon="3.33347">
        <ele>244.23893737793</ele>
        <time>2016-04-03T07:05:11.000Z</time>
      </trkpt>
      <trkpt lat="46.96714" lon="3.33348">
        <ele>244.31994628906</ele>
        <time>2016-04-03T07:05:13.000Z</time>
      </trkpt>
      <trkpt lat="46.96715" lon="3.33349">
        <ele>244.41635131836</ele>
        <time>2016-04-03T07:05:16.000Z</time>
      </trkpt>
      <trkpt lat="46.96718" lon="3.3335">
        <ele>244.53573608398</ele>
        <time>2016-04-03T07:05:18.000Z</time>
      </trkpt>
      <trkpt lat="46.9672" lon="3.33351">
        <ele>244.63204956055</ele>
        <time>2016-04-03T07:05:21.000Z</time>
      </trkpt>
      <trkpt lat="46.96722" lon="3.33352">
        <ele>244.73965454102</ele>
        <time>2016-04-03T07:05:24.000Z</time>
      </trkpt>
      <trkpt lat="46.96726" lon="3.33354">
        <ele>244.85661315918</ele>
        <time>2016-04-03T07:05:27.000Z</time>
      </trkpt>
      <trkpt lat="46.96728" lon="3.33355">
        <ele>244.98481750488</ele>
        <time>2016-04-03T07:05:29.000Z</time>
      </trkpt>
      <trkpt lat="46.96732" lon="3.33358">
        <ele>245.10469055176</ele>
        <time>2016-04-03T07:05:32.000Z</time>
      </trkpt>
      <trkpt lat="46.96735" lon="3.3336">
        <ele>245.23835754395</ele>
        <time>2016-04-03T07:05:36.000Z</time>
      </trkpt>
      <trkpt lat="46.96738" lon="3.33361">
        <ele>245.36967468262</ele>
        <time>2016-04-03T07:05:37.000Z</time>
      </trkpt>
      <trkpt lat="46.9674" lon="3.33363">
        <ele>245.4934387207</ele>
        <time>2016-04-03T07:05:40.000Z</time>
      </trkpt>
      <trkpt lat="46.96742" lon="3.33365">
        <ele>245.61010742188</ele>
        <time>2016-04-03T07:05:42.000Z</time>
      </trkpt>
      <trkpt lat="46.96745" lon="3.33366">
        <ele>245.71870422363</ele>
        <time>2016-04-03T07:05:45.000Z</time>
      </trkpt>
      <trkpt lat="46.96749" lon="3.33367">
        <ele>245.84814453125</ele>
        <time>2016-04-03T07:05:48.000Z</time>
      </trkpt>
      <trkpt lat="46.96753" lon="3.33368">
        <ele>245.99710083008</ele>
        <time>2016-04-03T07:05:51.000Z</time>
      </trkpt>
      <trkpt lat="46.96756" lon="3.3337">
        <ele>246.16101074219</ele>
        <time>2016-04-03T07:05:54.000Z</time>
      </trkpt>
      <trkpt lat="46.96758" lon="3.33373">
        <ele>246.32107543945</ele>
        <time>2016-04-03T07:05:57.000Z</time>
      </trkpt>
      <trkpt lat="46.9676" lon="3.33375">
        <ele>246.48027038574</ele>
        <time>2016-04-03T07:05:59.000Z</time>
      </trkpt>
      <trkpt lat="46.96762" lon="3.33377">
        <ele>246.61254882812</ele>
        <time>2016-04-03T07:06:01.000Z</time>
      </trkpt>
      <trkpt lat="46.96765" lon="3.3338">
        <ele>246.73181152344</ele>
        <time>2016-04-03T07:06:04.000Z</time>
      </trkpt>
      <trkpt lat="46.96767" lon="3.33382">
        <ele>246.82922363281</ele>
        <time>2016-04-03T07:06:06.000Z</time>
      </trkpt>
      <trkpt lat="46.96769" lon="3.33383">
        <ele>246.94067382812</ele>
        <time>2016-04-03T07:06:08.000Z</time>
      </trkpt>
      <trkpt lat="46.9677" lon="3.33385">
        <ele>247.04284667969</ele>
        <time>2016-04-03T07:06:10.000Z</time>
      </trkpt>
      <trkpt lat="46.96776" lon="3.33392">
        <ele>247.17272949219</ele>
        <time>2016-04-03T07:06:13.000Z</time>
      </trkpt>
      <trkpt lat="46.96781" lon="3.33397">
        <ele>247.32080078125</ele>
        <time>2016-04-03T07:06:16.000Z</time>
      </trkpt>
      <trkpt lat="46.96784" lon="3.33401">
        <ele>247.48229980469</ele>
        <time>2016-04-03T07:06:19.000Z</time>
      </trkpt>
      <trkpt lat="46.96786" lon="3.33403">
        <ele>247.63708496094</ele>
        <time>2016-04-03T07:06:21.000Z</time>
      </trkpt>
      <trkpt lat="46.9679" lon="3.33406">
        <ele>247.81555175781</ele>
        <time>2016-04-03T07:06:24.000Z</time>
      </trkpt>
      <trkpt lat="46.96792" lon="3.33409">
        <ele>247.974609375</ele>
        <time>2016-04-03T07:06:26.000Z</time>
      </trkpt>
      <trkpt lat="46.96796" lon="3.33413">
        <ele>248.107421875</ele>
        <time>2016-04-03T07:06:29.000Z</time>
      </trkpt>
      <trkpt lat="46.96798" lon="3.33416">
        <ele>248.22619628906</ele>
        <time>2016-04-03T07:06:31.000Z</time>
      </trkpt>
      <trkpt lat="46.968" lon="3.33419">
        <ele>248.33419799805</ele>
        <time>2016-04-03T07:06:34.000Z</time>
      </trkpt>
      <trkpt lat="46.96802" lon="3.33422">
        <ele>248.39677429199</ele>
        <time>2016-04-03T07:06:36.000Z</time>
      </trkpt>
      <trkpt lat="46.96804" lon="3.33428">
        <ele>248.41789245605</ele>
        <time>2016-04-03T07:06:39.000Z</time>
      </trkpt>
      <trkpt lat="46.96807" lon="3.33433">
        <ele>248.39331054688</ele>
        <time>2016-04-03T07:06:42.000Z</time>
      </trkpt>
      <trkpt lat="46.96811" lon="3.33435">
        <ele>248.37948608398</ele>
        <time>2016-04-03T07:06:45.000Z</time>
      </trkpt>
      <trkpt lat="46.96813" lon="3.33438">
        <ele>248.35717773438</ele>
        <time>2016-04-03T07:06:48.000Z</time>
      </trkpt>
      <trkpt lat="46.96815" lon="3.33439">
        <ele>248.36645507812</ele>
        <time>2016-04-03T07:06:51.000Z</time>
      </trkpt>
      <trkpt lat="46.96819" lon="3.33441">
        <ele>248.41133117676</ele>
        <time>2016-04-03T07:06:54.000Z</time>
      </trkpt>
      <trkpt lat="46.96821" lon="3.33442">
        <ele>248.5</ele>
        <time>2016-04-03T07:06:56.000Z</time>
      </trkpt>
      <trkpt lat="46.96823" lon="3.33442">
        <ele>248.58413696289</ele>
        <time>2016-04-03T07:06:59.000Z</time>
      </trkpt>
      <trkpt lat="46.96825" lon="3.33442">
        <ele>248.69668579102</ele>
        <time>2016-04-03T07:07:01.000Z</time>
      </trkpt>
      <trkpt lat="46.96827" lon="3.33442">
        <ele>248.81713867188</ele>
        <time>2016-04-03T07:07:03.000Z</time>
      </trkpt>
      <trkpt lat="46.9683" lon="3.33442">
        <ele>248.94680786133</ele>
        <time>2016-04-03T07:07:05.000Z</time>
      </trkpt>
      <trkpt lat="46.96835" lon="3.33442">
        <ele>249.11599731445</ele>
        <time>2016-04-03T07:07:08.000Z</time>
      </trkpt>
      <trkpt lat="46.96838" lon="3.33441">
        <ele>249.2844543457</ele>
        <time>2016-04-03T07:07:11.000Z</time>
      </trkpt>
      <trkpt lat="46.96841" lon="3.3344">
        <ele>249.45133972168</ele>
        <time>2016-04-03T07:07:14.000Z</time>
      </trkpt>
      <trkpt lat="46.96843" lon="3.33439">
        <ele>249.60522460938</ele>
        <time>2016-04-03T07:07:16.000Z</time>
      </trkpt>
      <trkpt lat="46.96846" lon="3.33438">
        <ele>249.74459838867</ele>
        <time>2016-04-03T07:07:19.000Z</time>
      </trkpt>
      <trkpt lat="46.96849" lon="3.33439">
        <ele>249.82717895508</ele>
        <time>2016-04-03T07:07:22.000Z</time>
      </trkpt>
      <trkpt lat="46.9685" lon="3.33439">
        <ele>249.89579772949</ele>
        <time>2016-04-03T07:07:25.000Z</time>
      </trkpt>
      <trkpt lat="46.96853" lon="3.3344">
        <ele>249.93276977539</ele>
        <time>2016-04-03T07:07:33.000Z</time>
      </trkpt>
      <trkpt lat="46.96854" lon="3.33442">
        <ele>249.94267272949</ele>
        <time>2016-04-03T07:07:33.000Z</time>
      </trkpt>
      <trkpt lat="46.96862" lon="3.33446">
        <ele>249.92338562012</ele>
        <time>2016-04-03T07:07:34.000Z</time>
      </trkpt>
      <trkpt lat="46.96865" lon="3.33447">
        <ele>249.89726257324</ele>
        <time>2016-04-03T07:07:36.000Z</time>
      </trkpt>
      <trkpt lat="46.96868" lon="3.33448">
        <ele>249.87219238281</ele>
        <time>2016-04-03T07:07:39.000Z</time>
      </trkpt>
      <trkpt lat="46.9687" lon="3.33447">
        <ele>249.86958312988</ele>
        <time>2016-04-03T07:07:42.000Z</time>
      </trkpt>
      <trkpt lat="46.96873" lon="3.33446">
        <ele>249.90454101562</ele>
        <time>2016-04-03T07:07:45.000Z</time>
      </trkpt>
      <trkpt lat="46.96876" lon="3.33445">
        <ele>249.97236633301</ele>
        <time>2016-04-03T07:07:47.000Z</time>
      </trkpt>
      <trkpt lat="46.96879" lon="3.33445">
        <ele>250.05290222168</ele>
        <time>2016-04-03T07:07:49.000Z</time>
      </trkpt>
      <trkpt lat="46.96881" lon="3.33444">
        <ele>250.14321899414</ele>
        <time>2016-04-03T07:07:52.000Z</time>
      </trkpt>
      <trkpt lat="46.96885" lon="3.33443">
        <ele>250.24055480957</ele>
        <time>2016-04-03T07:07:55.000Z</time>
      </trkpt>
      <trkpt lat="46.96888" lon="3.33442">
        <ele>250.32963562012</ele>
        <time>2016-04-03T07:07:58.000Z</time>
      </trkpt>
      <trkpt lat="46.96889" lon="3.33441">
        <ele>250.42121887207</ele>
        <time>2016-04-03T07:08:00.000Z</time>
      </trkpt>
      <trkpt lat="46.96892" lon="3.33439">
        <ele>250.5251159668</ele>
        <time>2016-04-03T07:08:03.000Z</time>
      </trkpt>
      <trkpt lat="46.96893" lon="3.33437">
        <ele>250.62954711914</ele>
        <time>2016-04-03T07:08:06.000Z</time>
      </trkpt>
      <trkpt lat="46.96894" lon="3.33436">
        <ele>250.72314453125</ele>
        <time>2016-04-03T07:08:14.000Z</time>
      </trkpt>
      <trkpt lat="46.96896" lon="3.33435">
        <ele>250.81680297852</ele>
        <time>2016-04-03T07:08:14.000Z</time>
      </trkpt>
      <trkpt lat="46.96899" lon="3.33431">
        <ele>250.93315124512</ele>
        <time>2016-04-03T07:08:17.000Z</time>
      </trkpt>
      <trkpt lat="46.96902" lon="3.33429">
        <ele>251.05020141602</ele>
        <time>2016-04-03T07:08:19.000Z</time>
      </trkpt>
      <trkpt lat="46.96906" lon="3.33427">
        <ele>251.17489624023</ele>
        <time>2016-04-03T07:08:22.000Z</time>
      </trkpt>
      <trkpt lat="46.96909" lon="3.33427">
        <ele>251.29983520508</ele>
        <time>2016-04-03T07:08:24.000Z</time>
      </trkpt>
      <trkpt lat="46.96911" lon="3.33426">
        <ele>251.41906738281</ele>
        <time>2016-04-03T07:08:26.000Z</time>
      </trkpt>
      <trkpt lat="46.96914" lon="3.33426">
        <ele>251.50244140625</ele>
        <time>2016-04-03T07:08:29.000Z</time>
      </trkpt>
      <trkpt lat="46.96917" lon="3.33427">
        <ele>251.56452941895</ele>
        <time>2016-04-03T07:08:31.000Z</time>
      </trkpt>
      <trkpt lat="46.96921" lon="3.33426">
        <ele>251.67485046387</ele>
        <time>2016-04-03T07:08:34.000Z</time>
      </trkpt>
      <trkpt lat="46.96924" lon="3.33426">
        <ele>251.8296661377</ele>
        <time>2016-04-03T07:08:37.000Z</time>
      </trkpt>
      <trkpt lat="46.96927" lon="3.33425">
        <ele>252.03762817383</ele>
        <time>2016-04-03T07:08:39.000Z</time>
      </trkpt>
      <trkpt lat="46.96931" lon="3.33423">
        <ele>252.3154296875</ele>
        <time>2016-04-03T07:08:42.000Z</time>
      </trkpt>
      <trkpt lat="46.96935" lon="3.33421">
        <ele>252.66909790039</ele>
        <time>2016-04-03T07:08:45.000Z</time>
      </trkpt>
      <trkpt lat="46.96938" lon="3.33419">
        <ele>253.01272583008</ele>
        <time>2016-04-03T07:08:48.000Z</time>
      </trkpt>
      <trkpt lat="46.96941" lon="3.33419">
        <ele>253.34321594238</ele>
        <time>2016-04-03T07:08:51.000Z</time>
      </trkpt>
      <trkpt lat="46.96944" lon="3.33419">
        <ele>253.66198730469</ele>
        <time>2016-04-03T07:08:54.000Z</time>
      </trkpt>
      <trkpt lat="46.96947" lon="3.33418">
        <ele>253.97232055664</ele>
        <time>2016-04-03T07:08:57.000Z</time>
      </trkpt>
      <trkpt lat="46.96951" lon="3.33415">
        <ele>254.26571655273</ele>
        <time>2016-04-03T07:09:00.000Z</time>
      </trkpt>
      <trkpt lat="46.96954" lon="3.33414">
        <ele>254.5514831543</ele>
        <time>2016-04-03T07:09:03.000Z</time>
      </trkpt>
      <trkpt lat="46.96957" lon="3.33412">
        <ele>254.84204101562</ele>
        <time>2016-04-03T07:09:06.000Z</time>
      </trkpt>
      <trkpt lat="46.96959" lon="3.3341">
        <ele>255.11990356445</ele>
        <time>2016-04-03T07:09:08.000Z</time>
      </trkpt>
      <trkpt lat="46.96961" lon="3.3341">
        <ele>255.36323547363</ele>
        <time>2016-04-03T07:09:10.000Z</time>
      </trkpt>
      <trkpt lat="46.96965" lon="3.3341">
        <ele>255.59628295898</ele>
        <time>2016-04-03T07:09:13.000Z</time>
      </trkpt>
      <trkpt lat="46.96968" lon="3.33409">
        <ele>255.83366394043</ele>
        <time>2016-04-03T07:09:16.000Z</time>
      </trkpt>
      <trkpt lat="46.96971" lon="3.33408">
        <ele>256.06793212891</ele>
        <time>2016-04-03T07:09:18.000Z</time>
      </trkpt>
      <trkpt lat="46.96975" lon="3.33406">
        <ele>256.31829833984</ele>
        <time>2016-04-03T07:09:21.000Z</time>
      </trkpt>
      <trkpt lat="46.96977" lon="3.33404">
        <ele>256.56704711914</ele>
        <time>2016-04-03T07:09:23.000Z</time>
      </trkpt>
      <trkpt lat="46.9698" lon="3.33402">
        <ele>256.81832885742</ele>
        <time>2016-04-03T07:09:26.000Z</time>
      </trkpt>
      <trkpt lat="46.96983" lon="3.334">
        <ele>257.04028320312</ele>
        <time>2016-04-03T07:09:28.000Z</time>
      </trkpt>
      <trkpt lat="46.96985" lon="3.33398">
        <ele>257.25787353516</ele>
        <time>2016-04-03T07:09:30.000Z</time>
      </trkpt>
      <trkpt lat="46.96988" lon="3.33396">
        <ele>257.4580078125</ele>
        <time>2016-04-03T07:09:33.000Z</time>
      </trkpt>
      <trkpt lat="46.96991" lon="3.33395">
        <ele>257.66119384766</ele>
        <time>2016-04-03T07:09:35.000Z</time>
      </trkpt>
      <trkpt lat="46.96993" lon="3.33393">
        <ele>257.84802246094</ele>
        <time>2016-04-03T07:09:38.000Z</time>
      </trkpt>
      <trkpt lat="46.96997" lon="3.33392">
        <ele>258.05657958984</ele>
        <time>2016-04-03T07:09:42.000Z</time>
      </trkpt>
      <trkpt lat="46.97001" lon="3.33388">
        <ele>258.26953125</ele>
        <time>2016-04-03T07:09:44.000Z</time>
      </trkpt>
      <trkpt lat="46.97002" lon="3.33387">
        <ele>258.46649169922</ele>
        <time>2016-04-03T07:09:46.000Z</time>
      </trkpt>
      <trkpt lat="46.97005" lon="3.33385">
        <ele>258.68243408203</ele>
        <time>2016-04-03T07:09:49.000Z</time>
      </trkpt>
      <trkpt lat="46.97008" lon="3.33382">
        <ele>258.89529418945</ele>
        <time>2016-04-03T07:09:52.000Z</time>
      </trkpt>
      <trkpt lat="46.9701" lon="3.3338">
        <ele>259.08193969727</ele>
        <time>2016-04-03T07:09:55.000Z</time>
      </trkpt>
      <trkpt lat="46.97012" lon="3.33375">
        <ele>259.26361083984</ele>
        <time>2016-04-03T07:09:58.000Z</time>
      </trkpt>
      <trkpt lat="46.97013" lon="3.33373">
        <ele>259.42974853516</ele>
        <time>2016-04-03T07:10:00.000Z</time>
      </trkpt>
      <trkpt lat="46.97016" lon="3.3337">
        <ele>259.58895874023</ele>
        <time>2016-04-03T07:10:03.000Z</time>
      </trkpt>
      <trkpt lat="46.97019" lon="3.33366">
        <ele>259.75546264648</ele>
        <time>2016-04-03T07:10:06.000Z</time>
      </trkpt>
      <trkpt lat="46.97023" lon="3.33364">
        <ele>259.97537231445</ele>
        <time>2016-04-03T07:10:09.000Z</time>
      </trkpt>
      <trkpt lat="46.97028" lon="3.33366">
        <ele>260.23803710938</ele>
        <time>2016-04-03T07:10:12.000Z</time>
      </trkpt>
      <trkpt lat="46.9703" lon="3.33364">
        <ele>260.52575683594</ele>
        <time>2016-04-03T07:10:15.000Z</time>
      </trkpt>
      <trkpt lat="46.97031" lon="3.3336">
        <ele>260.77548217773</ele>
        <time>2016-04-03T07:10:17.000Z</time>
      </trkpt>
      <trkpt lat="46.97032" lon="3.33356">
        <ele>260.99114990234</ele>
        <time>2016-04-03T07:10:20.000Z</time>
      </trkpt>
      <trkpt lat="46.97033" lon="3.3335">
        <ele>261.13427734375</ele>
        <time>2016-04-03T07:10:23.000Z</time>
      </trkpt>
      <trkpt lat="46.97035" lon="3.33347">
        <ele>261.24200439453</ele>
        <time>2016-04-03T07:10:26.000Z</time>
      </trkpt>
      <trkpt lat="46.97037" lon="3.33344">
        <ele>261.34259033203</ele>
        <time>2016-04-03T07:10:28.000Z</time>
      </trkpt>
      <trkpt lat="46.97038" lon="3.33343">
        <ele>261.44122314453</ele>
        <time>2016-04-03T07:10:31.000Z</time>
      </trkpt>
      <trkpt lat="46.97041" lon="3.3334">
        <ele>261.6028137207</ele>
        <time>2016-04-03T07:10:34.000Z</time>
      </trkpt>
      <trkpt lat="46.97045" lon="3.33337">
        <ele>261.8161315918</ele>
        <time>2016-04-03T07:10:37.000Z</time>
      </trkpt>
      <trkpt lat="46.97047" lon="3.33334">
        <ele>262.02478027344</ele>
        <time>2016-04-03T07:10:39.000Z</time>
      </trkpt>
      <trkpt lat="46.97049" lon="3.33332">
        <ele>262.23638916016</ele>
        <time>2016-04-03T07:10:46.000Z</time>
      </trkpt>
      <trkpt lat="46.9705" lon="3.33329">
        <ele>262.4499206543</ele>
        <time>2016-04-03T07:10:46.000Z</time>
      </trkpt>
      <trkpt lat="46.97052" lon="3.33325">
        <ele>262.60321044922</ele>
        <time>2016-04-03T07:10:46.000Z</time>
      </trkpt>
      <trkpt lat="46.97055" lon="3.33321">
        <ele>262.74456787109</ele>
        <time>2016-04-03T07:10:49.000Z</time>
      </trkpt>
      <trkpt lat="46.97057" lon="3.3332">
        <ele>262.86669921875</ele>
        <time>2016-04-03T07:10:51.000Z</time>
      </trkpt>
      <trkpt lat="46.97059" lon="3.33318">
        <ele>262.98876953125</ele>
        <time>2016-04-03T07:10:54.000Z</time>
      </trkpt>
      <trkpt lat="46.9706" lon="3.33316">
        <ele>263.10900878906</ele>
        <time>2016-04-03T07:10:58.000Z</time>
      </trkpt>
      <trkpt lat="46.97062" lon="3.33312">
        <ele>263.23046875</ele>
        <time>2016-04-03T07:11:01.000Z</time>
      </trkpt>
      <trkpt lat="46.97065" lon="3.33311">
        <ele>263.36950683594</ele>
        <time>2016-04-03T07:11:03.000Z</time>
      </trkpt>
      <trkpt lat="46.97068" lon="3.33309">
        <ele>263.53466796875</ele>
        <time>2016-04-03T07:11:06.000Z</time>
      </trkpt>
      <trkpt lat="46.9707" lon="3.33308">
        <ele>263.68908691406</ele>
        <time>2016-04-03T07:11:09.000Z</time>
      </trkpt>
      <trkpt lat="46.97073" lon="3.33305">
        <ele>263.90295410156</ele>
        <time>2016-04-03T07:11:12.000Z</time>
      </trkpt>
      <trkpt lat="46.97077" lon="3.33303">
        <ele>264.15258789062</ele>
        <time>2016-04-03T07:11:15.000Z</time>
      </trkpt>
      <trkpt lat="46.9708" lon="3.333">
        <ele>264.38073730469</ele>
        <time>2016-04-03T07:11:18.000Z</time>
      </trkpt>
      <trkpt lat="46.97082" lon="3.33299">
        <ele>264.58984375</ele>
        <time>2016-04-03T07:11:21.000Z</time>
      </trkpt>
      <trkpt lat="46.97084" lon="3.33297">
        <ele>264.81207275391</ele>
        <time>2016-04-03T07:11:23.000Z</time>
      </trkpt>
      <trkpt lat="46.97085" lon="3.33297">
        <ele>264.98675537109</ele>
        <time>2016-04-03T07:11:29.000Z</time>
      </trkpt>
      <trkpt lat="46.97087" lon="3.33295">
        <ele>265.1328125</ele>
        <time>2016-04-03T07:11:29.000Z</time>
      </trkpt>
      <trkpt lat="46.97089" lon="3.33292">
        <ele>265.26797485352</ele>
        <time>2016-04-03T07:11:30.000Z</time>
      </trkpt>
      <trkpt lat="46.97092" lon="3.33289">
        <ele>265.40872192383</ele>
        <time>2016-04-03T07:11:32.000Z</time>
      </trkpt>
      <trkpt lat="46.97093" lon="3.33287">
        <ele>265.53106689453</ele>
        <time>2016-04-03T07:11:35.000Z</time>
      </trkpt>
      <trkpt lat="46.97099" lon="3.33285">
        <ele>265.7272644043</ele>
        <time>2016-04-03T07:11:38.000Z</time>
      </trkpt>
      <trkpt lat="46.97102" lon="3.33283">
        <ele>265.96044921875</ele>
        <time>2016-04-03T07:11:42.000Z</time>
      </trkpt>
      <trkpt lat="46.97104" lon="3.33283">
        <ele>266.18368530273</ele>
        <time>2016-04-03T07:11:43.000Z</time>
      </trkpt>
      <trkpt lat="46.97108" lon="3.33281">
        <ele>266.45199584961</ele>
        <time>2016-04-03T07:11:46.000Z</time>
      </trkpt>
      <trkpt lat="46.97111" lon="3.3328">
        <ele>266.73858642578</ele>
        <time>2016-04-03T07:11:48.000Z</time>
      </trkpt>
      <trkpt lat="46.97113" lon="3.33278">
        <ele>266.97598266602</ele>
        <time>2016-04-03T07:11:51.000Z</time>
      </trkpt>
      <trkpt lat="46.97115" lon="3.33276">
        <ele>267.18634033203</ele>
        <time>2016-04-03T07:11:53.000Z</time>
      </trkpt>
      <trkpt lat="46.97116" lon="3.33274">
        <ele>267.37689208984</ele>
        <time>2016-04-03T07:11:55.000Z</time>
      </trkpt>
      <trkpt lat="46.9712" lon="3.3327">
        <ele>267.53750610352</ele>
        <time>2016-04-03T07:11:58.000Z</time>
      </trkpt>
      <trkpt lat="46.97123" lon="3.33268">
        <ele>267.70941162109</ele>
        <time>2016-04-03T07:12:00.000Z</time>
      </trkpt>
      <trkpt lat="46.97126" lon="3.33263">
        <ele>267.88290405273</ele>
        <time>2016-04-03T07:12:03.000Z</time>
      </trkpt>
      <trkpt lat="46.97128" lon="3.33262">
        <ele>268.05923461914</ele>
        <time>2016-04-03T07:12:05.000Z</time>
      </trkpt>
      <trkpt lat="46.97131" lon="3.33259">
        <ele>268.27764892578</ele>
        <time>2016-04-03T07:12:08.000Z</time>
      </trkpt>
      <trkpt lat="46.97132" lon="3.33255">
        <ele>268.46868896484</ele>
        <time>2016-04-03T07:12:11.000Z</time>
      </trkpt>
      <trkpt lat="46.97134" lon="3.33255">
        <ele>268.63751220703</ele>
        <time>2016-04-03T07:12:13.000Z</time>
      </trkpt>
      <trkpt lat="46.97135" lon="3.33253">
        <ele>268.77865600586</ele>
        <time>2016-04-03T07:12:15.000Z</time>
      </trkpt>
      <trkpt lat="46.97138" lon="3.3325">
        <ele>268.93304443359</ele>
        <time>2016-04-03T07:12:17.000Z</time>
      </trkpt>
      <trkpt lat="46.97139" lon="3.33247">
        <ele>269.05865478516</ele>
        <time>2016-04-03T07:12:20.000Z</time>
      </trkpt>
      <trkpt lat="46.9714" lon="3.33243">
        <ele>269.17376708984</ele>
        <time>2016-04-03T07:12:23.000Z</time>
      </trkpt>
      <trkpt lat="46.97144" lon="3.33241">
        <ele>269.32373046875</ele>
        <time>2016-04-03T07:12:27.000Z</time>
      </trkpt>
      <trkpt lat="46.97146" lon="3.3324">
        <ele>269.50991821289</ele>
        <time>2016-04-03T07:12:28.000Z</time>
      </trkpt>
      <trkpt lat="46.97149" lon="3.33239">
        <ele>269.68658447266</ele>
        <time>2016-04-03T07:12:30.000Z</time>
      </trkpt>
      <trkpt lat="46.97151" lon="3.33237">
        <ele>269.89691162109</ele>
        <time>2016-04-03T07:12:33.000Z</time>
      </trkpt>
      <trkpt lat="46.97155" lon="3.33233">
        <ele>270.15386962891</ele>
        <time>2016-04-03T07:12:36.000Z</time>
      </trkpt>
      <trkpt lat="46.97158" lon="3.33232">
        <ele>270.40606689453</ele>
        <time>2016-04-03T07:12:38.000Z</time>
      </trkpt>
      <trkpt lat="46.9716" lon="3.33228">
        <ele>270.62707519531</ele>
        <time>2016-04-03T07:12:41.000Z</time>
      </trkpt>
      <trkpt lat="46.97161" lon="3.33228">
        <ele>270.83477783203</ele>
        <time>2016-04-03T07:12:44.000Z</time>
      </trkpt>
      <trkpt lat="46.97162" lon="3.33227">
        <ele>271.02185058594</ele>
        <time>2016-04-03T07:12:47.000Z</time>
      </trkpt>
      <trkpt lat="46.97168" lon="3.33223">
        <ele>271.25091552734</ele>
        <time>2016-04-03T07:12:50.000Z</time>
      </trkpt>
      <trkpt lat="46.97171" lon="3.3322">
        <ele>271.48629760742</ele>
        <time>2016-04-03T07:12:52.000Z</time>
      </trkpt>
      <trkpt lat="46.97172" lon="3.33217">
        <ele>271.7109375</ele>
        <time>2016-04-03T07:12:55.000Z</time>
      </trkpt>
      <trkpt lat="46.97174" lon="3.33212">
        <ele>271.94622802734</ele>
        <time>2016-04-03T07:12:58.000Z</time>
      </trkpt>
      <trkpt lat="46.97174" lon="3.3321">
        <ele>272.16793823242</ele>
        <time>2016-04-03T07:13:01.000Z</time>
      </trkpt>
      <trkpt lat="46.97178" lon="3.3321">
        <ele>272.369140625</ele>
        <time>2016-04-03T07:13:04.000Z</time>
      </trkpt>
      <trkpt lat="46.97184" lon="3.33204">
        <ele>272.63107299805</ele>
        <time>2016-04-03T07:13:06.000Z</time>
      </trkpt>
      <trkpt lat="46.97186" lon="3.33202">
        <ele>272.92352294922</ele>
        <time>2016-04-03T07:13:08.000Z</time>
      </trkpt>
      <trkpt lat="46.97189" lon="3.33197">
        <ele>273.23843383789</ele>
        <time>2016-04-03T07:13:11.000Z</time>
      </trkpt>
      <trkpt lat="46.9719" lon="3.33195">
        <ele>273.56372070312</ele>
        <time>2016-04-03T07:13:14.000Z</time>
      </trkpt>
      <trkpt lat="46.97192" lon="3.33194">
        <ele>273.84274291992</ele>
        <time>2016-04-03T07:13:16.000Z</time>
      </trkpt>
      <trkpt lat="46.97194" lon="3.33192">
        <ele>274.05648803711</ele>
        <time>2016-04-03T07:13:19.000Z</time>
      </trkpt>
      <trkpt lat="46.97195" lon="3.33191">
        <ele>274.26498413086</ele>
        <time>2016-04-03T07:13:21.000Z</time>
      </trkpt>
      <trkpt lat="46.97197" lon="3.33191">
        <ele>274.45388793945</ele>
        <time>2016-04-03T07:13:23.000Z</time>
      </trkpt>
      <trkpt lat="46.97201" lon="3.33191">
        <ele>274.71194458008</ele>
        <time>2016-04-03T07:13:26.000Z</time>
      </trkpt>
      <trkpt lat="46.97204" lon="3.33189">
        <ele>274.98889160156</ele>
        <time>2016-04-03T07:13:29.000Z</time>
      </trkpt>
      <trkpt lat="46.97206" lon="3.33188">
        <ele>275.27789306641</ele>
        <time>2016-04-03T07:13:32.000Z</time>
      </trkpt>
      <trkpt lat="46.97208" lon="3.33187">
        <ele>275.56674194336</ele>
        <time>2016-04-03T07:13:35.000Z</time>
      </trkpt>
      <trkpt lat="46.97211" lon="3.33186">
        <ele>275.87362670898</ele>
        <time>2016-04-03T07:13:38.000Z</time>
      </trkpt>
      <trkpt lat="46.97215" lon="3.33186">
        <ele>276.181640625</ele>
        <time>2016-04-03T07:13:41.000Z</time>
      </trkpt>
      <trkpt lat="46.97217" lon="3.33185">
        <ele>276.49087524414</ele>
        <time>2016-04-03T07:13:43.000Z</time>
      </trkpt>
      <trkpt lat="46.97219" lon="3.33183">
        <ele>276.7907409668</ele>
        <time>2016-04-03T07:13:45.000Z</time>
      </trkpt>
      <trkpt lat="46.97224" lon="3.33179">
        <ele>277.15615844727</ele>
        <time>2016-04-03T07:13:48.000Z</time>
      </trkpt>
      <trkpt lat="46.97226" lon="3.33177">
        <ele>277.50323486328</ele>
        <time>2016-04-03T07:13:51.000Z</time>
      </trkpt>
      <trkpt lat="46.97227" lon="3.33177">
        <ele>277.77392578125</ele>
        <time>2016-04-03T07:13:56.000Z</time>
      </trkpt>
      <trkpt lat="46.97231" lon="3.33176">
        <ele>278.10345458984</ele>
        <time>2016-04-03T07:13:59.000Z</time>
      </trkpt>
      <trkpt lat="46.97234" lon="3.33175">
        <ele>278.43447875977</ele>
        <time>2016-04-03T07:14:02.000Z</time>
      </trkpt>
      <trkpt lat="46.97237" lon="3.33175">
        <ele>278.74072265625</ele>
        <time>2016-04-03T07:14:05.000Z</time>
      </trkpt>
      <trkpt lat="46.97242" lon="3.33175">
        <ele>279.11627197266</ele>
        <time>2016-04-03T07:14:08.000Z</time>
      </trkpt>
      <trkpt lat="46.97242" lon="3.33174">
        <ele>279.49203491211</ele>
        <time>2016-04-03T07:14:11.000Z</time>
      </trkpt>
      <trkpt lat="46.97244" lon="3.33174">
        <ele>279.79107666016</ele>
        <time>2016-04-03T07:14:13.000Z</time>
      </trkpt>
      <trkpt lat="46.97244" lon="3.33176">
        <ele>280.0426940918</ele>
        <time>2016-04-03T07:14:29.000Z</time>
      </trkpt>
      <trkpt lat="46.97246" lon="3.33177">
        <ele>280.24591064453</ele>
        <time>2016-04-03T07:14:32.000Z</time>
      </trkpt>
      <trkpt lat="46.97247" lon="3.33176">
        <ele>280.38128662109</ele>
        <time>2016-04-03T07:14:34.000Z</time>
      </trkpt>
      <trkpt lat="46.9725" lon="3.33176">
        <ele>280.55551147461</ele>
        <time>2016-04-03T07:14:36.000Z</time>
      </trkpt>
      <trkpt lat="46.97253" lon="3.33173">
        <ele>280.74789428711</ele>
        <time>2016-04-03T07:14:39.000Z</time>
      </trkpt>
      <trkpt lat="46.97256" lon="3.33173">
        <ele>281.00997924805</ele>
        <time>2016-04-03T07:14:42.000Z</time>
      </trkpt>
      <trkpt lat="46.9726" lon="3.33172">
        <ele>281.3059387207</ele>
        <time>2016-04-03T07:14:45.000Z</time>
      </trkpt>
      <trkpt lat="46.97264" lon="3.33171">
        <ele>281.63366699219</ele>
        <time>2016-04-03T07:14:47.000Z</time>
      </trkpt>
      <trkpt lat="46.97267" lon="3.33169">
        <ele>281.96502685547</ele>
        <time>2016-04-03T07:14:50.000Z</time>
      </trkpt>
      <trkpt lat="46.9727" lon="3.33166">
        <ele>282.2939453125</ele>
        <time>2016-04-03T07:14:53.000Z</time>
      </trkpt>
      <trkpt lat="46.97272" lon="3.33163">
        <ele>282.60729980469</ele>
        <time>2016-04-03T07:14:56.000Z</time>
      </trkpt>
      <trkpt lat="46.97273" lon="3.33162">
        <ele>282.87689208984</ele>
        <time>2016-04-03T07:15:02.000Z</time>
      </trkpt>
      <trkpt lat="46.97275" lon="3.33162">
        <ele>283.10064697266</ele>
        <time>2016-04-03T07:15:05.000Z</time>
      </trkpt>
      <trkpt lat="46.97277" lon="3.33159">
        <ele>283.31744384766</ele>
        <time>2016-04-03T07:15:08.000Z</time>
      </trkpt>
      <trkpt lat="46.9728" lon="3.33156">
        <ele>283.55001831055</ele>
        <time>2016-04-03T07:15:11.000Z</time>
      </trkpt>
      <trkpt lat="46.97284" lon="3.33153">
        <ele>283.78890991211</ele>
        <time>2016-04-03T07:15:14.000Z</time>
      </trkpt>
      <trkpt lat="46.97286" lon="3.33149">
        <ele>284.06427001953</ele>
        <time>2016-04-03T07:15:17.000Z</time>
      </trkpt>
      <trkpt lat="46.97289" lon="3.33149">
        <ele>284.36010742188</ele>
        <time>2016-04-03T07:15:20.000Z</time>
      </trkpt>
      <trkpt lat="46.97292" lon="3.3315">
        <ele>284.67352294922</ele>
        <time>2016-04-03T07:15:23.000Z</time>
      </trkpt>
      <trkpt lat="46.97294" lon="3.33149">
        <ele>284.94696044922</ele>
        <time>2016-04-03T07:15:25.000Z</time>
      </trkpt>
      <trkpt lat="46.97298" lon="3.33149">
        <ele>285.21789550781</ele>
        <time>2016-04-03T07:15:28.000Z</time>
      </trkpt>
      <trkpt lat="46.97301" lon="3.33148">
        <ele>285.48590087891</ele>
        <time>2016-04-03T07:15:31.000Z</time>
      </trkpt>
      <trkpt lat="46.97302" lon="3.33148">
        <ele>285.73098754883</ele>
        <time>2016-04-03T07:15:33.000Z</time>
      </trkpt>
      <trkpt lat="46.97305" lon="3.33147">
        <ele>285.95718383789</ele>
        <time>2016-04-03T07:15:35.000Z</time>
      </trkpt>
      <trkpt lat="46.97307" lon="3.33145">
        <ele>286.19274902344</ele>
        <time>2016-04-03T07:15:37.000Z</time>
      </trkpt>
      <trkpt lat="46.97309" lon="3.33144">
        <ele>286.39868164062</ele>
        <time>2016-04-03T07:15:40.000Z</time>
      </trkpt>
      <trkpt lat="46.97311" lon="3.33143">
        <ele>286.59735107422</ele>
        <time>2016-04-03T07:15:43.000Z</time>
      </trkpt>
      <trkpt lat="46.97313" lon="3.33142">
        <ele>286.81143188477</ele>
        <time>2016-04-03T07:15:45.000Z</time>
      </trkpt>
      <trkpt lat="46.97316" lon="3.33141">
        <ele>287.03115844727</ele>
        <time>2016-04-03T07:15:48.000Z</time>
      </trkpt>
      <trkpt lat="46.97321" lon="3.3314">
        <ele>287.28369140625</ele>
        <time>2016-04-03T07:15:51.000Z</time>
      </trkpt>
      <trkpt lat="46.97325" lon="3.33141">
        <ele>287.57675170898</ele>
        <time>2016-04-03T07:15:54.000Z</time>
      </trkpt>
      <trkpt lat="46.97327" lon="3.33141">
        <ele>287.86773681641</ele>
        <time>2016-04-03T07:15:56.000Z</time>
      </trkpt>
      <trkpt lat="46.97332" lon="3.33141">
        <ele>288.19320678711</ele>
        <time>2016-04-03T07:15:59.000Z</time>
      </trkpt>
      <trkpt lat="46.97334" lon="3.3314">
        <ele>288.49737548828</ele>
        <time>2016-04-03T07:16:01.000Z</time>
      </trkpt>
      <trkpt lat="46.97337" lon="3.3314">
        <ele>288.80728149414</ele>
        <time>2016-04-03T07:16:08.000Z</time>
      </trkpt>
      <trkpt lat="46.9734" lon="3.33141">
        <ele>289.12628173828</ele>
        <time>2016-04-03T07:16:09.000Z</time>
      </trkpt>
      <trkpt lat="46.97344" lon="3.33142">
        <ele>289.48980712891</ele>
        <time>2016-04-03T07:16:09.000Z</time>
      </trkpt>
      <trkpt lat="46.97347" lon="3.33142">
        <ele>289.849609375</ele>
        <time>2016-04-03T07:16:12.000Z</time>
      </trkpt>
      <trkpt lat="46.97351" lon="3.33142">
        <ele>290.259765625</ele>
        <time>2016-04-03T07:16:14.000Z</time>
      </trkpt>
      <trkpt lat="46.97356" lon="3.3314">
        <ele>290.728515625</ele>
        <time>2016-04-03T07:16:17.000Z</time>
      </trkpt>
      <trkpt lat="46.97358" lon="3.33141">
        <ele>291.1484375</ele>
        <time>2016-04-03T07:16:19.000Z</time>
      </trkpt>
      <trkpt lat="46.9736" lon="3.33142">
        <ele>291.529296875</ele>
        <time>2016-04-03T07:16:21.000Z</time>
      </trkpt>
      <trkpt lat="46.97364" lon="3.33142">
        <ele>291.9296875</ele>
        <time>2016-04-03T07:16:24.000Z</time>
      </trkpt>
      <trkpt lat="46.97366" lon="3.33143">
        <ele>292.291015625</ele>
        <time>2016-04-03T07:16:26.000Z</time>
      </trkpt>
      <trkpt lat="46.97369" lon="3.33144">
        <ele>292.583984375</ele>
        <time>2016-04-03T07:16:29.000Z</time>
      </trkpt>
      <trkpt lat="46.97371" lon="3.33145">
        <ele>292.88671875</ele>
        <time>2016-04-03T07:16:32.000Z</time>
      </trkpt>
      <trkpt lat="46.97373" lon="3.33147">
        <ele>293.189453125</ele>
        <time>2016-04-03T07:16:34.000Z</time>
      </trkpt>
      <trkpt lat="46.97375" lon="3.33147">
        <ele>293.462890625</ele>
        <time>2016-04-03T07:16:37.000Z</time>
      </trkpt>
      <trkpt lat="46.97378" lon="3.33148">
        <ele>293.765625</ele>
        <time>2016-04-03T07:16:39.000Z</time>
      </trkpt>
      <trkpt lat="46.97379" lon="3.33149">
        <ele>294.009765625</ele>
        <time>2016-04-03T07:16:41.000Z</time>
      </trkpt>
      <trkpt lat="46.97382" lon="3.33152">
        <ele>294.29296875</ele>
        <time>2016-04-03T07:16:44.000Z</time>
      </trkpt>
      <trkpt lat="46.97386" lon="3.33152">
        <ele>294.615234375</ele>
        <time>2016-04-03T07:16:47.000Z</time>
      </trkpt>
      <trkpt lat="46.97387" lon="3.33153">
        <ele>294.908203125</ele>
        <time>2016-04-03T07:16:49.000Z</time>
      </trkpt>
      <trkpt lat="46.97393" lon="3.33153">
        <ele>295.259765625</ele>
        <time>2016-04-03T07:16:54.000Z</time>
      </trkpt>
      <trkpt lat="46.97395" lon="3.33156">
        <ele>295.66015625</ele>
        <time>2016-04-03T07:16:58.000Z</time>
      </trkpt>
      <trkpt lat="46.97397" lon="3.33158">
        <ele>296.01171875</ele>
        <time>2016-04-03T07:16:59.000Z</time>
      </trkpt>
      <trkpt lat="46.97399" lon="3.33162">
        <ele>296.32421875</ele>
        <time>2016-04-03T07:17:02.000Z</time>
      </trkpt>
      <trkpt lat="46.97402" lon="3.33163">
        <ele>296.67578125</ele>
        <time>2016-04-03T07:17:04.000Z</time>
      </trkpt>
      <trkpt lat="46.97405" lon="3.33165">
        <ele>296.96875</ele>
        <time>2016-04-03T07:17:07.000Z</time>
      </trkpt>
      <trkpt lat="46.97408" lon="3.33164">
        <ele>297.271484375</ele>
        <time>2016-04-03T07:17:10.000Z</time>
      </trkpt>
      <trkpt lat="46.97409" lon="3.33164">
        <ele>297.5546875</ele>
        <time>2016-04-03T07:17:13.000Z</time>
      </trkpt>
      <trkpt lat="46.97414" lon="3.33167">
        <ele>297.90655517578</ele>
        <time>2016-04-03T07:17:15.000Z</time>
      </trkpt>
      <trkpt lat="46.97416" lon="3.33168">
        <ele>298.25369262695</ele>
        <time>2016-04-03T07:17:19.000Z</time>
      </trkpt>
      <trkpt lat="46.97419" lon="3.33168">
        <ele>298.58944702148</ele>
        <time>2016-04-03T07:17:21.000Z</time>
      </trkpt>
      <trkpt lat="46.97421" lon="3.33168">
        <ele>298.88845825195</ele>
        <time>2016-04-03T07:17:23.000Z</time>
      </trkpt>
      <trkpt lat="46.97424" lon="3.3317">
        <ele>299.22940063477</ele>
        <time>2016-04-03T07:17:26.000Z</time>
      </trkpt>
      <trkpt lat="46.97427" lon="3.33171">
        <ele>299.51766967773</ele>
        <time>2016-04-03T07:17:29.000Z</time>
      </trkpt>
      <trkpt lat="46.97434" lon="3.33169">
        <ele>299.85736083984</ele>
        <time>2016-04-03T07:17:32.000Z</time>
      </trkpt>
      <trkpt lat="46.97436" lon="3.33168">
        <ele>300.17517089844</ele>
        <time>2016-04-03T07:17:34.000Z</time>
      </trkpt>
      <trkpt lat="46.97438" lon="3.33168">
        <ele>300.50103759766</ele>
        <time>2016-04-03T07:17:36.000Z</time>
      </trkpt>
      <trkpt lat="46.97441" lon="3.33169">
        <ele>300.82098388672</ele>
        <time>2016-04-03T07:17:39.000Z</time>
      </trkpt>
      <trkpt lat="46.97443" lon="3.33169">
        <ele>301.11480712891</ele>
        <time>2016-04-03T07:17:42.000Z</time>
      </trkpt>
      <trkpt lat="46.97448" lon="3.33169">
        <ele>301.37887573242</ele>
        <time>2016-04-03T07:17:45.000Z</time>
      </trkpt>
      <trkpt lat="46.97451" lon="3.33171">
        <ele>301.67056274414</ele>
        <time>2016-04-03T07:17:48.000Z</time>
      </trkpt>
      <trkpt lat="46.97453" lon="3.33171">
        <ele>301.96078491211</ele>
        <time>2016-04-03T07:17:50.000Z</time>
      </trkpt>
      <trkpt lat="46.97456" lon="3.33172">
        <ele>302.25115966797</ele>
        <time>2016-04-03T07:17:54.000Z</time>
      </trkpt>
      <trkpt lat="46.97459" lon="3.33176">
        <ele>302.56771850586</ele>
        <time>2016-04-03T07:17:56.000Z</time>
      </trkpt>
      <trkpt lat="46.97462" lon="3.33177">
        <ele>302.84573364258</ele>
        <time>2016-04-03T07:17:59.000Z</time>
      </trkpt>
      <trkpt lat="46.97464" lon="3.33178">
        <ele>303.08856201172</ele>
        <time>2016-04-03T07:18:01.000Z</time>
      </trkpt>
      <trkpt lat="46.97467" lon="3.3318">
        <ele>303.35345458984</ele>
        <time>2016-04-03T07:18:04.000Z</time>
      </trkpt>
      <trkpt lat="46.97469" lon="3.33184">
        <ele>303.60055541992</ele>
        <time>2016-04-03T07:18:06.000Z</time>
      </trkpt>
      <trkpt lat="46.9747" lon="3.33189">
        <ele>303.79827880859</ele>
        <time>2016-04-03T07:18:10.000Z</time>
      </trkpt>
      <trkpt lat="46.97472" lon="3.33191">
        <ele>303.98446655273</ele>
        <time>2016-04-03T07:18:12.000Z</time>
      </trkpt>
      <trkpt lat="46.97475" lon="3.33192">
        <ele>304.18173217773</ele>
        <time>2016-04-03T07:18:15.000Z</time>
      </trkpt>
      <trkpt lat="46.97478" lon="3.33194">
        <ele>304.37338256836</ele>
        <time>2016-04-03T07:18:18.000Z</time>
      </trkpt>
      <trkpt lat="46.9748" lon="3.33195">
        <ele>304.55395507812</ele>
        <time>2016-04-03T07:18:20.000Z</time>
      </trkpt>
      <trkpt lat="46.97483" lon="3.33195">
        <ele>304.77996826172</ele>
        <time>2016-04-03T07:18:23.000Z</time>
      </trkpt>
      <trkpt lat="46.97485" lon="3.33196">
        <ele>304.99664306641</ele>
        <time>2016-04-03T07:18:26.000Z</time>
      </trkpt>
      <trkpt lat="46.97486" lon="3.33197">
        <ele>305.19158935547</ele>
        <time>2016-04-03T07:18:28.000Z</time>
      </trkpt>
      <trkpt lat="46.97491" lon="3.33199">
        <ele>305.40270996094</ele>
        <time>2016-04-03T07:18:31.000Z</time>
      </trkpt>
      <trkpt lat="46.97493" lon="3.332">
        <ele>305.61846923828</ele>
        <time>2016-04-03T07:18:33.000Z</time>
      </trkpt>
      <trkpt lat="46.97498" lon="3.33201">
        <ele>305.84448242188</ele>
        <time>2016-04-03T07:18:36.000Z</time>
      </trkpt>
      <trkpt lat="46.975" lon="3.33202">
        <ele>306.08236694336</ele>
        <time>2016-04-03T07:18:38.000Z</time>
      </trkpt>
      <trkpt lat="46.97502" lon="3.33202">
        <ele>306.30682373047</ele>
        <time>2016-04-03T07:18:40.000Z</time>
      </trkpt>
      <trkpt lat="46.97505" lon="3.33203">
        <ele>306.48947143555</ele>
        <time>2016-04-03T07:18:42.000Z</time>
      </trkpt>
      <trkpt lat="46.97507" lon="3.33202">
        <ele>306.66058349609</ele>
        <time>2016-04-03T07:18:45.000Z</time>
      </trkpt>
      <trkpt lat="46.97512" lon="3.33201">
        <ele>306.81134033203</ele>
        <time>2016-04-03T07:18:48.000Z</time>
      </trkpt>
      <trkpt lat="46.97515" lon="3.33202">
        <ele>306.94650268555</ele>
        <time>2016-04-03T07:18:50.000Z</time>
      </trkpt>
      <trkpt lat="46.97517" lon="3.33202">
        <ele>307.09353637695</ele>
        <time>2016-04-03T07:18:52.000Z</time>
      </trkpt>
      <trkpt lat="46.97522" lon="3.33203">
        <ele>307.24884033203</ele>
        <time>2016-04-03T07:18:56.000Z</time>
      </trkpt>
      <trkpt lat="46.97525" lon="3.33203">
        <ele>307.41802978516</ele>
        <time>2016-04-03T07:18:58.000Z</time>
      </trkpt>
      <trkpt lat="46.9753" lon="3.33204">
        <ele>307.58096313477</ele>
        <time>2016-04-03T07:19:02.000Z</time>
      </trkpt>
      <trkpt lat="46.97533" lon="3.33205">
        <ele>307.74798583984</ele>
        <time>2016-04-03T07:19:03.000Z</time>
      </trkpt>
      <trkpt lat="46.97536" lon="3.33205">
        <ele>307.91650390625</ele>
        <time>2016-04-03T07:19:06.000Z</time>
      </trkpt>
      <trkpt lat="46.97539" lon="3.33205">
        <ele>308.0783996582</ele>
        <time>2016-04-03T07:19:09.000Z</time>
      </trkpt>
      <trkpt lat="46.97541" lon="3.33204">
        <ele>308.22937011719</ele>
        <time>2016-04-03T07:19:14.000Z</time>
      </trkpt>
      <trkpt lat="46.97545" lon="3.33204">
        <ele>308.36993408203</ele>
        <time>2016-04-03T07:19:16.000Z</time>
      </trkpt>
      <trkpt lat="46.97549" lon="3.33204">
        <ele>308.51843261719</ele>
        <time>2016-04-03T07:19:18.000Z</time>
      </trkpt>
      <trkpt lat="46.97554" lon="3.33206">
        <ele>308.69525146484</ele>
        <time>2016-04-03T07:19:21.000Z</time>
      </trkpt>
      <trkpt lat="46.97557" lon="3.33207">
        <ele>308.86529541016</ele>
        <time>2016-04-03T07:19:23.000Z</time>
      </trkpt>
      <trkpt lat="46.9756" lon="3.33207">
        <ele>309.03982543945</ele>
        <time>2016-04-03T07:19:26.000Z</time>
      </trkpt>
      <trkpt lat="46.97564" lon="3.33207">
        <ele>309.21453857422</ele>
        <time>2016-04-03T07:19:27.000Z</time>
      </trkpt>
      <trkpt lat="46.97566" lon="3.33207">
        <ele>309.38314819336</ele>
        <time>2016-04-03T07:19:29.000Z</time>
      </trkpt>
      <trkpt lat="46.97569" lon="3.33208">
        <ele>309.52066040039</ele>
        <time>2016-04-03T07:19:32.000Z</time>
      </trkpt>
      <trkpt lat="46.97571" lon="3.33208">
        <ele>309.65756225586</ele>
        <time>2016-04-03T07:19:35.000Z</time>
      </trkpt>
      <trkpt lat="46.97575" lon="3.33209">
        <ele>309.8037109375</ele>
        <time>2016-04-03T07:19:38.000Z</time>
      </trkpt>
      <trkpt lat="46.97577" lon="3.33208">
        <ele>309.93377685547</ele>
        <time>2016-04-03T07:19:40.000Z</time>
      </trkpt>
      <trkpt lat="46.9758" lon="3.33208">
        <ele>310.06268310547</ele>
        <time>2016-04-03T07:19:42.000Z</time>
      </trkpt>
      <trkpt lat="46.97584" lon="3.33209">
        <ele>310.20562744141</ele>
        <time>2016-04-03T07:19:45.000Z</time>
      </trkpt>
      <trkpt lat="46.97586" lon="3.33208">
        <ele>310.33203125</ele>
        <time>2016-04-03T07:19:47.000Z</time>
      </trkpt>
      <trkpt lat="46.97588" lon="3.33206">
        <ele>310.42654418945</ele>
        <time>2016-04-03T07:19:50.000Z</time>
      </trkpt>
      <trkpt lat="46.97591" lon="3.33203">
        <ele>310.5068359375</ele>
        <time>2016-04-03T07:19:53.000Z</time>
      </trkpt>
      <trkpt lat="46.97594" lon="3.33201">
        <ele>310.56524658203</ele>
        <time>2016-04-03T07:19:55.000Z</time>
      </trkpt>
      <trkpt lat="46.97596" lon="3.332">
        <ele>310.5908203125</ele>
        <time>2016-04-03T07:19:57.000Z</time>
      </trkpt>
      <trkpt lat="46.97601" lon="3.33198">
        <ele>310.62316894531</ele>
        <time>2016-04-03T07:20:00.000Z</time>
      </trkpt>
      <trkpt lat="46.97604" lon="3.33197">
        <ele>310.66418457031</ele>
        <time>2016-04-03T07:20:03.000Z</time>
      </trkpt>
      <trkpt lat="46.97607" lon="3.33197">
        <ele>310.70999145508</ele>
        <time>2016-04-03T07:20:06.000Z</time>
      </trkpt>
      <trkpt lat="46.97608" lon="3.33197">
        <ele>310.75720214844</ele>
        <time>2016-04-03T07:20:08.000Z</time>
      </trkpt>
      <trkpt lat="46.97612" lon="3.332">
        <ele>310.81881713867</ele>
        <time>2016-04-03T07:20:11.000Z</time>
      </trkpt>
      <trkpt lat="46.97614" lon="3.332">
        <ele>310.87573242188</ele>
        <time>2016-04-03T07:20:13.000Z</time>
      </trkpt>
      <trkpt lat="46.97617" lon="3.33202">
        <ele>310.93035888672</ele>
        <time>2016-04-03T07:20:16.000Z</time>
      </trkpt>
      <trkpt lat="46.97619" lon="3.33202">
        <ele>310.98614501953</ele>
        <time>2016-04-03T07:20:18.000Z</time>
      </trkpt>
      <trkpt lat="46.97623" lon="3.33203">
        <ele>311.05313110352</ele>
        <time>2016-04-03T07:20:20.000Z</time>
      </trkpt>
      <trkpt lat="46.97628" lon="3.33205">
        <ele>311.12286376953</ele>
        <time>2016-04-03T07:20:27.000Z</time>
      </trkpt>
      <trkpt lat="46.97632" lon="3.33209">
        <ele>311.19967651367</ele>
        <time>2016-04-03T07:20:27.000Z</time>
      </trkpt>
      <trkpt lat="46.97634" lon="3.33212">
        <ele>311.27532958984</ele>
        <time>2016-04-03T07:20:28.000Z</time>
      </trkpt>
      <trkpt lat="46.97636" lon="3.33214">
        <ele>311.34869384766</ele>
        <time>2016-04-03T07:20:30.000Z</time>
      </trkpt>
      <trkpt lat="46.97637" lon="3.33216">
        <ele>311.41192626953</ele>
        <time>2016-04-03T07:20:32.000Z</time>
      </trkpt>
      <trkpt lat="46.97638" lon="3.33215">
        <ele>311.45623779297</ele>
        <time>2016-04-03T07:20:36.000Z</time>
      </trkpt>
      <trkpt lat="46.9764" lon="3.33215">
        <ele>311.49029541016</ele>
        <time>2016-04-03T07:20:40.000Z</time>
      </trkpt>
      <trkpt lat="46.97646" lon="3.33219">
        <ele>311.53729248047</ele>
        <time>2016-04-03T07:20:44.000Z</time>
      </trkpt>
      <trkpt lat="46.97651" lon="3.3322">
        <ele>311.59320068359</ele>
        <time>2016-04-03T07:20:46.000Z</time>
      </trkpt>
      <trkpt lat="46.97655" lon="3.3322">
        <ele>311.65646362305</ele>
        <time>2016-04-03T07:20:51.000Z</time>
      </trkpt>
      <trkpt lat="46.97663" lon="3.33218">
        <ele>311.74136352539</ele>
        <time>2016-04-03T07:20:54.000Z</time>
      </trkpt>
      <trkpt lat="46.97665" lon="3.33219">
        <ele>311.82739257812</ele>
        <time>2016-04-03T07:20:56.000Z</time>
      </trkpt>
      <trkpt lat="46.9767" lon="3.3322">
        <ele>311.89547729492</ele>
        <time>2016-04-03T07:20:59.000Z</time>
      </trkpt>
      <trkpt lat="46.97673" lon="3.33221">
        <ele>311.94683837891</ele>
        <time>2016-04-03T07:21:02.000Z</time>
      </trkpt>
      <trkpt lat="46.97677" lon="3.3322">
        <ele>311.98358154297</ele>
        <time>2016-04-03T07:21:04.000Z</time>
      </trkpt>
      <trkpt lat="46.9768" lon="3.3322">
        <ele>311.99517822266</ele>
        <time>2016-04-03T07:21:06.000Z</time>
      </trkpt>
      <trkpt lat="46.97686" lon="3.33221">
        <ele>312</ele>
        <time>2016-04-03T07:21:09.000Z</time>
      </trkpt>
      <trkpt lat="46.97687" lon="3.33222">
        <ele>312</ele>
        <time>2016-04-03T07:21:11.000Z</time>
      </trkpt>
      <trkpt lat="46.97691" lon="3.33224">
        <ele>312</ele>
        <time>2016-04-03T07:21:14.000Z</time>
      </trkpt>
      <trkpt lat="46.97693" lon="3.33225">
        <ele>312</ele>
        <time>2016-04-03T07:21:18.000Z</time>
      </trkpt>
      <trkpt lat="46.97694" lon="3.33226">
        <ele>312</ele>
        <time>2016-04-03T07:21:19.000Z</time>
      </trkpt>
      <trkpt lat="46.97696" lon="3.33227">
        <ele>312</ele>
        <time>2016-04-03T07:21:22.000Z</time>
      </trkpt>
      <trkpt lat="46.977" lon="3.33228">
        <ele>312</ele>
        <time>2016-04-03T07:21:24.000Z</time>
      </trkpt>
      <trkpt lat="46.97704" lon="3.33228">
        <ele>312</ele>
        <time>2016-04-03T07:21:27.000Z</time>
      </trkpt>
      <trkpt lat="46.97705" lon="3.33228">
        <ele>312</ele>
        <time>2016-04-03T07:21:30.000Z</time>
      </trkpt>
      <trkpt lat="46.9771" lon="3.3323">
        <ele>312</ele>
        <time>2016-04-03T07:21:33.000Z</time>
      </trkpt>
      <trkpt lat="46.97713" lon="3.33231">
        <ele>312</ele>
        <time>2016-04-03T07:21:36.000Z</time>
      </trkpt>
      <trkpt lat="46.97717" lon="3.33232">
        <ele>312</ele>
        <time>2016-04-03T07:21:40.000Z</time>
      </trkpt>
      <trkpt lat="46.97719" lon="3.33231">
        <ele>312</ele>
        <time>2016-04-03T07:21:41.000Z</time>
      </trkpt>
      <trkpt lat="46.97722" lon="3.33231">
        <ele>312</ele>
        <time>2016-04-03T07:21:43.000Z</time>
      </trkpt>
      <trkpt lat="46.97725" lon="3.33233">
        <ele>312</ele>
        <time>2016-04-03T07:21:49.000Z</time>
      </trkpt>
      <trkpt lat="46.97728" lon="3.33234">
        <ele>312</ele>
        <time>2016-04-03T07:21:49.000Z</time>
      </trkpt>
      <trkpt lat="46.9773" lon="3.33235">
        <ele>312</ele>
        <time>2016-04-03T07:21:52.000Z</time>
      </trkpt>
      <trkpt lat="46.97732" lon="3.33237">
        <ele>312</ele>
        <time>2016-04-03T07:21:54.000Z</time>
      </trkpt>
      <trkpt lat="46.97739" lon="3.33238">
        <ele>312</ele>
        <time>2016-04-03T07:21:56.000Z</time>
      </trkpt>
      <trkpt lat="46.97741" lon="3.33238">
        <ele>312</ele>
        <time>2016-04-03T07:22:00.000Z</time>
      </trkpt>
      <trkpt lat="46.97743" lon="3.33237">
        <ele>312</ele>
        <time>2016-04-03T07:22:02.000Z</time>
      </trkpt>
      <trkpt lat="46.97744" lon="3.33237">
        <ele>312</ele>
        <time>2016-04-03T07:22:04.000Z</time>
      </trkpt>
      <trkpt lat="46.97746" lon="3.33238">
        <ele>312</ele>
        <time>2016-04-03T07:22:07.000Z</time>
      </trkpt>
      <trkpt lat="46.9775" lon="3.33238">
        <ele>312</ele>
        <time>2016-04-03T07:22:11.000Z</time>
      </trkpt>
      <trkpt lat="46.97753" lon="3.33237">
        <ele>311.98516845703</ele>
        <time>2016-04-03T07:22:13.000Z</time>
      </trkpt>
      <trkpt lat="46.9776" lon="3.33235">
        <ele>311.93515014648</ele>
        <time>2016-04-03T07:22:16.000Z</time>
      </trkpt>
      <trkpt lat="46.97766" lon="3.33233">
        <ele>311.85781860352</ele>
        <time>2016-04-03T07:22:19.000Z</time>
      </trkpt>
      <trkpt lat="46.9777" lon="3.33232">
        <ele>311.76092529297</ele>
        <time>2016-04-03T07:22:22.000Z</time>
      </trkpt>
      <trkpt lat="46.97775" lon="3.33228">
        <ele>311.640625</ele>
        <time>2016-04-03T07:22:25.000Z</time>
      </trkpt>
      <trkpt lat="46.97778" lon="3.33227">
        <ele>311.5234375</ele>
        <time>2016-04-03T07:22:27.000Z</time>
      </trkpt>
      <trkpt lat="46.97779" lon="3.33225">
        <ele>311.43359375</ele>
        <time>2016-04-03T07:22:30.000Z</time>
      </trkpt>
      <trkpt lat="46.97781" lon="3.33224">
        <ele>311.36328125</ele>
        <time>2016-04-03T07:22:33.000Z</time>
      </trkpt>
      <trkpt lat="46.97787" lon="3.3322">
        <ele>311.283203125</ele>
        <time>2016-04-03T07:22:36.000Z</time>
      </trkpt>
      <trkpt lat="46.97788" lon="3.33219">
        <ele>311.220703125</ele>
        <time>2016-04-03T07:22:38.000Z</time>
      </trkpt>
      <trkpt lat="46.97793" lon="3.33217">
        <ele>311.14453125</ele>
        <time>2016-04-03T07:22:42.000Z</time>
      </trkpt>
      <trkpt lat="46.97794" lon="3.33217">
        <ele>311.07421875</ele>
        <time>2016-04-03T07:22:44.000Z</time>
      </trkpt>
      <trkpt lat="46.978" lon="3.33212">
        <ele>310.984375</ele>
        <time>2016-04-03T07:22:47.000Z</time>
      </trkpt>
      <trkpt lat="46.978" lon="3.33211">
        <ele>310.919921875</ele>
        <time>2016-04-03T07:22:49.000Z</time>
      </trkpt>
      <trkpt lat="46.97806" lon="3.33205">
        <ele>310.833984375</ele>
        <time>2016-04-03T07:22:52.000Z</time>
      </trkpt>
      <trkpt lat="46.9781" lon="3.33202">
        <ele>310.75390625</ele>
        <time>2016-04-03T07:22:56.000Z</time>
      </trkpt>
      <trkpt lat="46.97812" lon="3.332">
        <ele>310.666015625</ele>
        <time>2016-04-03T07:22:57.000Z</time>
      </trkpt>
      <trkpt lat="46.97815" lon="3.33199">
        <ele>310.591796875</ele>
        <time>2016-04-03T07:23:01.000Z</time>
      </trkpt>
      <trkpt lat="46.97818" lon="3.33196">
        <ele>310.505859375</ele>
        <time>2016-04-03T07:23:02.000Z</time>
      </trkpt>
      <trkpt lat="46.9782" lon="3.33194">
        <ele>310.44140625</ele>
        <time>2016-04-03T07:23:04.000Z</time>
      </trkpt>
      <trkpt lat="46.97822" lon="3.33192">
        <ele>310.3828125</ele>
        <time>2016-04-03T07:23:07.000Z</time>
      </trkpt>
      <trkpt lat="46.97827" lon="3.33188">
        <ele>310.3125</ele>
        <time>2016-04-03T07:23:10.000Z</time>
      </trkpt>
      <trkpt lat="46.9783" lon="3.33187">
        <ele>310.23828125</ele>
        <time>2016-04-03T07:23:13.000Z</time>
      </trkpt>
      <trkpt lat="46.97835" lon="3.33186">
        <ele>310.14508056641</ele>
        <time>2016-04-03T07:23:16.000Z</time>
      </trkpt>
      <trkpt lat="46.97838" lon="3.33186">
        <ele>310.01995849609</ele>
        <time>2016-04-03T07:23:19.000Z</time>
      </trkpt>
      <trkpt lat="46.9784" lon="3.33185">
        <ele>309.88104248047</ele>
        <time>2016-04-03T07:23:21.000Z</time>
      </trkpt>
      <trkpt lat="46.97842" lon="3.33185">
        <ele>309.73089599609</ele>
        <time>2016-04-03T07:23:23.000Z</time>
      </trkpt>
      <trkpt lat="46.97846" lon="3.33186">
        <ele>309.55017089844</ele>
        <time>2016-04-03T07:23:26.000Z</time>
      </trkpt>
      <trkpt lat="46.97846" lon="3.33184">
        <ele>309.39752197266</ele>
        <time>2016-04-03T07:23:29.000Z</time>
      </trkpt>
      <trkpt lat="46.97849" lon="3.33184">
        <ele>309.25497436523</ele>
        <time>2016-04-03T07:23:31.000Z</time>
      </trkpt>
      <trkpt lat="46.97853" lon="3.33183">
        <ele>309.06860351562</ele>
        <time>2016-04-03T07:23:34.000Z</time>
      </trkpt>
      <trkpt lat="46.97858" lon="3.33182">
        <ele>308.84716796875</ele>
        <time>2016-04-03T07:23:37.000Z</time>
      </trkpt>
      <trkpt lat="46.97862" lon="3.33182">
        <ele>308.62921142578</ele>
        <time>2016-04-03T07:23:39.000Z</time>
      </trkpt>
      <trkpt lat="46.97866" lon="3.33181">
        <ele>308.35559082031</ele>
        <time>2016-04-03T07:23:42.000Z</time>
      </trkpt>
      <trkpt lat="46.97869" lon="3.33179">
        <ele>308.06793212891</ele>
        <time>2016-04-03T07:23:45.000Z</time>
      </trkpt>
      <trkpt lat="46.97871" lon="3.33179">
        <ele>307.82366943359</ele>
        <time>2016-04-03T07:23:48.000Z</time>
      </trkpt>
      <trkpt lat="46.97875" lon="3.33178">
        <ele>307.58828735352</ele>
        <time>2016-04-03T07:23:51.000Z</time>
      </trkpt>
      <trkpt lat="46.97879" lon="3.33177">
        <ele>307.34051513672</ele>
        <time>2016-04-03T07:23:54.000Z</time>
      </trkpt>
      <trkpt lat="46.9788" lon="3.33175">
        <ele>307.13726806641</ele>
        <time>2016-04-03T07:23:57.000Z</time>
      </trkpt>
      <trkpt lat="46.97883" lon="3.33172">
        <ele>306.92816162109</ele>
        <time>2016-04-03T07:24:00.000Z</time>
      </trkpt>
      <trkpt lat="46.97885" lon="3.33171">
        <ele>306.71563720703</ele>
        <time>2016-04-03T07:24:02.000Z</time>
      </trkpt>
      <trkpt lat="46.9789" lon="3.33171">
        <ele>306.48461914062</ele>
        <time>2016-04-03T07:24:05.000Z</time>
      </trkpt>
      <trkpt lat="46.97892" lon="3.3317">
        <ele>306.28121948242</ele>
        <time>2016-04-03T07:24:08.000Z</time>
      </trkpt>
      <trkpt lat="46.97894" lon="3.3317">
        <ele>306.07232666016</ele>
        <time>2016-04-03T07:24:11.000Z</time>
      </trkpt>
      <trkpt lat="46.97899" lon="3.33171">
        <ele>305.84002685547</ele>
        <time>2016-04-03T07:24:16.000Z</time>
      </trkpt>
      <trkpt lat="46.97901" lon="3.33171">
        <ele>305.60968017578</ele>
        <time>2016-04-03T07:24:20.000Z</time>
      </trkpt>
      <trkpt lat="46.97905" lon="3.3317">
        <ele>305.39959716797</ele>
        <time>2016-04-03T07:24:23.000Z</time>
      </trkpt>
      <trkpt lat="46.97908" lon="3.33171">
        <ele>305.18365478516</ele>
        <time>2016-04-03T07:24:26.000Z</time>
      </trkpt>
      <trkpt lat="46.97909" lon="3.33172">
        <ele>304.97177124023</ele>
        <time>2016-04-03T07:24:28.000Z</time>
      </trkpt>
      <trkpt lat="46.97914" lon="3.33177">
        <ele>304.78887939453</ele>
        <time>2016-04-03T07:24:31.000Z</time>
      </trkpt>
      <trkpt lat="46.97917" lon="3.33178">
        <ele>304.60296630859</ele>
        <time>2016-04-03T07:24:33.000Z</time>
      </trkpt>
      <trkpt lat="46.9792" lon="3.33179">
        <ele>304.44296264648</ele>
        <time>2016-04-03T07:24:36.000Z</time>
      </trkpt>
      <trkpt lat="46.97923" lon="3.3318">
        <ele>304.3046875</ele>
        <time>2016-04-03T07:24:38.000Z</time>
      </trkpt>
      <trkpt lat="46.97925" lon="3.33181">
        <ele>304.16485595703</ele>
        <time>2016-04-03T07:24:41.000Z</time>
      </trkpt>
      <trkpt lat="46.9793" lon="3.3318">
        <ele>304.0166015625</ele>
        <time>2016-04-03T07:24:44.000Z</time>
      </trkpt>
      <trkpt lat="46.97933" lon="3.3318">
        <ele>303.86755371094</ele>
        <time>2016-04-03T07:24:47.000Z</time>
      </trkpt>
      <trkpt lat="46.97936" lon="3.3318">
        <ele>303.72351074219</ele>
        <time>2016-04-03T07:24:50.000Z</time>
      </trkpt>
      <trkpt lat="46.97941" lon="3.33177">
        <ele>303.53430175781</ele>
        <time>2016-04-03T07:24:52.000Z</time>
      </trkpt>
      <trkpt lat="46.97945" lon="3.33176">
        <ele>303.31286621094</ele>
        <time>2016-04-03T07:24:54.000Z</time>
      </trkpt>
      <trkpt lat="46.97947" lon="3.33177">
        <ele>303.12854003906</ele>
        <time>2016-04-03T07:24:57.000Z</time>
      </trkpt>
      <trkpt lat="46.97951" lon="3.33178">
        <ele>302.94763183594</ele>
        <time>2016-04-03T07:25:00.000Z</time>
      </trkpt>
      <trkpt lat="46.97948" lon="3.33179">
        <ele>302.82080078125</ele>
        <time>2016-04-03T07:25:06.000Z</time>
      </trkpt>
      <trkpt lat="46.97951" lon="3.33178">
        <ele>302.72082519531</ele>
        <time>2016-04-03T07:25:09.000Z</time>
      </trkpt>
      <trkpt lat="46.97953" lon="3.33177">
        <ele>302.65698242188</ele>
        <time>2016-04-03T07:25:11.000Z</time>
      </trkpt>
      <trkpt lat="46.97956" lon="3.33177">
        <ele>302.57373046875</ele>
        <time>2016-04-03T07:25:14.000Z</time>
      </trkpt>
      <trkpt lat="46.9796" lon="3.33177">
        <ele>302.48779296875</ele>
        <time>2016-04-03T07:25:17.000Z</time>
      </trkpt>
      <trkpt lat="46.97965" lon="3.33176">
        <ele>302.31823730469</ele>
        <time>2016-04-03T07:25:20.000Z</time>
      </trkpt>
      <trkpt lat="46.97968" lon="3.33175">
        <ele>302.14453125</ele>
        <time>2016-04-03T07:25:22.000Z</time>
      </trkpt>
      <trkpt lat="46.97972" lon="3.33173">
        <ele>301.93737792969</ele>
        <time>2016-04-03T07:25:25.000Z</time>
      </trkpt>
      <trkpt lat="46.97976" lon="3.33173">
        <ele>301.72839355469</ele>
        <time>2016-04-03T07:25:27.000Z</time>
      </trkpt>
      <trkpt lat="46.97979" lon="3.33172">
        <ele>301.51379394531</ele>
        <time>2016-04-03T07:25:29.000Z</time>
      </trkpt>
      <trkpt lat="46.97981" lon="3.33172">
        <ele>301.34094238281</ele>
        <time>2016-04-03T07:25:31.000Z</time>
      </trkpt>
      <trkpt lat="46.97984" lon="3.33173">
        <ele>301.18005371094</ele>
        <time>2016-04-03T07:25:34.000Z</time>
      </trkpt>
      <trkpt lat="46.97987" lon="3.33173">
        <ele>301.04187011719</ele>
        <time>2016-04-03T07:25:37.000Z</time>
      </trkpt>
      <trkpt lat="46.97989" lon="3.33172">
        <ele>300.91198730469</ele>
        <time>2016-04-03T07:25:44.000Z</time>
      </trkpt>
      <trkpt lat="46.97993" lon="3.33171">
        <ele>300.77587890625</ele>
        <time>2016-04-03T07:25:48.000Z</time>
      </trkpt>
      <trkpt lat="46.97995" lon="3.33169">
        <ele>300.62060546875</ele>
        <time>2016-04-03T07:25:50.000Z</time>
      </trkpt>
      <trkpt lat="46.97999" lon="3.33168">
        <ele>300.45190429688</ele>
        <time>2016-04-03T07:25:53.000Z</time>
      </trkpt>
      <trkpt lat="46.98004" lon="3.33169">
        <ele>300.27520751953</ele>
        <time>2016-04-03T07:25:56.000Z</time>
      </trkpt>
      <trkpt lat="46.98006" lon="3.33168">
        <ele>300.10403442383</ele>
        <time>2016-04-03T07:25:58.000Z</time>
      </trkpt>
      <trkpt lat="46.98009" lon="3.33167">
        <ele>299.95468139648</ele>
        <time>2016-04-03T07:26:01.000Z</time>
      </trkpt>
      <trkpt lat="46.98012" lon="3.33168">
        <ele>299.81976318359</ele>
        <time>2016-04-03T07:26:03.000Z</time>
      </trkpt>
      <trkpt lat="46.98014" lon="3.33168">
        <ele>299.712890625</ele>
        <time>2016-04-03T07:26:05.000Z</time>
      </trkpt>
      <trkpt lat="46.98017" lon="3.33168">
        <ele>299.61242675781</ele>
        <time>2016-04-03T07:26:08.000Z</time>
      </trkpt>
      <trkpt lat="46.9802" lon="3.33168">
        <ele>299.51232910156</ele>
        <time>2016-04-03T07:26:11.000Z</time>
      </trkpt>
      <trkpt lat="46.98023" lon="3.33168">
        <ele>299.41015625</ele>
        <time>2016-04-03T07:26:14.000Z</time>
      </trkpt>
      <trkpt lat="46.98027" lon="3.33168">
        <ele>299.30017089844</ele>
        <time>2016-04-03T07:26:17.000Z</time>
      </trkpt>
      <trkpt lat="46.98031" lon="3.33168">
        <ele>299.16748046875</ele>
        <time>2016-04-03T07:26:20.000Z</time>
      </trkpt>
      <trkpt lat="46.98034" lon="3.33167">
        <ele>299.046875</ele>
        <time>2016-04-03T07:26:22.000Z</time>
      </trkpt>
      <trkpt lat="46.98037" lon="3.33169">
        <ele>298.9248046875</ele>
        <time>2016-04-03T07:26:26.000Z</time>
      </trkpt>
      <trkpt lat="46.98042" lon="3.3317">
        <ele>298.79943847656</ele>
        <time>2016-04-03T07:26:28.000Z</time>
      </trkpt>
      <trkpt lat="46.98045" lon="3.3317">
        <ele>298.68103027344</ele>
        <time>2016-04-03T07:26:31.000Z</time>
      </trkpt>
      <trkpt lat="46.98051" lon="3.33166">
        <ele>298.53466796875</ele>
        <time>2016-04-03T07:26:34.000Z</time>
      </trkpt>
      <trkpt lat="46.98056" lon="3.33166">
        <ele>298.36624145508</ele>
        <time>2016-04-03T07:26:37.000Z</time>
      </trkpt>
      <trkpt lat="46.98059" lon="3.33165">
        <ele>298.19320678711</ele>
        <time>2016-04-03T07:26:40.000Z</time>
      </trkpt>
      <trkpt lat="46.98065" lon="3.33166">
        <ele>298.00933837891</ele>
        <time>2016-04-03T07:26:44.000Z</time>
      </trkpt>
      <trkpt lat="46.98068" lon="3.33168">
        <ele>297.83184814453</ele>
        <time>2016-04-03T07:26:46.000Z</time>
      </trkpt>
      <trkpt lat="46.98071" lon="3.33168">
        <ele>297.69839477539</ele>
        <time>2016-04-03T07:26:47.000Z</time>
      </trkpt>
      <trkpt lat="46.98075" lon="3.33168">
        <ele>297.57592773438</ele>
        <time>2016-04-03T07:26:50.000Z</time>
      </trkpt>
      <trkpt lat="46.98077" lon="3.33167">
        <ele>297.45562744141</ele>
        <time>2016-04-03T07:26:53.000Z</time>
      </trkpt>
      <trkpt lat="46.98081" lon="3.33167">
        <ele>297.3505859375</ele>
        <time>2016-04-03T07:26:56.000Z</time>
      </trkpt>
      <trkpt lat="46.98084" lon="3.33168">
        <ele>297.24127197266</ele>
        <time>2016-04-03T07:26:59.000Z</time>
      </trkpt>
      <trkpt lat="46.98086" lon="3.3317">
        <ele>297.14410400391</ele>
        <time>2016-04-03T07:27:01.000Z</time>
      </trkpt>
      <trkpt lat="46.98088" lon="3.3317">
        <ele>297.06469726562</ele>
        <time>2016-04-03T07:27:04.000Z</time>
      </trkpt>
      <trkpt lat="46.9809" lon="3.33171">
        <ele>297.00527954102</ele>
        <time>2016-04-03T07:27:07.000Z</time>
      </trkpt>
      <trkpt lat="46.98092" lon="3.33173">
        <ele>296.96514892578</ele>
        <time>2016-04-03T07:27:10.000Z</time>
      </trkpt>
      <trkpt lat="46.98095" lon="3.33175">
        <ele>296.93475341797</ele>
        <time>2016-04-03T07:27:13.000Z</time>
      </trkpt>
      <trkpt lat="46.98096" lon="3.33176">
        <ele>296.90313720703</ele>
        <time>2016-04-03T07:27:15.000Z</time>
      </trkpt>
      <trkpt lat="46.98101" lon="3.33174">
        <ele>296.85061645508</ele>
        <time>2016-04-03T07:27:23.000Z</time>
      </trkpt>
      <trkpt lat="46.98103" lon="3.33174">
        <ele>296.79272460938</ele>
        <time>2016-04-03T07:27:27.000Z</time>
      </trkpt>
      <trkpt lat="46.98106" lon="3.33176">
        <ele>296.7255859375</ele>
        <time>2016-04-03T07:27:35.000Z</time>
      </trkpt>
      <trkpt lat="46.98111" lon="3.33179">
        <ele>296.64636230469</ele>
        <time>2016-04-03T07:27:45.000Z</time>
      </trkpt>
      <trkpt lat="46.98112" lon="3.33179">
        <ele>296.56832885742</ele>
        <time>2016-04-03T07:27:49.000Z</time>
      </trkpt>
      <trkpt lat="46.98113" lon="3.33179">
        <ele>296.51602172852</ele>
        <time>2016-04-03T07:27:51.000Z</time>
      </trkpt>
      <trkpt lat="46.98114" lon="3.33178">
        <ele>296.46542358398</ele>
        <time>2016-04-03T07:27:54.000Z</time>
      </trkpt>
      <trkpt lat="46.98114" lon="3.33178">
        <ele>296.46542358398</ele>
        <time>2016-04-03T07:28:14.000Z</time>
      </trkpt>
      <trkpt lat="46.98115" lon="3.3318">
        <ele>296.42678833008</ele>
        <time>2016-04-03T07:28:18.000Z</time>
      </trkpt>
      <trkpt lat="46.98116" lon="3.33181">
        <ele>296.40585327148</ele>
        <time>2016-04-03T07:28:21.000Z</time>
      </trkpt>
      <trkpt lat="46.98119" lon="3.33185">
        <ele>296.37606811523</ele>
        <time>2016-04-03T07:28:36.000Z</time>
      </trkpt>
      <trkpt lat="46.98118" lon="3.33182">
        <ele>296.35052490234</ele>
        <time>2016-04-03T07:28:51.000Z</time>
      </trkpt>
      <trkpt lat="46.98118" lon="3.33182">
        <ele>296.35052490234</ele>
        <time>2016-04-03T07:29:11.000Z</time>
      </trkpt>
      <trkpt lat="46.98109" lon="3.33168">
        <ele>296.35162353516</ele>
        <time>2016-04-03T07:29:16.000Z</time>
      </trkpt>
      <trkpt lat="46.98109" lon="3.33168">
        <ele>296.35162353516</ele>
        <time>2016-04-03T07:29:37.000Z</time>
      </trkpt>
      <trkpt lat="46.9811" lon="3.33167">
        <ele>296.34744262695</ele>
        <time>2016-04-03T07:29:56.000Z</time>
      </trkpt>
      <trkpt lat="46.98109" lon="3.33175">
        <ele>296.36953735352</ele>
        <time>2016-04-03T07:30:09.000Z</time>
      </trkpt>
      <trkpt lat="46.98109" lon="3.33176">
        <ele>296.40884399414</ele>
        <time>2016-04-03T07:30:12.000Z</time>
      </trkpt>
      <trkpt lat="46.9811" lon="3.33182">
        <ele>296.45910644531</ele>
        <time>2016-04-03T07:30:14.000Z</time>
      </trkpt>
      <trkpt lat="46.98111" lon="3.33188">
        <ele>296.49722290039</ele>
        <time>2016-04-03T07:30:17.000Z</time>
      </trkpt>
      <trkpt lat="46.98112" lon="3.33199">
        <ele>296.5632019043</ele>
        <time>2016-04-03T07:30:20.000Z</time>
      </trkpt>
      <trkpt lat="46.98113" lon="3.33203">
        <ele>296.60308837891</ele>
        <time>2016-04-03T07:30:22.000Z</time>
      </trkpt>
      <trkpt lat="46.98114" lon="3.33209">
        <ele>296.64343261719</ele>
        <time>2016-04-03T07:30:34.000Z</time>
      </trkpt>
      <trkpt lat="46.98113" lon="3.33213">
        <ele>296.69326782227</ele>
        <time>2016-04-03T07:30:37.000Z</time>
      </trkpt>
      <trkpt lat="46.98113" lon="3.33217">
        <ele>296.74761962891</ele>
        <time>2016-04-03T07:30:39.000Z</time>
      </trkpt>
      <trkpt lat="46.98108" lon="3.33217">
        <ele>296.82916259766</ele>
        <time>2016-04-03T07:30:54.000Z</time>
      </trkpt>
      <trkpt lat="46.98107" lon="3.33218">
        <ele>296.92352294922</ele>
        <time>2016-04-03T07:30:56.000Z</time>
      </trkpt>
      <trkpt lat="46.98105" lon="3.33219">
        <ele>297.03549194336</ele>
        <time>2016-04-03T07:30:59.000Z</time>
      </trkpt>
      <trkpt lat="46.98102" lon="3.3322">
        <ele>297.1569519043</ele>
        <time>2016-04-03T07:31:01.000Z</time>
      </trkpt>
      <trkpt lat="46.98098" lon="3.33224">
        <ele>297.31063842773</ele>
        <time>2016-04-03T07:31:04.000Z</time>
      </trkpt>
      <trkpt lat="46.98096" lon="3.33226">
        <ele>297.4475402832</ele>
        <time>2016-04-03T07:31:06.000Z</time>
      </trkpt>
      <trkpt lat="46.9809" lon="3.33227">
        <ele>297.63653564453</ele>
        <time>2016-04-03T07:31:10.000Z</time>
      </trkpt>
      <trkpt lat="46.98088" lon="3.33228">
        <ele>297.82476806641</ele>
        <time>2016-04-03T07:31:12.000Z</time>
      </trkpt>
      <trkpt lat="46.98084" lon="3.3323">
        <ele>298.03814697266</ele>
        <time>2016-04-03T07:31:26.000Z</time>
      </trkpt>
      <trkpt lat="46.98084" lon="3.33237">
        <ele>298.2409362793</ele>
        <time>2016-04-03T07:31:44.000Z</time>
      </trkpt>
      <trkpt lat="46.98084" lon="3.33237">
        <ele>298.2409362793</ele>
        <time>2016-04-03T07:32:05.000Z</time>
      </trkpt>
      <trkpt lat="46.98081" lon="3.33234">
        <ele>298.4260559082</ele>
        <time>2016-04-03T07:32:33.000Z</time>
      </trkpt>
      <trkpt lat="46.98075" lon="3.33232">
        <ele>298.57659912109</ele>
        <time>2016-04-03T07:32:36.000Z</time>
      </trkpt>
      <trkpt lat="46.98074" lon="3.33234">
        <ele>298.71990966797</ele>
        <time>2016-04-03T07:32:38.000Z</time>
      </trkpt>
      <trkpt lat="46.98071" lon="3.3324">
        <ele>298.86712646484</ele>
        <time>2016-04-03T07:32:42.000Z</time>
      </trkpt>
      <trkpt lat="46.98068" lon="3.33243">
        <ele>299.01599121094</ele>
        <time>2016-04-03T07:32:44.000Z</time>
      </trkpt>
      <trkpt lat="46.98069" lon="3.33242">
        <ele>299.13854980469</ele>
        <time>2016-04-03T07:32:52.000Z</time>
      </trkpt>
      <trkpt lat="46.98071" lon="3.33239">
        <ele>299.20190429688</ele>
        <time>2016-04-03T07:32:55.000Z</time>
      </trkpt>
      <trkpt lat="46.98074" lon="3.33237">
        <ele>299.22595214844</ele>
        <time>2016-04-03T07:32:57.000Z</time>
      </trkpt>
      <trkpt lat="46.98073" lon="3.33239">
        <ele>299.20776367188</ele>
        <time>2016-04-03T07:33:03.000Z</time>
      </trkpt>
      <trkpt lat="46.98073" lon="3.33239">
        <ele>299.20776367188</ele>
        <time>2016-04-03T07:33:23.000Z</time>
      </trkpt>
      <trkpt lat="46.98066" lon="3.33247">
        <ele>299.24340820312</ele>
        <time>2016-04-03T07:33:32.000Z</time>
      </trkpt>
      <trkpt lat="46.98051" lon="3.33256">
        <ele>299.39019775391</ele>
        <time>2016-04-03T07:33:38.000Z</time>
      </trkpt>
      <trkpt lat="46.98045" lon="3.33263">
        <ele>299.58755493164</ele>
        <time>2016-04-03T07:33:40.000Z</time>
      </trkpt>
      <trkpt lat="46.9804" lon="3.33276">
        <ele>299.7942199707</ele>
        <time>2016-04-03T07:33:43.000Z</time>
      </trkpt>
      <trkpt lat="46.98037" lon="3.33284">
        <ele>299.97210693359</ele>
        <time>2016-04-03T07:33:49.000Z</time>
      </trkpt>
      <trkpt lat="46.98035" lon="3.33288">
        <ele>300.05981445312</ele>
        <time>2016-04-03T07:33:49.000Z</time>
      </trkpt>
      <trkpt lat="46.98035" lon="3.3329">
        <ele>300.04827880859</ele>
        <time>2016-04-03T07:33:50.000Z</time>
      </trkpt>
      <trkpt lat="46.98033" lon="3.33294">
        <ele>300.01443481445</ele>
        <time>2016-04-03T07:33:52.000Z</time>
      </trkpt>
      <trkpt lat="46.98031" lon="3.33295">
        <ele>299.99615478516</ele>
        <time>2016-04-03T07:33:54.000Z</time>
      </trkpt>
      <trkpt lat="46.9803" lon="3.33296">
        <ele>299.99356079102</ele>
        <time>2016-04-03T07:33:57.000Z</time>
      </trkpt>
      <trkpt lat="46.98025" lon="3.33301">
        <ele>300.00527954102</ele>
        <time>2016-04-03T07:34:00.000Z</time>
      </trkpt>
      <trkpt lat="46.98023" lon="3.33302">
        <ele>300.02633666992</ele>
        <time>2016-04-03T07:34:04.000Z</time>
      </trkpt>
      <trkpt lat="46.98021" lon="3.33303">
        <ele>300.05435180664</ele>
        <time>2016-04-03T07:34:07.000Z</time>
      </trkpt>
      <trkpt lat="46.98018" lon="3.33305">
        <ele>300.08981323242</ele>
        <time>2016-04-03T07:34:10.000Z</time>
      </trkpt>
      <trkpt lat="46.98014" lon="3.33307">
        <ele>300.13739013672</ele>
        <time>2016-04-03T07:34:12.000Z</time>
      </trkpt>
      <trkpt lat="46.98012" lon="3.33308">
        <ele>300.17938232422</ele>
        <time>2016-04-03T07:34:14.000Z</time>
      </trkpt>
      <trkpt lat="46.98009" lon="3.33309">
        <ele>300.22378540039</ele>
        <time>2016-04-03T07:34:17.000Z</time>
      </trkpt>
      <trkpt lat="46.98006" lon="3.33311">
        <ele>300.26846313477</ele>
        <time>2016-04-03T07:34:20.000Z</time>
      </trkpt>
      <trkpt lat="46.98005" lon="3.33311">
        <ele>300.3117980957</ele>
        <time>2016-04-03T07:34:23.000Z</time>
      </trkpt>
      <trkpt lat="46.98004" lon="3.33309">
        <ele>300.36260986328</ele>
        <time>2016-04-03T07:34:29.000Z</time>
      </trkpt>
      <trkpt lat="46.98002" lon="3.33309">
        <ele>300.416015625</ele>
        <time>2016-04-03T07:34:32.000Z</time>
      </trkpt>
      <trkpt lat="46.97999" lon="3.33307">
        <ele>300.48352050781</ele>
        <time>2016-04-03T07:34:34.000Z</time>
      </trkpt>
      <trkpt lat="46.97998" lon="3.33307">
        <ele>300.55548095703</ele>
        <time>2016-04-03T07:34:37.000Z</time>
      </trkpt>
      <trkpt lat="46.97996" lon="3.33307">
        <ele>300.6305847168</ele>
        <time>2016-04-03T07:34:39.000Z</time>
      </trkpt>
      <trkpt lat="46.97995" lon="3.33308">
        <ele>300.68685913086</ele>
        <time>2016-04-03T07:34:42.000Z</time>
      </trkpt>
      <trkpt lat="46.97994" lon="3.33307">
        <ele>300.7444152832</ele>
        <time>2016-04-03T07:34:46.000Z</time>
      </trkpt>
      <trkpt lat="46.97993" lon="3.33306">
        <ele>300.78671264648</ele>
        <time>2016-04-03T07:34:49.000Z</time>
      </trkpt>
      <trkpt lat="46.9799" lon="3.33308">
        <ele>300.83114624023</ele>
        <time>2016-04-03T07:34:51.000Z</time>
      </trkpt>
      <trkpt lat="46.97987" lon="3.33311">
        <ele>300.86779785156</ele>
        <time>2016-04-03T07:34:54.000Z</time>
      </trkpt>
      <trkpt lat="46.97982" lon="3.33315">
        <ele>300.90463256836</ele>
        <time>2016-04-03T07:34:57.000Z</time>
      </trkpt>
      <trkpt lat="46.97979" lon="3.33318">
        <ele>300.93081665039</ele>
        <time>2016-04-03T07:34:59.000Z</time>
      </trkpt>
      <trkpt lat="46.97977" lon="3.33321">
        <ele>300.93951416016</ele>
        <time>2016-04-03T07:35:01.000Z</time>
      </trkpt>
      <trkpt lat="46.97972" lon="3.33328">
        <ele>300.91937255859</ele>
        <time>2016-04-03T07:35:04.000Z</time>
      </trkpt>
      <trkpt lat="46.97969" lon="3.33333">
        <ele>300.87786865234</ele>
        <time>2016-04-03T07:35:06.000Z</time>
      </trkpt>
      <trkpt lat="46.97968" lon="3.33334">
        <ele>300.82598876953</ele>
        <time>2016-04-03T07:35:08.000Z</time>
      </trkpt>
      <trkpt lat="46.97962" lon="3.3334">
        <ele>300.73788452148</ele>
        <time>2016-04-03T07:35:11.000Z</time>
      </trkpt>
      <trkpt lat="46.97957" lon="3.33344">
        <ele>300.63323974609</ele>
        <time>2016-04-03T07:35:14.000Z</time>
      </trkpt>
      <trkpt lat="46.97954" lon="3.33348">
        <ele>300.51916503906</ele>
        <time>2016-04-03T07:35:16.000Z</time>
      </trkpt>
      <trkpt lat="46.97953" lon="3.33349">
        <ele>300.41302490234</ele>
        <time>2016-04-03T07:35:19.000Z</time>
      </trkpt>
      <trkpt lat="46.97951" lon="3.33352">
        <ele>300.28387451172</ele>
        <time>2016-04-03T07:35:21.000Z</time>
      </trkpt>
      <trkpt lat="46.97949" lon="3.33354">
        <ele>300.17456054688</ele>
        <time>2016-04-03T07:35:24.000Z</time>
      </trkpt>
      <trkpt lat="46.97939" lon="3.33369">
        <ele>299.962890625</ele>
        <time>2016-04-03T07:35:28.000Z</time>
      </trkpt>
      <trkpt lat="46.97937" lon="3.33371">
        <ele>299.76873779297</ele>
        <time>2016-04-03T07:35:30.000Z</time>
      </trkpt>
      <trkpt lat="46.97935" lon="3.33371">
        <ele>299.58709716797</ele>
        <time>2016-04-03T07:35:34.000Z</time>
      </trkpt>
      <trkpt lat="46.97934" lon="3.33372">
        <ele>299.42904663086</ele>
        <time>2016-04-03T07:35:36.000Z</time>
      </trkpt>
      <trkpt lat="46.97933" lon="3.33373">
        <ele>299.28381347656</ele>
        <time>2016-04-03T07:35:39.000Z</time>
      </trkpt>
      <trkpt lat="46.97928" lon="3.33377">
        <ele>299.24151611328</ele>
        <time>2016-04-03T07:35:42.000Z</time>
      </trkpt>
      <trkpt lat="46.97924" lon="3.33378">
        <ele>299.21569824219</ele>
        <time>2016-04-03T07:35:45.000Z</time>
      </trkpt>
      <trkpt lat="46.97921" lon="3.33381">
        <ele>299.16198730469</ele>
        <time>2016-04-03T07:35:48.000Z</time>
      </trkpt>
      <trkpt lat="46.97918" lon="3.33383">
        <ele>299.10418701172</ele>
        <time>2016-04-03T07:35:51.000Z</time>
      </trkpt>
      <trkpt lat="46.97916" lon="3.33384">
        <ele>299.05389404297</ele>
        <time>2016-04-03T07:35:54.000Z</time>
      </trkpt>
      <trkpt lat="46.97911" lon="3.33387">
        <ele>299.02584838867</ele>
        <time>2016-04-03T07:35:56.000Z</time>
      </trkpt>
      <trkpt lat="46.979" lon="3.33398">
        <ele>298.95715332031</ele>
        <time>2016-04-03T07:36:15.000Z</time>
      </trkpt>
      <trkpt lat="46.97892" lon="3.33404">
        <ele>298.89205932617</ele>
        <time>2016-04-03T07:36:18.000Z</time>
      </trkpt>
      <trkpt lat="46.97891" lon="3.33405">
        <ele>298.84063720703</ele>
        <time>2016-04-03T07:36:22.000Z</time>
      </trkpt>
      <trkpt lat="46.97882" lon="3.33413">
        <ele>298.74731445312</ele>
        <time>2016-04-03T07:36:24.000Z</time>
      </trkpt>
      <trkpt lat="46.97881" lon="3.33415">
        <ele>298.63491821289</ele>
        <time>2016-04-03T07:36:26.000Z</time>
      </trkpt>
      <trkpt lat="46.97877" lon="3.33419">
        <ele>298.52557373047</ele>
        <time>2016-04-03T07:36:29.000Z</time>
      </trkpt>
      <trkpt lat="46.97875" lon="3.3342">
        <ele>298.43539428711</ele>
        <time>2016-04-03T07:36:31.000Z</time>
      </trkpt>
      <trkpt lat="46.97874" lon="3.3342">
        <ele>298.34893798828</ele>
        <time>2016-04-03T07:36:34.000Z</time>
      </trkpt>
      <trkpt lat="46.97873" lon="3.33421">
        <ele>298.30523681641</ele>
        <time>2016-04-03T07:36:37.000Z</time>
      </trkpt>
      <trkpt lat="46.97871" lon="3.33425">
        <ele>298.22836303711</ele>
        <time>2016-04-03T07:36:42.000Z</time>
      </trkpt>
      <trkpt lat="46.97873" lon="3.3343">
        <ele>298.10635375977</ele>
        <time>2016-04-03T07:36:52.000Z</time>
      </trkpt>
      <trkpt lat="46.97873" lon="3.33433">
        <ele>297.94573974609</ele>
        <time>2016-04-03T07:36:54.000Z</time>
      </trkpt>
      <trkpt lat="46.97873" lon="3.33433">
        <ele>297.94573974609</ele>
        <time>2016-04-03T07:37:15.000Z</time>
      </trkpt>
      <trkpt lat="46.97867" lon="3.33434">
        <ele>297.79141235352</ele>
        <time>2016-04-03T07:37:15.000Z</time>
      </trkpt>
      <trkpt lat="46.97867" lon="3.33434">
        <ele>297.79141235352</ele>
        <time>2016-04-03T07:37:36.000Z</time>
      </trkpt>
      <trkpt lat="46.97863" lon="3.33428">
        <ele>297.75457763672</ele>
        <time>2016-04-03T07:37:42.000Z</time>
      </trkpt>
      <trkpt lat="46.97863" lon="3.33428">
        <ele>297.75457763672</ele>
        <time>2016-04-03T07:38:02.000Z</time>
      </trkpt>
      <trkpt lat="46.97858" lon="3.33433">
        <ele>297.71572875977</ele>
        <time>2016-04-03T07:38:06.000Z</time>
      </trkpt>
      <trkpt lat="46.97855" lon="3.33438">
        <ele>297.69192504883</ele>
        <time>2016-04-03T07:38:11.000Z</time>
      </trkpt>
      <trkpt lat="46.97855" lon="3.33442">
        <ele>297.64721679688</ele>
        <time>2016-04-03T07:38:21.000Z</time>
      </trkpt>
      <trkpt lat="46.97854" lon="3.33449">
        <ele>297.46398925781</ele>
        <time>2016-04-03T07:38:36.000Z</time>
      </trkpt>
      <trkpt lat="46.97854" lon="3.33449">
        <ele>297.46398925781</ele>
        <time>2016-04-03T07:38:57.000Z</time>
      </trkpt>
      <trkpt lat="46.97853" lon="3.33449">
        <ele>297.17050170898</ele>
        <time>2016-04-03T07:38:59.000Z</time>
      </trkpt>
      <trkpt lat="46.97858" lon="3.33447">
        <ele>296.95220947266</ele>
        <time>2016-04-03T07:39:09.000Z</time>
      </trkpt>
      <trkpt lat="46.97866" lon="3.33442">
        <ele>296.83755493164</ele>
        <time>2016-04-03T07:39:12.000Z</time>
      </trkpt>
      <trkpt lat="46.97866" lon="3.33442">
        <ele>296.83755493164</ele>
        <time>2016-04-03T07:39:33.000Z</time>
      </trkpt>
      <trkpt lat="46.97867" lon="3.33432">
        <ele>296.92770385742</ele>
        <time>2016-04-03T07:39:36.000Z</time>
      </trkpt>
      <trkpt lat="46.97867" lon="3.33432">
        <ele>296.92770385742</ele>
        <time>2016-04-03T07:39:57.000Z</time>
      </trkpt>
      <trkpt lat="46.97873" lon="3.33431">
        <ele>297.13372802734</ele>
        <time>2016-04-03T07:40:01.000Z</time>
      </trkpt>
      <trkpt lat="46.97875" lon="3.33432">
        <ele>297.30319213867</ele>
        <time>2016-04-03T07:40:16.000Z</time>
      </trkpt>
      <trkpt lat="46.97877" lon="3.33437">
        <ele>297.37982177734</ele>
        <time>2016-04-03T07:40:32.000Z</time>
      </trkpt>
      <trkpt lat="46.97883" lon="3.33437">
        <ele>297.38571166992</ele>
        <time>2016-04-03T07:40:40.000Z</time>
      </trkpt>
      <trkpt lat="46.97883" lon="3.33437">
        <ele>297.38571166992</ele>
        <time>2016-04-03T07:41:01.000Z</time>
      </trkpt>
      <trkpt lat="46.97881" lon="3.33435">
        <ele>297.28094482422</ele>
        <time>2016-04-03T07:41:13.000Z</time>
      </trkpt>
      <trkpt lat="46.97876" lon="3.33437">
        <ele>297.17807006836</ele>
        <time>2016-04-03T07:41:16.000Z</time>
      </trkpt>
      <trkpt lat="46.97874" lon="3.33438">
        <ele>297.09460449219</ele>
        <time>2016-04-03T07:41:18.000Z</time>
      </trkpt>
      <trkpt lat="46.97874" lon="3.33437">
        <ele>297.10595703125</ele>
        <time>2016-04-03T07:41:29.000Z</time>
      </trkpt>
      <trkpt lat="46.97876" lon="3.33419">
        <ele>297.36492919922</ele>
        <time>2016-04-03T07:41:42.000Z</time>
      </trkpt>
      <trkpt lat="46.97878" lon="3.33413">
        <ele>297.66983032227</ele>
        <time>2016-04-03T07:41:45.000Z</time>
      </trkpt>
      <trkpt lat="46.97874" lon="3.33409">
        <ele>298.06439208984</ele>
        <time>2016-04-03T07:42:00.000Z</time>
      </trkpt>
      <trkpt lat="46.97874" lon="3.33409">
        <ele>298.06439208984</ele>
        <time>2016-04-03T07:42:21.000Z</time>
      </trkpt>
      <trkpt lat="46.97871" lon="3.3341">
        <ele>298.47021484375</ele>
        <time>2016-04-03T07:42:31.000Z</time>
      </trkpt>
      <trkpt lat="46.97866" lon="3.33412">
        <ele>298.87063598633</ele>
        <time>2016-04-03T07:42:43.000Z</time>
      </trkpt>
      <trkpt lat="46.97866" lon="3.33412">
        <ele>298.87063598633</ele>
        <time>2016-04-03T07:43:04.000Z</time>
      </trkpt>
      <trkpt lat="46.97865" lon="3.33416">
        <ele>298.99740600586</ele>
        <time>2016-04-03T07:43:05.000Z</time>
      </trkpt>
      <trkpt lat="46.97867" lon="3.33421">
        <ele>298.95452880859</ele>
        <time>2016-04-03T07:43:07.000Z</time>
      </trkpt>
      <trkpt lat="46.97868" lon="3.33423">
        <ele>298.80096435547</ele>
        <time>2016-04-03T07:43:10.000Z</time>
      </trkpt>
      <trkpt lat="46.97867" lon="3.33427">
        <ele>298.59176635742</ele>
        <time>2016-04-03T07:43:13.000Z</time>
      </trkpt>
      <trkpt lat="46.97867" lon="3.33433">
        <ele>298.2721862793</ele>
        <time>2016-04-03T07:43:14.000Z</time>
      </trkpt>
      <trkpt lat="46.97868" lon="3.33434">
        <ele>297.99261474609</ele>
        <time>2016-04-03T07:43:19.000Z</time>
      </trkpt>
      <trkpt lat="46.97868" lon="3.33434">
        <ele>297.99261474609</ele>
        <time>2016-04-03T07:43:40.000Z</time>
      </trkpt>
      <trkpt lat="46.97866" lon="3.33435">
        <ele>297.8037109375</ele>
        <time>2016-04-03T07:43:41.000Z</time>
      </trkpt>
      <trkpt lat="46.97865" lon="3.33434">
        <ele>297.65777587891</ele>
        <time>2016-04-03T07:43:46.000Z</time>
      </trkpt>
      <trkpt lat="46.97864" lon="3.33435">
        <ele>297.55703735352</ele>
        <time>2016-04-03T07:43:54.000Z</time>
      </trkpt>
      <trkpt lat="46.9786" lon="3.33439">
        <ele>297.50088500977</ele>
        <time>2016-04-03T07:44:00.000Z</time>
      </trkpt>
      <trkpt lat="46.97861" lon="3.33441">
        <ele>297.42150878906</ele>
        <time>2016-04-03T07:44:04.000Z</time>
      </trkpt>
      <trkpt lat="46.97861" lon="3.33443">
        <ele>297.31939697266</ele>
        <time>2016-04-03T07:44:06.000Z</time>
      </trkpt>
      <trkpt lat="46.97862" lon="3.33445">
        <ele>297.17681884766</ele>
        <time>2016-04-03T07:44:14.000Z</time>
      </trkpt>
      <trkpt lat="46.97862" lon="3.33442">
        <ele>297.06970214844</ele>
        <time>2016-04-03T07:44:16.000Z</time>
      </trkpt>
      <trkpt lat="46.97863" lon="3.33446">
        <ele>296.95587158203</ele>
        <time>2016-04-03T07:44:22.000Z</time>
      </trkpt>
      <trkpt lat="46.97863" lon="3.33449">
        <ele>296.83358764648</ele>
        <time>2016-04-03T07:44:25.000Z</time>
      </trkpt>
      <trkpt lat="46.97863" lon="3.33451">
        <ele>296.70321655273</ele>
        <time>2016-04-03T07:44:27.000Z</time>
      </trkpt>
      <trkpt lat="46.97862" lon="3.33454">
        <ele>296.55841064453</ele>
        <time>2016-04-03T07:44:30.000Z</time>
      </trkpt>
      <trkpt lat="46.97861" lon="3.33459">
        <ele>296.31420898438</ele>
        <time>2016-04-03T07:44:35.000Z</time>
      </trkpt>
      <trkpt lat="46.97861" lon="3.33462">
        <ele>296.0817565918</ele>
        <time>2016-04-03T07:44:39.000Z</time>
      </trkpt>
      <trkpt lat="46.97863" lon="3.33469">
        <ele>295.77890014648</ele>
        <time>2016-04-03T07:44:41.000Z</time>
      </trkpt>
      <trkpt lat="46.97865" lon="3.33473">
        <ele>295.45181274414</ele>
        <time>2016-04-03T07:44:44.000Z</time>
      </trkpt>
      <trkpt lat="46.97864" lon="3.33475">
        <ele>295.13458251953</ele>
        <time>2016-04-03T07:44:50.000Z</time>
      </trkpt>
      <trkpt lat="46.97867" lon="3.33481">
        <ele>294.80346679688</ele>
        <time>2016-04-03T07:44:50.000Z</time>
      </trkpt>
      <trkpt lat="46.97869" lon="3.33483">
        <ele>294.49871826172</ele>
        <time>2016-04-03T07:44:51.000Z</time>
      </trkpt>
      <trkpt lat="46.97871" lon="3.33486">
        <ele>294.27313232422</ele>
        <time>2016-04-03T07:44:53.000Z</time>
      </trkpt>
      <trkpt lat="46.97873" lon="3.33493">
        <ele>294.01901245117</ele>
        <time>2016-04-03T07:44:59.000Z</time>
      </trkpt>
      <trkpt lat="46.97873" lon="3.33494">
        <ele>293.77508544922</ele>
        <time>2016-04-03T07:44:59.000Z</time>
      </trkpt>
      <trkpt lat="46.97875" lon="3.335">
        <ele>293.54061889648</ele>
        <time>2016-04-03T07:45:01.000Z</time>
      </trkpt>
      <trkpt lat="46.97875" lon="3.33507">
        <ele>293.24713134766</ele>
        <time>2016-04-03T07:45:03.000Z</time>
      </trkpt>
      <trkpt lat="46.97874" lon="3.33513">
        <ele>292.91650390625</ele>
        <time>2016-04-03T07:45:07.000Z</time>
      </trkpt>
      <trkpt lat="46.97875" lon="3.33518">
        <ele>292.61013793945</ele>
        <time>2016-04-03T07:45:10.000Z</time>
      </trkpt>
      <trkpt lat="46.97878" lon="3.33524">
        <ele>292.26654052734</ele>
        <time>2016-04-03T07:45:17.000Z</time>
      </trkpt>
      <trkpt lat="46.97878" lon="3.33528">
        <ele>291.95184326172</ele>
        <time>2016-04-03T07:45:19.000Z</time>
      </trkpt>
      <trkpt lat="46.97876" lon="3.33533">
        <ele>291.64959716797</ele>
        <time>2016-04-03T07:45:22.000Z</time>
      </trkpt>
      <trkpt lat="46.97876" lon="3.33534">
        <ele>291.39712524414</ele>
        <time>2016-04-03T07:45:23.000Z</time>
      </trkpt>
      <trkpt lat="46.97874" lon="3.3354">
        <ele>291.13195800781</ele>
        <time>2016-04-03T07:45:25.000Z</time>
      </trkpt>
      <trkpt lat="46.97873" lon="3.33543">
        <ele>290.88070678711</ele>
        <time>2016-04-03T07:45:28.000Z</time>
      </trkpt>
      <trkpt lat="46.97873" lon="3.33547">
        <ele>290.62670898438</ele>
        <time>2016-04-03T07:45:31.000Z</time>
      </trkpt>
      <trkpt lat="46.97873" lon="3.33549">
        <ele>290.41485595703</ele>
        <time>2016-04-03T07:45:36.000Z</time>
      </trkpt>
      <trkpt lat="46.97873" lon="3.33556">
        <ele>290.14666748047</ele>
        <time>2016-04-03T07:45:39.000Z</time>
      </trkpt>
      <trkpt lat="46.97873" lon="3.33565">
        <ele>289.84155273438</ele>
        <time>2016-04-03T07:45:41.000Z</time>
      </trkpt>
      <trkpt lat="46.97875" lon="3.3357">
        <ele>289.53131103516</ele>
        <time>2016-04-03T07:45:43.000Z</time>
      </trkpt>
      <trkpt lat="46.97877" lon="3.33575">
        <ele>289.21353149414</ele>
        <time>2016-04-03T07:45:48.000Z</time>
      </trkpt>
      <trkpt lat="46.97878" lon="3.33577">
        <ele>288.89422607422</ele>
        <time>2016-04-03T07:45:49.000Z</time>
      </trkpt>
      <trkpt lat="46.97878" lon="3.33582">
        <ele>288.60803222656</ele>
        <time>2016-04-03T07:45:52.000Z</time>
      </trkpt>
      <trkpt lat="46.97879" lon="3.33588">
        <ele>288.34497070312</ele>
        <time>2016-04-03T07:45:55.000Z</time>
      </trkpt>
      <trkpt lat="46.9788" lon="3.33591">
        <ele>288.08728027344</ele>
        <time>2016-04-03T07:45:57.000Z</time>
      </trkpt>
      <trkpt lat="46.97881" lon="3.33594">
        <ele>287.85369873047</ele>
        <time>2016-04-03T07:46:01.000Z</time>
      </trkpt>
      <trkpt lat="46.97881" lon="3.33597">
        <ele>287.58856201172</ele>
        <time>2016-04-03T07:46:03.000Z</time>
      </trkpt>
      <trkpt lat="46.97881" lon="3.336">
        <ele>287.33538818359</ele>
        <time>2016-04-03T07:46:08.000Z</time>
      </trkpt>
      <trkpt lat="46.97882" lon="3.33604">
        <ele>287.11441040039</ele>
        <time>2016-04-03T07:46:12.000Z</time>
      </trkpt>
      <trkpt lat="46.97882" lon="3.33606">
        <ele>286.90170288086</ele>
        <time>2016-04-03T07:46:12.000Z</time>
      </trkpt>
      <trkpt lat="46.97882" lon="3.33614">
        <ele>286.60830688477</ele>
        <time>2016-04-03T07:46:19.000Z</time>
      </trkpt>
      <trkpt lat="46.97882" lon="3.33617">
        <ele>286.32025146484</ele>
        <time>2016-04-03T07:46:20.000Z</time>
      </trkpt>
      <trkpt lat="46.97882" lon="3.3362">
        <ele>286.02471923828</ele>
        <time>2016-04-03T07:46:24.000Z</time>
      </trkpt>
      <trkpt lat="46.97881" lon="3.33623">
        <ele>285.7473449707</ele>
        <time>2016-04-03T07:46:27.000Z</time>
      </trkpt>
      <trkpt lat="46.97881" lon="3.33629">
        <ele>285.41510009766</ele>
        <time>2016-04-03T07:46:34.000Z</time>
      </trkpt>
      <trkpt lat="46.97879" lon="3.33634">
        <ele>285.1116027832</ele>
        <time>2016-04-03T07:46:34.000Z</time>
      </trkpt>
      <trkpt lat="46.97882" lon="3.33638">
        <ele>284.80059814453</ele>
        <time>2016-04-03T07:46:37.000Z</time>
      </trkpt>
      <trkpt lat="46.97881" lon="3.33642">
        <ele>284.47393798828</ele>
        <time>2016-04-03T07:46:42.000Z</time>
      </trkpt>
      <trkpt lat="46.97881" lon="3.33646">
        <ele>284.12274169922</ele>
        <time>2016-04-03T07:46:42.000Z</time>
      </trkpt>
      <trkpt lat="46.97881" lon="3.33651">
        <ele>283.78668212891</ele>
        <time>2016-04-03T07:46:44.000Z</time>
      </trkpt>
      <trkpt lat="46.97883" lon="3.33654">
        <ele>283.50186157227</ele>
        <time>2016-04-03T07:46:46.000Z</time>
      </trkpt>
      <trkpt lat="46.97886" lon="3.33657">
        <ele>283.2216796875</ele>
        <time>2016-04-03T07:46:49.000Z</time>
      </trkpt>
      <trkpt lat="46.97886" lon="3.3366">
        <ele>282.96084594727</ele>
        <time>2016-04-03T07:46:51.000Z</time>
      </trkpt>
      <trkpt lat="46.97886" lon="3.33664">
        <ele>282.70498657227</ele>
        <time>2016-04-03T07:46:56.000Z</time>
      </trkpt>
      <trkpt lat="46.97884" lon="3.33666">
        <ele>282.48696899414</ele>
        <time>2016-04-03T07:46:58.000Z</time>
      </trkpt>
      <trkpt lat="46.97882" lon="3.3367">
        <ele>282.24139404297</ele>
        <time>2016-04-03T07:47:01.000Z</time>
      </trkpt>
      <trkpt lat="46.97882" lon="3.33675">
        <ele>281.95001220703</ele>
        <time>2016-04-03T07:47:06.000Z</time>
      </trkpt>
      <trkpt lat="46.97883" lon="3.3368">
        <ele>281.59979248047</ele>
        <time>2016-04-03T07:47:07.000Z</time>
      </trkpt>
      <trkpt lat="46.97883" lon="3.33683">
        <ele>281.26007080078</ele>
        <time>2016-04-03T07:47:11.000Z</time>
      </trkpt>
      <trkpt lat="46.97882" lon="3.33688">
        <ele>280.86865234375</ele>
        <time>2016-04-03T07:47:12.000Z</time>
      </trkpt>
      <trkpt lat="46.97883" lon="3.33692">
        <ele>280.46270751953</ele>
        <time>2016-04-03T07:47:15.000Z</time>
      </trkpt>
      <trkpt lat="46.97886" lon="3.33694">
        <ele>280.10931396484</ele>
        <time>2016-04-03T07:47:17.000Z</time>
      </trkpt>
      <trkpt lat="46.97887" lon="3.337">
        <ele>279.75372314453</ele>
        <time>2016-04-03T07:47:20.000Z</time>
      </trkpt>
      <trkpt lat="46.97887" lon="3.33705">
        <ele>279.34613037109</ele>
        <time>2016-04-03T07:47:23.000Z</time>
      </trkpt>
      <trkpt lat="46.97886" lon="3.33711">
        <ele>278.91473388672</ele>
        <time>2016-04-03T07:47:25.000Z</time>
      </trkpt>
      <trkpt lat="46.97886" lon="3.33714">
        <ele>278.50604248047</ele>
        <time>2016-04-03T07:47:28.000Z</time>
      </trkpt>
      <trkpt lat="46.97885" lon="3.33715">
        <ele>278.11791992188</ele>
        <time>2016-04-03T07:47:30.000Z</time>
      </trkpt>
      <trkpt lat="46.97887" lon="3.33716">
        <ele>277.81579589844</ele>
        <time>2016-04-03T07:47:32.000Z</time>
      </trkpt>
      <trkpt lat="46.97886" lon="3.3372">
        <ele>277.54336547852</ele>
        <time>2016-04-03T07:47:35.000Z</time>
      </trkpt>
      <trkpt lat="46.97886" lon="3.33724">
        <ele>277.30615234375</ele>
        <time>2016-04-03T07:47:38.000Z</time>
      </trkpt>
      <trkpt lat="46.97886" lon="3.33731">
        <ele>276.99884033203</ele>
        <time>2016-04-03T07:47:41.000Z</time>
      </trkpt>
      <trkpt lat="46.97886" lon="3.33737">
        <ele>276.60284423828</ele>
        <time>2016-04-03T07:47:57.000Z</time>
      </trkpt>
      <trkpt lat="46.97885" lon="3.33741">
        <ele>276.14151000977</ele>
        <time>2016-04-03T07:47:58.000Z</time>
      </trkpt>
      <trkpt lat="46.97886" lon="3.33746">
        <ele>275.6721496582</ele>
        <time>2016-04-03T07:48:02.000Z</time>
      </trkpt>
      <trkpt lat="46.97886" lon="3.33752">
        <ele>275.16195678711</ele>
        <time>2016-04-03T07:48:03.000Z</time>
      </trkpt>
      <trkpt lat="46.97886" lon="3.33757">
        <ele>274.6911315918</ele>
        <time>2016-04-03T07:48:05.000Z</time>
      </trkpt>
      <trkpt lat="46.97887" lon="3.33763">
        <ele>274.23699951172</ele>
        <time>2016-04-03T07:48:07.000Z</time>
      </trkpt>
      <trkpt lat="46.97887" lon="3.33769">
        <ele>273.78021240234</ele>
        <time>2016-04-03T07:48:09.000Z</time>
      </trkpt>
      <trkpt lat="46.97887" lon="3.33772">
        <ele>273.35168457031</ele>
        <time>2016-04-03T07:48:09.000Z</time>
      </trkpt>
      <trkpt lat="46.97887" lon="3.33774">
        <ele>272.99566650391</ele>
        <time>2016-04-03T07:48:11.000Z</time>
      </trkpt>
      <trkpt lat="46.97887" lon="3.33777">
        <ele>272.68447875977</ele>
        <time>2016-04-03T07:48:12.000Z</time>
      </trkpt>
      <trkpt lat="46.97887" lon="3.33779">
        <ele>272.4309387207</ele>
        <time>2016-04-03T07:48:13.000Z</time>
      </trkpt>
      <trkpt lat="46.97886" lon="3.33784">
        <ele>272.18270874023</ele>
        <time>2016-04-03T07:48:15.000Z</time>
      </trkpt>
      <trkpt lat="46.97886" lon="3.33788">
        <ele>271.92544555664</ele>
        <time>2016-04-03T07:48:18.000Z</time>
      </trkpt>
      <trkpt lat="46.97885" lon="3.33795">
        <ele>271.61346435547</ele>
        <time>2016-04-03T07:48:19.000Z</time>
      </trkpt>
      <trkpt lat="46.97884" lon="3.33801">
        <ele>271.24258422852</ele>
        <time>2016-04-03T07:48:25.000Z</time>
      </trkpt>
      <trkpt lat="46.97884" lon="3.33805">
        <ele>270.84490966797</ele>
        <time>2016-04-03T07:48:26.000Z</time>
      </trkpt>
      <trkpt lat="46.97884" lon="3.33811">
        <ele>270.43392944336</ele>
        <time>2016-04-03T07:48:31.000Z</time>
      </trkpt>
      <trkpt lat="46.97883" lon="3.33815">
        <ele>270.01266479492</ele>
        <time>2016-04-03T07:48:34.000Z</time>
      </trkpt>
      <trkpt lat="46.97883" lon="3.33818">
        <ele>269.64947509766</ele>
        <time>2016-04-03T07:48:35.000Z</time>
      </trkpt>
      <trkpt lat="46.97883" lon="3.33822">
        <ele>269.31079101562</ele>
        <time>2016-04-03T07:48:35.000Z</time>
      </trkpt>
      <trkpt lat="46.97885" lon="3.33825">
        <ele>268.9912109375</ele>
        <time>2016-04-03T07:48:38.000Z</time>
      </trkpt>
      <trkpt lat="46.97888" lon="3.33828">
        <ele>268.70590209961</ele>
        <time>2016-04-03T07:48:40.000Z</time>
      </trkpt>
      <trkpt lat="46.97888" lon="3.33831">
        <ele>268.43173217773</ele>
        <time>2016-04-03T07:48:42.000Z</time>
      </trkpt>
      <trkpt lat="46.97888" lon="3.33834">
        <ele>268.16046142578</ele>
        <time>2016-04-03T07:48:44.000Z</time>
      </trkpt>
      <trkpt lat="46.97888" lon="3.3384">
        <ele>267.85516357422</ele>
        <time>2016-04-03T07:48:47.000Z</time>
      </trkpt>
      <trkpt lat="46.97889" lon="3.33844">
        <ele>267.52789306641</ele>
        <time>2016-04-03T07:48:50.000Z</time>
      </trkpt>
      <trkpt lat="46.9789" lon="3.33851">
        <ele>267.12432861328</ele>
        <time>2016-04-03T07:48:53.000Z</time>
      </trkpt>
      <trkpt lat="46.9789" lon="3.33855">
        <ele>266.72137451172</ele>
        <time>2016-04-03T07:48:55.000Z</time>
      </trkpt>
      <trkpt lat="46.9789" lon="3.33859">
        <ele>266.28091430664</ele>
        <time>2016-04-03T07:48:58.000Z</time>
      </trkpt>
      <trkpt lat="46.97891" lon="3.33862">
        <ele>265.89825439453</ele>
        <time>2016-04-03T07:49:00.000Z</time>
      </trkpt>
      <trkpt lat="46.97892" lon="3.33866">
        <ele>265.51605224609</ele>
        <time>2016-04-03T07:49:05.000Z</time>
      </trkpt>
      <trkpt lat="46.97892" lon="3.33868">
        <ele>265.21978759766</ele>
        <time>2016-04-03T07:49:06.000Z</time>
      </trkpt>
      <trkpt lat="46.97892" lon="3.33871">
        <ele>264.93231201172</ele>
        <time>2016-04-03T07:49:09.000Z</time>
      </trkpt>
      <trkpt lat="46.97893" lon="3.33876">
        <ele>264.63220214844</ele>
        <time>2016-04-03T07:49:12.000Z</time>
      </trkpt>
      <trkpt lat="46.97893" lon="3.33881">
        <ele>264.30633544922</ele>
        <time>2016-04-03T07:49:15.000Z</time>
      </trkpt>
      <trkpt lat="46.97893" lon="3.33884">
        <ele>263.98944091797</ele>
        <time>2016-04-03T07:49:18.000Z</time>
      </trkpt>
      <trkpt lat="46.97892" lon="3.3389">
        <ele>263.62759399414</ele>
        <time>2016-04-03T07:49:25.000Z</time>
      </trkpt>
      <trkpt lat="46.97891" lon="3.33895">
        <ele>263.22625732422</ele>
        <time>2016-04-03T07:49:26.000Z</time>
      </trkpt>
      <trkpt lat="46.9789" lon="3.339">
        <ele>262.83871459961</ele>
        <time>2016-04-03T07:49:26.000Z</time>
      </trkpt>
      <trkpt lat="46.97889" lon="3.33904">
        <ele>262.46002197266</ele>
        <time>2016-04-03T07:49:28.000Z</time>
      </trkpt>
      <trkpt lat="46.97889" lon="3.33906">
        <ele>262.11834716797</ele>
        <time>2016-04-03T07:49:30.000Z</time>
      </trkpt>
      <trkpt lat="46.97887" lon="3.3391">
        <ele>261.79357910156</ele>
        <time>2016-04-03T07:49:32.000Z</time>
      </trkpt>
      <trkpt lat="46.97888" lon="3.33912">
        <ele>261.53405761719</ele>
        <time>2016-04-03T07:49:35.000Z</time>
      </trkpt>
      <trkpt lat="46.97889" lon="3.33919">
        <ele>261.23992919922</ele>
        <time>2016-04-03T07:49:37.000Z</time>
      </trkpt>
      <trkpt lat="46.97889" lon="3.33926">
        <ele>260.94586181641</ele>
        <time>2016-04-03T07:49:40.000Z</time>
      </trkpt>
      <trkpt lat="46.9789" lon="3.33929">
        <ele>260.63949584961</ele>
        <time>2016-04-03T07:49:42.000Z</time>
      </trkpt>
      <trkpt lat="46.97892" lon="3.33931">
        <ele>260.39147949219</ele>
        <time>2016-04-03T07:49:45.000Z</time>
      </trkpt>
      <trkpt lat="46.97894" lon="3.33936">
        <ele>260.10235595703</ele>
        <time>2016-04-03T07:49:47.000Z</time>
      </trkpt>
      <trkpt lat="46.97895" lon="3.33941">
        <ele>259.87243652344</ele>
        <time>2016-04-03T07:49:50.000Z</time>
      </trkpt>
      <trkpt lat="46.97895" lon="3.33947">
        <ele>259.65600585938</ele>
        <time>2016-04-03T07:49:53.000Z</time>
      </trkpt>
      <trkpt lat="46.97894" lon="3.33953">
        <ele>259.42413330078</ele>
        <time>2016-04-03T07:49:56.000Z</time>
      </trkpt>
      <trkpt lat="46.97894" lon="3.33956">
        <ele>259.18365478516</ele>
        <time>2016-04-03T07:49:59.000Z</time>
      </trkpt>
      <trkpt lat="46.97895" lon="3.3396">
        <ele>258.96377563477</ele>
        <time>2016-04-03T07:50:05.000Z</time>
      </trkpt>
      <trkpt lat="46.97895" lon="3.33963">
        <ele>258.76986694336</ele>
        <time>2016-04-03T07:50:06.000Z</time>
      </trkpt>
      <trkpt lat="46.97896" lon="3.33965">
        <ele>258.59674072266</ele>
        <time>2016-04-03T07:50:07.000Z</time>
      </trkpt>
      <trkpt lat="46.97897" lon="3.33966">
        <ele>258.46243286133</ele>
        <time>2016-04-03T07:50:10.000Z</time>
      </trkpt>
      <trkpt lat="46.97899" lon="3.33967">
        <ele>258.33560180664</ele>
        <time>2016-04-03T07:50:13.000Z</time>
      </trkpt>
      <trkpt lat="46.97898" lon="3.33968">
        <ele>258.24432373047</ele>
        <time>2016-04-03T07:50:16.000Z</time>
      </trkpt>
      <trkpt lat="46.97899" lon="3.33972">
        <ele>258.13891601562</ele>
        <time>2016-04-03T07:50:18.000Z</time>
      </trkpt>
      <trkpt lat="46.97898" lon="3.33974">
        <ele>258.04876708984</ele>
        <time>2016-04-03T07:50:28.000Z</time>
      </trkpt>
      <trkpt lat="46.97897" lon="3.33977">
        <ele>257.94879150391</ele>
        <time>2016-04-03T07:50:45.000Z</time>
      </trkpt>
      <trkpt lat="46.97895" lon="3.3398">
        <ele>257.85571289062</ele>
        <time>2016-04-03T07:50:48.000Z</time>
      </trkpt>
      <trkpt lat="46.97894" lon="3.33981">
        <ele>257.76962280273</ele>
        <time>2016-04-03T07:50:51.000Z</time>
      </trkpt>
      <trkpt lat="46.97891" lon="3.33986">
        <ele>257.6887512207</ele>
        <time>2016-04-03T07:50:55.000Z</time>
      </trkpt>
      <trkpt lat="46.9789" lon="3.33992">
        <ele>257.5852355957</ele>
        <time>2016-04-03T07:51:12.000Z</time>
      </trkpt>
      <trkpt lat="46.97891" lon="3.3399">
        <ele>257.51104736328</ele>
        <time>2016-04-03T07:51:18.000Z</time>
      </trkpt>
      <trkpt lat="46.97893" lon="3.33987">
        <ele>257.46646118164</ele>
        <time>2016-04-03T07:51:21.000Z</time>
      </trkpt>
      <trkpt lat="46.97894" lon="3.33987">
        <ele>257.41052246094</ele>
        <time>2016-04-03T07:51:23.000Z</time>
      </trkpt>
      <trkpt lat="46.97895" lon="3.33987">
        <ele>257.37432861328</ele>
        <time>2016-04-03T07:51:25.000Z</time>
      </trkpt>
      <trkpt lat="46.97898" lon="3.33988">
        <ele>257.35604858398</ele>
        <time>2016-04-03T07:51:28.000Z</time>
      </trkpt>
      <trkpt lat="46.979" lon="3.3399">
        <ele>257.29473876953</ele>
        <time>2016-04-03T07:51:30.000Z</time>
      </trkpt>
      <trkpt lat="46.97901" lon="3.33992">
        <ele>257.18887329102</ele>
        <time>2016-04-03T07:51:33.000Z</time>
      </trkpt>
      <trkpt lat="46.97902" lon="3.33993">
        <ele>257.080078125</ele>
        <time>2016-04-03T07:51:36.000Z</time>
      </trkpt>
      <trkpt lat="46.97905" lon="3.33994">
        <ele>256.95059204102</ele>
        <time>2016-04-03T07:51:39.000Z</time>
      </trkpt>
      <trkpt lat="46.97908" lon="3.33994">
        <ele>256.81982421875</ele>
        <time>2016-04-03T07:51:43.000Z</time>
      </trkpt>
      <trkpt lat="46.9791" lon="3.33993">
        <ele>256.72283935547</ele>
        <time>2016-04-03T07:51:45.000Z</time>
      </trkpt>
      <trkpt lat="46.97911" lon="3.33992">
        <ele>256.64996337891</ele>
        <time>2016-04-03T07:51:47.000Z</time>
      </trkpt>
      <trkpt lat="46.97912" lon="3.33992">
        <ele>256.59063720703</ele>
        <time>2016-04-03T07:51:50.000Z</time>
      </trkpt>
      <trkpt lat="46.97915" lon="3.3399">
        <ele>256.56460571289</ele>
        <time>2016-04-03T07:51:53.000Z</time>
      </trkpt>
      <trkpt lat="46.97917" lon="3.33989">
        <ele>256.55746459961</ele>
        <time>2016-04-03T07:51:55.000Z</time>
      </trkpt>
      <trkpt lat="46.97918" lon="3.33988">
        <ele>256.57299804688</ele>
        <time>2016-04-03T07:51:57.000Z</time>
      </trkpt>
      <trkpt lat="46.97919" lon="3.33989">
        <ele>256.61346435547</ele>
        <time>2016-04-03T07:52:01.000Z</time>
      </trkpt>
      <trkpt lat="46.97921" lon="3.33989">
        <ele>256.68719482422</ele>
        <time>2016-04-03T07:52:02.000Z</time>
      </trkpt>
      <trkpt lat="46.97922" lon="3.33989">
        <ele>256.76278686523</ele>
        <time>2016-04-03T07:52:05.000Z</time>
      </trkpt>
      <trkpt lat="46.97923" lon="3.33991">
        <ele>256.84112548828</ele>
        <time>2016-04-03T07:52:07.000Z</time>
      </trkpt>
      <trkpt lat="46.97925" lon="3.33996">
        <ele>256.88726806641</ele>
        <time>2016-04-03T07:52:10.000Z</time>
      </trkpt>
      <trkpt lat="46.97927" lon="3.33999">
        <ele>256.91729736328</ele>
        <time>2016-04-03T07:52:12.000Z</time>
      </trkpt>
      <trkpt lat="46.97931" lon="3.34003">
        <ele>256.9111328125</ele>
        <time>2016-04-03T07:52:15.000Z</time>
      </trkpt>
      <trkpt lat="46.97932" lon="3.34005">
        <ele>256.88507080078</ele>
        <time>2016-04-03T07:52:17.000Z</time>
      </trkpt>
      <trkpt lat="46.97934" lon="3.34008">
        <ele>256.84661865234</ele>
        <time>2016-04-03T07:52:20.000Z</time>
      </trkpt>
      <trkpt lat="46.97937" lon="3.34011">
        <ele>256.80923461914</ele>
        <time>2016-04-03T07:52:23.000Z</time>
      </trkpt>
      <trkpt lat="46.97938" lon="3.34013">
        <ele>256.75152587891</ele>
        <time>2016-04-03T07:52:25.000Z</time>
      </trkpt>
      <trkpt lat="46.9794" lon="3.34017">
        <ele>256.66668701172</ele>
        <time>2016-04-03T07:52:29.000Z</time>
      </trkpt>
      <trkpt lat="46.97942" lon="3.3402">
        <ele>256.57788085938</ele>
        <time>2016-04-03T07:52:30.000Z</time>
      </trkpt>
      <trkpt lat="46.97943" lon="3.34024">
        <ele>256.44815063477</ele>
        <time>2016-04-03T07:52:33.000Z</time>
      </trkpt>
      <trkpt lat="46.97943" lon="3.34031">
        <ele>256.23788452148</ele>
        <time>2016-04-03T07:52:36.000Z</time>
      </trkpt>
      <trkpt lat="46.97945" lon="3.34035">
        <ele>255.99287414551</ele>
        <time>2016-04-03T07:52:38.000Z</time>
      </trkpt>
      <trkpt lat="46.97945" lon="3.34042">
        <ele>255.67504882812</ele>
        <time>2016-04-03T07:52:41.000Z</time>
      </trkpt>
      <trkpt lat="46.97945" lon="3.3405">
        <ele>255.25093078613</ele>
        <time>2016-04-03T07:52:44.000Z</time>
      </trkpt>
      <trkpt lat="46.97945" lon="3.34051">
        <ele>254.85566711426</ele>
        <time>2016-04-03T07:52:46.000Z</time>
      </trkpt>
      <trkpt lat="46.97946" lon="3.34053">
        <ele>254.53495788574</ele>
        <time>2016-04-03T07:52:53.000Z</time>
      </trkpt>
      <trkpt lat="46.97948" lon="3.34057">
        <ele>254.27290344238</ele>
        <time>2016-04-03T07:52:54.000Z</time>
      </trkpt>
      <trkpt lat="46.9795" lon="3.34058">
        <ele>254.14526367188</ele>
        <time>2016-04-03T07:52:54.000Z</time>
      </trkpt>
      <trkpt lat="46.97953" lon="3.3406">
        <ele>254.18054199219</ele>
        <time>2016-04-03T07:52:55.000Z</time>
      </trkpt>
      <trkpt lat="46.97953" lon="3.3406">
        <ele>254.25495910645</ele>
        <time>2016-04-03T07:52:57.000Z</time>
      </trkpt>
      <trkpt lat="46.9796" lon="3.34061">
        <ele>254.51704406738</ele>
        <time>2016-04-03T07:53:00.000Z</time>
      </trkpt>
      <trkpt lat="46.97964" lon="3.34064">
        <ele>254.85433959961</ele>
        <time>2016-04-03T07:53:03.000Z</time>
      </trkpt>
      <trkpt lat="46.97966" lon="3.34064">
        <ele>255.17915344238</ele>
        <time>2016-04-03T07:53:06.000Z</time>
      </trkpt>
      <trkpt lat="46.97966" lon="3.34069">
        <ele>255.42070007324</ele>
        <time>2016-04-03T07:53:08.000Z</time>
      </trkpt>
      <trkpt lat="46.97966" lon="3.34072">
        <ele>255.59748840332</ele>
        <time>2016-04-03T07:53:11.000Z</time>
      </trkpt>
      <trkpt lat="46.97966" lon="3.34078">
        <ele>255.5433807373</ele>
        <time>2016-04-03T07:53:14.000Z</time>
      </trkpt>
      <trkpt lat="46.97966" lon="3.3408">
        <ele>255.38571166992</ele>
        <time>2016-04-03T07:53:16.000Z</time>
      </trkpt>
      <trkpt lat="46.97971" lon="3.3408">
        <ele>255.33743286133</ele>
        <time>2016-04-03T07:53:19.000Z</time>
      </trkpt>
      <trkpt lat="46.97976" lon="3.34085">
        <ele>255.46879577637</ele>
        <time>2016-04-03T07:53:29.000Z</time>
      </trkpt>
      <trkpt lat="46.97982" lon="3.34087">
        <ele>255.78999328613</ele>
        <time>2016-04-03T07:53:35.000Z</time>
      </trkpt>
      <trkpt lat="46.97987" lon="3.34089">
        <ele>256.31594848633</ele>
        <time>2016-04-03T07:53:43.000Z</time>
      </trkpt>
      <trkpt lat="46.97989" lon="3.34088">
        <ele>256.92071533203</ele>
        <time>2016-04-03T07:53:45.000Z</time>
      </trkpt>
      <trkpt lat="46.97989" lon="3.34083">
        <ele>257.45907592773</ele>
        <time>2016-04-03T07:54:02.000Z</time>
      </trkpt>
      <trkpt lat="46.97988" lon="3.34079">
        <ele>257.87704467773</ele>
        <time>2016-04-03T07:54:07.000Z</time>
      </trkpt>
      <trkpt lat="46.97988" lon="3.34076">
        <ele>258.17486572266</ele>
        <time>2016-04-03T07:54:11.000Z</time>
      </trkpt>
      <trkpt lat="46.97988" lon="3.34073">
        <ele>258.3544921875</ele>
        <time>2016-04-03T07:54:14.000Z</time>
      </trkpt>
      <trkpt lat="46.97987" lon="3.34068">
        <ele>258.50244140625</ele>
        <time>2016-04-03T07:54:16.000Z</time>
      </trkpt>
      <trkpt lat="46.9799" lon="3.34071">
        <ele>258.63238525391</ele>
        <time>2016-04-03T07:54:20.000Z</time>
      </trkpt>
      <trkpt lat="46.97994" lon="3.34078">
        <ele>258.81295776367</ele>
        <time>2016-04-03T07:54:29.000Z</time>
      </trkpt>
      <trkpt lat="46.97998" lon="3.34084">
        <ele>259.04708862305</ele>
        <time>2016-04-03T07:54:34.000Z</time>
      </trkpt>
      <trkpt lat="46.98" lon="3.34089">
        <ele>259.26651000977</ele>
        <time>2016-04-03T07:54:35.000Z</time>
      </trkpt>
      <trkpt lat="46.98001" lon="3.34091">
        <ele>259.43927001953</ele>
        <time>2016-04-03T07:54:38.000Z</time>
      </trkpt>
      <trkpt lat="46.98003" lon="3.34095">
        <ele>259.5207824707</ele>
        <time>2016-04-03T07:54:40.000Z</time>
      </trkpt>
      <trkpt lat="46.98005" lon="3.341">
        <ele>259.47198486328</ele>
        <time>2016-04-03T07:54:43.000Z</time>
      </trkpt>
      <trkpt lat="46.98008" lon="3.34105">
        <ele>259.26928710938</ele>
        <time>2016-04-03T07:54:46.000Z</time>
      </trkpt>
      <trkpt lat="46.98014" lon="3.3411">
        <ele>258.95877075195</ele>
        <time>2016-04-03T07:54:48.000Z</time>
      </trkpt>
      <trkpt lat="46.98016" lon="3.34113">
        <ele>258.60263061523</ele>
        <time>2016-04-03T07:54:51.000Z</time>
      </trkpt>
      <trkpt lat="46.98022" lon="3.34119">
        <ele>258.16265869141</ele>
        <time>2016-04-03T07:55:01.000Z</time>
      </trkpt>
      <trkpt lat="46.98026" lon="3.34122">
        <ele>257.72164916992</ele>
        <time>2016-04-03T07:55:04.000Z</time>
      </trkpt>
      <trkpt lat="46.9803" lon="3.34125">
        <ele>257.26751708984</ele>
        <time>2016-04-03T07:55:07.000Z</time>
      </trkpt>
      <trkpt lat="46.98033" lon="3.34127">
        <ele>256.84927368164</ele>
        <time>2016-04-03T07:55:10.000Z</time>
      </trkpt>
      <trkpt lat="46.98037" lon="3.34128">
        <ele>256.43051147461</ele>
        <time>2016-04-03T07:55:12.000Z</time>
      </trkpt>
      <trkpt lat="46.98041" lon="3.34128">
        <ele>256.10385131836</ele>
        <time>2016-04-03T07:55:20.000Z</time>
      </trkpt>
      <trkpt lat="46.98044" lon="3.3413">
        <ele>255.79447937012</ele>
        <time>2016-04-03T07:55:21.000Z</time>
      </trkpt>
      <trkpt lat="46.98045" lon="3.34132">
        <ele>255.52526855469</ele>
        <time>2016-04-03T07:55:22.000Z</time>
      </trkpt>
      <trkpt lat="46.98045" lon="3.34137">
        <ele>255.24055480957</ele>
        <time>2016-04-03T07:55:30.000Z</time>
      </trkpt>
      <trkpt lat="46.98047" lon="3.34143">
        <ele>254.88330078125</ele>
        <time>2016-04-03T07:55:33.000Z</time>
      </trkpt>
      <trkpt lat="46.98052" lon="3.34148">
        <ele>254.41195678711</ele>
        <time>2016-04-03T07:55:36.000Z</time>
      </trkpt>
      <trkpt lat="46.98057" lon="3.34152">
        <ele>253.85322570801</ele>
        <time>2016-04-03T07:55:38.000Z</time>
      </trkpt>
      <trkpt lat="46.98061" lon="3.34153">
        <ele>253.27949523926</ele>
        <time>2016-04-03T07:55:40.000Z</time>
      </trkpt>
      <trkpt lat="46.98063" lon="3.34154">
        <ele>252.72985839844</ele>
        <time>2016-04-03T07:55:41.000Z</time>
      </trkpt>
      <trkpt lat="46.98066" lon="3.34156">
        <ele>252.23635864258</ele>
        <time>2016-04-03T07:55:45.000Z</time>
      </trkpt>
      <trkpt lat="46.98067" lon="3.34158">
        <ele>251.84614562988</ele>
        <time>2016-04-03T07:55:46.000Z</time>
      </trkpt>
      <trkpt lat="46.98067" lon="3.34159">
        <ele>251.57205200195</ele>
        <time>2016-04-03T07:55:47.000Z</time>
      </trkpt>
      <trkpt lat="46.98069" lon="3.34161">
        <ele>251.30378723145</ele>
        <time>2016-04-03T07:55:49.000Z</time>
      </trkpt>
      <trkpt lat="46.98068" lon="3.34164">
        <ele>251.03092956543</ele>
        <time>2016-04-03T07:56:06.000Z</time>
      </trkpt>
      <trkpt lat="46.98067" lon="3.34173">
        <ele>250.68144226074</ele>
        <time>2016-04-03T07:56:10.000Z</time>
      </trkpt>
      <trkpt lat="46.98067" lon="3.34173">
        <ele>250.68144226074</ele>
        <time>2016-04-03T07:56:30.000Z</time>
      </trkpt>
      <trkpt lat="46.98071" lon="3.34171">
        <ele>250.35900878906</ele>
        <time>2016-04-03T07:57:06.000Z</time>
      </trkpt>
      <trkpt lat="46.98087" lon="3.34164">
        <ele>249.94731140137</ele>
        <time>2016-04-03T07:57:10.000Z</time>
      </trkpt>
      <trkpt lat="46.98088" lon="3.34161">
        <ele>249.62341308594</ele>
        <time>2016-04-03T07:57:12.000Z</time>
      </trkpt>
      <trkpt lat="46.98089" lon="3.3416">
        <ele>249.36604309082</ele>
        <time>2016-04-03T07:57:15.000Z</time>
      </trkpt>
      <trkpt lat="46.98092" lon="3.34157">
        <ele>249.28202819824</ele>
        <time>2016-04-03T07:57:18.000Z</time>
      </trkpt>
      <trkpt lat="46.98093" lon="3.34155">
        <ele>249.24507141113</ele>
        <time>2016-04-03T07:57:21.000Z</time>
      </trkpt>
      <trkpt lat="46.98096" lon="3.3415">
        <ele>249.35273742676</ele>
        <time>2016-04-03T07:57:28.000Z</time>
      </trkpt>
      <trkpt lat="46.98097" lon="3.3415">
        <ele>249.43154907227</ele>
        <time>2016-04-03T07:57:30.000Z</time>
      </trkpt>
      <trkpt lat="46.981" lon="3.34148">
        <ele>249.49491882324</ele>
        <time>2016-04-03T07:57:32.000Z</time>
      </trkpt>
      <trkpt lat="46.98103" lon="3.34147">
        <ele>249.50224304199</ele>
        <time>2016-04-03T07:57:35.000Z</time>
      </trkpt>
      <trkpt lat="46.98106" lon="3.34146">
        <ele>249.4674987793</ele>
        <time>2016-04-03T07:57:37.000Z</time>
      </trkpt>
      <trkpt lat="46.98108" lon="3.34141">
        <ele>249.44868469238</ele>
        <time>2016-04-03T07:57:39.000Z</time>
      </trkpt>
      <trkpt lat="46.9811" lon="3.34139">
        <ele>249.44006347656</ele>
        <time>2016-04-03T07:57:42.000Z</time>
      </trkpt>
      <trkpt lat="46.98112" lon="3.34136">
        <ele>249.44462585449</ele>
        <time>2016-04-03T07:57:45.000Z</time>
      </trkpt>
      <trkpt lat="46.98114" lon="3.34135">
        <ele>249.48616027832</ele>
        <time>2016-04-03T07:57:49.000Z</time>
      </trkpt>
      <trkpt lat="46.98117" lon="3.34132">
        <ele>249.54866027832</ele>
        <time>2016-04-03T07:57:52.000Z</time>
      </trkpt>
      <trkpt lat="46.9812" lon="3.34131">
        <ele>249.53483581543</ele>
        <time>2016-04-03T07:57:54.000Z</time>
      </trkpt>
      <trkpt lat="46.98125" lon="3.34128">
        <ele>249.46977233887</ele>
        <time>2016-04-03T07:57:58.000Z</time>
      </trkpt>
      <trkpt lat="46.98127" lon="3.34126">
        <ele>249.39608764648</ele>
        <time>2016-04-03T07:58:00.000Z</time>
      </trkpt>
      <trkpt lat="46.98131" lon="3.34121">
        <ele>249.33419799805</ele>
        <time>2016-04-03T07:58:03.000Z</time>
      </trkpt>
      <trkpt lat="46.98133" lon="3.34119">
        <ele>249.27151489258</ele>
        <time>2016-04-03T07:58:06.000Z</time>
      </trkpt>
      <trkpt lat="46.98135" lon="3.34117">
        <ele>249.22924804688</ele>
        <time>2016-04-03T07:58:08.000Z</time>
      </trkpt>
      <trkpt lat="46.98138" lon="3.34115">
        <ele>249.22277832031</ele>
        <time>2016-04-03T07:58:10.000Z</time>
      </trkpt>
      <trkpt lat="46.98139" lon="3.34113">
        <ele>249.22811889648</ele>
        <time>2016-04-03T07:58:12.000Z</time>
      </trkpt>
      <trkpt lat="46.9814" lon="3.3411">
        <ele>249.24577331543</ele>
        <time>2016-04-03T07:58:15.000Z</time>
      </trkpt>
      <trkpt lat="46.98143" lon="3.34107">
        <ele>249.26382446289</ele>
        <time>2016-04-03T07:58:18.000Z</time>
      </trkpt>
      <trkpt lat="46.98145" lon="3.34105">
        <ele>249.30117797852</ele>
        <time>2016-04-03T07:58:20.000Z</time>
      </trkpt>
      <trkpt lat="46.98147" lon="3.34102">
        <ele>249.36079406738</ele>
        <time>2016-04-03T07:58:23.000Z</time>
      </trkpt>
      <trkpt lat="46.98148" lon="3.34099">
        <ele>249.42839050293</ele>
        <time>2016-04-03T07:58:25.000Z</time>
      </trkpt>
      <trkpt lat="46.98149" lon="3.34097">
        <ele>249.48750305176</ele>
        <time>2016-04-03T07:58:27.000Z</time>
      </trkpt>
      <trkpt lat="46.98151" lon="3.34095">
        <ele>249.556640625</ele>
        <time>2016-04-03T07:58:29.000Z</time>
      </trkpt>
      <trkpt lat="46.98153" lon="3.34091">
        <ele>249.63467407227</ele>
        <time>2016-04-03T07:58:32.000Z</time>
      </trkpt>
      <trkpt lat="46.98154" lon="3.34088">
        <ele>249.72341918945</ele>
        <time>2016-04-03T07:58:35.000Z</time>
      </trkpt>
      <trkpt lat="46.98155" lon="3.34087">
        <ele>249.79267883301</ele>
        <time>2016-04-03T07:58:37.000Z</time>
      </trkpt>
      <trkpt lat="46.98158" lon="3.34083">
        <ele>249.85180664062</ele>
        <time>2016-04-03T07:58:40.000Z</time>
      </trkpt>
      <trkpt lat="46.98159" lon="3.34081">
        <ele>249.90397644043</ele>
        <time>2016-04-03T07:58:43.000Z</time>
      </trkpt>
      <trkpt lat="46.98163" lon="3.34077">
        <ele>249.91157531738</ele>
        <time>2016-04-03T07:58:45.000Z</time>
      </trkpt>
      <trkpt lat="46.98163" lon="3.34077">
        <ele>249.91157531738</ele>
        <time>2016-04-03T07:59:05.000Z</time>
      </trkpt>
      <trkpt lat="46.98169" lon="3.34075">
        <ele>249.81355285645</ele>
        <time>2016-04-03T07:59:10.000Z</time>
      </trkpt>
      <trkpt lat="46.98172" lon="3.34073">
        <ele>249.71240234375</ele>
        <time>2016-04-03T07:59:13.000Z</time>
      </trkpt>
      <trkpt lat="46.98175" lon="3.34069">
        <ele>249.60354614258</ele>
        <time>2016-04-03T07:59:16.000Z</time>
      </trkpt>
      <trkpt lat="46.98175" lon="3.34065">
        <ele>249.54049682617</ele>
        <time>2016-04-03T07:59:19.000Z</time>
      </trkpt>
      <trkpt lat="46.98175" lon="3.34062">
        <ele>249.55317687988</ele>
        <time>2016-04-03T07:59:21.000Z</time>
      </trkpt>
      <trkpt lat="46.98175" lon="3.34059">
        <ele>249.68989562988</ele>
        <time>2016-04-03T07:59:23.000Z</time>
      </trkpt>
      <trkpt lat="46.98174" lon="3.34057">
        <ele>249.861328125</ele>
        <time>2016-04-03T07:59:25.000Z</time>
      </trkpt>
      <trkpt lat="46.98174" lon="3.34055">
        <ele>250.07861328125</ele>
        <time>2016-04-03T07:59:27.000Z</time>
      </trkpt>
      <trkpt lat="46.98174" lon="3.34053">
        <ele>250.26667785645</ele>
        <time>2016-04-03T07:59:30.000Z</time>
      </trkpt>
      <trkpt lat="46.98174" lon="3.34053">
        <ele>250.26667785645</ele>
        <time>2016-04-03T07:59:50.000Z</time>
      </trkpt>
      <trkpt lat="46.98179" lon="3.34045">
        <ele>250.43449401855</ele>
        <time>2016-04-03T07:59:54.000Z</time>
      </trkpt>
      <trkpt lat="46.9818" lon="3.34043">
        <ele>250.55575561523</ele>
        <time>2016-04-03T07:59:56.000Z</time>
      </trkpt>
      <trkpt lat="46.98181" lon="3.34033">
        <ele>250.74353027344</ele>
        <time>2016-04-03T07:59:59.000Z</time>
      </trkpt>
      <trkpt lat="46.98182" lon="3.34029">
        <ele>250.9253692627</ele>
        <time>2016-04-03T08:00:01.000Z</time>
      </trkpt>
      <trkpt lat="46.98183" lon="3.34023">
        <ele>251.13430786133</ele>
        <time>2016-04-03T08:00:04.000Z</time>
      </trkpt>
      <trkpt lat="46.98184" lon="3.34021">
        <ele>251.31832885742</ele>
        <time>2016-04-03T08:00:06.000Z</time>
      </trkpt>
      <trkpt lat="46.98188" lon="3.34017">
        <ele>251.45864868164</ele>
        <time>2016-04-03T08:00:09.000Z</time>
      </trkpt>
      <trkpt lat="46.98194" lon="3.34007">
        <ele>251.4944152832</ele>
        <time>2016-04-03T08:00:26.000Z</time>
      </trkpt>
      <trkpt lat="46.98195" lon="3.34005">
        <ele>251.49084472656</ele>
        <time>2016-04-03T08:00:30.000Z</time>
      </trkpt>
      <trkpt lat="46.98198" lon="3.34001">
        <ele>251.41342163086</ele>
        <time>2016-04-03T08:00:35.000Z</time>
      </trkpt>
      <trkpt lat="46.98198" lon="3.33999">
        <ele>251.34338378906</ele>
        <time>2016-04-03T08:00:43.000Z</time>
      </trkpt>
      <trkpt lat="46.98196" lon="3.33996">
        <ele>251.38842773438</ele>
        <time>2016-04-03T08:00:47.000Z</time>
      </trkpt>
      <trkpt lat="46.98196" lon="3.33992">
        <ele>251.49877929688</ele>
        <time>2016-04-03T08:00:50.000Z</time>
      </trkpt>
      <trkpt lat="46.98196" lon="3.33991">
        <ele>251.64517211914</ele>
        <time>2016-04-03T08:00:52.000Z</time>
      </trkpt>
      <trkpt lat="46.98196" lon="3.33988">
        <ele>251.84432983398</ele>
        <time>2016-04-03T08:00:55.000Z</time>
      </trkpt>
      <trkpt lat="46.98195" lon="3.33987">
        <ele>252.0595703125</ele>
        <time>2016-04-03T08:00:58.000Z</time>
      </trkpt>
      <trkpt lat="46.98196" lon="3.33985">
        <ele>252.20108032227</ele>
        <time>2016-04-03T08:01:01.000Z</time>
      </trkpt>
      <trkpt lat="46.98198" lon="3.33981">
        <ele>252.30041503906</ele>
        <time>2016-04-03T08:01:07.000Z</time>
      </trkpt>
      <trkpt lat="46.98199" lon="3.33979">
        <ele>252.37805175781</ele>
        <time>2016-04-03T08:01:10.000Z</time>
      </trkpt>
      <trkpt lat="46.98201" lon="3.33976">
        <ele>252.41328430176</ele>
        <time>2016-04-03T08:01:13.000Z</time>
      </trkpt>
      <trkpt lat="46.98202" lon="3.33974">
        <ele>252.41891479492</ele>
        <time>2016-04-03T08:01:15.000Z</time>
      </trkpt>
      <trkpt lat="46.98203" lon="3.3397">
        <ele>252.44509887695</ele>
        <time>2016-04-03T08:01:18.000Z</time>
      </trkpt>
      <trkpt lat="46.98205" lon="3.33967">
        <ele>252.43496704102</ele>
        <time>2016-04-03T08:01:21.000Z</time>
      </trkpt>
      <trkpt lat="46.98207" lon="3.33964">
        <ele>252.40324401855</ele>
        <time>2016-04-03T08:01:24.000Z</time>
      </trkpt>
      <trkpt lat="46.98208" lon="3.33959">
        <ele>252.42361450195</ele>
        <time>2016-04-03T08:01:27.000Z</time>
      </trkpt>
      <trkpt lat="46.98209" lon="3.33956">
        <ele>252.45901489258</ele>
        <time>2016-04-03T08:01:29.000Z</time>
      </trkpt>
      <trkpt lat="46.98209" lon="3.33955">
        <ele>252.49446105957</ele>
        <time>2016-04-03T08:01:31.000Z</time>
      </trkpt>
      <trkpt lat="46.9821" lon="3.33951">
        <ele>252.5590057373</ele>
        <time>2016-04-03T08:01:33.000Z</time>
      </trkpt>
      <trkpt lat="46.9821" lon="3.33948">
        <ele>252.68574523926</ele>
        <time>2016-04-03T08:01:36.000Z</time>
      </trkpt>
      <trkpt lat="46.98211" lon="3.33946">
        <ele>252.76724243164</ele>
        <time>2016-04-03T08:01:39.000Z</time>
      </trkpt>
      <trkpt lat="46.98211" lon="3.33942">
        <ele>252.87666320801</ele>
        <time>2016-04-03T08:01:43.000Z</time>
      </trkpt>
      <trkpt lat="46.98211" lon="3.3394">
        <ele>252.98979187012</ele>
        <time>2016-04-03T08:01:45.000Z</time>
      </trkpt>
      <trkpt lat="46.98212" lon="3.33936">
        <ele>253.1058807373</ele>
        <time>2016-04-03T08:01:48.000Z</time>
      </trkpt>
      <trkpt lat="46.98213" lon="3.33934">
        <ele>253.16513061523</ele>
        <time>2016-04-03T08:01:50.000Z</time>
      </trkpt>
      <trkpt lat="46.98215" lon="3.33927">
        <ele>253.25407409668</ele>
        <time>2016-04-03T08:01:53.000Z</time>
      </trkpt>
      <trkpt lat="46.98216" lon="3.33925">
        <ele>253.31723022461</ele>
        <time>2016-04-03T08:01:55.000Z</time>
      </trkpt>
      <trkpt lat="46.98215" lon="3.33922">
        <ele>253.41638183594</ele>
        <time>2016-04-03T08:01:57.000Z</time>
      </trkpt>
      <trkpt lat="46.98215" lon="3.3392">
        <ele>253.53018188477</ele>
        <time>2016-04-03T08:02:00.000Z</time>
      </trkpt>
      <trkpt lat="46.98218" lon="3.33914">
        <ele>253.63223266602</ele>
        <time>2016-04-03T08:02:03.000Z</time>
      </trkpt>
      <trkpt lat="46.98219" lon="3.33913">
        <ele>253.69303894043</ele>
        <time>2016-04-03T08:02:06.000Z</time>
      </trkpt>
      <trkpt lat="46.98219" lon="3.33908">
        <ele>253.77697753906</ele>
        <time>2016-04-03T08:02:12.000Z</time>
      </trkpt>
      <trkpt lat="46.98219" lon="3.33907">
        <ele>253.83178710938</ele>
        <time>2016-04-03T08:02:15.000Z</time>
      </trkpt>
      <trkpt lat="46.98214" lon="3.33906">
        <ele>253.99060058594</ele>
        <time>2016-04-03T08:02:18.000Z</time>
      </trkpt>
      <trkpt lat="46.98216" lon="3.339">
        <ele>254.18086242676</ele>
        <time>2016-04-03T08:02:34.000Z</time>
      </trkpt>
      <trkpt lat="46.98218" lon="3.33899">
        <ele>254.35531616211</ele>
        <time>2016-04-03T08:02:45.000Z</time>
      </trkpt>
      <trkpt lat="46.98219" lon="3.33897">
        <ele>254.48303222656</ele>
        <time>2016-04-03T08:02:48.000Z</time>
      </trkpt>
      <trkpt lat="46.98221" lon="3.33893">
        <ele>254.56298828125</ele>
        <time>2016-04-03T08:02:50.000Z</time>
      </trkpt>
      <trkpt lat="46.98222" lon="3.3389">
        <ele>254.51708984375</ele>
        <time>2016-04-03T08:02:54.000Z</time>
      </trkpt>
      <trkpt lat="46.98222" lon="3.33888">
        <ele>254.4928894043</ele>
        <time>2016-04-03T08:02:58.000Z</time>
      </trkpt>
      <trkpt lat="46.98222" lon="3.33886">
        <ele>254.5270690918</ele>
        <time>2016-04-03T08:02:59.000Z</time>
      </trkpt>
      <trkpt lat="46.98222" lon="3.33882">
        <ele>254.60433959961</ele>
        <time>2016-04-03T08:03:01.000Z</time>
      </trkpt>
      <trkpt lat="46.98225" lon="3.33879">
        <ele>254.62776184082</ele>
        <time>2016-04-03T08:03:04.000Z</time>
      </trkpt>
      <trkpt lat="46.98228" lon="3.33876">
        <ele>254.60957336426</ele>
        <time>2016-04-03T08:03:07.000Z</time>
      </trkpt>
      <trkpt lat="46.98233" lon="3.3387">
        <ele>254.49189758301</ele>
        <time>2016-04-03T08:03:10.000Z</time>
      </trkpt>
      <trkpt lat="46.98234" lon="3.33867">
        <ele>254.35372924805</ele>
        <time>2016-04-03T08:03:12.000Z</time>
      </trkpt>
      <trkpt lat="46.98235" lon="3.33865">
        <ele>254.18481445312</ele>
        <time>2016-04-03T08:03:14.000Z</time>
      </trkpt>
      <trkpt lat="46.98237" lon="3.33858">
        <ele>254.11547851562</ele>
        <time>2016-04-03T08:03:19.000Z</time>
      </trkpt>
      <trkpt lat="46.98241" lon="3.33853">
        <ele>254.04513549805</ele>
        <time>2016-04-03T08:03:21.000Z</time>
      </trkpt>
      <trkpt lat="46.98244" lon="3.33849">
        <ele>254.00337219238</ele>
        <time>2016-04-03T08:03:25.000Z</time>
      </trkpt>
      <trkpt lat="46.98246" lon="3.33844">
        <ele>253.97575378418</ele>
        <time>2016-04-03T08:03:27.000Z</time>
      </trkpt>
      <trkpt lat="46.98247" lon="3.3384">
        <ele>253.97299194336</ele>
        <time>2016-04-03T08:03:29.000Z</time>
      </trkpt>
      <trkpt lat="46.98247" lon="3.33837">
        <ele>253.9821472168</ele>
        <time>2016-04-03T08:03:31.000Z</time>
      </trkpt>
      <trkpt lat="46.98246" lon="3.33832">
        <ele>254.11613464355</ele>
        <time>2016-04-03T08:03:34.000Z</time>
      </trkpt>
      <trkpt lat="46.98245" lon="3.33826">
        <ele>254.3938293457</ele>
        <time>2016-04-03T08:03:40.000Z</time>
      </trkpt>
      <trkpt lat="46.98246" lon="3.33825">
        <ele>254.66976928711</ele>
        <time>2016-04-03T08:03:43.000Z</time>
      </trkpt>
      <trkpt lat="46.98249" lon="3.33819">
        <ele>254.95809936523</ele>
        <time>2016-04-03T08:03:46.000Z</time>
      </trkpt>
      <trkpt lat="46.98251" lon="3.33816">
        <ele>255.22933959961</ele>
        <time>2016-04-03T08:03:48.000Z</time>
      </trkpt>
      <trkpt lat="46.98251" lon="3.33814">
        <ele>255.46139526367</ele>
        <time>2016-04-03T08:03:52.000Z</time>
      </trkpt>
      <trkpt lat="46.98254" lon="3.33807">
        <ele>255.67207336426</ele>
        <time>2016-04-03T08:03:55.000Z</time>
      </trkpt>
      <trkpt lat="46.98256" lon="3.33798">
        <ele>255.99349975586</ele>
        <time>2016-04-03T08:03:58.000Z</time>
      </trkpt>
      <trkpt lat="46.98256" lon="3.33793">
        <ele>256.34881591797</ele>
        <time>2016-04-03T08:04:00.000Z</time>
      </trkpt>
      <trkpt lat="46.98258" lon="3.3379">
        <ele>256.71697998047</ele>
        <time>2016-04-03T08:04:02.000Z</time>
      </trkpt>
      <trkpt lat="46.9826" lon="3.33785">
        <ele>257.06869506836</ele>
        <time>2016-04-03T08:04:06.000Z</time>
      </trkpt>
      <trkpt lat="46.98262" lon="3.33782">
        <ele>257.35028076172</ele>
        <time>2016-04-03T08:04:07.000Z</time>
      </trkpt>
      <trkpt lat="46.98265" lon="3.33777">
        <ele>257.53866577148</ele>
        <time>2016-04-03T08:04:10.000Z</time>
      </trkpt>
      <trkpt lat="46.98268" lon="3.33773">
        <ele>257.65115356445</ele>
        <time>2016-04-03T08:04:14.000Z</time>
      </trkpt>
      <trkpt lat="46.98269" lon="3.33771">
        <ele>257.75039672852</ele>
        <time>2016-04-03T08:04:15.000Z</time>
      </trkpt>
      <trkpt lat="46.9827" lon="3.33767">
        <ele>257.86444091797</ele>
        <time>2016-04-03T08:04:18.000Z</time>
      </trkpt>
      <trkpt lat="46.9827" lon="3.33764">
        <ele>258.01416015625</ele>
        <time>2016-04-03T08:04:21.000Z</time>
      </trkpt>
      <trkpt lat="46.98271" lon="3.33763">
        <ele>258.11981201172</ele>
        <time>2016-04-03T08:04:24.000Z</time>
      </trkpt>
      <trkpt lat="46.98273" lon="3.33762">
        <ele>258.20880126953</ele>
        <time>2016-04-03T08:04:26.000Z</time>
      </trkpt>
      <trkpt lat="46.98275" lon="3.33761">
        <ele>258.25820922852</ele>
        <time>2016-04-03T08:04:29.000Z</time>
      </trkpt>
      <trkpt lat="46.98276" lon="3.33759">
        <ele>258.26831054688</ele>
        <time>2016-04-03T08:04:31.000Z</time>
      </trkpt>
      <trkpt lat="46.9828" lon="3.33755">
        <ele>258.20101928711</ele>
        <time>2016-04-03T08:04:34.000Z</time>
      </trkpt>
      <trkpt lat="46.98284" lon="3.33751">
        <ele>258.10247802734</ele>
        <time>2016-04-03T08:04:37.000Z</time>
      </trkpt>
      <trkpt lat="46.98286" lon="3.33749">
        <ele>257.99011230469</ele>
        <time>2016-04-03T08:04:40.000Z</time>
      </trkpt>
      <trkpt lat="46.98288" lon="3.33748">
        <ele>257.89266967773</ele>
        <time>2016-04-03T08:04:43.000Z</time>
      </trkpt>
      <trkpt lat="46.9829" lon="3.33743">
        <ele>257.80670166016</ele>
        <time>2016-04-03T08:04:45.000Z</time>
      </trkpt>
      <trkpt lat="46.98291" lon="3.3374">
        <ele>257.76333618164</ele>
        <time>2016-04-03T08:04:47.000Z</time>
      </trkpt>
      <trkpt lat="46.98293" lon="3.33736">
        <ele>257.80184936523</ele>
        <time>2016-04-03T08:04:50.000Z</time>
      </trkpt>
      <trkpt lat="46.98294" lon="3.33732">
        <ele>257.90985107422</ele>
        <time>2016-04-03T08:04:53.000Z</time>
      </trkpt>
      <trkpt lat="46.98296" lon="3.3373">
        <ele>258.01153564453</ele>
        <time>2016-04-03T08:04:56.000Z</time>
      </trkpt>
      <trkpt lat="46.98298" lon="3.33727">
        <ele>258.11889648438</ele>
        <time>2016-04-03T08:04:58.000Z</time>
      </trkpt>
      <trkpt lat="46.98299" lon="3.33723">
        <ele>258.23129272461</ele>
        <time>2016-04-03T08:05:01.000Z</time>
      </trkpt>
      <trkpt lat="46.98299" lon="3.3372">
        <ele>258.34371948242</ele>
        <time>2016-04-03T08:05:03.000Z</time>
      </trkpt>
      <trkpt lat="46.983" lon="3.33717">
        <ele>258.4638671875</ele>
        <time>2016-04-03T08:05:06.000Z</time>
      </trkpt>
      <trkpt lat="46.98301" lon="3.33716">
        <ele>258.60815429688</ele>
        <time>2016-04-03T08:05:09.000Z</time>
      </trkpt>
      <trkpt lat="46.98302" lon="3.33714">
        <ele>258.74481201172</ele>
        <time>2016-04-03T08:05:11.000Z</time>
      </trkpt>
      <trkpt lat="46.98302" lon="3.33706">
        <ele>258.97735595703</ele>
        <time>2016-04-03T08:05:15.000Z</time>
      </trkpt>
      <trkpt lat="46.98303" lon="3.33701">
        <ele>259.24411010742</ele>
        <time>2016-04-03T08:05:18.000Z</time>
      </trkpt>
      <trkpt lat="46.98303" lon="3.33697">
        <ele>259.52261352539</ele>
        <time>2016-04-03T08:05:22.000Z</time>
      </trkpt>
      <trkpt lat="46.98304" lon="3.33686">
        <ele>259.96160888672</ele>
        <time>2016-04-03T08:05:25.000Z</time>
      </trkpt>
      <trkpt lat="46.98303" lon="3.33678">
        <ele>260.54824829102</ele>
        <time>2016-04-03T08:05:28.000Z</time>
      </trkpt>
      <trkpt lat="46.98302" lon="3.33672">
        <ele>261.14141845703</ele>
        <time>2016-04-03T08:05:33.000Z</time>
      </trkpt>
      <trkpt lat="46.98302" lon="3.33667">
        <ele>261.74005126953</ele>
        <time>2016-04-03T08:05:35.000Z</time>
      </trkpt>
      <trkpt lat="46.98303" lon="3.33663">
        <ele>262.31414794922</ele>
        <time>2016-04-03T08:05:39.000Z</time>
      </trkpt>
      <trkpt lat="46.98303" lon="3.33661">
        <ele>262.73217773438</ele>
        <time>2016-04-03T08:05:41.000Z</time>
      </trkpt>
      <trkpt lat="46.98305" lon="3.33657">
        <ele>263.00567626953</ele>
        <time>2016-04-03T08:05:43.000Z</time>
      </trkpt>
      <trkpt lat="46.98306" lon="3.33654">
        <ele>263.16778564453</ele>
        <time>2016-04-03T08:05:47.000Z</time>
      </trkpt>
      <trkpt lat="46.98309" lon="3.33648">
        <ele>263.25714111328</ele>
        <time>2016-04-03T08:05:51.000Z</time>
      </trkpt>
      <trkpt lat="46.9831" lon="3.33647">
        <ele>263.31161499023</ele>
        <time>2016-04-03T08:05:53.000Z</time>
      </trkpt>
      <trkpt lat="46.98312" lon="3.33645">
        <ele>263.34939575195</ele>
        <time>2016-04-03T08:05:54.000Z</time>
      </trkpt>
      <trkpt lat="46.98314" lon="3.33642">
        <ele>263.35955810547</ele>
        <time>2016-04-03T08:05:56.000Z</time>
      </trkpt>
      <trkpt lat="46.98317" lon="3.33636">
        <ele>263.39093017578</ele>
        <time>2016-04-03T08:06:01.000Z</time>
      </trkpt>
      <trkpt lat="46.98321" lon="3.33631">
        <ele>263.41351318359</ele>
        <time>2016-04-03T08:06:02.000Z</time>
      </trkpt>
      <trkpt lat="46.98323" lon="3.33629">
        <ele>263.42318725586</ele>
        <time>2016-04-03T08:06:05.000Z</time>
      </trkpt>
      <trkpt lat="46.98327" lon="3.33626">
        <ele>263.42352294922</ele>
        <time>2016-04-03T08:06:06.000Z</time>
      </trkpt>
      <trkpt lat="46.9833" lon="3.33624">
        <ele>263.42977905273</ele>
        <time>2016-04-03T08:06:07.000Z</time>
      </trkpt>
      <trkpt lat="46.98332" lon="3.33621">
        <ele>263.41134643555</ele>
        <time>2016-04-03T08:06:10.000Z</time>
      </trkpt>
      <trkpt lat="46.98333" lon="3.3362">
        <ele>263.39019775391</ele>
        <time>2016-04-03T08:06:12.000Z</time>
      </trkpt>
      <trkpt lat="46.98335" lon="3.33618">
        <ele>263.35943603516</ele>
        <time>2016-04-03T08:06:15.000Z</time>
      </trkpt>
      <trkpt lat="46.98337" lon="3.33616">
        <ele>263.32757568359</ele>
        <time>2016-04-03T08:06:18.000Z</time>
      </trkpt>
      <trkpt lat="46.98338" lon="3.33614">
        <ele>263.28964233398</ele>
        <time>2016-04-03T08:06:20.000Z</time>
      </trkpt>
      <trkpt lat="46.98339" lon="3.33613">
        <ele>263.21484375</ele>
        <time>2016-04-03T08:06:38.000Z</time>
      </trkpt>
      <trkpt lat="46.98341" lon="3.33615">
        <ele>263.07260131836</ele>
        <time>2016-04-03T08:06:41.000Z</time>
      </trkpt>
      <trkpt lat="46.98341" lon="3.33616">
        <ele>262.92959594727</ele>
        <time>2016-04-03T08:06:50.000Z</time>
      </trkpt>
      <trkpt lat="46.98341" lon="3.33616">
        <ele>262.92959594727</ele>
        <time>2016-04-03T08:07:11.000Z</time>
      </trkpt>
      <trkpt lat="46.9834" lon="3.33615">
        <ele>262.84289550781</ele>
        <time>2016-04-03T08:07:18.000Z</time>
      </trkpt>
      <trkpt lat="46.98339" lon="3.33614">
        <ele>262.80316162109</ele>
        <time>2016-04-03T08:07:20.000Z</time>
      </trkpt>
      <trkpt lat="46.9834" lon="3.33614">
        <ele>262.77090454102</ele>
        <time>2016-04-03T08:07:25.000Z</time>
      </trkpt>
      <trkpt lat="46.98341" lon="3.33614">
        <ele>262.77709960938</ele>
        <time>2016-04-03T08:07:29.000Z</time>
      </trkpt>
      <trkpt lat="46.9834" lon="3.33623">
        <ele>262.71832275391</ele>
        <time>2016-04-03T08:07:43.000Z</time>
      </trkpt>
      <trkpt lat="46.98339" lon="3.33624">
        <ele>262.62963867188</ele>
        <time>2016-04-03T08:08:00.000Z</time>
      </trkpt>
      <trkpt lat="46.98339" lon="3.33625">
        <ele>262.48077392578</ele>
        <time>2016-04-03T08:08:06.000Z</time>
      </trkpt>
      <trkpt lat="46.9834" lon="3.33625">
        <ele>262.32073974609</ele>
        <time>2016-04-03T08:08:16.000Z</time>
      </trkpt>
      <trkpt lat="46.98341" lon="3.33624">
        <ele>262.17669677734</ele>
        <time>2016-04-03T08:08:22.000Z</time>
      </trkpt>
      <trkpt lat="46.98341" lon="3.33625">
        <ele>262.13262939453</ele>
        <time>2016-04-03T08:08:25.000Z</time>
      </trkpt>
      <trkpt lat="46.98339" lon="3.33623">
        <ele>262.12878417969</ele>
        <time>2016-04-03T08:08:34.000Z</time>
      </trkpt>
      <trkpt lat="46.98339" lon="3.33621">
        <ele>262.1875</ele>
        <time>2016-04-03T08:08:44.000Z</time>
      </trkpt>
      <trkpt lat="46.98341" lon="3.33623">
        <ele>262.21157836914</ele>
        <time>2016-04-03T08:08:57.000Z</time>
      </trkpt>
      <trkpt lat="46.98342" lon="3.33623">
        <ele>262.20529174805</ele>
        <time>2016-04-03T08:09:00.000Z</time>
      </trkpt>
      <trkpt lat="46.98344" lon="3.33622">
        <ele>262.16543579102</ele>
        <time>2016-04-03T08:09:03.000Z</time>
      </trkpt>
      <trkpt lat="46.98345" lon="3.33622">
        <ele>262.04370117188</ele>
        <time>2016-04-03T08:09:06.000Z</time>
      </trkpt>
      <trkpt lat="46.98346" lon="3.3362">
        <ele>261.86175537109</ele>
        <time>2016-04-03T08:09:12.000Z</time>
      </trkpt>
      <trkpt lat="46.98348" lon="3.33618">
        <ele>261.71899414062</ele>
        <time>2016-04-03T08:09:25.000Z</time>
      </trkpt>
      <trkpt lat="46.98349" lon="3.33617">
        <ele>261.61810302734</ele>
        <time>2016-04-03T08:09:27.000Z</time>
      </trkpt>
      <trkpt lat="46.98353" lon="3.33613">
        <ele>261.48028564453</ele>
        <time>2016-04-03T08:09:30.000Z</time>
      </trkpt>
      <trkpt lat="46.98354" lon="3.33612">
        <ele>261.34707641602</ele>
        <time>2016-04-03T08:09:32.000Z</time>
      </trkpt>
      <trkpt lat="46.98354" lon="3.33614">
        <ele>261.21292114258</ele>
        <time>2016-04-03T08:09:40.000Z</time>
      </trkpt>
      <trkpt lat="46.98353" lon="3.33616">
        <ele>261.11459350586</ele>
        <time>2016-04-03T08:09:42.000Z</time>
      </trkpt>
      <trkpt lat="46.98351" lon="3.33614">
        <ele>261.10028076172</ele>
        <time>2016-04-03T08:09:55.000Z</time>
      </trkpt>
      <trkpt lat="46.98343" lon="3.33613">
        <ele>261.3828125</ele>
        <time>2016-04-03T08:10:05.000Z</time>
      </trkpt>
      <trkpt lat="46.98338" lon="3.33613">
        <ele>261.83715820312</ele>
        <time>2016-04-03T08:10:10.000Z</time>
      </trkpt>
      <trkpt lat="46.98337" lon="3.33614">
        <ele>262.31939697266</ele>
        <time>2016-04-03T08:10:13.000Z</time>
      </trkpt>
      <trkpt lat="46.98335" lon="3.33614">
        <ele>262.82525634766</ele>
        <time>2016-04-03T08:10:17.000Z</time>
      </trkpt>
      <trkpt lat="46.98334" lon="3.33614">
        <ele>263.28414916992</ele>
        <time>2016-04-03T08:10:26.000Z</time>
      </trkpt>
      <trkpt lat="46.98331" lon="3.3361">
        <ele>263.61810302734</ele>
        <time>2016-04-03T08:10:45.000Z</time>
      </trkpt>
      <trkpt lat="46.98332" lon="3.33607">
        <ele>263.83270263672</ele>
        <time>2016-04-03T08:11:06.000Z</time>
      </trkpt>
      <trkpt lat="46.98331" lon="3.33609">
        <ele>264.02017211914</ele>
        <time>2016-04-03T08:11:08.000Z</time>
      </trkpt>
      <trkpt lat="46.9833" lon="3.3361">
        <ele>264.17056274414</ele>
        <time>2016-04-03T08:11:12.000Z</time>
      </trkpt>
      <trkpt lat="46.98331" lon="3.33611">
        <ele>264.27508544922</ele>
        <time>2016-04-03T08:11:20.000Z</time>
      </trkpt>
      <trkpt lat="46.98333" lon="3.33614">
        <ele>264.19610595703</ele>
        <time>2016-04-03T08:11:25.000Z</time>
      </trkpt>
      <trkpt lat="46.98333" lon="3.33616">
        <ele>264.06378173828</ele>
        <time>2016-04-03T08:11:28.000Z</time>
      </trkpt>
      <trkpt lat="46.98336" lon="3.33621">
        <ele>263.79608154297</ele>
        <time>2016-04-03T08:11:40.000Z</time>
      </trkpt>
      <trkpt lat="46.98339" lon="3.33626">
        <ele>263.3662109375</ele>
        <time>2016-04-03T08:11:45.000Z</time>
      </trkpt>
      <trkpt lat="46.98347" lon="3.33632">
        <ele>262.66055297852</ele>
        <time>2016-04-03T08:11:58.000Z</time>
      </trkpt>
      <trkpt lat="46.98349" lon="3.33632">
        <ele>261.98559570312</ele>
        <time>2016-04-03T08:12:14.000Z</time>
      </trkpt>
      <trkpt lat="46.98348" lon="3.33632">
        <ele>261.35571289062</ele>
        <time>2016-04-03T08:12:34.000Z</time>
      </trkpt>
      <trkpt lat="46.98349" lon="3.33632">
        <ele>260.86096191406</ele>
        <time>2016-04-03T08:12:37.000Z</time>
      </trkpt>
      <trkpt lat="46.98349" lon="3.33632">
        <ele>260.86096191406</ele>
        <time>2016-04-03T08:12:58.000Z</time>
      </trkpt>
      <trkpt lat="46.98347" lon="3.3362">
        <ele>260.73391723633</ele>
        <time>2016-04-03T08:12:59.000Z</time>
      </trkpt>
      <trkpt lat="46.98343" lon="3.33617">
        <ele>261.05401611328</ele>
        <time>2016-04-03T08:13:12.000Z</time>
      </trkpt>
      <trkpt lat="46.98343" lon="3.33615">
        <ele>261.45230102539</ele>
        <time>2016-04-03T08:13:18.000Z</time>
      </trkpt>
      <trkpt lat="46.98341" lon="3.33615">
        <ele>261.85873413086</ele>
        <time>2016-04-03T08:13:27.000Z</time>
      </trkpt>
      <trkpt lat="46.98337" lon="3.33614">
        <ele>262.41604614258</ele>
        <time>2016-04-03T08:13:42.000Z</time>
      </trkpt>
      <trkpt lat="46.98339" lon="3.33613">
        <ele>262.71551513672</ele>
        <time>2016-04-03T08:13:54.000Z</time>
      </trkpt>
      <trkpt lat="46.98341" lon="3.33613">
        <ele>262.83123779297</ele>
        <time>2016-04-03T08:13:58.000Z</time>
      </trkpt>
      <trkpt lat="46.98346" lon="3.33612">
        <ele>262.77801513672</ele>
        <time>2016-04-03T08:14:02.000Z</time>
      </trkpt>
      <trkpt lat="46.98343" lon="3.3361">
        <ele>262.79223632812</ele>
        <time>2016-04-03T08:14:20.000Z</time>
      </trkpt>
      <trkpt lat="46.98344" lon="3.33612">
        <ele>262.63763427734</ele>
        <time>2016-04-03T08:14:26.000Z</time>
      </trkpt>
      <trkpt lat="46.98345" lon="3.33612">
        <ele>262.50018310547</ele>
        <time>2016-04-03T08:14:31.000Z</time>
      </trkpt>
      <trkpt lat="46.98343" lon="3.33614">
        <ele>262.42053222656</ele>
        <time>2016-04-03T08:14:48.000Z</time>
      </trkpt>
      <trkpt lat="46.98339" lon="3.33616">
        <ele>262.56146240234</ele>
        <time>2016-04-03T08:14:48.000Z</time>
      </trkpt>
      <trkpt lat="46.98339" lon="3.33616">
        <ele>262.56146240234</ele>
        <time>2016-04-03T08:15:09.000Z</time>
      </trkpt>
      <trkpt lat="46.9834" lon="3.33617">
        <ele>262.56228637695</ele>
        <time>2016-04-03T08:15:14.000Z</time>
      </trkpt>
      <trkpt lat="46.9834" lon="3.33619">
        <ele>262.56838989258</ele>
        <time>2016-04-03T08:15:25.000Z</time>
      </trkpt>
      <trkpt lat="46.98341" lon="3.33621">
        <ele>262.55728149414</ele>
        <time>2016-04-03T08:15:37.000Z</time>
      </trkpt>
      <trkpt lat="46.9834" lon="3.33623">
        <ele>262.50775146484</ele>
        <time>2016-04-03T08:15:53.000Z</time>
      </trkpt>
      <trkpt lat="46.98339" lon="3.33623">
        <ele>262.41241455078</ele>
        <time>2016-04-03T08:15:56.000Z</time>
      </trkpt>
      <trkpt lat="46.98338" lon="3.33622">
        <ele>262.39633178711</ele>
        <time>2016-04-03T08:16:01.000Z</time>
      </trkpt>
      <trkpt lat="46.98338" lon="3.33622">
        <ele>262.39633178711</ele>
        <time>2016-04-03T08:16:22.000Z</time>
      </trkpt>
      <trkpt lat="46.98343" lon="3.33624">
        <ele>262.25259399414</ele>
        <time>2016-04-03T08:16:23.000Z</time>
      </trkpt>
      <trkpt lat="46.98343" lon="3.33624">
        <ele>262.25259399414</ele>
        <time>2016-04-03T08:16:44.000Z</time>
      </trkpt>
      <trkpt lat="46.98346" lon="3.33624">
        <ele>262.08557128906</ele>
        <time>2016-04-03T08:16:44.000Z</time>
      </trkpt>
      <trkpt lat="46.98346" lon="3.33623">
        <ele>261.93341064453</ele>
        <time>2016-04-03T08:16:47.000Z</time>
      </trkpt>
      <trkpt lat="46.98346" lon="3.33623">
        <ele>261.93341064453</ele>
        <time>2016-04-03T08:17:08.000Z</time>
      </trkpt>
      <trkpt lat="46.98346" lon="3.33619">
        <ele>261.78970336914</ele>
        <time>2016-04-03T08:17:10.000Z</time>
      </trkpt>
      <trkpt lat="46.98343" lon="3.33619">
        <ele>261.70529174805</ele>
        <time>2016-04-03T08:17:20.000Z</time>
      </trkpt>
      <trkpt lat="46.98343" lon="3.33617">
        <ele>261.80590820312</ele>
        <time>2016-04-03T08:17:23.000Z</time>
      </trkpt>
      <trkpt lat="46.98342" lon="3.33623">
        <ele>261.91534423828</ele>
        <time>2016-04-03T08:17:39.000Z</time>
      </trkpt>
      <trkpt lat="46.98338" lon="3.33628">
        <ele>262.06884765625</ele>
        <time>2016-04-03T08:17:56.000Z</time>
      </trkpt>
      <trkpt lat="46.98336" lon="3.33627">
        <ele>262.22125244141</ele>
        <time>2016-04-03T08:17:58.000Z</time>
      </trkpt>
      <trkpt lat="46.98336" lon="3.33625">
        <ele>262.30722045898</ele>
        <time>2016-04-03T08:18:03.000Z</time>
      </trkpt>
      <trkpt lat="46.98336" lon="3.33623">
        <ele>262.40692138672</ele>
        <time>2016-04-03T08:18:06.000Z</time>
      </trkpt>
      <trkpt lat="46.98337" lon="3.33622">
        <ele>262.5549621582</ele>
        <time>2016-04-03T08:18:10.000Z</time>
      </trkpt>
      <trkpt lat="46.98339" lon="3.33622">
        <ele>262.61651611328</ele>
        <time>2016-04-03T08:18:12.000Z</time>
      </trkpt>
      <trkpt lat="46.98341" lon="3.33621">
        <ele>262.57141113281</ele>
        <time>2016-04-03T08:18:14.000Z</time>
      </trkpt>
      <trkpt lat="46.98343" lon="3.33622">
        <ele>262.4345703125</ele>
        <time>2016-04-03T08:18:17.000Z</time>
      </trkpt>
      <trkpt lat="46.98344" lon="3.33622">
        <ele>262.22744750977</ele>
        <time>2016-04-03T08:18:22.000Z</time>
      </trkpt>
      <trkpt lat="46.98346" lon="3.33623">
        <ele>261.97918701172</ele>
        <time>2016-04-03T08:18:27.000Z</time>
      </trkpt>
      <trkpt lat="46.98348" lon="3.33623">
        <ele>261.71484375</ele>
        <time>2016-04-03T08:18:31.000Z</time>
      </trkpt>
      <trkpt lat="46.9835" lon="3.33622">
        <ele>261.47412109375</ele>
        <time>2016-04-03T08:18:34.000Z</time>
      </trkpt>
      <trkpt lat="46.98352" lon="3.33621">
        <ele>261.23104858398</ele>
        <time>2016-04-03T08:18:45.000Z</time>
      </trkpt>
      <trkpt lat="46.98354" lon="3.33622">
        <ele>260.97686767578</ele>
        <time>2016-04-03T08:18:49.000Z</time>
      </trkpt>
      <trkpt lat="46.98355" lon="3.33623">
        <ele>260.72653198242</ele>
        <time>2016-04-03T08:18:51.000Z</time>
      </trkpt>
      <trkpt lat="46.98358" lon="3.33625">
        <ele>260.44644165039</ele>
        <time>2016-04-03T08:18:53.000Z</time>
      </trkpt>
      <trkpt lat="46.98361" lon="3.33627">
        <ele>260.08862304688</ele>
        <time>2016-04-03T08:18:56.000Z</time>
      </trkpt>
      <trkpt lat="46.98364" lon="3.3363">
        <ele>259.69073486328</ele>
        <time>2016-04-03T08:18:59.000Z</time>
      </trkpt>
      <trkpt lat="46.98367" lon="3.33631">
        <ele>259.24789428711</ele>
        <time>2016-04-03T08:19:02.000Z</time>
      </trkpt>
      <trkpt lat="46.98369" lon="3.33632">
        <ele>258.78729248047</ele>
        <time>2016-04-03T08:19:04.000Z</time>
      </trkpt>
      <trkpt lat="46.98372" lon="3.33634">
        <ele>258.31823730469</ele>
        <time>2016-04-03T08:19:07.000Z</time>
      </trkpt>
      <trkpt lat="46.98373" lon="3.33636">
        <ele>257.92471313477</ele>
        <time>2016-04-03T08:19:09.000Z</time>
      </trkpt>
      <trkpt lat="46.98374" lon="3.33637">
        <ele>257.60043334961</ele>
        <time>2016-04-03T08:19:11.000Z</time>
      </trkpt>
      <trkpt lat="46.98375" lon="3.3364">
        <ele>257.30477905273</ele>
        <time>2016-04-03T08:19:14.000Z</time>
      </trkpt>
      <trkpt lat="46.98377" lon="3.33642">
        <ele>257.01495361328</ele>
        <time>2016-04-03T08:19:16.000Z</time>
      </trkpt>
      <trkpt lat="46.98381" lon="3.33644">
        <ele>256.69903564453</ele>
        <time>2016-04-03T08:19:19.000Z</time>
      </trkpt>
      <trkpt lat="46.98383" lon="3.33646">
        <ele>256.3547668457</ele>
        <time>2016-04-03T08:19:21.000Z</time>
      </trkpt>
      <trkpt lat="46.98384" lon="3.33648">
        <ele>255.99011230469</ele>
        <time>2016-04-03T08:19:23.000Z</time>
      </trkpt>
      <trkpt lat="46.98388" lon="3.3365">
        <ele>255.5954284668</ele>
        <time>2016-04-03T08:19:26.000Z</time>
      </trkpt>
      <trkpt lat="46.98389" lon="3.33652">
        <ele>255.22563171387</ele>
        <time>2016-04-03T08:19:29.000Z</time>
      </trkpt>
      <trkpt lat="46.98389" lon="3.33656">
        <ele>254.93545532227</ele>
        <time>2016-04-03T08:19:31.000Z</time>
      </trkpt>
      <trkpt lat="46.98389" lon="3.33659">
        <ele>254.67158508301</ele>
        <time>2016-04-03T08:19:34.000Z</time>
      </trkpt>
      <trkpt lat="46.98391" lon="3.33663">
        <ele>254.39595031738</ele>
        <time>2016-04-03T08:19:36.000Z</time>
      </trkpt>
      <trkpt lat="46.98392" lon="3.33664">
        <ele>254.18061828613</ele>
        <time>2016-04-03T08:19:38.000Z</time>
      </trkpt>
      <trkpt lat="46.98397" lon="3.33669">
        <ele>253.85876464844</ele>
        <time>2016-04-03T08:19:41.000Z</time>
      </trkpt>
      <trkpt lat="46.98397" lon="3.33672">
        <ele>253.54086303711</ele>
        <time>2016-04-03T08:19:43.000Z</time>
      </trkpt>
      <trkpt lat="46.98399" lon="3.33677">
        <ele>253.19485473633</ele>
        <time>2016-04-03T08:19:46.000Z</time>
      </trkpt>
      <trkpt lat="46.98403" lon="3.33681">
        <ele>252.80046081543</ele>
        <time>2016-04-03T08:19:49.000Z</time>
      </trkpt>
      <trkpt lat="46.98405" lon="3.33684">
        <ele>252.37602233887</ele>
        <time>2016-04-03T08:19:52.000Z</time>
      </trkpt>
      <trkpt lat="46.98409" lon="3.33689">
        <ele>251.99601745605</ele>
        <time>2016-04-03T08:19:55.000Z</time>
      </trkpt>
      <trkpt lat="46.98411" lon="3.33694">
        <ele>251.59384155273</ele>
        <time>2016-04-03T08:19:58.000Z</time>
      </trkpt>
      <trkpt lat="46.98413" lon="3.33697">
        <ele>251.21321105957</ele>
        <time>2016-04-03T08:20:01.000Z</time>
      </trkpt>
      <trkpt lat="46.98414" lon="3.33701">
        <ele>250.8998260498</ele>
        <time>2016-04-03T08:20:03.000Z</time>
      </trkpt>
      <trkpt lat="46.98416" lon="3.33704">
        <ele>250.60256958008</ele>
        <time>2016-04-03T08:20:05.000Z</time>
      </trkpt>
      <trkpt lat="46.98418" lon="3.33709">
        <ele>250.37155151367</ele>
        <time>2016-04-03T08:20:08.000Z</time>
      </trkpt>
      <trkpt lat="46.98421" lon="3.33712">
        <ele>250.1672668457</ele>
        <time>2016-04-03T08:20:10.000Z</time>
      </trkpt>
      <trkpt lat="46.98423" lon="3.33715">
        <ele>249.97622680664</ele>
        <time>2016-04-03T08:20:13.000Z</time>
      </trkpt>
      <trkpt lat="46.98426" lon="3.33717">
        <ele>249.80668640137</ele>
        <time>2016-04-03T08:20:15.000Z</time>
      </trkpt>
      <trkpt lat="46.98428" lon="3.3372">
        <ele>249.64460754395</ele>
        <time>2016-04-03T08:20:17.000Z</time>
      </trkpt>
      <trkpt lat="46.98431" lon="3.33725">
        <ele>249.48129272461</ele>
        <time>2016-04-03T08:20:20.000Z</time>
      </trkpt>
      <trkpt lat="46.98433" lon="3.33729">
        <ele>249.30973815918</ele>
        <time>2016-04-03T08:20:23.000Z</time>
      </trkpt>
      <trkpt lat="46.98436" lon="3.33733">
        <ele>249.13439941406</ele>
        <time>2016-04-03T08:20:26.000Z</time>
      </trkpt>
      <trkpt lat="46.98438" lon="3.33738">
        <ele>248.94677734375</ele>
        <time>2016-04-03T08:20:29.000Z</time>
      </trkpt>
      <trkpt lat="46.98439" lon="3.33742">
        <ele>248.76211547852</ele>
        <time>2016-04-03T08:20:32.000Z</time>
      </trkpt>
      <trkpt lat="46.9844" lon="3.33747">
        <ele>248.58618164062</ele>
        <time>2016-04-03T08:20:35.000Z</time>
      </trkpt>
      <trkpt lat="46.98441" lon="3.3375">
        <ele>248.42570495605</ele>
        <time>2016-04-03T08:20:37.000Z</time>
      </trkpt>
      <trkpt lat="46.98443" lon="3.33755">
        <ele>248.26025390625</ele>
        <time>2016-04-03T08:20:40.000Z</time>
      </trkpt>
      <trkpt lat="46.98445" lon="3.33761">
        <ele>248.09875488281</ele>
        <time>2016-04-03T08:20:43.000Z</time>
      </trkpt>
      <trkpt lat="46.98447" lon="3.33764">
        <ele>247.94827270508</ele>
        <time>2016-04-03T08:20:45.000Z</time>
      </trkpt>
      <trkpt lat="46.98449" lon="3.33769">
        <ele>247.79592895508</ele>
        <time>2016-04-03T08:20:48.000Z</time>
      </trkpt>
      <trkpt lat="46.9845" lon="3.33773">
        <ele>247.64265441895</ele>
        <time>2016-04-03T08:20:50.000Z</time>
      </trkpt>
      <trkpt lat="46.98451" lon="3.33778">
        <ele>247.50032043457</ele>
        <time>2016-04-03T08:20:53.000Z</time>
      </trkpt>
      <trkpt lat="46.98452" lon="3.33782">
        <ele>247.3726348877</ele>
        <time>2016-04-03T08:20:56.000Z</time>
      </trkpt>
      <trkpt lat="46.98453" lon="3.33787">
        <ele>247.24006652832</ele>
        <time>2016-04-03T08:20:58.000Z</time>
      </trkpt>
      <trkpt lat="46.98454" lon="3.33792">
        <ele>247.12231445312</ele>
        <time>2016-04-03T08:21:01.000Z</time>
      </trkpt>
      <trkpt lat="46.98454" lon="3.33798">
        <ele>247.00021362305</ele>
        <time>2016-04-03T08:21:04.000Z</time>
      </trkpt>
      <trkpt lat="46.98455" lon="3.33802">
        <ele>246.88760375977</ele>
        <time>2016-04-03T08:21:06.000Z</time>
      </trkpt>
      <trkpt lat="46.98455" lon="3.33806">
        <ele>246.78129577637</ele>
        <time>2016-04-03T08:21:08.000Z</time>
      </trkpt>
      <trkpt lat="46.98456" lon="3.3381">
        <ele>246.67965698242</ele>
        <time>2016-04-03T08:21:11.000Z</time>
      </trkpt>
      <trkpt lat="46.98457" lon="3.33813">
        <ele>246.58268737793</ele>
        <time>2016-04-03T08:21:13.000Z</time>
      </trkpt>
      <trkpt lat="46.98458" lon="3.33818">
        <ele>246.48727416992</ele>
        <time>2016-04-03T08:21:16.000Z</time>
      </trkpt>
      <trkpt lat="46.98459" lon="3.33822">
        <ele>246.39335632324</ele>
        <time>2016-04-03T08:21:18.000Z</time>
      </trkpt>
      <trkpt lat="46.98462" lon="3.33825">
        <ele>246.28544616699</ele>
        <time>2016-04-03T08:21:21.000Z</time>
      </trkpt>
      <trkpt lat="46.98466" lon="3.33827">
        <ele>246.17309570312</ele>
        <time>2016-04-03T08:21:25.000Z</time>
      </trkpt>
      <trkpt lat="46.9847" lon="3.33832">
        <ele>246.04061889648</ele>
        <time>2016-04-03T08:21:27.000Z</time>
      </trkpt>
      <trkpt lat="46.98471" lon="3.33835">
        <ele>245.92129516602</ele>
        <time>2016-04-03T08:21:30.000Z</time>
      </trkpt>
      <trkpt lat="46.98472" lon="3.33837">
        <ele>245.81098937988</ele>
        <time>2016-04-03T08:21:33.000Z</time>
      </trkpt>
      <trkpt lat="46.98476" lon="3.33841">
        <ele>245.70600891113</ele>
        <time>2016-04-03T08:21:36.000Z</time>
      </trkpt>
      <trkpt lat="46.98478" lon="3.33843">
        <ele>245.61328125</ele>
        <time>2016-04-03T08:21:38.000Z</time>
      </trkpt>
      <trkpt lat="46.98481" lon="3.33844">
        <ele>245.54512023926</ele>
        <time>2016-04-03T08:21:41.000Z</time>
      </trkpt>
      <trkpt lat="46.98483" lon="3.33846">
        <ele>245.47663879395</ele>
        <time>2016-04-03T08:21:43.000Z</time>
      </trkpt>
      <trkpt lat="46.98486" lon="3.33848">
        <ele>245.40563964844</ele>
        <time>2016-04-03T08:21:47.000Z</time>
      </trkpt>
      <trkpt lat="46.98487" lon="3.33849">
        <ele>245.34854125977</ele>
        <time>2016-04-03T08:21:48.000Z</time>
      </trkpt>
      <trkpt lat="46.98489" lon="3.3385">
        <ele>245.29577636719</ele>
        <time>2016-04-03T08:21:50.000Z</time>
      </trkpt>
      <trkpt lat="46.98491" lon="3.33851">
        <ele>245.24911499023</ele>
        <time>2016-04-03T08:21:52.000Z</time>
      </trkpt>
      <trkpt lat="46.98495" lon="3.33853">
        <ele>245.19918823242</ele>
        <time>2016-04-03T08:21:55.000Z</time>
      </trkpt>
      <trkpt lat="46.98499" lon="3.33855">
        <ele>245.14730834961</ele>
        <time>2016-04-03T08:21:58.000Z</time>
      </trkpt>
      <trkpt lat="46.98503" lon="3.33858">
        <ele>245.1051940918</ele>
        <time>2016-04-03T08:22:01.000Z</time>
      </trkpt>
      <trkpt lat="46.98506" lon="3.33861">
        <ele>245.07907104492</ele>
        <time>2016-04-03T08:22:04.000Z</time>
      </trkpt>
      <trkpt lat="46.98509" lon="3.33863">
        <ele>245.06533813477</ele>
        <time>2016-04-03T08:22:08.000Z</time>
      </trkpt>
      <trkpt lat="46.98512" lon="3.33865">
        <ele>245.07514953613</ele>
        <time>2016-04-03T08:22:09.000Z</time>
      </trkpt>
      <trkpt lat="46.98515" lon="3.33867">
        <ele>245.10546875</ele>
        <time>2016-04-03T08:22:13.000Z</time>
      </trkpt>
      <trkpt lat="46.98517" lon="3.33868">
        <ele>245.1396484375</ele>
        <time>2016-04-03T08:22:14.000Z</time>
      </trkpt>
      <trkpt lat="46.9852" lon="3.33871">
        <ele>245.173828125</ele>
        <time>2016-04-03T08:22:17.000Z</time>
      </trkpt>
      <trkpt lat="46.98523" lon="3.33875">
        <ele>245.20703125</ele>
        <time>2016-04-03T08:22:20.000Z</time>
      </trkpt>
      <trkpt lat="46.98524" lon="3.33877">
        <ele>245.236328125</ele>
        <time>2016-04-03T08:22:22.000Z</time>
      </trkpt>
      <trkpt lat="46.98528" lon="3.3388">
        <ele>245.2685546875</ele>
        <time>2016-04-03T08:22:25.000Z</time>
      </trkpt>
      <trkpt lat="46.98532" lon="3.33884">
        <ele>245.3046875</ele>
        <time>2016-04-03T08:22:28.000Z</time>
      </trkpt>
      <trkpt lat="46.98533" lon="3.33886">
        <ele>245.3359375</ele>
        <time>2016-04-03T08:22:30.000Z</time>
      </trkpt>
      <trkpt lat="46.98536" lon="3.33888">
        <ele>245.3671875</ele>
        <time>2016-04-03T08:22:32.000Z</time>
      </trkpt>
      <trkpt lat="46.98537" lon="3.33891">
        <ele>245.3984375</ele>
        <time>2016-04-03T08:22:34.000Z</time>
      </trkpt>
      <trkpt lat="46.9854" lon="3.33895">
        <ele>245.4267578125</ele>
        <time>2016-04-03T08:22:37.000Z</time>
      </trkpt>
      <trkpt lat="46.98542" lon="3.33898">
        <ele>245.4501953125</ele>
        <time>2016-04-03T08:22:39.000Z</time>
      </trkpt>
      <trkpt lat="46.98544" lon="3.33902">
        <ele>245.4765625</ele>
        <time>2016-04-03T08:22:42.000Z</time>
      </trkpt>
      <trkpt lat="46.98547" lon="3.33905">
        <ele>245.5029296875</ele>
        <time>2016-04-03T08:22:44.000Z</time>
      </trkpt>
      <trkpt lat="46.98549" lon="3.33907">
        <ele>245.53125</ele>
        <time>2016-04-03T08:22:46.000Z</time>
      </trkpt>
      <trkpt lat="46.98552" lon="3.33911">
        <ele>245.5595703125</ele>
        <time>2016-04-03T08:22:49.000Z</time>
      </trkpt>
      <trkpt lat="46.98555" lon="3.33915">
        <ele>245.5908203125</ele>
        <time>2016-04-03T08:22:52.000Z</time>
      </trkpt>
      <trkpt lat="46.98558" lon="3.3392">
        <ele>245.61544799805</ele>
        <time>2016-04-03T08:22:55.000Z</time>
      </trkpt>
      <trkpt lat="46.98562" lon="3.33924">
        <ele>245.62939453125</ele>
        <time>2016-04-03T08:22:58.000Z</time>
      </trkpt>
      <trkpt lat="46.98563" lon="3.33928">
        <ele>245.63125610352</ele>
        <time>2016-04-03T08:23:00.000Z</time>
      </trkpt>
      <trkpt lat="46.98566" lon="3.3393">
        <ele>245.62594604492</ele>
        <time>2016-04-03T08:23:02.000Z</time>
      </trkpt>
      <trkpt lat="46.98567" lon="3.33933">
        <ele>245.61079406738</ele>
        <time>2016-04-03T08:23:04.000Z</time>
      </trkpt>
      <trkpt lat="46.98571" lon="3.33935">
        <ele>245.60018920898</ele>
        <time>2016-04-03T08:23:07.000Z</time>
      </trkpt>
      <trkpt lat="46.98572" lon="3.33937">
        <ele>245.5930480957</ele>
        <time>2016-04-03T08:23:09.000Z</time>
      </trkpt>
      <trkpt lat="46.98574" lon="3.33939">
        <ele>245.59243774414</ele>
        <time>2016-04-03T08:23:11.000Z</time>
      </trkpt>
      <trkpt lat="46.98577" lon="3.33942">
        <ele>245.59196472168</ele>
        <time>2016-04-03T08:23:14.000Z</time>
      </trkpt>
      <trkpt lat="46.98579" lon="3.33945">
        <ele>245.59484863281</ele>
        <time>2016-04-03T08:23:16.000Z</time>
      </trkpt>
      <trkpt lat="46.98582" lon="3.33948">
        <ele>245.59353637695</ele>
        <time>2016-04-03T08:23:18.000Z</time>
      </trkpt>
      <trkpt lat="46.98584" lon="3.33953">
        <ele>245.57971191406</ele>
        <time>2016-04-03T08:23:21.000Z</time>
      </trkpt>
      <trkpt lat="46.98586" lon="3.33955">
        <ele>245.54843139648</ele>
        <time>2016-04-03T08:23:23.000Z</time>
      </trkpt>
      <trkpt lat="46.98587" lon="3.33959">
        <ele>245.49435424805</ele>
        <time>2016-04-03T08:23:26.000Z</time>
      </trkpt>
      <trkpt lat="46.9859" lon="3.33964">
        <ele>245.40226745605</ele>
        <time>2016-04-03T08:23:29.000Z</time>
      </trkpt>
      <trkpt lat="46.98593" lon="3.33968">
        <ele>245.28157043457</ele>
        <time>2016-04-03T08:23:32.000Z</time>
      </trkpt>
      <trkpt lat="46.98593" lon="3.33972">
        <ele>245.16787719727</ele>
        <time>2016-04-03T08:23:34.000Z</time>
      </trkpt>
      <trkpt lat="46.98595" lon="3.33975">
        <ele>245.05142211914</ele>
        <time>2016-04-03T08:23:36.000Z</time>
      </trkpt>
      <trkpt lat="46.98596" lon="3.33979">
        <ele>244.93774414062</ele>
        <time>2016-04-03T08:23:39.000Z</time>
      </trkpt>
      <trkpt lat="46.98598" lon="3.33982">
        <ele>244.83535766602</ele>
        <time>2016-04-03T08:23:42.000Z</time>
      </trkpt>
      <trkpt lat="46.986" lon="3.33985">
        <ele>244.74662780762</ele>
        <time>2016-04-03T08:23:44.000Z</time>
      </trkpt>
      <trkpt lat="46.98601" lon="3.33988">
        <ele>244.65090942383</ele>
        <time>2016-04-03T08:23:46.000Z</time>
      </trkpt>
      <trkpt lat="46.98604" lon="3.33993">
        <ele>244.54403686523</ele>
        <time>2016-04-03T08:23:50.000Z</time>
      </trkpt>
      <trkpt lat="46.98605" lon="3.33997">
        <ele>244.44189453125</ele>
        <time>2016-04-03T08:23:51.000Z</time>
      </trkpt>
      <trkpt lat="46.98608" lon="3.34002">
        <ele>244.32817077637</ele>
        <time>2016-04-03T08:23:54.000Z</time>
      </trkpt>
      <trkpt lat="46.98609" lon="3.34005">
        <ele>244.19790649414</ele>
        <time>2016-04-03T08:23:56.000Z</time>
      </trkpt>
      <trkpt lat="46.98612" lon="3.34012">
        <ele>244.01333618164</ele>
        <time>2016-04-03T08:23:59.000Z</time>
      </trkpt>
      <trkpt lat="46.98613" lon="3.34016">
        <ele>243.81774902344</ele>
        <time>2016-04-03T08:24:02.000Z</time>
      </trkpt>
      <trkpt lat="46.98615" lon="3.34021">
        <ele>243.59912109375</ele>
        <time>2016-04-03T08:24:05.000Z</time>
      </trkpt>
      <trkpt lat="46.98617" lon="3.34025">
        <ele>243.37594604492</ele>
        <time>2016-04-03T08:24:08.000Z</time>
      </trkpt>
      <trkpt lat="46.98619" lon="3.34029">
        <ele>243.15490722656</ele>
        <time>2016-04-03T08:24:10.000Z</time>
      </trkpt>
      <trkpt lat="46.98621" lon="3.34032">
        <ele>242.97099304199</ele>
        <time>2016-04-03T08:24:12.000Z</time>
      </trkpt>
      <trkpt lat="46.98623" lon="3.34035">
        <ele>242.8003692627</ele>
        <time>2016-04-03T08:24:14.000Z</time>
      </trkpt>
      <trkpt lat="46.98625" lon="3.3404">
        <ele>242.62983703613</ele>
        <time>2016-04-03T08:24:17.000Z</time>
      </trkpt>
      <trkpt lat="46.98627" lon="3.34043">
        <ele>242.47549438477</ele>
        <time>2016-04-03T08:24:19.000Z</time>
      </trkpt>
      <trkpt lat="46.98628" lon="3.34049">
        <ele>242.31161499023</ele>
        <time>2016-04-03T08:24:22.000Z</time>
      </trkpt>
      <trkpt lat="46.98631" lon="3.34055">
        <ele>242.14237976074</ele>
        <time>2016-04-03T08:24:25.000Z</time>
      </trkpt>
      <trkpt lat="46.98632" lon="3.34057">
        <ele>241.98539733887</ele>
        <time>2016-04-03T08:24:27.000Z</time>
      </trkpt>
      <trkpt lat="46.98632" lon="3.3406">
        <ele>241.84989929199</ele>
        <time>2016-04-03T08:24:29.000Z</time>
      </trkpt>
      <trkpt lat="46.98633" lon="3.34064">
        <ele>241.71903991699</ele>
        <time>2016-04-03T08:24:31.000Z</time>
      </trkpt>
      <trkpt lat="46.98635" lon="3.34068">
        <ele>241.60185241699</ele>
        <time>2016-04-03T08:24:34.000Z</time>
      </trkpt>
      <trkpt lat="46.98637" lon="3.34071">
        <ele>241.50534057617</ele>
        <time>2016-04-03T08:24:36.000Z</time>
      </trkpt>
      <trkpt lat="46.98638" lon="3.34075">
        <ele>241.40380859375</ele>
        <time>2016-04-03T08:24:38.000Z</time>
      </trkpt>
      <trkpt lat="46.9864" lon="3.3408">
        <ele>241.29489135742</ele>
        <time>2016-04-03T08:24:41.000Z</time>
      </trkpt>
      <trkpt lat="46.98642" lon="3.34082">
        <ele>241.20051574707</ele>
        <time>2016-04-03T08:24:43.000Z</time>
      </trkpt>
      <trkpt lat="46.98643" lon="3.34085">
        <ele>241.11901855469</ele>
        <time>2016-04-03T08:24:46.000Z</time>
      </trkpt>
      <trkpt lat="46.98646" lon="3.34087">
        <ele>241.04443359375</ele>
        <time>2016-04-03T08:24:47.000Z</time>
      </trkpt>
      <trkpt lat="46.98648" lon="3.34091">
        <ele>240.97802734375</ele>
        <time>2016-04-03T08:24:50.000Z</time>
      </trkpt>
      <trkpt lat="46.9865" lon="3.34094">
        <ele>240.92761230469</ele>
        <time>2016-04-03T08:24:52.000Z</time>
      </trkpt>
      <trkpt lat="46.98651" lon="3.34098">
        <ele>240.87142944336</ele>
        <time>2016-04-03T08:24:54.000Z</time>
      </trkpt>
      <trkpt lat="46.98653" lon="3.34102">
        <ele>240.81616210938</ele>
        <time>2016-04-03T08:24:57.000Z</time>
      </trkpt>
      <trkpt lat="46.98654" lon="3.34106">
        <ele>240.76005554199</ele>
        <time>2016-04-03T08:24:59.000Z</time>
      </trkpt>
      <trkpt lat="46.98657" lon="3.34111">
        <ele>240.70446777344</ele>
        <time>2016-04-03T08:25:02.000Z</time>
      </trkpt>
      <trkpt lat="46.98659" lon="3.34114">
        <ele>240.6533203125</ele>
        <time>2016-04-03T08:25:04.000Z</time>
      </trkpt>
      <trkpt lat="46.9866" lon="3.34116">
        <ele>240.61117553711</ele>
        <time>2016-04-03T08:25:06.000Z</time>
      </trkpt>
      <trkpt lat="46.98662" lon="3.3412">
        <ele>240.57247924805</ele>
        <time>2016-04-03T08:25:09.000Z</time>
      </trkpt>
      <trkpt lat="46.98664" lon="3.34124">
        <ele>240.53820800781</ele>
        <time>2016-04-03T08:25:11.000Z</time>
      </trkpt>
      <trkpt lat="46.98666" lon="3.34127">
        <ele>240.51252746582</ele>
        <time>2016-04-03T08:25:14.000Z</time>
      </trkpt>
      <trkpt lat="46.98668" lon="3.34132">
        <ele>240.46987915039</ele>
        <time>2016-04-03T08:25:17.000Z</time>
      </trkpt>
      <trkpt lat="46.9867" lon="3.34135">
        <ele>240.4130859375</ele>
        <time>2016-04-03T08:25:19.000Z</time>
      </trkpt>
      <trkpt lat="46.98672" lon="3.34138">
        <ele>240.3431854248</ele>
        <time>2016-04-03T08:25:22.000Z</time>
      </trkpt>
      <trkpt lat="46.98674" lon="3.34141">
        <ele>240.25886535645</ele>
        <time>2016-04-03T08:25:23.000Z</time>
      </trkpt>
      <trkpt lat="46.98676" lon="3.34145">
        <ele>240.14912414551</ele>
        <time>2016-04-03T08:25:27.000Z</time>
      </trkpt>
      <trkpt lat="46.98679" lon="3.34147">
        <ele>240.041015625</ele>
        <time>2016-04-03T08:25:28.000Z</time>
      </trkpt>
      <trkpt lat="46.98681" lon="3.34148">
        <ele>239.92736816406</ele>
        <time>2016-04-03T08:25:31.000Z</time>
      </trkpt>
      <trkpt lat="46.98684" lon="3.3415">
        <ele>239.81083679199</ele>
        <time>2016-04-03T08:25:33.000Z</time>
      </trkpt>
      <trkpt lat="46.98687" lon="3.34151">
        <ele>239.68872070312</ele>
        <time>2016-04-03T08:25:36.000Z</time>
      </trkpt>
      <trkpt lat="46.98692" lon="3.34153">
        <ele>239.560546875</ele>
        <time>2016-04-03T08:25:39.000Z</time>
      </trkpt>
      <trkpt lat="46.98696" lon="3.34155">
        <ele>239.41259765625</ele>
        <time>2016-04-03T08:25:41.000Z</time>
      </trkpt>
      <trkpt lat="46.987" lon="3.34155">
        <ele>239.26391601562</ele>
        <time>2016-04-03T08:25:43.000Z</time>
      </trkpt>
      <trkpt lat="46.98702" lon="3.34157">
        <ele>239.11894226074</ele>
        <time>2016-04-03T08:25:46.000Z</time>
      </trkpt>
      <trkpt lat="46.98704" lon="3.34158">
        <ele>238.98164367676</ele>
        <time>2016-04-03T08:25:48.000Z</time>
      </trkpt>
      <trkpt lat="46.98706" lon="3.34159">
        <ele>238.86235046387</ele>
        <time>2016-04-03T08:25:50.000Z</time>
      </trkpt>
      <trkpt lat="46.9871" lon="3.34161">
        <ele>238.74809265137</ele>
        <time>2016-04-03T08:25:53.000Z</time>
      </trkpt>
      <trkpt lat="46.98715" lon="3.34162">
        <ele>238.61982727051</ele>
        <time>2016-04-03T08:25:56.000Z</time>
      </trkpt>
      <trkpt lat="46.98717" lon="3.34163">
        <ele>238.49311828613</ele>
        <time>2016-04-03T08:25:58.000Z</time>
      </trkpt>
      <trkpt lat="46.9872" lon="3.34163">
        <ele>238.36259460449</ele>
        <time>2016-04-03T08:26:00.000Z</time>
      </trkpt>
      <trkpt lat="46.98722" lon="3.34164">
        <ele>238.23295593262</ele>
        <time>2016-04-03T08:26:02.000Z</time>
      </trkpt>
      <trkpt lat="46.98725" lon="3.34166">
        <ele>238.11315917969</ele>
        <time>2016-04-03T08:26:05.000Z</time>
      </trkpt>
      <trkpt lat="46.98728" lon="3.34166">
        <ele>238.00964355469</ele>
        <time>2016-04-03T08:26:07.000Z</time>
      </trkpt>
      <trkpt lat="46.9873" lon="3.34166">
        <ele>237.90800476074</ele>
        <time>2016-04-03T08:26:09.000Z</time>
      </trkpt>
      <trkpt lat="46.98734" lon="3.34166">
        <ele>237.80102539062</ele>
        <time>2016-04-03T08:26:12.000Z</time>
      </trkpt>
      <trkpt lat="46.98737" lon="3.34167">
        <ele>237.69216918945</ele>
        <time>2016-04-03T08:26:14.000Z</time>
      </trkpt>
      <trkpt lat="46.98739" lon="3.34168">
        <ele>237.58657836914</ele>
        <time>2016-04-03T08:26:16.000Z</time>
      </trkpt>
      <trkpt lat="46.98742" lon="3.34169">
        <ele>237.48490905762</ele>
        <time>2016-04-03T08:26:18.000Z</time>
      </trkpt>
      <trkpt lat="46.98744" lon="3.3417">
        <ele>237.38290405273</ele>
        <time>2016-04-03T08:26:20.000Z</time>
      </trkpt>
      <trkpt lat="46.98748" lon="3.34171">
        <ele>237.28469848633</ele>
        <time>2016-04-03T08:26:23.000Z</time>
      </trkpt>
      <trkpt lat="46.9875" lon="3.34172">
        <ele>237.18852233887</ele>
        <time>2016-04-03T08:26:25.000Z</time>
      </trkpt>
      <trkpt lat="46.98753" lon="3.34175">
        <ele>237.0940246582</ele>
        <time>2016-04-03T08:26:27.000Z</time>
      </trkpt>
      <trkpt lat="46.98755" lon="3.34177">
        <ele>237.00076293945</ele>
        <time>2016-04-03T08:26:30.000Z</time>
      </trkpt>
      <trkpt lat="46.98757" lon="3.34181">
        <ele>236.89953613281</ele>
        <time>2016-04-03T08:26:32.000Z</time>
      </trkpt>
      <trkpt lat="46.98759" lon="3.34186">
        <ele>236.80026245117</ele>
        <time>2016-04-03T08:26:35.000Z</time>
      </trkpt>
      <trkpt lat="46.98761" lon="3.34189">
        <ele>236.69987487793</ele>
        <time>2016-04-03T08:26:37.000Z</time>
      </trkpt>
      <trkpt lat="46.98761" lon="3.34192">
        <ele>236.61222839355</ele>
        <time>2016-04-03T08:26:39.000Z</time>
      </trkpt>
      <trkpt lat="46.98763" lon="3.34195">
        <ele>236.5227355957</ele>
        <time>2016-04-03T08:26:41.000Z</time>
      </trkpt>
      <trkpt lat="46.98764" lon="3.34199">
        <ele>236.44616699219</ele>
        <time>2016-04-03T08:26:44.000Z</time>
      </trkpt>
      <trkpt lat="46.98764" lon="3.34202">
        <ele>236.38232421875</ele>
        <time>2016-04-03T08:26:46.000Z</time>
      </trkpt>
      <trkpt lat="46.98766" lon="3.34208">
        <ele>236.31161499023</ele>
        <time>2016-04-03T08:26:49.000Z</time>
      </trkpt>
      <trkpt lat="46.98766" lon="3.34213">
        <ele>236.23603820801</ele>
        <time>2016-04-03T08:26:53.000Z</time>
      </trkpt>
      <trkpt lat="46.98766" lon="3.34215">
        <ele>236.17611694336</ele>
        <time>2016-04-03T08:26:54.000Z</time>
      </trkpt>
      <trkpt lat="46.98766" lon="3.34219">
        <ele>236.12387084961</ele>
        <time>2016-04-03T08:26:56.000Z</time>
      </trkpt>
      <trkpt lat="46.98767" lon="3.34223">
        <ele>236.06875610352</ele>
        <time>2016-04-03T08:26:58.000Z</time>
      </trkpt>
      <trkpt lat="46.98767" lon="3.34228">
        <ele>236.02551269531</ele>
        <time>2016-04-03T08:27:01.000Z</time>
      </trkpt>
      <trkpt lat="46.98767" lon="3.3423">
        <ele>235.98645019531</ele>
        <time>2016-04-03T08:27:04.000Z</time>
      </trkpt>
      <trkpt lat="46.98769" lon="3.34236">
        <ele>235.92544555664</ele>
        <time>2016-04-03T08:27:06.000Z</time>
      </trkpt>
      <trkpt lat="46.98769" lon="3.3424">
        <ele>235.85195922852</ele>
        <time>2016-04-03T08:27:09.000Z</time>
      </trkpt>
      <trkpt lat="46.98769" lon="3.34244">
        <ele>235.78308105469</ele>
        <time>2016-04-03T08:27:13.000Z</time>
      </trkpt>
      <trkpt lat="46.98769" lon="3.34249">
        <ele>235.71768188477</ele>
        <time>2016-04-03T08:27:14.000Z</time>
      </trkpt>
      <trkpt lat="46.98771" lon="3.34254">
        <ele>235.62043762207</ele>
        <time>2016-04-03T08:27:17.000Z</time>
      </trkpt>
      <trkpt lat="46.98771" lon="3.34258">
        <ele>235.51493835449</ele>
        <time>2016-04-03T08:27:19.000Z</time>
      </trkpt>
      <trkpt lat="46.98773" lon="3.34263">
        <ele>235.37287902832</ele>
        <time>2016-04-03T08:27:22.000Z</time>
      </trkpt>
      <trkpt lat="46.98774" lon="3.34266">
        <ele>235.19612121582</ele>
        <time>2016-04-03T08:27:24.000Z</time>
      </trkpt>
      <trkpt lat="46.98775" lon="3.34271">
        <ele>234.982421875</ele>
        <time>2016-04-03T08:27:26.000Z</time>
      </trkpt>
      <trkpt lat="46.98776" lon="3.34276">
        <ele>234.76135253906</ele>
        <time>2016-04-03T08:27:29.000Z</time>
      </trkpt>
      <trkpt lat="46.98777" lon="3.3428">
        <ele>234.53695678711</ele>
        <time>2016-04-03T08:27:31.000Z</time>
      </trkpt>
      <trkpt lat="46.98777" lon="3.34283">
        <ele>234.34008789062</ele>
        <time>2016-04-03T08:27:34.000Z</time>
      </trkpt>
      <trkpt lat="46.98779" lon="3.34286">
        <ele>234.13859558105</ele>
        <time>2016-04-03T08:27:37.000Z</time>
      </trkpt>
      <trkpt lat="46.9878" lon="3.34289">
        <ele>233.94575500488</ele>
        <time>2016-04-03T08:27:39.000Z</time>
      </trkpt>
      <trkpt lat="46.98782" lon="3.34293">
        <ele>233.73515319824</ele>
        <time>2016-04-03T08:27:42.000Z</time>
      </trkpt>
      <trkpt lat="46.98785" lon="3.34297">
        <ele>233.49169921875</ele>
        <time>2016-04-03T08:27:45.000Z</time>
      </trkpt>
      <trkpt lat="46.98787" lon="3.343">
        <ele>233.22456359863</ele>
        <time>2016-04-03T08:27:47.000Z</time>
      </trkpt>
      <trkpt lat="46.98789" lon="3.34305">
        <ele>232.92358398438</ele>
        <time>2016-04-03T08:27:50.000Z</time>
      </trkpt>
      <trkpt lat="46.98792" lon="3.3431">
        <ele>232.57217407227</ele>
        <time>2016-04-03T08:27:54.000Z</time>
      </trkpt>
      <trkpt lat="46.98793" lon="3.34313">
        <ele>232.23495483398</ele>
        <time>2016-04-03T08:27:55.000Z</time>
      </trkpt>
      <trkpt lat="46.98794" lon="3.34316">
        <ele>231.93481445312</ele>
        <time>2016-04-03T08:27:57.000Z</time>
      </trkpt>
      <trkpt lat="46.98796" lon="3.3432">
        <ele>231.62850952148</ele>
        <time>2016-04-03T08:27:59.000Z</time>
      </trkpt>
      <trkpt lat="46.98798" lon="3.34323">
        <ele>231.33935546875</ele>
        <time>2016-04-03T08:28:02.000Z</time>
      </trkpt>
      <trkpt lat="46.98801" lon="3.34328">
        <ele>231.05009460449</ele>
        <time>2016-04-03T08:28:05.000Z</time>
      </trkpt>
      <trkpt lat="46.98803" lon="3.34332">
        <ele>230.72367858887</ele>
        <time>2016-04-03T08:28:08.000Z</time>
      </trkpt>
      <trkpt lat="46.98806" lon="3.34337">
        <ele>230.33547973633</ele>
        <time>2016-04-03T08:28:11.000Z</time>
      </trkpt>
      <trkpt lat="46.98811" lon="3.3434">
        <ele>229.90914916992</ele>
        <time>2016-04-03T08:28:15.000Z</time>
      </trkpt>
      <trkpt lat="46.98813" lon="3.3434">
        <ele>229.50634765625</ele>
        <time>2016-04-03T08:28:16.000Z</time>
      </trkpt>
      <trkpt lat="46.98817" lon="3.34339">
        <ele>229.11367797852</ele>
        <time>2016-04-03T08:28:19.000Z</time>
      </trkpt>
      <trkpt lat="46.98819" lon="3.34337">
        <ele>228.78732299805</ele>
        <time>2016-04-03T08:28:21.000Z</time>
      </trkpt>
      <trkpt lat="46.9882" lon="3.34333">
        <ele>228.55976867676</ele>
        <time>2016-04-03T08:28:24.000Z</time>
      </trkpt>
      <trkpt lat="46.98821" lon="3.3433">
        <ele>228.42984008789</ele>
        <time>2016-04-03T08:28:26.000Z</time>
      </trkpt>
      <trkpt lat="46.98822" lon="3.34326">
        <ele>228.35762023926</ele>
        <time>2016-04-03T08:28:29.000Z</time>
      </trkpt>
      <trkpt lat="46.98822" lon="3.34324">
        <ele>228.37387084961</ele>
        <time>2016-04-03T08:28:31.000Z</time>
      </trkpt>
      <trkpt lat="46.98823" lon="3.34321">
        <ele>228.416015625</ele>
        <time>2016-04-03T08:28:33.000Z</time>
      </trkpt>
      <trkpt lat="46.98824" lon="3.34318">
        <ele>228.46447753906</ele>
        <time>2016-04-03T08:28:36.000Z</time>
      </trkpt>
      <trkpt lat="46.98824" lon="3.34315">
        <ele>228.53649902344</ele>
        <time>2016-04-03T08:28:38.000Z</time>
      </trkpt>
      <trkpt lat="46.98825" lon="3.3431">
        <ele>228.62629699707</ele>
        <time>2016-04-03T08:28:41.000Z</time>
      </trkpt>
      <trkpt lat="46.98825" lon="3.34307">
        <ele>228.73466491699</ele>
        <time>2016-04-03T08:28:44.000Z</time>
      </trkpt>
      <trkpt lat="46.98825" lon="3.34303">
        <ele>228.87092590332</ele>
        <time>2016-04-03T08:28:46.000Z</time>
      </trkpt>
      <trkpt lat="46.98825" lon="3.34298">
        <ele>229.03813171387</ele>
        <time>2016-04-03T08:28:49.000Z</time>
      </trkpt>
      <trkpt lat="46.98826" lon="3.34295">
        <ele>229.19381713867</ele>
        <time>2016-04-03T08:28:52.000Z</time>
      </trkpt>
      <trkpt lat="46.98827" lon="3.34292">
        <ele>229.31896972656</ele>
        <time>2016-04-03T08:28:55.000Z</time>
      </trkpt>
      <trkpt lat="46.98829" lon="3.34285">
        <ele>229.44413757324</ele>
        <time>2016-04-03T08:28:57.000Z</time>
      </trkpt>
      <trkpt lat="46.9883" lon="3.34281">
        <ele>229.56694030762</ele>
        <time>2016-04-03T08:28:59.000Z</time>
      </trkpt>
      <trkpt lat="46.9883" lon="3.34276">
        <ele>229.68771362305</ele>
        <time>2016-04-03T08:29:02.000Z</time>
      </trkpt>
      <trkpt lat="46.98831" lon="3.3427">
        <ele>229.82719421387</ele>
        <time>2016-04-03T08:29:05.000Z</time>
      </trkpt>
      <trkpt lat="46.98832" lon="3.34267">
        <ele>229.99047851562</ele>
        <time>2016-04-03T08:29:07.000Z</time>
      </trkpt>
      <trkpt lat="46.98833" lon="3.34262">
        <ele>230.15702819824</ele>
        <time>2016-04-03T08:29:10.000Z</time>
      </trkpt>
      <trkpt lat="46.98833" lon="3.34259">
        <ele>230.30729675293</ele>
        <time>2016-04-03T08:29:12.000Z</time>
      </trkpt>
      <trkpt lat="46.98834" lon="3.34254">
        <ele>230.46650695801</ele>
        <time>2016-04-03T08:29:16.000Z</time>
      </trkpt>
      <trkpt lat="46.98834" lon="3.3425">
        <ele>230.62353515625</ele>
        <time>2016-04-03T08:29:17.000Z</time>
      </trkpt>
      <trkpt lat="46.98836" lon="3.34245">
        <ele>230.76245117188</ele>
        <time>2016-04-03T08:29:19.000Z</time>
      </trkpt>
      <trkpt lat="46.98836" lon="3.34241">
        <ele>230.89790344238</ele>
        <time>2016-04-03T08:29:21.000Z</time>
      </trkpt>
      <trkpt lat="46.98837" lon="3.34237">
        <ele>231.0415802002</ele>
        <time>2016-04-03T08:29:24.000Z</time>
      </trkpt>
      <trkpt lat="46.98837" lon="3.34233">
        <ele>231.16088867188</ele>
        <time>2016-04-03T08:29:26.000Z</time>
      </trkpt>
      <trkpt lat="46.98837" lon="3.34227">
        <ele>231.29550170898</ele>
        <time>2016-04-03T08:29:30.000Z</time>
      </trkpt>
      <trkpt lat="46.98837" lon="3.34223">
        <ele>231.4475402832</ele>
        <time>2016-04-03T08:29:31.000Z</time>
      </trkpt>
      <trkpt lat="46.98837" lon="3.34219">
        <ele>231.5982208252</ele>
        <time>2016-04-03T08:29:33.000Z</time>
      </trkpt>
      <trkpt lat="46.98837" lon="3.34214">
        <ele>231.7646484375</ele>
        <time>2016-04-03T08:29:36.000Z</time>
      </trkpt>
      <trkpt lat="46.98837" lon="3.34209">
        <ele>231.94413757324</ele>
        <time>2016-04-03T08:29:39.000Z</time>
      </trkpt>
      <trkpt lat="46.98837" lon="3.34206">
        <ele>232.09696960449</ele>
        <time>2016-04-03T08:29:41.000Z</time>
      </trkpt>
      <trkpt lat="46.98837" lon="3.34201">
        <ele>232.25419616699</ele>
        <time>2016-04-03T08:29:44.000Z</time>
      </trkpt>
      <trkpt lat="46.98837" lon="3.34195">
        <ele>232.42910766602</ele>
        <time>2016-04-03T08:29:47.000Z</time>
      </trkpt>
      <trkpt lat="46.98838" lon="3.34191">
        <ele>232.58862304688</ele>
        <time>2016-04-03T08:29:49.000Z</time>
      </trkpt>
      <trkpt lat="46.9884" lon="3.34183">
        <ele>232.74284362793</ele>
        <time>2016-04-03T08:29:52.000Z</time>
      </trkpt>
      <trkpt lat="46.98842" lon="3.34179">
        <ele>232.8890838623</ele>
        <time>2016-04-03T08:29:54.000Z</time>
      </trkpt>
      <trkpt lat="46.98844" lon="3.34174">
        <ele>233.02372741699</ele>
        <time>2016-04-03T08:29:57.000Z</time>
      </trkpt>
      <trkpt lat="46.98845" lon="3.3417">
        <ele>233.126953125</ele>
        <time>2016-04-03T08:30:00.000Z</time>
      </trkpt>
      <trkpt lat="46.98848" lon="3.34164">
        <ele>233.21353149414</ele>
        <time>2016-04-03T08:30:03.000Z</time>
      </trkpt>
      <trkpt lat="46.9885" lon="3.34158">
        <ele>233.25691223145</ele>
        <time>2016-04-03T08:30:06.000Z</time>
      </trkpt>
      <trkpt lat="46.98852" lon="3.34154">
        <ele>233.28109741211</ele>
        <time>2016-04-03T08:30:08.000Z</time>
      </trkpt>
      <trkpt lat="46.98854" lon="3.3415">
        <ele>233.27328491211</ele>
        <time>2016-04-03T08:30:11.000Z</time>
      </trkpt>
      <trkpt lat="46.98856" lon="3.34147">
        <ele>233.24850463867</ele>
        <time>2016-04-03T08:30:13.000Z</time>
      </trkpt>
      <trkpt lat="46.98857" lon="3.34144">
        <ele>233.21965026855</ele>
        <time>2016-04-03T08:30:15.000Z</time>
      </trkpt>
      <trkpt lat="46.98859" lon="3.3414">
        <ele>233.19609069824</ele>
        <time>2016-04-03T08:30:18.000Z</time>
      </trkpt>
      <trkpt lat="46.98861" lon="3.34137">
        <ele>233.17692565918</ele>
        <time>2016-04-03T08:30:20.000Z</time>
      </trkpt>
      <trkpt lat="46.98864" lon="3.34134">
        <ele>233.1611328125</ele>
        <time>2016-04-03T08:30:23.000Z</time>
      </trkpt>
      <trkpt lat="46.98866" lon="3.34132">
        <ele>233.14096069336</ele>
        <time>2016-04-03T08:30:25.000Z</time>
      </trkpt>
      <trkpt lat="46.98867" lon="3.3413">
        <ele>233.11860656738</ele>
        <time>2016-04-03T08:30:27.000Z</time>
      </trkpt>
      <trkpt lat="46.98871" lon="3.34126">
        <ele>233.10151672363</ele>
        <time>2016-04-03T08:30:30.000Z</time>
      </trkpt>
      <trkpt lat="46.98873" lon="3.34123">
        <ele>233.08950805664</ele>
        <time>2016-04-03T08:30:32.000Z</time>
      </trkpt>
      <trkpt lat="46.98875" lon="3.3412">
        <ele>233.09049987793</ele>
        <time>2016-04-03T08:30:34.000Z</time>
      </trkpt>
      <trkpt lat="46.98879" lon="3.34116">
        <ele>233.10527038574</ele>
        <time>2016-04-03T08:30:37.000Z</time>
      </trkpt>
      <trkpt lat="46.98881" lon="3.34113">
        <ele>233.12704467773</ele>
        <time>2016-04-03T08:30:39.000Z</time>
      </trkpt>
      <trkpt lat="46.98884" lon="3.34109">
        <ele>233.16091918945</ele>
        <time>2016-04-03T08:30:42.000Z</time>
      </trkpt>
      <trkpt lat="46.98886" lon="3.34107">
        <ele>233.19921875</ele>
        <time>2016-04-03T08:30:44.000Z</time>
      </trkpt>
      <trkpt lat="46.98888" lon="3.34104">
        <ele>233.24613952637</ele>
        <time>2016-04-03T08:30:47.000Z</time>
      </trkpt>
      <trkpt lat="46.9889" lon="3.34102">
        <ele>233.29174804688</ele>
        <time>2016-04-03T08:30:49.000Z</time>
      </trkpt>
      <trkpt lat="46.98892" lon="3.34101">
        <ele>233.33532714844</ele>
        <time>2016-04-03T08:30:51.000Z</time>
      </trkpt>
      <trkpt lat="46.98895" lon="3.34097">
        <ele>233.38777160645</ele>
        <time>2016-04-03T08:30:54.000Z</time>
      </trkpt>
      <trkpt lat="46.98898" lon="3.34094">
        <ele>233.45219421387</ele>
        <time>2016-04-03T08:30:58.000Z</time>
      </trkpt>
      <trkpt lat="46.989" lon="3.34092">
        <ele>233.51724243164</ele>
        <time>2016-04-03T08:30:59.000Z</time>
      </trkpt>
      <trkpt lat="46.98903" lon="3.34087">
        <ele>233.6128692627</ele>
        <time>2016-04-03T08:31:03.000Z</time>
      </trkpt>
      <trkpt lat="46.98906" lon="3.34083">
        <ele>233.73327636719</ele>
        <time>2016-04-03T08:31:05.000Z</time>
      </trkpt>
      <trkpt lat="46.98908" lon="3.34081">
        <ele>233.84399414062</ele>
        <time>2016-04-03T08:31:07.000Z</time>
      </trkpt>
      <trkpt lat="46.9891" lon="3.34078">
        <ele>233.95053100586</ele>
        <time>2016-04-03T08:31:09.000Z</time>
      </trkpt>
      <trkpt lat="46.98913" lon="3.34073">
        <ele>234.06478881836</ele>
        <time>2016-04-03T08:31:12.000Z</time>
      </trkpt>
      <trkpt lat="46.98916" lon="3.34071">
        <ele>234.15393066406</ele>
        <time>2016-04-03T08:31:15.000Z</time>
      </trkpt>
      <trkpt lat="46.98919" lon="3.34068">
        <ele>234.23710632324</ele>
        <time>2016-04-03T08:31:19.000Z</time>
      </trkpt>
      <trkpt lat="46.9892" lon="3.34065">
        <ele>234.33154296875</ele>
        <time>2016-04-03T08:31:20.000Z</time>
      </trkpt>
      <trkpt lat="46.98923" lon="3.34061">
        <ele>234.44506835938</ele>
        <time>2016-04-03T08:31:23.000Z</time>
      </trkpt>
      <trkpt lat="46.98925" lon="3.3406">
        <ele>234.54927062988</ele>
        <time>2016-04-03T08:31:25.000Z</time>
      </trkpt>
      <trkpt lat="46.98926" lon="3.34057">
        <ele>234.66633605957</ele>
        <time>2016-04-03T08:31:28.000Z</time>
      </trkpt>
      <trkpt lat="46.98929" lon="3.34053">
        <ele>234.79557800293</ele>
        <time>2016-04-03T08:31:31.000Z</time>
      </trkpt>
      <trkpt lat="46.98931" lon="3.3405">
        <ele>234.92671203613</ele>
        <time>2016-04-03T08:31:33.000Z</time>
      </trkpt>
      <trkpt lat="46.98932" lon="3.34047">
        <ele>235.0500793457</ele>
        <time>2016-04-03T08:31:35.000Z</time>
      </trkpt>
      <trkpt lat="46.98934" lon="3.34043">
        <ele>235.19247436523</ele>
        <time>2016-04-03T08:31:38.000Z</time>
      </trkpt>
      <trkpt lat="46.98936" lon="3.34039">
        <ele>235.34805297852</ele>
        <time>2016-04-03T08:31:41.000Z</time>
      </trkpt>
      <trkpt lat="46.98938" lon="3.34033">
        <ele>235.50939941406</ele>
        <time>2016-04-03T08:31:44.000Z</time>
      </trkpt>
      <trkpt lat="46.9894" lon="3.3403">
        <ele>235.67276000977</ele>
        <time>2016-04-03T08:31:46.000Z</time>
      </trkpt>
      <trkpt lat="46.98941" lon="3.34027">
        <ele>235.83708190918</ele>
        <time>2016-04-03T08:31:48.000Z</time>
      </trkpt>
      <trkpt lat="46.98943" lon="3.34022">
        <ele>236.00619506836</ele>
        <time>2016-04-03T08:31:51.000Z</time>
      </trkpt>
      <trkpt lat="46.98944" lon="3.34019">
        <ele>236.16195678711</ele>
        <time>2016-04-03T08:31:53.000Z</time>
      </trkpt>
      <trkpt lat="46.98945" lon="3.34016">
        <ele>236.30097961426</ele>
        <time>2016-04-03T08:31:55.000Z</time>
      </trkpt>
      <trkpt lat="46.98946" lon="3.34014">
        <ele>236.43476867676</ele>
        <time>2016-04-03T08:31:57.000Z</time>
      </trkpt>
      <trkpt lat="46.98948" lon="3.34009">
        <ele>236.58029174805</ele>
        <time>2016-04-03T08:32:00.000Z</time>
      </trkpt>
      <trkpt lat="46.9895" lon="3.34004">
        <ele>236.72814941406</ele>
        <time>2016-04-03T08:32:03.000Z</time>
      </trkpt>
      <trkpt lat="46.98951" lon="3.34001">
        <ele>236.87776184082</ele>
        <time>2016-04-03T08:32:05.000Z</time>
      </trkpt>
      <trkpt lat="46.98952" lon="3.33998">
        <ele>237.03218078613</ele>
        <time>2016-04-03T08:32:07.000Z</time>
      </trkpt>
      <trkpt lat="46.98954" lon="3.33993">
        <ele>237.19876098633</ele>
        <time>2016-04-03T08:32:10.000Z</time>
      </trkpt>
      <trkpt lat="46.98955" lon="3.3399">
        <ele>237.3503112793</ele>
        <time>2016-04-03T08:32:12.000Z</time>
      </trkpt>
      <trkpt lat="46.98957" lon="3.33985">
        <ele>237.50106811523</ele>
        <time>2016-04-03T08:32:16.000Z</time>
      </trkpt>
      <trkpt lat="46.98959" lon="3.3398">
        <ele>237.66271972656</ele>
        <time>2016-04-03T08:32:18.000Z</time>
      </trkpt>
      <trkpt lat="46.9896" lon="3.33976">
        <ele>237.81921386719</ele>
        <time>2016-04-03T08:32:20.000Z</time>
      </trkpt>
      <trkpt lat="46.98961" lon="3.33973">
        <ele>237.96911621094</ele>
        <time>2016-04-03T08:32:22.000Z</time>
      </trkpt>
      <trkpt lat="46.98964" lon="3.33967">
        <ele>238.138671875</ele>
        <time>2016-04-03T08:32:25.000Z</time>
      </trkpt>
      <trkpt lat="46.98965" lon="3.33962">
        <ele>238.30786132812</ele>
        <time>2016-04-03T08:32:28.000Z</time>
      </trkpt>
      <trkpt lat="46.98967" lon="3.33958">
        <ele>238.47180175781</ele>
        <time>2016-04-03T08:32:31.000Z</time>
      </trkpt>
      <trkpt lat="46.98968" lon="3.33954">
        <ele>238.63598632812</ele>
        <time>2016-04-03T08:32:33.000Z</time>
      </trkpt>
      <trkpt lat="46.9897" lon="3.3395">
        <ele>238.80615234375</ele>
        <time>2016-04-03T08:32:36.000Z</time>
      </trkpt>
      <trkpt lat="46.98971" lon="3.33947">
        <ele>238.9609375</ele>
        <time>2016-04-03T08:32:38.000Z</time>
      </trkpt>
      <trkpt lat="46.98973" lon="3.33942">
        <ele>239.10864257812</ele>
        <time>2016-04-03T08:32:41.000Z</time>
      </trkpt>
      <trkpt lat="46.98974" lon="3.33939">
        <ele>239.24914550781</ele>
        <time>2016-04-03T08:32:43.000Z</time>
      </trkpt>
      <trkpt lat="46.98975" lon="3.33933">
        <ele>239.40563964844</ele>
        <time>2016-04-03T08:32:46.000Z</time>
      </trkpt>
      <trkpt lat="46.98977" lon="3.3393">
        <ele>239.552734375</ele>
        <time>2016-04-03T08:32:48.000Z</time>
      </trkpt>
      <trkpt lat="46.98978" lon="3.33926">
        <ele>239.69763183594</ele>
        <time>2016-04-03T08:32:51.000Z</time>
      </trkpt>
      <trkpt lat="46.9898" lon="3.33922">
        <ele>239.84729003906</ele>
        <time>2016-04-03T08:32:54.000Z</time>
      </trkpt>
      <trkpt lat="46.98982" lon="3.33917">
        <ele>240.01440429688</ele>
        <time>2016-04-03T08:32:57.000Z</time>
      </trkpt>
      <trkpt lat="46.98983" lon="3.33913">
        <ele>240.17593383789</ele>
        <time>2016-04-03T08:33:00.000Z</time>
      </trkpt>
      <trkpt lat="46.98985" lon="3.33908">
        <ele>240.35942077637</ele>
        <time>2016-04-03T08:33:02.000Z</time>
      </trkpt>
      <trkpt lat="46.98986" lon="3.33905">
        <ele>240.54598999023</ele>
        <time>2016-04-03T08:33:04.000Z</time>
      </trkpt>
      <trkpt lat="46.98988" lon="3.339">
        <ele>240.74487304688</ele>
        <time>2016-04-03T08:33:07.000Z</time>
      </trkpt>
      <trkpt lat="46.9899" lon="3.33896">
        <ele>240.94189453125</ele>
        <time>2016-04-03T08:33:09.000Z</time>
      </trkpt>
      <trkpt lat="46.98991" lon="3.33893">
        <ele>241.13288879395</ele>
        <time>2016-04-03T08:33:11.000Z</time>
      </trkpt>
      <trkpt lat="46.98993" lon="3.33888">
        <ele>241.32698059082</ele>
        <time>2016-04-03T08:33:14.000Z</time>
      </trkpt>
      <trkpt lat="46.98994" lon="3.33885">
        <ele>241.52648925781</ele>
        <time>2016-04-03T08:33:16.000Z</time>
      </trkpt>
      <trkpt lat="46.98996" lon="3.3388">
        <ele>241.72611999512</ele>
        <time>2016-04-03T08:33:19.000Z</time>
      </trkpt>
      <trkpt lat="46.98998" lon="3.33876">
        <ele>241.92971801758</ele>
        <time>2016-04-03T08:33:22.000Z</time>
      </trkpt>
      <trkpt lat="46.98999" lon="3.33873">
        <ele>242.13754272461</ele>
        <time>2016-04-03T08:33:24.000Z</time>
      </trkpt>
      <trkpt lat="46.99001" lon="3.3387">
        <ele>242.32717895508</ele>
        <time>2016-04-03T08:33:27.000Z</time>
      </trkpt>
      <trkpt lat="46.99002" lon="3.33867">
        <ele>242.49946594238</ele>
        <time>2016-04-03T08:33:29.000Z</time>
      </trkpt>
      <trkpt lat="46.99004" lon="3.33861">
        <ele>242.65600585938</ele>
        <time>2016-04-03T08:33:32.000Z</time>
      </trkpt>
      <trkpt lat="46.99005" lon="3.33856">
        <ele>242.80075073242</ele>
        <time>2016-04-03T08:33:35.000Z</time>
      </trkpt>
      <trkpt lat="46.99007" lon="3.3385">
        <ele>242.94918823242</ele>
        <time>2016-04-03T08:33:38.000Z</time>
      </trkpt>
      <trkpt lat="46.99009" lon="3.33847">
        <ele>243.08911132812</ele>
        <time>2016-04-03T08:33:42.000Z</time>
      </trkpt>
      <trkpt lat="46.99009" lon="3.33844">
        <ele>243.23466491699</ele>
        <time>2016-04-03T08:33:43.000Z</time>
      </trkpt>
      <trkpt lat="46.99011" lon="3.3384">
        <ele>243.36979675293</ele>
        <time>2016-04-03T08:33:45.000Z</time>
      </trkpt>
      <trkpt lat="46.99013" lon="3.33835">
        <ele>243.5062713623</ele>
        <time>2016-04-03T08:33:48.000Z</time>
      </trkpt>
      <trkpt lat="46.99015" lon="3.33829">
        <ele>243.63754272461</ele>
        <time>2016-04-03T08:33:51.000Z</time>
      </trkpt>
      <trkpt lat="46.99017" lon="3.33823">
        <ele>243.77529907227</ele>
        <time>2016-04-03T08:33:54.000Z</time>
      </trkpt>
      <trkpt lat="46.99018" lon="3.33821">
        <ele>243.90097045898</ele>
        <time>2016-04-03T08:33:56.000Z</time>
      </trkpt>
      <trkpt lat="46.9902" lon="3.33815">
        <ele>244.02909851074</ele>
        <time>2016-04-03T08:33:59.000Z</time>
      </trkpt>
      <trkpt lat="46.99022" lon="3.33809">
        <ele>244.1520690918</ele>
        <time>2016-04-03T08:34:02.000Z</time>
      </trkpt>
      <trkpt lat="46.99023" lon="3.33807">
        <ele>244.25691223145</ele>
        <time>2016-04-03T08:34:04.000Z</time>
      </trkpt>
      <trkpt lat="46.99025" lon="3.33802">
        <ele>244.3564453125</ele>
        <time>2016-04-03T08:34:07.000Z</time>
      </trkpt>
      <trkpt lat="46.99026" lon="3.33799">
        <ele>244.45858764648</ele>
        <time>2016-04-03T08:34:09.000Z</time>
      </trkpt>
      <trkpt lat="46.99027" lon="3.33797">
        <ele>244.54760742188</ele>
        <time>2016-04-03T08:34:11.000Z</time>
      </trkpt>
      <trkpt lat="46.99029" lon="3.33794">
        <ele>244.62161254883</ele>
        <time>2016-04-03T08:34:13.000Z</time>
      </trkpt>
      <trkpt lat="46.99031" lon="3.3379">
        <ele>244.70254516602</ele>
        <time>2016-04-03T08:34:16.000Z</time>
      </trkpt>
      <trkpt lat="46.99033" lon="3.33787">
        <ele>244.77908325195</ele>
        <time>2016-04-03T08:34:19.000Z</time>
      </trkpt>
      <trkpt lat="46.99035" lon="3.33782">
        <ele>244.86714172363</ele>
        <time>2016-04-03T08:34:21.000Z</time>
      </trkpt>
      <trkpt lat="46.99037" lon="3.33779">
        <ele>244.95878601074</ele>
        <time>2016-04-03T08:34:23.000Z</time>
      </trkpt>
      <trkpt lat="46.99039" lon="3.33776">
        <ele>245.05424499512</ele>
        <time>2016-04-03T08:34:25.000Z</time>
      </trkpt>
      <trkpt lat="46.99041" lon="3.33773">
        <ele>245.14245605469</ele>
        <time>2016-04-03T08:34:27.000Z</time>
      </trkpt>
      <trkpt lat="46.99046" lon="3.3377">
        <ele>245.23208618164</ele>
        <time>2016-04-03T08:34:30.000Z</time>
      </trkpt>
      <trkpt lat="46.99049" lon="3.33767">
        <ele>245.31356811523</ele>
        <time>2016-04-03T08:34:38.000Z</time>
      </trkpt>
      <trkpt lat="46.99053" lon="3.33763">
        <ele>245.39855957031</ele>
        <time>2016-04-03T08:34:39.000Z</time>
      </trkpt>
      <trkpt lat="46.99057" lon="3.3376">
        <ele>245.48832702637</ele>
        <time>2016-04-03T08:34:40.000Z</time>
      </trkpt>
      <trkpt lat="46.9906" lon="3.33757">
        <ele>245.58102416992</ele>
        <time>2016-04-03T08:34:43.000Z</time>
      </trkpt>
      <trkpt lat="46.99063" lon="3.33755">
        <ele>245.66694641113</ele>
        <time>2016-04-03T08:34:45.000Z</time>
      </trkpt>
      <trkpt lat="46.99065" lon="3.33754">
        <ele>245.74267578125</ele>
        <time>2016-04-03T08:34:47.000Z</time>
      </trkpt>
      <trkpt lat="46.99067" lon="3.33752">
        <ele>245.81246948242</ele>
        <time>2016-04-03T08:34:50.000Z</time>
      </trkpt>
      <trkpt lat="46.9907" lon="3.3375">
        <ele>245.87631225586</ele>
        <time>2016-04-03T08:34:51.000Z</time>
      </trkpt>
      <trkpt lat="46.99072" lon="3.33747">
        <ele>245.9310760498</ele>
        <time>2016-04-03T08:34:54.000Z</time>
      </trkpt>
      <trkpt lat="46.99075" lon="3.33746">
        <ele>245.97653198242</ele>
        <time>2016-04-03T08:34:57.000Z</time>
      </trkpt>
      <trkpt lat="46.99078" lon="3.33743">
        <ele>246.02128601074</ele>
        <time>2016-04-03T08:35:01.000Z</time>
      </trkpt>
      <trkpt lat="46.99081" lon="3.33741">
        <ele>246.05773925781</ele>
        <time>2016-04-03T08:35:02.000Z</time>
      </trkpt>
      <trkpt lat="46.99084" lon="3.33739">
        <ele>246.07568359375</ele>
        <time>2016-04-03T08:35:06.000Z</time>
      </trkpt>
      <trkpt lat="46.99087" lon="3.33738">
        <ele>246.05825805664</ele>
        <time>2016-04-03T08:35:07.000Z</time>
      </trkpt>
      <trkpt lat="46.9909" lon="3.33736">
        <ele>246.01901245117</ele>
        <time>2016-04-03T08:35:09.000Z</time>
      </trkpt>
      <trkpt lat="46.99092" lon="3.33733">
        <ele>245.95304870605</ele>
        <time>2016-04-03T08:35:12.000Z</time>
      </trkpt>
      <trkpt lat="46.99096" lon="3.33731">
        <ele>245.85620117188</ele>
        <time>2016-04-03T08:35:15.000Z</time>
      </trkpt>
      <trkpt lat="46.99099" lon="3.33729">
        <ele>245.73791503906</ele>
        <time>2016-04-03T08:35:18.000Z</time>
      </trkpt>
      <trkpt lat="46.99102" lon="3.33726">
        <ele>245.62944030762</ele>
        <time>2016-04-03T08:35:20.000Z</time>
      </trkpt>
      <trkpt lat="46.99105" lon="3.33724">
        <ele>245.5126953125</ele>
        <time>2016-04-03T08:35:22.000Z</time>
      </trkpt>
      <trkpt lat="46.99107" lon="3.33722">
        <ele>245.39953613281</ele>
        <time>2016-04-03T08:35:25.000Z</time>
      </trkpt>
      <trkpt lat="46.9911" lon="3.33719">
        <ele>245.29316711426</ele>
        <time>2016-04-03T08:35:28.000Z</time>
      </trkpt>
      <trkpt lat="46.99112" lon="3.33716">
        <ele>245.19779968262</ele>
        <time>2016-04-03T08:35:30.000Z</time>
      </trkpt>
      <trkpt lat="46.99114" lon="3.33714">
        <ele>245.10624694824</ele>
        <time>2016-04-03T08:35:34.000Z</time>
      </trkpt>
      <trkpt lat="46.99116" lon="3.33713">
        <ele>245.02925109863</ele>
        <time>2016-04-03T08:35:35.000Z</time>
      </trkpt>
      <trkpt lat="46.99118" lon="3.3371">
        <ele>244.95634460449</ele>
        <time>2016-04-03T08:35:38.000Z</time>
      </trkpt>
      <trkpt lat="46.9912" lon="3.33708">
        <ele>244.88757324219</ele>
        <time>2016-04-03T08:35:40.000Z</time>
      </trkpt>
      <trkpt lat="46.99123" lon="3.33704">
        <ele>244.81416320801</ele>
        <time>2016-04-03T08:35:43.000Z</time>
      </trkpt>
      <trkpt lat="46.99125" lon="3.33701">
        <ele>244.74653625488</ele>
        <time>2016-04-03T08:35:45.000Z</time>
      </trkpt>
      <trkpt lat="46.99126" lon="3.337">
        <ele>244.67565917969</ele>
        <time>2016-04-03T08:35:48.000Z</time>
      </trkpt>
      <trkpt lat="46.99128" lon="3.33699">
        <ele>244.60754394531</ele>
        <time>2016-04-03T08:35:56.000Z</time>
      </trkpt>
      <trkpt lat="46.9913" lon="3.33697">
        <ele>244.53715515137</ele>
        <time>2016-04-03T08:35:58.000Z</time>
      </trkpt>
      <trkpt lat="46.99133" lon="3.33694">
        <ele>244.46186828613</ele>
        <time>2016-04-03T08:36:00.000Z</time>
      </trkpt>
      <trkpt lat="46.99137" lon="3.3369">
        <ele>244.36804199219</ele>
        <time>2016-04-03T08:36:03.000Z</time>
      </trkpt>
      <trkpt lat="46.99139" lon="3.33688">
        <ele>244.271484375</ele>
        <time>2016-04-03T08:36:05.000Z</time>
      </trkpt>
      <trkpt lat="46.99141" lon="3.33687">
        <ele>244.17304992676</ele>
        <time>2016-04-03T08:36:07.000Z</time>
      </trkpt>
      <trkpt lat="46.99143" lon="3.33685">
        <ele>244.07685852051</ele>
        <time>2016-04-03T08:36:09.000Z</time>
      </trkpt>
      <trkpt lat="46.99147" lon="3.33682">
        <ele>243.96659851074</ele>
        <time>2016-04-03T08:36:12.000Z</time>
      </trkpt>
      <trkpt lat="46.9915" lon="3.3368">
        <ele>243.86669921875</ele>
        <time>2016-04-03T08:36:14.000Z</time>
      </trkpt>
      <trkpt lat="46.99154" lon="3.33676">
        <ele>243.75444030762</ele>
        <time>2016-04-03T08:36:17.000Z</time>
      </trkpt>
      <trkpt lat="46.99155" lon="3.33675">
        <ele>243.64653015137</ele>
        <time>2016-04-03T08:36:19.000Z</time>
      </trkpt>
      <trkpt lat="46.99157" lon="3.33672">
        <ele>243.53955078125</ele>
        <time>2016-04-03T08:36:21.000Z</time>
      </trkpt>
      <trkpt lat="46.9916" lon="3.3367">
        <ele>243.44799804688</ele>
        <time>2016-04-03T08:36:23.000Z</time>
      </trkpt>
      <trkpt lat="46.99163" lon="3.33667">
        <ele>243.35737609863</ele>
        <time>2016-04-03T08:36:25.000Z</time>
      </trkpt>
      <trkpt lat="46.99165" lon="3.33663">
        <ele>243.27876281738</ele>
        <time>2016-04-03T08:36:28.000Z</time>
      </trkpt>
      <trkpt lat="46.99167" lon="3.33661">
        <ele>243.20202636719</ele>
        <time>2016-04-03T08:36:30.000Z</time>
      </trkpt>
      <trkpt lat="46.99169" lon="3.33658">
        <ele>243.13366699219</ele>
        <time>2016-04-03T08:36:34.000Z</time>
      </trkpt>
      <trkpt lat="46.9917" lon="3.33655">
        <ele>243.08390808105</ele>
        <time>2016-04-03T08:36:35.000Z</time>
      </trkpt>
      <trkpt lat="46.99173" lon="3.33651">
        <ele>243.04267883301</ele>
        <time>2016-04-03T08:36:38.000Z</time>
      </trkpt>
      <trkpt lat="46.99175" lon="3.33646">
        <ele>243.02172851562</ele>
        <time>2016-04-03T08:36:41.000Z</time>
      </trkpt>
      <trkpt lat="46.99177" lon="3.33643">
        <ele>243.00382995605</ele>
        <time>2016-04-03T08:36:43.000Z</time>
      </trkpt>
      <trkpt lat="46.9918" lon="3.33638">
        <ele>242.99174499512</ele>
        <time>2016-04-03T08:36:46.000Z</time>
      </trkpt>
      <trkpt lat="46.99182" lon="3.33636">
        <ele>242.97969055176</ele>
        <time>2016-04-03T08:36:48.000Z</time>
      </trkpt>
      <trkpt lat="46.99184" lon="3.33631">
        <ele>242.97933959961</ele>
        <time>2016-04-03T08:36:51.000Z</time>
      </trkpt>
      <trkpt lat="46.99186" lon="3.33628">
        <ele>242.97883605957</ele>
        <time>2016-04-03T08:36:54.000Z</time>
      </trkpt>
      <trkpt lat="46.99187" lon="3.33625">
        <ele>242.98208618164</ele>
        <time>2016-04-03T08:36:56.000Z</time>
      </trkpt>
      <trkpt lat="46.99189" lon="3.33623">
        <ele>242.98811340332</ele>
        <time>2016-04-03T08:36:58.000Z</time>
      </trkpt>
      <trkpt lat="46.9919" lon="3.33619">
        <ele>243.00552368164</ele>
        <time>2016-04-03T08:37:00.000Z</time>
      </trkpt>
      <trkpt lat="46.99192" lon="3.33613">
        <ele>243.03210449219</ele>
        <time>2016-04-03T08:37:03.000Z</time>
      </trkpt>
      <trkpt lat="46.99195" lon="3.33608">
        <ele>243.06713867188</ele>
        <time>2016-04-03T08:37:06.000Z</time>
      </trkpt>
      <trkpt lat="46.99197" lon="3.33604">
        <ele>243.10549926758</ele>
        <time>2016-04-03T08:37:09.000Z</time>
      </trkpt>
      <trkpt lat="46.99199" lon="3.336">
        <ele>243.15463256836</ele>
        <time>2016-04-03T08:37:12.000Z</time>
      </trkpt>
      <trkpt lat="46.99201" lon="3.33597">
        <ele>243.20169067383</ele>
        <time>2016-04-03T08:37:14.000Z</time>
      </trkpt>
      <trkpt lat="46.99203" lon="3.33593">
        <ele>243.24736022949</ele>
        <time>2016-04-03T08:37:17.000Z</time>
      </trkpt>
      <trkpt lat="46.99205" lon="3.33589">
        <ele>243.29666137695</ele>
        <time>2016-04-03T08:37:19.000Z</time>
      </trkpt>
      <trkpt lat="46.99207" lon="3.33586">
        <ele>243.35302734375</ele>
        <time>2016-04-03T08:37:21.000Z</time>
      </trkpt>
      <trkpt lat="46.99209" lon="3.33581">
        <ele>243.41101074219</ele>
        <time>2016-04-03T08:37:24.000Z</time>
      </trkpt>
      <trkpt lat="46.99212" lon="3.33578">
        <ele>243.4794921875</ele>
        <time>2016-04-03T08:37:27.000Z</time>
      </trkpt>
      <trkpt lat="46.99214" lon="3.33574">
        <ele>243.5500793457</ele>
        <time>2016-04-03T08:37:30.000Z</time>
      </trkpt>
      <trkpt lat="46.99217" lon="3.33569">
        <ele>243.62641906738</ele>
        <time>2016-04-03T08:37:33.000Z</time>
      </trkpt>
      <trkpt lat="46.9922" lon="3.33565">
        <ele>243.70834350586</ele>
        <time>2016-04-03T08:37:36.000Z</time>
      </trkpt>
      <trkpt lat="46.99221" lon="3.33562">
        <ele>243.78674316406</ele>
        <time>2016-04-03T08:37:38.000Z</time>
      </trkpt>
      <trkpt lat="46.99224" lon="3.33557">
        <ele>243.8674621582</ele>
        <time>2016-04-03T08:37:41.000Z</time>
      </trkpt>
      <trkpt lat="46.99226" lon="3.33554">
        <ele>243.94409179688</ele>
        <time>2016-04-03T08:37:44.000Z</time>
      </trkpt>
      <trkpt lat="46.99228" lon="3.33549">
        <ele>244.02145385742</ele>
        <time>2016-04-03T08:37:47.000Z</time>
      </trkpt>
      <trkpt lat="46.99229" lon="3.33546">
        <ele>244.09541320801</ele>
        <time>2016-04-03T08:37:49.000Z</time>
      </trkpt>
      <trkpt lat="46.99231" lon="3.33543">
        <ele>244.17219543457</ele>
        <time>2016-04-03T08:37:51.000Z</time>
      </trkpt>
      <trkpt lat="46.99232" lon="3.3354">
        <ele>244.24075317383</ele>
        <time>2016-04-03T08:37:53.000Z</time>
      </trkpt>
      <trkpt lat="46.99233" lon="3.33537">
        <ele>244.30854797363</ele>
        <time>2016-04-03T08:37:55.000Z</time>
      </trkpt>
      <trkpt lat="46.99236" lon="3.33533">
        <ele>244.37036132812</ele>
        <time>2016-04-03T08:37:58.000Z</time>
      </trkpt>
      <trkpt lat="46.99238" lon="3.33528">
        <ele>244.43171691895</ele>
        <time>2016-04-03T08:38:01.000Z</time>
      </trkpt>
      <trkpt lat="46.9924" lon="3.33526">
        <ele>244.48388671875</ele>
        <time>2016-04-03T08:38:04.000Z</time>
      </trkpt>
      <trkpt lat="46.99243" lon="3.33522">
        <ele>244.53471374512</ele>
        <time>2016-04-03T08:38:06.000Z</time>
      </trkpt>
      <trkpt lat="46.99246" lon="3.33517">
        <ele>244.58427429199</ele>
        <time>2016-04-03T08:38:09.000Z</time>
      </trkpt>
      <trkpt lat="46.99249" lon="3.33513">
        <ele>244.63021850586</ele>
        <time>2016-04-03T08:38:12.000Z</time>
      </trkpt>
      <trkpt lat="46.9925" lon="3.3351">
        <ele>244.67251586914</ele>
        <time>2016-04-03T08:38:14.000Z</time>
      </trkpt>
      <trkpt lat="46.99252" lon="3.33506">
        <ele>244.70736694336</ele>
        <time>2016-04-03T08:38:17.000Z</time>
      </trkpt>
      <trkpt lat="46.99254" lon="3.33501">
        <ele>244.73764038086</ele>
        <time>2016-04-03T08:38:20.000Z</time>
      </trkpt>
      <trkpt lat="46.99257" lon="3.33497">
        <ele>244.74215698242</ele>
        <time>2016-04-03T08:38:23.000Z</time>
      </trkpt>
      <trkpt lat="46.99258" lon="3.33494">
        <ele>244.71823120117</ele>
        <time>2016-04-03T08:38:25.000Z</time>
      </trkpt>
      <trkpt lat="46.9926" lon="3.33491">
        <ele>244.67207336426</ele>
        <time>2016-04-03T08:38:28.000Z</time>
      </trkpt>
      <trkpt lat="46.99263" lon="3.33486">
        <ele>244.60940551758</ele>
        <time>2016-04-03T08:38:31.000Z</time>
      </trkpt>
      <trkpt lat="46.99265" lon="3.33483">
        <ele>244.53059387207</ele>
        <time>2016-04-03T08:38:34.000Z</time>
      </trkpt>
      <trkpt lat="46.99267" lon="3.33478">
        <ele>244.44921875</ele>
        <time>2016-04-03T08:38:37.000Z</time>
      </trkpt>
      <trkpt lat="46.99269" lon="3.33475">
        <ele>244.37252807617</ele>
        <time>2016-04-03T08:38:39.000Z</time>
      </trkpt>
      <trkpt lat="46.99271" lon="3.33472">
        <ele>244.29885864258</ele>
        <time>2016-04-03T08:38:41.000Z</time>
      </trkpt>
      <trkpt lat="46.99273" lon="3.33469">
        <ele>244.23193359375</ele>
        <time>2016-04-03T08:38:43.000Z</time>
      </trkpt>
      <trkpt lat="46.99276" lon="3.33464">
        <ele>244.16133117676</ele>
        <time>2016-04-03T08:38:46.000Z</time>
      </trkpt>
      <trkpt lat="46.99277" lon="3.33462">
        <ele>244.10864257812</ele>
        <time>2016-04-03T08:38:48.000Z</time>
      </trkpt>
      <trkpt lat="46.99279" lon="3.33458">
        <ele>244.06062316895</ele>
        <time>2016-04-03T08:38:51.000Z</time>
      </trkpt>
      <trkpt lat="46.99281" lon="3.33455">
        <ele>244.01069641113</ele>
        <time>2016-04-03T08:38:53.000Z</time>
      </trkpt>
      <trkpt lat="46.99283" lon="3.33451">
        <ele>243.96603393555</ele>
        <time>2016-04-03T08:38:56.000Z</time>
      </trkpt>
      <trkpt lat="46.99284" lon="3.33447">
        <ele>243.93476867676</ele>
        <time>2016-04-03T08:38:58.000Z</time>
      </trkpt>
      <trkpt lat="46.99286" lon="3.33445">
        <ele>243.90274047852</ele>
        <time>2016-04-03T08:39:00.000Z</time>
      </trkpt>
      <trkpt lat="46.99288" lon="3.33441">
        <ele>243.87203979492</ele>
        <time>2016-04-03T08:39:03.000Z</time>
      </trkpt>
      <trkpt lat="46.9929" lon="3.33438">
        <ele>243.85098266602</ele>
        <time>2016-04-03T08:39:06.000Z</time>
      </trkpt>
      <trkpt lat="46.99291" lon="3.33435">
        <ele>243.83293151855</ele>
        <time>2016-04-03T08:39:09.000Z</time>
      </trkpt>
      <trkpt lat="46.99293" lon="3.33432">
        <ele>243.81274414062</ele>
        <time>2016-04-03T08:39:11.000Z</time>
      </trkpt>
      <trkpt lat="46.99297" lon="3.33427">
        <ele>243.79013061523</ele>
        <time>2016-04-03T08:39:13.000Z</time>
      </trkpt>
      <trkpt lat="46.993" lon="3.33422">
        <ele>243.77082824707</ele>
        <time>2016-04-03T08:39:17.000Z</time>
      </trkpt>
      <trkpt lat="46.99301" lon="3.3342">
        <ele>243.75521850586</ele>
        <time>2016-04-03T08:39:19.000Z</time>
      </trkpt>
      <trkpt lat="46.99303" lon="3.33418">
        <ele>243.7392578125</ele>
        <time>2016-04-03T08:39:22.000Z</time>
      </trkpt>
      <trkpt lat="46.99303" lon="3.33418">
        <ele>243.7392578125</ele>
        <time>2016-04-03T08:39:42.000Z</time>
      </trkpt>
      <trkpt lat="46.99301" lon="3.33417">
        <ele>243.73799133301</ele>
        <time>2016-04-03T08:39:48.000Z</time>
      </trkpt>
      <trkpt lat="46.99302" lon="3.33417">
        <ele>243.74105834961</ele>
        <time>2016-04-03T08:40:00.000Z</time>
      </trkpt>
      <trkpt lat="46.99304" lon="3.33417">
        <ele>243.73579406738</ele>
        <time>2016-04-03T08:40:03.000Z</time>
      </trkpt>
      <trkpt lat="46.99306" lon="3.33415">
        <ele>243.72871398926</ele>
        <time>2016-04-03T08:40:05.000Z</time>
      </trkpt>
      <trkpt lat="46.99309" lon="3.33413">
        <ele>243.73051452637</ele>
        <time>2016-04-03T08:40:08.000Z</time>
      </trkpt>
      <trkpt lat="46.99311" lon="3.33411">
        <ele>243.72094726562</ele>
        <time>2016-04-03T08:40:10.000Z</time>
      </trkpt>
      <trkpt lat="46.99314" lon="3.33408">
        <ele>243.72319030762</ele>
        <time>2016-04-03T08:40:12.000Z</time>
      </trkpt>
      <trkpt lat="46.99318" lon="3.33405">
        <ele>243.74169921875</ele>
        <time>2016-04-03T08:40:15.000Z</time>
      </trkpt>
      <trkpt lat="46.9932" lon="3.33402">
        <ele>243.77412414551</ele>
        <time>2016-04-03T08:40:18.000Z</time>
      </trkpt>
      <trkpt lat="46.99323" lon="3.33399">
        <ele>243.80790710449</ele>
        <time>2016-04-03T08:40:21.000Z</time>
      </trkpt>
      <trkpt lat="46.99326" lon="3.33397">
        <ele>243.84541320801</ele>
        <time>2016-04-03T08:40:24.000Z</time>
      </trkpt>
      <trkpt lat="46.99329" lon="3.33394">
        <ele>243.87414550781</ele>
        <time>2016-04-03T08:40:25.000Z</time>
      </trkpt>
      <trkpt lat="46.99332" lon="3.33392">
        <ele>243.89721679688</ele>
        <time>2016-04-03T08:40:28.000Z</time>
      </trkpt>
      <trkpt lat="46.99335" lon="3.33391">
        <ele>243.90498352051</ele>
        <time>2016-04-03T08:40:30.000Z</time>
      </trkpt>
      <trkpt lat="46.99339" lon="3.33389">
        <ele>243.9150390625</ele>
        <time>2016-04-03T08:40:33.000Z</time>
      </trkpt>
      <trkpt lat="46.99341" lon="3.33387">
        <ele>243.9273223877</ele>
        <time>2016-04-03T08:40:35.000Z</time>
      </trkpt>
      <trkpt lat="46.99345" lon="3.33384">
        <ele>243.94779968262</ele>
        <time>2016-04-03T08:40:38.000Z</time>
      </trkpt>
      <trkpt lat="46.99347" lon="3.33383">
        <ele>243.97583007812</ele>
        <time>2016-04-03T08:40:40.000Z</time>
      </trkpt>
      <trkpt lat="46.9935" lon="3.33381">
        <ele>244.01557922363</ele>
        <time>2016-04-03T08:40:43.000Z</time>
      </trkpt>
      <trkpt lat="46.99353" lon="3.33378">
        <ele>244.05683898926</ele>
        <time>2016-04-03T08:40:46.000Z</time>
      </trkpt>
      <trkpt lat="46.99356" lon="3.33377">
        <ele>244.09614562988</ele>
        <time>2016-04-03T08:40:48.000Z</time>
      </trkpt>
      <trkpt lat="46.99358" lon="3.33375">
        <ele>244.13114929199</ele>
        <time>2016-04-03T08:40:50.000Z</time>
      </trkpt>
      <trkpt lat="46.99361" lon="3.33373">
        <ele>244.17004394531</ele>
        <time>2016-04-03T08:40:53.000Z</time>
      </trkpt>
      <trkpt lat="46.99364" lon="3.3337">
        <ele>244.21020507812</ele>
        <time>2016-04-03T08:40:56.000Z</time>
      </trkpt>
      <trkpt lat="46.99367" lon="3.33369">
        <ele>244.24018859863</ele>
        <time>2016-04-03T08:40:59.000Z</time>
      </trkpt>
      <trkpt lat="46.99371" lon="3.33367">
        <ele>244.27526855469</ele>
        <time>2016-04-03T08:41:01.000Z</time>
      </trkpt>
      <trkpt lat="46.99375" lon="3.33365">
        <ele>244.30805969238</ele>
        <time>2016-04-03T08:41:04.000Z</time>
      </trkpt>
      <trkpt lat="46.99379" lon="3.33364">
        <ele>244.33110046387</ele>
        <time>2016-04-03T08:41:07.000Z</time>
      </trkpt>
      <trkpt lat="46.99382" lon="3.33363">
        <ele>244.34297180176</ele>
        <time>2016-04-03T08:41:09.000Z</time>
      </trkpt>
      <trkpt lat="46.99385" lon="3.33362">
        <ele>244.35510253906</ele>
        <time>2016-04-03T08:41:12.000Z</time>
      </trkpt>
      <trkpt lat="46.99389" lon="3.33359">
        <ele>244.36845397949</ele>
        <time>2016-04-03T08:41:15.000Z</time>
      </trkpt>
      <trkpt lat="46.99391" lon="3.33358">
        <ele>244.38000488281</ele>
        <time>2016-04-03T08:41:17.000Z</time>
      </trkpt>
      <trkpt lat="46.99395" lon="3.33356">
        <ele>244.4013671875</ele>
        <time>2016-04-03T08:41:20.000Z</time>
      </trkpt>
      <trkpt lat="46.99398" lon="3.33353">
        <ele>244.42778015137</ele>
        <time>2016-04-03T08:41:23.000Z</time>
      </trkpt>
      <trkpt lat="46.99401" lon="3.33352">
        <ele>244.45788574219</ele>
        <time>2016-04-03T08:41:25.000Z</time>
      </trkpt>
      <trkpt lat="46.99404" lon="3.3335">
        <ele>244.48779296875</ele>
        <time>2016-04-03T08:41:28.000Z</time>
      </trkpt>
      <trkpt lat="46.99407" lon="3.33348">
        <ele>244.52551269531</ele>
        <time>2016-04-03T08:41:31.000Z</time>
      </trkpt>
      <trkpt lat="46.99411" lon="3.33345">
        <ele>244.56555175781</ele>
        <time>2016-04-03T08:41:34.000Z</time>
      </trkpt>
      <trkpt lat="46.99414" lon="3.33342">
        <ele>244.61340332031</ele>
        <time>2016-04-03T08:41:37.000Z</time>
      </trkpt>
      <trkpt lat="46.99417" lon="3.33339">
        <ele>244.66870117188</ele>
        <time>2016-04-03T08:41:40.000Z</time>
      </trkpt>
      <trkpt lat="46.99419" lon="3.33337">
        <ele>244.72094726562</ele>
        <time>2016-04-03T08:41:42.000Z</time>
      </trkpt>
      <trkpt lat="46.99422" lon="3.33334">
        <ele>244.76835632324</ele>
        <time>2016-04-03T08:41:45.000Z</time>
      </trkpt>
      <trkpt lat="46.99426" lon="3.33331">
        <ele>244.81198120117</ele>
        <time>2016-04-03T08:41:48.000Z</time>
      </trkpt>
      <trkpt lat="46.99428" lon="3.33329">
        <ele>244.84805297852</ele>
        <time>2016-04-03T08:41:50.000Z</time>
      </trkpt>
      <trkpt lat="46.99431" lon="3.33328">
        <ele>244.87663269043</ele>
        <time>2016-04-03T08:41:52.000Z</time>
      </trkpt>
      <trkpt lat="46.99434" lon="3.33324">
        <ele>244.91189575195</ele>
        <time>2016-04-03T08:41:55.000Z</time>
      </trkpt>
      <trkpt lat="46.99438" lon="3.33322">
        <ele>244.94613647461</ele>
        <time>2016-04-03T08:41:58.000Z</time>
      </trkpt>
      <trkpt lat="46.9944" lon="3.3332">
        <ele>244.97680664062</ele>
        <time>2016-04-03T08:42:00.000Z</time>
      </trkpt>
      <trkpt lat="46.99443" lon="3.33317">
        <ele>245.01509094238</ele>
        <time>2016-04-03T08:42:04.000Z</time>
      </trkpt>
      <trkpt lat="46.99446" lon="3.33314">
        <ele>245.05180358887</ele>
        <time>2016-04-03T08:42:06.000Z</time>
      </trkpt>
      <trkpt lat="46.9945" lon="3.33311">
        <ele>245.08688354492</ele>
        <time>2016-04-03T08:42:09.000Z</time>
      </trkpt>
      <trkpt lat="46.99454" lon="3.33309">
        <ele>245.11657714844</ele>
        <time>2016-04-03T08:42:12.000Z</time>
      </trkpt>
      <trkpt lat="46.99457" lon="3.33307">
        <ele>245.13906860352</ele>
        <time>2016-04-03T08:42:15.000Z</time>
      </trkpt>
      <trkpt lat="46.99461" lon="3.33304">
        <ele>245.15031433105</ele>
        <time>2016-04-03T08:42:18.000Z</time>
      </trkpt>
      <trkpt lat="46.99463" lon="3.33303">
        <ele>245.15791320801</ele>
        <time>2016-04-03T08:42:21.000Z</time>
      </trkpt>
      <trkpt lat="46.99467" lon="3.33301">
        <ele>245.1488494873</ele>
        <time>2016-04-03T08:42:22.000Z</time>
      </trkpt>
      <trkpt lat="46.99471" lon="3.33298">
        <ele>245.13461303711</ele>
        <time>2016-04-03T08:42:26.000Z</time>
      </trkpt>
      <trkpt lat="46.99475" lon="3.33296">
        <ele>245.12199401855</ele>
        <time>2016-04-03T08:42:29.000Z</time>
      </trkpt>
      <trkpt lat="46.99477" lon="3.33294">
        <ele>245.10751342773</ele>
        <time>2016-04-03T08:42:35.000Z</time>
      </trkpt>
      <trkpt lat="46.99482" lon="3.33292">
        <ele>245.08340454102</ele>
        <time>2016-04-03T08:42:40.000Z</time>
      </trkpt>
      <trkpt lat="46.99484" lon="3.33291">
        <ele>245.05891418457</ele>
        <time>2016-04-03T08:42:44.000Z</time>
      </trkpt>
      <trkpt lat="46.99488" lon="3.33289">
        <ele>245.02803039551</ele>
        <time>2016-04-03T08:42:47.000Z</time>
      </trkpt>
      <trkpt lat="46.99492" lon="3.33287">
        <ele>244.99401855469</ele>
        <time>2016-04-03T08:42:51.000Z</time>
      </trkpt>
      <trkpt lat="46.99496" lon="3.33284">
        <ele>244.95495605469</ele>
        <time>2016-04-03T08:42:55.000Z</time>
      </trkpt>
      <trkpt lat="46.99498" lon="3.33283">
        <ele>244.9185333252</ele>
        <time>2016-04-03T08:42:55.000Z</time>
      </trkpt>
      <trkpt lat="46.995" lon="3.33283">
        <ele>244.87763977051</ele>
        <time>2016-04-03T08:42:56.000Z</time>
      </trkpt>
      <trkpt lat="46.99502" lon="3.33282">
        <ele>244.82197570801</ele>
        <time>2016-04-03T08:42:56.000Z</time>
      </trkpt>
      <trkpt lat="46.99504" lon="3.33281">
        <ele>244.75190734863</ele>
        <time>2016-04-03T08:42:57.000Z</time>
      </trkpt>
      <trkpt lat="46.99507" lon="3.33279">
        <ele>244.64595031738</ele>
        <time>2016-04-03T08:42:58.000Z</time>
      </trkpt>
      <trkpt lat="46.9951" lon="3.33278">
        <ele>244.51257324219</ele>
        <time>2016-04-03T08:43:00.000Z</time>
      </trkpt>
      <trkpt lat="46.99514" lon="3.33276">
        <ele>244.33187866211</ele>
        <time>2016-04-03T08:43:03.000Z</time>
      </trkpt>
      <trkpt lat="46.99518" lon="3.33275">
        <ele>244.13037109375</ele>
        <time>2016-04-03T08:43:05.000Z</time>
      </trkpt>
      <trkpt lat="46.9952" lon="3.33273">
        <ele>243.92599487305</ele>
        <time>2016-04-03T08:43:08.000Z</time>
      </trkpt>
      <trkpt lat="46.99523" lon="3.33269">
        <ele>243.74150085449</ele>
        <time>2016-04-03T08:43:10.000Z</time>
      </trkpt>
      <trkpt lat="46.99524" lon="3.33265">
        <ele>243.61019897461</ele>
        <time>2016-04-03T08:43:13.000Z</time>
      </trkpt>
      <trkpt lat="46.99524" lon="3.33263">
        <ele>243.54362487793</ele>
        <time>2016-04-03T08:43:15.000Z</time>
      </trkpt>
      <trkpt lat="46.99523" lon="3.3326">
        <ele>243.5619354248</ele>
        <time>2016-04-03T08:43:17.000Z</time>
      </trkpt>
      <trkpt lat="46.99522" lon="3.33253">
        <ele>243.66328430176</ele>
        <time>2016-04-03T08:43:21.000Z</time>
      </trkpt>
      <trkpt lat="46.9952" lon="3.33248">
        <ele>243.83512878418</ele>
        <time>2016-04-03T08:43:23.000Z</time>
      </trkpt>
      <trkpt lat="46.9952" lon="3.33245">
        <ele>244.01168823242</ele>
        <time>2016-04-03T08:43:26.000Z</time>
      </trkpt>
      <trkpt lat="46.99519" lon="3.33242">
        <ele>244.19575500488</ele>
        <time>2016-04-03T08:43:28.000Z</time>
      </trkpt>
      <trkpt lat="46.99518" lon="3.33238">
        <ele>244.38447570801</ele>
        <time>2016-04-03T08:43:30.000Z</time>
      </trkpt>
      <trkpt lat="46.99517" lon="3.33235">
        <ele>244.533203125</ele>
        <time>2016-04-03T08:43:32.000Z</time>
      </trkpt>
      <trkpt lat="46.99516" lon="3.3323">
        <ele>244.65864562988</ele>
        <time>2016-04-03T08:43:35.000Z</time>
      </trkpt>
      <trkpt lat="46.99515" lon="3.33227">
        <ele>244.79165649414</ele>
        <time>2016-04-03T08:43:39.000Z</time>
      </trkpt>
      <trkpt lat="46.99513" lon="3.33223">
        <ele>244.947265625</ele>
        <time>2016-04-03T08:43:43.000Z</time>
      </trkpt>
      <trkpt lat="46.99512" lon="3.33219">
        <ele>245.09062194824</ele>
        <time>2016-04-03T08:43:43.000Z</time>
      </trkpt>
      <trkpt lat="46.99511" lon="3.33215">
        <ele>245.24401855469</ele>
        <time>2016-04-03T08:43:46.000Z</time>
      </trkpt>
      <trkpt lat="46.99509" lon="3.33211">
        <ele>245.40747070312</ele>
        <time>2016-04-03T08:43:49.000Z</time>
      </trkpt>
      <trkpt lat="46.99508" lon="3.33209">
        <ele>245.56001281738</ele>
        <time>2016-04-03T08:43:51.000Z</time>
      </trkpt>
      <trkpt lat="46.99506" lon="3.33206">
        <ele>245.71476745605</ele>
        <time>2016-04-03T08:43:54.000Z</time>
      </trkpt>
      <trkpt lat="46.99504" lon="3.33201">
        <ele>245.89054870605</ele>
        <time>2016-04-03T08:43:57.000Z</time>
      </trkpt>
      <trkpt lat="46.99502" lon="3.33196">
        <ele>246.07885742188</ele>
        <time>2016-04-03T08:43:59.000Z</time>
      </trkpt>
      <trkpt lat="46.99499" lon="3.33191">
        <ele>246.28996276855</ele>
        <time>2016-04-03T08:44:02.000Z</time>
      </trkpt>
      <trkpt lat="46.99498" lon="3.33189">
        <ele>246.49955749512</ele>
        <time>2016-04-03T08:44:04.000Z</time>
      </trkpt>
      <trkpt lat="46.99495" lon="3.33183">
        <ele>246.72106933594</ele>
        <time>2016-04-03T08:44:07.000Z</time>
      </trkpt>
      <trkpt lat="46.99494" lon="3.3318">
        <ele>246.9204864502</ele>
        <time>2016-04-03T08:44:09.000Z</time>
      </trkpt>
      <trkpt lat="46.99492" lon="3.33176">
        <ele>247.11917114258</ele>
        <time>2016-04-03T08:44:12.000Z</time>
      </trkpt>
      <trkpt lat="46.9949" lon="3.33171">
        <ele>247.31636047363</ele>
        <time>2016-04-03T08:44:15.000Z</time>
      </trkpt>
      <trkpt lat="46.99488" lon="3.33169">
        <ele>247.52555847168</ele>
        <time>2016-04-03T08:44:18.000Z</time>
      </trkpt>
      <trkpt lat="46.99487" lon="3.33165">
        <ele>247.72253417969</ele>
        <time>2016-04-03T08:44:20.000Z</time>
      </trkpt>
      <trkpt lat="46.99485" lon="3.33162">
        <ele>247.93412780762</ele>
        <time>2016-04-03T08:44:23.000Z</time>
      </trkpt>
      <trkpt lat="46.99482" lon="3.33158">
        <ele>248.16134643555</ele>
        <time>2016-04-03T08:44:26.000Z</time>
      </trkpt>
      <trkpt lat="46.9948" lon="3.33155">
        <ele>248.38232421875</ele>
        <time>2016-04-03T08:44:29.000Z</time>
      </trkpt>
      <trkpt lat="46.99477" lon="3.33152">
        <ele>248.62438964844</ele>
        <time>2016-04-03T08:44:32.000Z</time>
      </trkpt>
      <trkpt lat="46.99475" lon="3.3315">
        <ele>248.869140625</ele>
        <time>2016-04-03T08:44:34.000Z</time>
      </trkpt>
      <trkpt lat="46.99473" lon="3.33146">
        <ele>249.12728881836</ele>
        <time>2016-04-03T08:44:37.000Z</time>
      </trkpt>
      <trkpt lat="46.9947" lon="3.33142">
        <ele>249.38928222656</ele>
        <time>2016-04-03T08:44:41.000Z</time>
      </trkpt>
      <trkpt lat="46.99467" lon="3.33138">
        <ele>249.66146850586</ele>
        <time>2016-04-03T08:44:43.000Z</time>
      </trkpt>
      <trkpt lat="46.99465" lon="3.33135">
        <ele>249.92939758301</ele>
        <time>2016-04-03T08:44:46.000Z</time>
      </trkpt>
      <trkpt lat="46.99462" lon="3.33131">
        <ele>250.2279510498</ele>
        <time>2016-04-03T08:44:49.000Z</time>
      </trkpt>
      <trkpt lat="46.9946" lon="3.33128">
        <ele>250.51924133301</ele>
        <time>2016-04-03T08:44:52.000Z</time>
      </trkpt>
      <trkpt lat="46.99457" lon="3.33125">
        <ele>250.80142211914</ele>
        <time>2016-04-03T08:44:55.000Z</time>
      </trkpt>
      <trkpt lat="46.99454" lon="3.33123">
        <ele>251.07974243164</ele>
        <time>2016-04-03T08:44:57.000Z</time>
      </trkpt>
      <trkpt lat="46.99452" lon="3.3312">
        <ele>251.36689758301</ele>
        <time>2016-04-03T08:45:00.000Z</time>
      </trkpt>
      <trkpt lat="46.9945" lon="3.33118">
        <ele>251.61880493164</ele>
        <time>2016-04-03T08:45:02.000Z</time>
      </trkpt>
      <trkpt lat="46.99449" lon="3.33115">
        <ele>251.86360168457</ele>
        <time>2016-04-03T08:45:04.000Z</time>
      </trkpt>
      <trkpt lat="46.99446" lon="3.33111">
        <ele>252.10762023926</ele>
        <time>2016-04-03T08:45:08.000Z</time>
      </trkpt>
      <trkpt lat="46.99445" lon="3.33107">
        <ele>252.33296203613</ele>
        <time>2016-04-03T08:45:09.000Z</time>
      </trkpt>
      <trkpt lat="46.99443" lon="3.33102">
        <ele>252.56900024414</ele>
        <time>2016-04-03T08:45:13.000Z</time>
      </trkpt>
      <trkpt lat="46.99442" lon="3.331">
        <ele>252.80126953125</ele>
        <time>2016-04-03T08:45:14.000Z</time>
      </trkpt>
      <trkpt lat="46.9944" lon="3.33097">
        <ele>253.03213500977</ele>
        <time>2016-04-03T08:45:16.000Z</time>
      </trkpt>
      <trkpt lat="46.99438" lon="3.33094">
        <ele>253.26997375488</ele>
        <time>2016-04-03T08:45:19.000Z</time>
      </trkpt>
      <trkpt lat="46.99437" lon="3.33091">
        <ele>253.5029296875</ele>
        <time>2016-04-03T08:45:21.000Z</time>
      </trkpt>
      <trkpt lat="46.99435" lon="3.33089">
        <ele>253.70539855957</ele>
        <time>2016-04-03T08:45:24.000Z</time>
      </trkpt>
      <trkpt lat="46.99434" lon="3.33087">
        <ele>253.91357421875</ele>
        <time>2016-04-03T08:45:27.000Z</time>
      </trkpt>
      <trkpt lat="46.99432" lon="3.33083">
        <ele>254.13833618164</ele>
        <time>2016-04-03T08:45:31.000Z</time>
      </trkpt>
      <trkpt lat="46.99429" lon="3.33078">
        <ele>254.35891723633</ele>
        <time>2016-04-03T08:45:33.000Z</time>
      </trkpt>
      <trkpt lat="46.99427" lon="3.33076">
        <ele>254.60409545898</ele>
        <time>2016-04-03T08:45:36.000Z</time>
      </trkpt>
      <trkpt lat="46.99425" lon="3.33073">
        <ele>254.86601257324</ele>
        <time>2016-04-03T08:45:38.000Z</time>
      </trkpt>
      <trkpt lat="46.99423" lon="3.3307">
        <ele>255.14135742188</ele>
        <time>2016-04-03T08:45:40.000Z</time>
      </trkpt>
      <trkpt lat="46.9942" lon="3.33066">
        <ele>255.43754577637</ele>
        <time>2016-04-03T08:45:44.000Z</time>
      </trkpt>
      <trkpt lat="46.99418" lon="3.33061">
        <ele>255.75134277344</ele>
        <time>2016-04-03T08:45:47.000Z</time>
      </trkpt>
      <trkpt lat="46.99416" lon="3.33056">
        <ele>256.05950927734</ele>
        <time>2016-04-03T08:45:49.000Z</time>
      </trkpt>
      <trkpt lat="46.99414" lon="3.33051">
        <ele>256.36318969727</ele>
        <time>2016-04-03T08:45:52.000Z</time>
      </trkpt>
      <trkpt lat="46.99413" lon="3.33048">
        <ele>256.64477539062</ele>
        <time>2016-04-03T08:45:56.000Z</time>
      </trkpt>
      <trkpt lat="46.99413" lon="3.33045">
        <ele>256.87161254883</ele>
        <time>2016-04-03T08:45:58.000Z</time>
      </trkpt>
      <trkpt lat="46.99412" lon="3.33041">
        <ele>257.05526733398</ele>
        <time>2016-04-03T08:46:01.000Z</time>
      </trkpt>
      <trkpt lat="46.99411" lon="3.33038">
        <ele>257.20883178711</ele>
        <time>2016-04-03T08:46:04.000Z</time>
      </trkpt>
      <trkpt lat="46.99411" lon="3.33036">
        <ele>257.33001708984</ele>
        <time>2016-04-03T08:46:06.000Z</time>
      </trkpt>
      <trkpt lat="46.9941" lon="3.33034">
        <ele>257.43768310547</ele>
        <time>2016-04-03T08:46:10.000Z</time>
      </trkpt>
      <trkpt lat="46.9941" lon="3.33032">
        <ele>257.53790283203</ele>
        <time>2016-04-03T08:46:15.000Z</time>
      </trkpt>
      <trkpt lat="46.9941" lon="3.3303">
        <ele>257.62451171875</ele>
        <time>2016-04-03T08:46:18.000Z</time>
      </trkpt>
      <trkpt lat="46.99406" lon="3.33025">
        <ele>257.78021240234</ele>
        <time>2016-04-03T08:46:25.000Z</time>
      </trkpt>
      <trkpt lat="46.99405" lon="3.33023">
        <ele>257.94866943359</ele>
        <time>2016-04-03T08:46:27.000Z</time>
      </trkpt>
      <trkpt lat="46.994" lon="3.3302">
        <ele>258.2057800293</ele>
        <time>2016-04-03T08:46:30.000Z</time>
      </trkpt>
      <trkpt lat="46.99397" lon="3.33018">
        <ele>258.51400756836</ele>
        <time>2016-04-03T08:46:32.000Z</time>
      </trkpt>
      <trkpt lat="46.99393" lon="3.33017">
        <ele>258.87298583984</ele>
        <time>2016-04-03T08:46:34.000Z</time>
      </trkpt>
      <trkpt lat="46.9939" lon="3.33013">
        <ele>259.21807861328</ele>
        <time>2016-04-03T08:46:38.000Z</time>
      </trkpt>
      <trkpt lat="46.99389" lon="3.33011">
        <ele>259.56774902344</ele>
        <time>2016-04-03T08:46:39.000Z</time>
      </trkpt>
      <trkpt lat="46.99386" lon="3.33006">
        <ele>259.91598510742</ele>
        <time>2016-04-03T08:46:42.000Z</time>
      </trkpt>
      <trkpt lat="46.99384" lon="3.33001">
        <ele>260.29312133789</ele>
        <time>2016-04-03T08:46:45.000Z</time>
      </trkpt>
      <trkpt lat="46.99382" lon="3.33001">
        <ele>260.63418579102</ele>
        <time>2016-04-03T08:46:47.000Z</time>
      </trkpt>
      <trkpt lat="46.9938" lon="3.32996">
        <ele>260.99176025391</ele>
        <time>2016-04-03T08:46:51.000Z</time>
      </trkpt>
      <trkpt lat="46.99377" lon="3.32992">
        <ele>261.44149780273</ele>
        <time>2016-04-03T08:46:54.000Z</time>
      </trkpt>
      <trkpt lat="46.99372" lon="3.32988">
        <ele>261.9333190918</ele>
        <time>2016-04-03T08:47:00.000Z</time>
      </trkpt>
      <trkpt lat="46.99369" lon="3.32987">
        <ele>262.40274047852</ele>
        <time>2016-04-03T08:47:03.000Z</time>
      </trkpt>
      <trkpt lat="46.99365" lon="3.32984">
        <ele>262.97369384766</ele>
        <time>2016-04-03T08:47:11.000Z</time>
      </trkpt>
      <trkpt lat="46.99361" lon="3.32979">
        <ele>263.59808349609</ele>
        <time>2016-04-03T08:47:17.000Z</time>
      </trkpt>
      <trkpt lat="46.9936" lon="3.32977">
        <ele>264.14840698242</ele>
        <time>2016-04-03T08:47:18.000Z</time>
      </trkpt>
      <trkpt lat="46.99359" lon="3.32972">
        <ele>264.67141723633</ele>
        <time>2016-04-03T08:47:20.000Z</time>
      </trkpt>
      <trkpt lat="46.99358" lon="3.3297">
        <ele>265.17715454102</ele>
        <time>2016-04-03T08:47:23.000Z</time>
      </trkpt>
      <trkpt lat="46.99353" lon="3.32963">
        <ele>265.75848388672</ele>
        <time>2016-04-03T08:47:26.000Z</time>
      </trkpt>
      <trkpt lat="46.99352" lon="3.32959">
        <ele>266.30447387695</ele>
        <time>2016-04-03T08:47:29.000Z</time>
      </trkpt>
      <trkpt lat="46.9935" lon="3.32954">
        <ele>266.92572021484</ele>
        <time>2016-04-03T08:47:32.000Z</time>
      </trkpt>
      <trkpt lat="46.9935" lon="3.32949">
        <ele>267.52816772461</ele>
        <time>2016-04-03T08:47:35.000Z</time>
      </trkpt>
      <trkpt lat="46.99348" lon="3.32947">
        <ele>268.13653564453</ele>
        <time>2016-04-03T08:47:38.000Z</time>
      </trkpt>
      <trkpt lat="46.99346" lon="3.32942">
        <ele>268.68389892578</ele>
        <time>2016-04-03T08:47:40.000Z</time>
      </trkpt>
      <trkpt lat="46.99344" lon="3.3294">
        <ele>269.21862792969</ele>
        <time>2016-04-03T08:47:44.000Z</time>
      </trkpt>
      <trkpt lat="46.9934" lon="3.32934">
        <ele>269.83187866211</ele>
        <time>2016-04-03T08:47:46.000Z</time>
      </trkpt>
      <trkpt lat="46.9934" lon="3.32932">
        <ele>270.40087890625</ele>
        <time>2016-04-03T08:47:50.000Z</time>
      </trkpt>
      <trkpt lat="46.99339" lon="3.3293">
        <ele>270.96060180664</ele>
        <time>2016-04-03T08:47:51.000Z</time>
      </trkpt>
      <trkpt lat="46.99337" lon="3.32928">
        <ele>271.45614624023</ele>
        <time>2016-04-03T08:47:53.000Z</time>
      </trkpt>
      <trkpt lat="46.99337" lon="3.32925">
        <ele>271.90426635742</ele>
        <time>2016-04-03T08:47:59.000Z</time>
      </trkpt>
      <trkpt lat="46.99334" lon="3.32925">
        <ele>272.26651000977</ele>
        <time>2016-04-03T08:48:04.000Z</time>
      </trkpt>
      <trkpt lat="46.99333" lon="3.32924">
        <ele>272.61557006836</ele>
        <time>2016-04-03T08:48:08.000Z</time>
      </trkpt>
      <trkpt lat="46.99329" lon="3.32919">
        <ele>273.07061767578</ele>
        <time>2016-04-03T08:48:10.000Z</time>
      </trkpt>
      <trkpt lat="46.9933" lon="3.32914">
        <ele>273.53964233398</ele>
        <time>2016-04-03T08:48:13.000Z</time>
      </trkpt>
      <trkpt lat="46.99331" lon="3.32909">
        <ele>274.08282470703</ele>
        <time>2016-04-03T08:48:14.000Z</time>
      </trkpt>
      <trkpt lat="46.99331" lon="3.32907">
        <ele>274.54766845703</ele>
        <time>2016-04-03T08:48:17.000Z</time>
      </trkpt>
      <trkpt lat="46.99329" lon="3.32906">
        <ele>275.04183959961</ele>
        <time>2016-04-03T08:48:19.000Z</time>
      </trkpt>
      <trkpt lat="46.99326" lon="3.32902">
        <ele>275.52346801758</ele>
        <time>2016-04-03T08:48:22.000Z</time>
      </trkpt>
      <trkpt lat="46.99322" lon="3.32902">
        <ele>275.96209716797</ele>
        <time>2016-04-03T08:48:24.000Z</time>
      </trkpt>
      <trkpt lat="46.99319" lon="3.32901">
        <ele>276.34039306641</ele>
        <time>2016-04-03T08:48:27.000Z</time>
      </trkpt>
      <trkpt lat="46.99317" lon="3.32899">
        <ele>276.76226806641</ele>
        <time>2016-04-03T08:48:30.000Z</time>
      </trkpt>
      <trkpt lat="46.99314" lon="3.32899">
        <ele>277.18374633789</ele>
        <time>2016-04-03T08:48:34.000Z</time>
      </trkpt>
      <trkpt lat="46.99313" lon="3.32899">
        <ele>277.45950317383</ele>
        <time>2016-04-03T08:48:37.000Z</time>
      </trkpt>
      <trkpt lat="46.99313" lon="3.32897">
        <ele>277.74298095703</ele>
        <time>2016-04-03T08:48:41.000Z</time>
      </trkpt>
      <trkpt lat="46.99313" lon="3.32894">
        <ele>278.01861572266</ele>
        <time>2016-04-03T08:48:44.000Z</time>
      </trkpt>
      <trkpt lat="46.99312" lon="3.32891">
        <ele>278.30780029297</ele>
        <time>2016-04-03T08:48:46.000Z</time>
      </trkpt>
      <trkpt lat="46.99312" lon="3.32887">
        <ele>278.61407470703</ele>
        <time>2016-04-03T08:48:49.000Z</time>
      </trkpt>
      <trkpt lat="46.99312" lon="3.32879">
        <ele>279.12725830078</ele>
        <time>2016-04-03T08:48:57.000Z</time>
      </trkpt>
      <trkpt lat="46.9931" lon="3.32872">
        <ele>279.79742431641</ele>
        <time>2016-04-03T08:49:04.000Z</time>
      </trkpt>
      <trkpt lat="46.99306" lon="3.32868">
        <ele>280.55978393555</ele>
        <time>2016-04-03T08:49:11.000Z</time>
      </trkpt>
      <trkpt lat="46.99305" lon="3.32867">
        <ele>281.26602172852</ele>
        <time>2016-04-03T08:49:13.000Z</time>
      </trkpt>
      <trkpt lat="46.99302" lon="3.32866">
        <ele>281.95294189453</ele>
        <time>2016-04-03T08:49:16.000Z</time>
      </trkpt>
      <trkpt lat="46.99301" lon="3.32864">
        <ele>282.49789428711</ele>
        <time>2016-04-03T08:49:19.000Z</time>
      </trkpt>
      <trkpt lat="46.99299" lon="3.32861">
        <ele>282.91381835938</ele>
        <time>2016-04-03T08:49:22.000Z</time>
      </trkpt>
      <trkpt lat="46.99298" lon="3.32857">
        <ele>283.30657958984</ele>
        <time>2016-04-03T08:49:26.000Z</time>
      </trkpt>
      <trkpt lat="46.99295" lon="3.32852">
        <ele>283.79977416992</ele>
        <time>2016-04-03T08:49:30.000Z</time>
      </trkpt>
      <trkpt lat="46.99295" lon="3.32849">
        <ele>284.30914306641</ele>
        <time>2016-04-03T08:49:32.000Z</time>
      </trkpt>
      <trkpt lat="46.99294" lon="3.32848">
        <ele>284.79711914062</ele>
        <time>2016-04-03T08:49:35.000Z</time>
      </trkpt>
      <trkpt lat="46.9929" lon="3.32847">
        <ele>285.26089477539</ele>
        <time>2016-04-03T08:49:41.000Z</time>
      </trkpt>
      <trkpt lat="46.99289" lon="3.32847">
        <ele>285.60873413086</ele>
        <time>2016-04-03T08:49:42.000Z</time>
      </trkpt>
      <trkpt lat="46.99288" lon="3.32847">
        <ele>285.82135009766</ele>
        <time>2016-04-03T08:49:45.000Z</time>
      </trkpt>
      <trkpt lat="46.99281" lon="3.32849">
        <ele>286.00103759766</ele>
        <time>2016-04-03T08:49:47.000Z</time>
      </trkpt>
      <trkpt lat="46.99277" lon="3.32848">
        <ele>286.19427490234</ele>
        <time>2016-04-03T08:49:49.000Z</time>
      </trkpt>
      <trkpt lat="46.99276" lon="3.32848">
        <ele>286.35375976562</ele>
        <time>2016-04-03T08:49:52.000Z</time>
      </trkpt>
      <trkpt lat="46.99274" lon="3.32847">
        <ele>286.54531860352</ele>
        <time>2016-04-03T08:49:55.000Z</time>
      </trkpt>
      <trkpt lat="46.99273" lon="3.32846">
        <ele>286.76550292969</ele>
        <time>2016-04-03T08:49:56.000Z</time>
      </trkpt>
      <trkpt lat="46.99265" lon="3.32844">
        <ele>287.07012939453</ele>
        <time>2016-04-03T08:49:59.000Z</time>
      </trkpt>
      <trkpt lat="46.99261" lon="3.32843">
        <ele>287.39047241211</ele>
        <time>2016-04-03T08:50:05.000Z</time>
      </trkpt>
      <trkpt lat="46.99257" lon="3.32841">
        <ele>287.79205322266</ele>
        <time>2016-04-03T08:50:07.000Z</time>
      </trkpt>
      <trkpt lat="46.99253" lon="3.32838">
        <ele>288.26971435547</ele>
        <time>2016-04-03T08:50:11.000Z</time>
      </trkpt>
      <trkpt lat="46.9925" lon="3.32834">
        <ele>288.81771850586</ele>
        <time>2016-04-03T08:50:13.000Z</time>
      </trkpt>
      <trkpt lat="46.99248" lon="3.32832">
        <ele>289.30624389648</ele>
        <time>2016-04-03T08:50:16.000Z</time>
      </trkpt>
      <trkpt lat="46.99245" lon="3.32831">
        <ele>289.79092407227</ele>
        <time>2016-04-03T08:50:20.000Z</time>
      </trkpt>
      <trkpt lat="46.99243" lon="3.32828">
        <ele>290.26239013672</ele>
        <time>2016-04-03T08:50:22.000Z</time>
      </trkpt>
      <trkpt lat="46.99243" lon="3.32826">
        <ele>290.65975952148</ele>
        <time>2016-04-03T08:50:27.000Z</time>
      </trkpt>
      <trkpt lat="46.99241" lon="3.32823">
        <ele>291.04388427734</ele>
        <time>2016-04-03T08:50:29.000Z</time>
      </trkpt>
      <trkpt lat="46.99241" lon="3.32818">
        <ele>291.43020629883</ele>
        <time>2016-04-03T08:50:32.000Z</time>
      </trkpt>
      <trkpt lat="46.99243" lon="3.32813">
        <ele>291.80422973633</ele>
        <time>2016-04-03T08:50:34.000Z</time>
      </trkpt>
      <trkpt lat="46.99242" lon="3.3281">
        <ele>292.13494873047</ele>
        <time>2016-04-03T08:50:37.000Z</time>
      </trkpt>
      <trkpt lat="46.99242" lon="3.32801">
        <ele>292.59878540039</ele>
        <time>2016-04-03T08:50:40.000Z</time>
      </trkpt>
      <trkpt lat="46.99242" lon="3.32797">
        <ele>293.03335571289</ele>
        <time>2016-04-03T08:50:42.000Z</time>
      </trkpt>
      <trkpt lat="46.9924" lon="3.32793">
        <ele>293.48550415039</ele>
        <time>2016-04-03T08:50:45.000Z</time>
      </trkpt>
      <trkpt lat="46.99237" lon="3.32791">
        <ele>293.95861816406</ele>
        <time>2016-04-03T08:50:47.000Z</time>
      </trkpt>
      <trkpt lat="46.99233" lon="3.32787">
        <ele>294.4775390625</ele>
        <time>2016-04-03T08:50:51.000Z</time>
      </trkpt>
      <trkpt lat="46.99229" lon="3.32784">
        <ele>294.90301513672</ele>
        <time>2016-04-03T08:50:53.000Z</time>
      </trkpt>
      <trkpt lat="46.99226" lon="3.32782">
        <ele>295.33953857422</ele>
        <time>2016-04-03T08:50:56.000Z</time>
      </trkpt>
      <trkpt lat="46.99224" lon="3.3278">
        <ele>295.73706054688</ele>
        <time>2016-04-03T08:50:59.000Z</time>
      </trkpt>
      <trkpt lat="46.99223" lon="3.32777">
        <ele>296.10473632812</ele>
        <time>2016-04-03T08:51:02.000Z</time>
      </trkpt>
      <trkpt lat="46.9922" lon="3.32773">
        <ele>296.44778442383</ele>
        <time>2016-04-03T08:51:05.000Z</time>
      </trkpt>
      <trkpt lat="46.99218" lon="3.32768">
        <ele>296.79193115234</ele>
        <time>2016-04-03T08:51:07.000Z</time>
      </trkpt>
      <trkpt lat="46.99217" lon="3.32765">
        <ele>297.11868286133</ele>
        <time>2016-04-03T08:51:09.000Z</time>
      </trkpt>
      <trkpt lat="46.99215" lon="3.3276">
        <ele>297.45657348633</ele>
        <time>2016-04-03T08:51:12.000Z</time>
      </trkpt>
      <trkpt lat="46.99214" lon="3.32755">
        <ele>297.82598876953</ele>
        <time>2016-04-03T08:51:15.000Z</time>
      </trkpt>
      <trkpt lat="46.99215" lon="3.32749">
        <ele>298.18099975586</ele>
        <time>2016-04-03T08:51:18.000Z</time>
      </trkpt>
      <trkpt lat="46.99213" lon="3.32745">
        <ele>298.49291992188</ele>
        <time>2016-04-03T08:51:21.000Z</time>
      </trkpt>
      <trkpt lat="46.99212" lon="3.32743">
        <ele>298.76480102539</ele>
        <time>2016-04-03T08:51:24.000Z</time>
      </trkpt>
      <trkpt lat="46.99208" lon="3.32739">
        <ele>299.01574707031</ele>
        <time>2016-04-03T08:51:27.000Z</time>
      </trkpt>
      <trkpt lat="46.99206" lon="3.32734">
        <ele>299.22607421875</ele>
        <time>2016-04-03T08:51:29.000Z</time>
      </trkpt>
      <trkpt lat="46.99204" lon="3.32731">
        <ele>299.40509033203</ele>
        <time>2016-04-03T08:51:31.000Z</time>
      </trkpt>
      <trkpt lat="46.99203" lon="3.3273">
        <ele>299.55075073242</ele>
        <time>2016-04-03T08:51:33.000Z</time>
      </trkpt>
      <trkpt lat="46.99204" lon="3.32723">
        <ele>299.72698974609</ele>
        <time>2016-04-03T08:51:36.000Z</time>
      </trkpt>
      <trkpt lat="46.99202" lon="3.32721">
        <ele>299.87057495117</ele>
        <time>2016-04-03T08:51:39.000Z</time>
      </trkpt>
      <trkpt lat="46.99199" lon="3.32719">
        <ele>300.00387573242</ele>
        <time>2016-04-03T08:51:42.000Z</time>
      </trkpt>
      <trkpt lat="46.99199" lon="3.32713">
        <ele>300.138671875</ele>
        <time>2016-04-03T08:51:45.000Z</time>
      </trkpt>
      <trkpt lat="46.99201" lon="3.32711">
        <ele>300.27767944336</ele>
        <time>2016-04-03T08:51:47.000Z</time>
      </trkpt>
      <trkpt lat="46.99201" lon="3.32708">
        <ele>300.38565063477</ele>
        <time>2016-04-03T08:51:50.000Z</time>
      </trkpt>
      <trkpt lat="46.992" lon="3.32703">
        <ele>300.51547241211</ele>
        <time>2016-04-03T08:51:53.000Z</time>
      </trkpt>
      <trkpt lat="46.992" lon="3.32699">
        <ele>300.64520263672</ele>
        <time>2016-04-03T08:51:56.000Z</time>
      </trkpt>
      <trkpt lat="46.992" lon="3.32693">
        <ele>300.78378295898</ele>
        <time>2016-04-03T08:51:59.000Z</time>
      </trkpt>
      <trkpt lat="46.99199" lon="3.32687">
        <ele>300.94674682617</ele>
        <time>2016-04-03T08:52:02.000Z</time>
      </trkpt>
      <trkpt lat="46.99199" lon="3.32684">
        <ele>301.11700439453</ele>
        <time>2016-04-03T08:52:04.000Z</time>
      </trkpt>
      <trkpt lat="46.99198" lon="3.32679">
        <ele>301.27978515625</ele>
        <time>2016-04-03T08:52:07.000Z</time>
      </trkpt>
      <trkpt lat="46.99195" lon="3.32675">
        <ele>301.44345092773</ele>
        <time>2016-04-03T08:52:10.000Z</time>
      </trkpt>
      <trkpt lat="46.99194" lon="3.32672">
        <ele>301.58480834961</ele>
        <time>2016-04-03T08:52:13.000Z</time>
      </trkpt>
      <trkpt lat="46.99194" lon="3.32668">
        <ele>301.71002197266</ele>
        <time>2016-04-03T08:52:16.000Z</time>
      </trkpt>
      <trkpt lat="46.99192" lon="3.32666">
        <ele>301.826171875</ele>
        <time>2016-04-03T08:52:19.000Z</time>
      </trkpt>
      <trkpt lat="46.9919" lon="3.32661">
        <ele>301.94488525391</ele>
        <time>2016-04-03T08:52:23.000Z</time>
      </trkpt>
      <trkpt lat="46.99189" lon="3.32658">
        <ele>302.04803466797</ele>
        <time>2016-04-03T08:52:24.000Z</time>
      </trkpt>
      <trkpt lat="46.99188" lon="3.32655">
        <ele>302.14947509766</ele>
        <time>2016-04-03T08:52:28.000Z</time>
      </trkpt>
      <trkpt lat="46.99187" lon="3.32652">
        <ele>302.24594116211</ele>
        <time>2016-04-03T08:52:29.000Z</time>
      </trkpt>
      <trkpt lat="46.99186" lon="3.32645">
        <ele>302.36825561523</ele>
        <time>2016-04-03T08:52:32.000Z</time>
      </trkpt>
      <trkpt lat="46.99186" lon="3.32641">
        <ele>302.48452758789</ele>
        <time>2016-04-03T08:52:35.000Z</time>
      </trkpt>
      <trkpt lat="46.99186" lon="3.32637">
        <ele>302.60781860352</ele>
        <time>2016-04-03T08:52:38.000Z</time>
      </trkpt>
      <trkpt lat="46.99185" lon="3.32633">
        <ele>302.7353515625</ele>
        <time>2016-04-03T08:52:40.000Z</time>
      </trkpt>
      <trkpt lat="46.99185" lon="3.32631">
        <ele>302.85903930664</ele>
        <time>2016-04-03T08:52:42.000Z</time>
      </trkpt>
      <trkpt lat="46.99184" lon="3.32627">
        <ele>302.96429443359</ele>
        <time>2016-04-03T08:52:46.000Z</time>
      </trkpt>
      <trkpt lat="46.99184" lon="3.32623">
        <ele>303.06478881836</ele>
        <time>2016-04-03T08:52:48.000Z</time>
      </trkpt>
      <trkpt lat="46.99184" lon="3.32621">
        <ele>303.15982055664</ele>
        <time>2016-04-03T08:52:50.000Z</time>
      </trkpt>
      <trkpt lat="46.99185" lon="3.32616">
        <ele>303.25933837891</ele>
        <time>2016-04-03T08:52:53.000Z</time>
      </trkpt>
      <trkpt lat="46.99187" lon="3.3261">
        <ele>303.38836669922</ele>
        <time>2016-04-03T08:52:57.000Z</time>
      </trkpt>
      <trkpt lat="46.99188" lon="3.32606">
        <ele>303.52432250977</ele>
        <time>2016-04-03T08:52:58.000Z</time>
      </trkpt>
      <trkpt lat="46.99187" lon="3.32602">
        <ele>303.65545654297</ele>
        <time>2016-04-03T08:53:02.000Z</time>
      </trkpt>
      <trkpt lat="46.99186" lon="3.326">
        <ele>303.78085327148</ele>
        <time>2016-04-03T08:53:03.000Z</time>
      </trkpt>
      <trkpt lat="46.99184" lon="3.32596">
        <ele>303.89593505859</ele>
        <time>2016-04-03T08:53:07.000Z</time>
      </trkpt>
      <trkpt lat="46.99183" lon="3.32592">
        <ele>303.98468017578</ele>
        <time>2016-04-03T08:53:08.000Z</time>
      </trkpt>
      <trkpt lat="46.99184" lon="3.3259">
        <ele>304.06076049805</ele>
        <time>2016-04-03T08:53:10.000Z</time>
      </trkpt>
      <trkpt lat="46.99184" lon="3.32586">
        <ele>304.14181518555</ele>
        <time>2016-04-03T08:53:13.000Z</time>
      </trkpt>
      <trkpt lat="46.99182" lon="3.32584">
        <ele>304.21832275391</ele>
        <time>2016-04-03T08:53:15.000Z</time>
      </trkpt>
      <trkpt lat="46.99181" lon="3.32578">
        <ele>304.26519775391</ele>
        <time>2016-04-03T08:53:19.000Z</time>
      </trkpt>
      <trkpt lat="46.9918" lon="3.32576">
        <ele>304.28842163086</ele>
        <time>2016-04-03T08:53:21.000Z</time>
      </trkpt>
      <trkpt lat="46.99177" lon="3.3257">
        <ele>304.26913452148</ele>
        <time>2016-04-03T08:53:24.000Z</time>
      </trkpt>
      <trkpt lat="46.99177" lon="3.32566">
        <ele>304.22061157227</ele>
        <time>2016-04-03T08:53:27.000Z</time>
      </trkpt>
      <trkpt lat="46.99176" lon="3.32563">
        <ele>304.15768432617</ele>
        <time>2016-04-03T08:53:30.000Z</time>
      </trkpt>
      <trkpt lat="46.99176" lon="3.3256">
        <ele>304.10409545898</ele>
        <time>2016-04-03T08:53:32.000Z</time>
      </trkpt>
      <trkpt lat="46.99177" lon="3.32556">
        <ele>304.05230712891</ele>
        <time>2016-04-03T08:53:35.000Z</time>
      </trkpt>
      <trkpt lat="46.99177" lon="3.32554">
        <ele>304.02603149414</ele>
        <time>2016-04-03T08:53:37.000Z</time>
      </trkpt>
      <trkpt lat="46.99178" lon="3.32552">
        <ele>304.00909423828</ele>
        <time>2016-04-03T08:53:39.000Z</time>
      </trkpt>
      <trkpt lat="46.99179" lon="3.32549">
        <ele>304.00421142578</ele>
        <time>2016-04-03T08:53:42.000Z</time>
      </trkpt>
      <trkpt lat="46.99179" lon="3.32547">
        <ele>303.99960327148</ele>
        <time>2016-04-03T08:53:46.000Z</time>
      </trkpt>
      <trkpt lat="46.99179" lon="3.32544">
        <ele>303.99545288086</ele>
        <time>2016-04-03T08:53:47.000Z</time>
      </trkpt>
      <trkpt lat="46.99178" lon="3.32538">
        <ele>303.97640991211</ele>
        <time>2016-04-03T08:53:49.000Z</time>
      </trkpt>
      <trkpt lat="46.99177" lon="3.32535">
        <ele>303.93695068359</ele>
        <time>2016-04-03T08:53:52.000Z</time>
      </trkpt>
      <trkpt lat="46.99176" lon="3.32532">
        <ele>303.88046264648</ele>
        <time>2016-04-03T08:53:54.000Z</time>
      </trkpt>
      <trkpt lat="46.99175" lon="3.3253">
        <ele>303.81921386719</ele>
        <time>2016-04-03T08:53:56.000Z</time>
      </trkpt>
      <trkpt lat="46.99175" lon="3.32527">
        <ele>303.75512695312</ele>
        <time>2016-04-03T08:53:59.000Z</time>
      </trkpt>
      <trkpt lat="46.99174" lon="3.32523">
        <ele>303.69586181641</ele>
        <time>2016-04-03T08:54:01.000Z</time>
      </trkpt>
      <trkpt lat="46.99173" lon="3.3252">
        <ele>303.63787841797</ele>
        <time>2016-04-03T08:54:04.000Z</time>
      </trkpt>
      <trkpt lat="46.99173" lon="3.32515">
        <ele>303.58489990234</ele>
        <time>2016-04-03T08:54:11.000Z</time>
      </trkpt>
      <trkpt lat="46.99174" lon="3.32513">
        <ele>303.53930664062</ele>
        <time>2016-04-03T08:54:14.000Z</time>
      </trkpt>
      <trkpt lat="46.99171" lon="3.3251">
        <ele>303.47296142578</ele>
        <time>2016-04-03T08:54:16.000Z</time>
      </trkpt>
      <trkpt lat="46.99171" lon="3.32504">
        <ele>303.40936279297</ele>
        <time>2016-04-03T08:54:20.000Z</time>
      </trkpt>
      <trkpt lat="46.9917" lon="3.32501">
        <ele>303.34335327148</ele>
        <time>2016-04-03T08:54:25.000Z</time>
      </trkpt>
      <trkpt lat="46.99168" lon="3.32497">
        <ele>303.26583862305</ele>
        <time>2016-04-03T08:54:30.000Z</time>
      </trkpt>
      <trkpt lat="46.99168" lon="3.32493">
        <ele>303.18859863281</ele>
        <time>2016-04-03T08:54:35.000Z</time>
      </trkpt>
      <trkpt lat="46.99167" lon="3.3249">
        <ele>303.12802124023</ele>
        <time>2016-04-03T08:54:37.000Z</time>
      </trkpt>
      <trkpt lat="46.99166" lon="3.32489">
        <ele>303.07202148438</ele>
        <time>2016-04-03T08:54:41.000Z</time>
      </trkpt>
      <trkpt lat="46.99166" lon="3.32485">
        <ele>303.03204345703</ele>
        <time>2016-04-03T08:54:41.000Z</time>
      </trkpt>
      <trkpt lat="46.99166" lon="3.32477">
        <ele>303.01641845703</ele>
        <time>2016-04-03T08:54:42.000Z</time>
      </trkpt>
      <trkpt lat="46.99164" lon="3.32473">
        <ele>302.98129272461</ele>
        <time>2016-04-03T08:54:42.000Z</time>
      </trkpt>
      <trkpt lat="46.99161" lon="3.32468">
        <ele>302.93115234375</ele>
        <time>2016-04-03T08:54:45.000Z</time>
      </trkpt>
      <trkpt lat="46.99162" lon="3.32466">
        <ele>302.89120483398</ele>
        <time>2016-04-03T08:54:45.000Z</time>
      </trkpt>
      <trkpt lat="46.99162" lon="3.32464">
        <ele>302.85415649414</ele>
        <time>2016-04-03T08:54:46.000Z</time>
      </trkpt>
      <trkpt lat="46.99162" lon="3.32457">
        <ele>302.81634521484</ele>
        <time>2016-04-03T08:54:47.000Z</time>
      </trkpt>
      <trkpt lat="46.99162" lon="3.32455">
        <ele>302.79092407227</ele>
        <time>2016-04-03T08:54:50.000Z</time>
      </trkpt>
      <trkpt lat="46.99158" lon="3.32446">
        <ele>302.76226806641</ele>
        <time>2016-04-03T08:54:53.000Z</time>
      </trkpt>
      <trkpt lat="46.99157" lon="3.32445">
        <ele>302.71292114258</ele>
        <time>2016-04-03T08:54:55.000Z</time>
      </trkpt>
      <trkpt lat="46.99155" lon="3.32441">
        <ele>302.64434814453</ele>
        <time>2016-04-03T08:54:58.000Z</time>
      </trkpt>
      <trkpt lat="46.99154" lon="3.32438">
        <ele>302.57235717773</ele>
        <time>2016-04-03T08:55:01.000Z</time>
      </trkpt>
      <trkpt lat="46.99153" lon="3.32431">
        <ele>302.49020385742</ele>
        <time>2016-04-03T08:55:04.000Z</time>
      </trkpt>
      <trkpt lat="46.99151" lon="3.32428">
        <ele>302.42147827148</ele>
        <time>2016-04-03T08:55:07.000Z</time>
      </trkpt>
      <trkpt lat="46.99149" lon="3.32424">
        <ele>302.34625244141</ele>
        <time>2016-04-03T08:55:10.000Z</time>
      </trkpt>
      <trkpt lat="46.99147" lon="3.32421">
        <ele>302.27380371094</ele>
        <time>2016-04-03T08:55:13.000Z</time>
      </trkpt>
      <trkpt lat="46.99145" lon="3.32417">
        <ele>302.17687988281</ele>
        <time>2016-04-03T08:55:15.000Z</time>
      </trkpt>
      <trkpt lat="46.99144" lon="3.32413">
        <ele>302.08923339844</ele>
        <time>2016-04-03T08:55:18.000Z</time>
      </trkpt>
      <trkpt lat="46.99141" lon="3.32409">
        <ele>301.99783325195</ele>
        <time>2016-04-03T08:55:21.000Z</time>
      </trkpt>
      <trkpt lat="46.99139" lon="3.32405">
        <ele>301.9016418457</ele>
        <time>2016-04-03T08:55:23.000Z</time>
      </trkpt>
      <trkpt lat="46.99135" lon="3.32402">
        <ele>301.78677368164</ele>
        <time>2016-04-03T08:55:26.000Z</time>
      </trkpt>
      <trkpt lat="46.99132" lon="3.324">
        <ele>301.66375732422</ele>
        <time>2016-04-03T08:55:33.000Z</time>
      </trkpt>
      <trkpt lat="46.99129" lon="3.32399">
        <ele>301.52349853516</ele>
        <time>2016-04-03T08:55:34.000Z</time>
      </trkpt>
      <trkpt lat="46.99127" lon="3.32397">
        <ele>301.37768554688</ele>
        <time>2016-04-03T08:55:34.000Z</time>
      </trkpt>
      <trkpt lat="46.99125" lon="3.32394">
        <ele>301.23129272461</ele>
        <time>2016-04-03T08:55:37.000Z</time>
      </trkpt>
      <trkpt lat="46.99122" lon="3.32394">
        <ele>301.09362792969</ele>
        <time>2016-04-03T08:55:40.000Z</time>
      </trkpt>
      <trkpt lat="46.9912" lon="3.32391">
        <ele>300.9665222168</ele>
        <time>2016-04-03T08:55:42.000Z</time>
      </trkpt>
      <trkpt lat="46.99117" lon="3.32388">
        <ele>300.83163452148</ele>
        <time>2016-04-03T08:55:45.000Z</time>
      </trkpt>
      <trkpt lat="46.99116" lon="3.32385">
        <ele>300.70758056641</ele>
        <time>2016-04-03T08:55:47.000Z</time>
      </trkpt>
      <trkpt lat="46.99115" lon="3.32379">
        <ele>300.60189819336</ele>
        <time>2016-04-03T08:55:51.000Z</time>
      </trkpt>
      <trkpt lat="46.99115" lon="3.32377">
        <ele>300.52133178711</ele>
        <time>2016-04-03T08:55:52.000Z</time>
      </trkpt>
      <trkpt lat="46.99116" lon="3.32372">
        <ele>300.47103881836</ele>
        <time>2016-04-03T08:55:54.000Z</time>
      </trkpt>
      <trkpt lat="46.99116" lon="3.32367">
        <ele>300.44653320312</ele>
        <time>2016-04-03T08:55:56.000Z</time>
      </trkpt>
      <trkpt lat="46.99115" lon="3.32363">
        <ele>300.42425537109</ele>
        <time>2016-04-03T08:55:59.000Z</time>
      </trkpt>
      <trkpt lat="46.99115" lon="3.32356">
        <ele>300.40057373047</ele>
        <time>2016-04-03T08:56:03.000Z</time>
      </trkpt>
      <trkpt lat="46.99114" lon="3.32352">
        <ele>300.36557006836</ele>
        <time>2016-04-03T08:56:07.000Z</time>
      </trkpt>
      <trkpt lat="46.99113" lon="3.3235">
        <ele>300.30499267578</ele>
        <time>2016-04-03T08:56:09.000Z</time>
      </trkpt>
      <trkpt lat="46.99112" lon="3.32345">
        <ele>300.23709106445</ele>
        <time>2016-04-03T08:56:10.000Z</time>
      </trkpt>
      <trkpt lat="46.9911" lon="3.32342">
        <ele>300.1513671875</ele>
        <time>2016-04-03T08:56:13.000Z</time>
      </trkpt>
      <trkpt lat="46.99107" lon="3.32338">
        <ele>300.03759765625</ele>
        <time>2016-04-03T08:56:16.000Z</time>
      </trkpt>
      <trkpt lat="46.99105" lon="3.32331">
        <ele>299.90682983398</ele>
        <time>2016-04-03T08:56:22.000Z</time>
      </trkpt>
      <trkpt lat="46.99106" lon="3.32326">
        <ele>299.79696655273</ele>
        <time>2016-04-03T08:56:25.000Z</time>
      </trkpt>
      <trkpt lat="46.99108" lon="3.32324">
        <ele>299.72308349609</ele>
        <time>2016-04-03T08:56:27.000Z</time>
      </trkpt>
      <trkpt lat="46.99109" lon="3.32322">
        <ele>299.68951416016</ele>
        <time>2016-04-03T08:56:30.000Z</time>
      </trkpt>
      <trkpt lat="46.99109" lon="3.32313">
        <ele>299.6930847168</ele>
        <time>2016-04-03T08:56:33.000Z</time>
      </trkpt>
      <trkpt lat="46.99109" lon="3.3231">
        <ele>299.72399902344</ele>
        <time>2016-04-03T08:56:36.000Z</time>
      </trkpt>
      <trkpt lat="46.99106" lon="3.32306">
        <ele>299.70523071289</ele>
        <time>2016-04-03T08:56:37.000Z</time>
      </trkpt>
      <trkpt lat="46.99105" lon="3.32304">
        <ele>299.65789794922</ele>
        <time>2016-04-03T08:56:41.000Z</time>
      </trkpt>
      <trkpt lat="46.99104" lon="3.32301">
        <ele>299.58837890625</ele>
        <time>2016-04-03T08:56:42.000Z</time>
      </trkpt>
      <trkpt lat="46.99103" lon="3.32301">
        <ele>299.49700927734</ele>
        <time>2016-04-03T08:56:45.000Z</time>
      </trkpt>
      <trkpt lat="46.99102" lon="3.32301">
        <ele>299.39703369141</ele>
        <time>2016-04-03T08:56:51.000Z</time>
      </trkpt>
      <trkpt lat="46.99099" lon="3.32301">
        <ele>299.31146240234</ele>
        <time>2016-04-03T08:56:52.000Z</time>
      </trkpt>
      <trkpt lat="46.99097" lon="3.32304">
        <ele>299.19570922852</ele>
        <time>2016-04-03T08:56:55.000Z</time>
      </trkpt>
      <trkpt lat="46.99094" lon="3.32305">
        <ele>299.05419921875</ele>
        <time>2016-04-03T08:56:58.000Z</time>
      </trkpt>
      <trkpt lat="46.99094" lon="3.32305">
        <ele>299.05419921875</ele>
        <time>2016-04-03T08:57:18.000Z</time>
      </trkpt>
      <trkpt lat="46.9909" lon="3.3231">
        <ele>298.88052368164</ele>
        <time>2016-04-03T08:57:20.000Z</time>
      </trkpt>
      <trkpt lat="46.99091" lon="3.32306">
        <ele>298.73934936523</ele>
        <time>2016-04-03T08:57:24.000Z</time>
      </trkpt>
      <trkpt lat="46.99092" lon="3.32303">
        <ele>298.64117431641</ele>
        <time>2016-04-03T08:57:38.000Z</time>
      </trkpt>
      <trkpt lat="46.99093" lon="3.32302">
        <ele>298.59661865234</ele>
        <time>2016-04-03T08:57:40.000Z</time>
      </trkpt>
      <trkpt lat="46.99095" lon="3.32301">
        <ele>298.61196899414</ele>
        <time>2016-04-03T08:57:43.000Z</time>
      </trkpt>
      <trkpt lat="46.99096" lon="3.32299">
        <ele>298.69189453125</ele>
        <time>2016-04-03T08:57:47.000Z</time>
      </trkpt>
      <trkpt lat="46.99099" lon="3.32293">
        <ele>298.79098510742</ele>
        <time>2016-04-03T08:57:49.000Z</time>
      </trkpt>
      <trkpt lat="46.99099" lon="3.3229">
        <ele>298.87884521484</ele>
        <time>2016-04-03T08:57:52.000Z</time>
      </trkpt>
      <trkpt lat="46.991" lon="3.32284">
        <ele>298.96325683594</ele>
        <time>2016-04-03T08:58:02.000Z</time>
      </trkpt>
      <trkpt lat="46.99097" lon="3.32284">
        <ele>298.98907470703</ele>
        <time>2016-04-03T08:58:11.000Z</time>
      </trkpt>
      <trkpt lat="46.99096" lon="3.32287">
        <ele>298.97943115234</ele>
        <time>2016-04-03T08:58:14.000Z</time>
      </trkpt>
      <trkpt lat="46.99092" lon="3.32293">
        <ele>298.88262939453</ele>
        <time>2016-04-03T08:58:18.000Z</time>
      </trkpt>
      <trkpt lat="46.99092" lon="3.3229">
        <ele>298.79144287109</ele>
        <time>2016-04-03T08:58:33.000Z</time>
      </trkpt>
      <trkpt lat="46.99094" lon="3.32288">
        <ele>298.70825195312</ele>
        <time>2016-04-03T08:58:40.000Z</time>
      </trkpt>
      <trkpt lat="46.99096" lon="3.32286">
        <ele>298.68798828125</ele>
        <time>2016-04-03T08:58:53.000Z</time>
      </trkpt>
      <trkpt lat="46.99097" lon="3.32286">
        <ele>298.71395874023</ele>
        <time>2016-04-03T08:58:55.000Z</time>
      </trkpt>
      <trkpt lat="46.99099" lon="3.32287">
        <ele>298.81341552734</ele>
        <time>2016-04-03T08:58:57.000Z</time>
      </trkpt>
      <trkpt lat="46.99099" lon="3.32288">
        <ele>298.89834594727</ele>
        <time>2016-04-03T08:59:04.000Z</time>
      </trkpt>
      <trkpt lat="46.99099" lon="3.32293">
        <ele>298.97003173828</ele>
        <time>2016-04-03T08:59:10.000Z</time>
      </trkpt>
      <trkpt lat="46.99099" lon="3.32295">
        <ele>299.01654052734</ele>
        <time>2016-04-03T08:59:11.000Z</time>
      </trkpt>
      <trkpt lat="46.99098" lon="3.323">
        <ele>299.03344726562</ele>
        <time>2016-04-03T08:59:15.000Z</time>
      </trkpt>
      <trkpt lat="46.99099" lon="3.32305">
        <ele>299.03067016602</ele>
        <time>2016-04-03T08:59:17.000Z</time>
      </trkpt>
      <trkpt lat="46.99097" lon="3.32311">
        <ele>299.01287841797</ele>
        <time>2016-04-03T08:59:19.000Z</time>
      </trkpt>
      <trkpt lat="46.99093" lon="3.32313">
        <ele>298.93765258789</ele>
        <time>2016-04-03T08:59:22.000Z</time>
      </trkpt>
      <trkpt lat="46.9909" lon="3.32317">
        <ele>298.82281494141</ele>
        <time>2016-04-03T08:59:26.000Z</time>
      </trkpt>
      <trkpt lat="46.99088" lon="3.32317">
        <ele>298.68270874023</ele>
        <time>2016-04-03T08:59:29.000Z</time>
      </trkpt>
      <trkpt lat="46.99085" lon="3.32318">
        <ele>298.50128173828</ele>
        <time>2016-04-03T08:59:33.000Z</time>
      </trkpt>
      <trkpt lat="46.99081" lon="3.32319">
        <ele>298.31243896484</ele>
        <time>2016-04-03T08:59:36.000Z</time>
      </trkpt>
      <trkpt lat="46.99081" lon="3.32321">
        <ele>298.17352294922</ele>
        <time>2016-04-03T08:59:41.000Z</time>
      </trkpt>
      <trkpt lat="46.99077" lon="3.32326">
        <ele>298.06353759766</ele>
        <time>2016-04-03T08:59:45.000Z</time>
      </trkpt>
      <trkpt lat="46.99073" lon="3.32328">
        <ele>297.97863769531</ele>
        <time>2016-04-03T08:59:47.000Z</time>
      </trkpt>
      <trkpt lat="46.99069" lon="3.32332">
        <ele>297.9169921875</ele>
        <time>2016-04-03T08:59:50.000Z</time>
      </trkpt>
      <trkpt lat="46.99068" lon="3.32333">
        <ele>297.884765625</ele>
        <time>2016-04-03T08:59:52.000Z</time>
      </trkpt>
      <trkpt lat="46.99062" lon="3.32337">
        <ele>297.84970092773</ele>
        <time>2016-04-03T08:59:55.000Z</time>
      </trkpt>
      <trkpt lat="46.9906" lon="3.3234">
        <ele>297.82861328125</ele>
        <time>2016-04-03T08:59:58.000Z</time>
      </trkpt>
      <trkpt lat="46.99056" lon="3.32344">
        <ele>297.82110595703</ele>
        <time>2016-04-03T09:00:01.000Z</time>
      </trkpt>
      <trkpt lat="46.99054" lon="3.32346">
        <ele>297.82638549805</ele>
        <time>2016-04-03T09:00:04.000Z</time>
      </trkpt>
      <trkpt lat="46.99052" lon="3.32348">
        <ele>297.83673095703</ele>
        <time>2016-04-03T09:00:08.000Z</time>
      </trkpt>
      <trkpt lat="46.99051" lon="3.3235">
        <ele>297.85284423828</ele>
        <time>2016-04-03T09:00:10.000Z</time>
      </trkpt>
      <trkpt lat="46.99047" lon="3.32353">
        <ele>297.86856079102</ele>
        <time>2016-04-03T09:00:14.000Z</time>
      </trkpt>
      <trkpt lat="46.99044" lon="3.32357">
        <ele>297.88833618164</ele>
        <time>2016-04-03T09:00:17.000Z</time>
      </trkpt>
      <trkpt lat="46.99044" lon="3.32358">
        <ele>297.90960693359</ele>
        <time>2016-04-03T09:00:18.000Z</time>
      </trkpt>
      <trkpt lat="46.99043" lon="3.32359">
        <ele>297.93115234375</ele>
        <time>2016-04-03T09:00:20.000Z</time>
      </trkpt>
      <trkpt lat="46.99041" lon="3.32364">
        <ele>297.96499633789</ele>
        <time>2016-04-03T09:00:23.000Z</time>
      </trkpt>
      <trkpt lat="46.99042" lon="3.3237">
        <ele>298.01724243164</ele>
        <time>2016-04-03T09:00:26.000Z</time>
      </trkpt>
      <trkpt lat="46.99043" lon="3.32374">
        <ele>298.07693481445</ele>
        <time>2016-04-03T09:00:30.000Z</time>
      </trkpt>
      <trkpt lat="46.99042" lon="3.32376">
        <ele>298.14019775391</ele>
        <time>2016-04-03T09:00:34.000Z</time>
      </trkpt>
      <trkpt lat="46.99038" lon="3.32376">
        <ele>298.19412231445</ele>
        <time>2016-04-03T09:00:37.000Z</time>
      </trkpt>
      <trkpt lat="46.99034" lon="3.32376">
        <ele>298.23007202148</ele>
        <time>2016-04-03T09:00:40.000Z</time>
      </trkpt>
      <trkpt lat="46.9903" lon="3.3238">
        <ele>298.25332641602</ele>
        <time>2016-04-03T09:00:43.000Z</time>
      </trkpt>
      <trkpt lat="46.99027" lon="3.32385">
        <ele>298.27648925781</ele>
        <time>2016-04-03T09:00:46.000Z</time>
      </trkpt>
      <trkpt lat="46.99025" lon="3.32387">
        <ele>298.30154418945</ele>
        <time>2016-04-03T09:00:50.000Z</time>
      </trkpt>
      <trkpt lat="46.99022" lon="3.32389">
        <ele>298.33880615234</ele>
        <time>2016-04-03T09:00:51.000Z</time>
      </trkpt>
      <trkpt lat="46.9902" lon="3.32392">
        <ele>298.38787841797</ele>
        <time>2016-04-03T09:00:55.000Z</time>
      </trkpt>
      <trkpt lat="46.99018" lon="3.32395">
        <ele>298.43960571289</ele>
        <time>2016-04-03T09:00:56.000Z</time>
      </trkpt>
      <trkpt lat="46.99017" lon="3.32398">
        <ele>298.48791503906</ele>
        <time>2016-04-03T09:00:59.000Z</time>
      </trkpt>
      <trkpt lat="46.99014" lon="3.32401">
        <ele>298.53887939453</ele>
        <time>2016-04-03T09:01:01.000Z</time>
      </trkpt>
      <trkpt lat="46.9901" lon="3.32405">
        <ele>298.59985351562</ele>
        <time>2016-04-03T09:01:04.000Z</time>
      </trkpt>
      <trkpt lat="46.99007" lon="3.32408">
        <ele>298.66363525391</ele>
        <time>2016-04-03T09:01:07.000Z</time>
      </trkpt>
      <trkpt lat="46.99004" lon="3.32412">
        <ele>298.73348999023</ele>
        <time>2016-04-03T09:01:08.000Z</time>
      </trkpt>
      <trkpt lat="46.99003" lon="3.32414">
        <ele>298.79913330078</ele>
        <time>2016-04-03T09:01:16.000Z</time>
      </trkpt>
      <trkpt lat="46.99" lon="3.3242">
        <ele>298.88134765625</ele>
        <time>2016-04-03T09:01:17.000Z</time>
      </trkpt>
      <trkpt lat="46.98999" lon="3.3242">
        <ele>298.95401000977</ele>
        <time>2016-04-03T09:01:17.000Z</time>
      </trkpt>
      <trkpt lat="46.98999" lon="3.32425">
        <ele>299.03619384766</ele>
        <time>2016-04-03T09:01:18.000Z</time>
      </trkpt>
      <trkpt lat="46.98996" lon="3.3243">
        <ele>299.13067626953</ele>
        <time>2016-04-03T09:01:21.000Z</time>
      </trkpt>
      <trkpt lat="46.98994" lon="3.32436">
        <ele>299.24917602539</ele>
        <time>2016-04-03T09:01:24.000Z</time>
      </trkpt>
      <trkpt lat="46.98994" lon="3.32438">
        <ele>299.34625244141</ele>
        <time>2016-04-03T09:01:27.000Z</time>
      </trkpt>
      <trkpt lat="46.98994" lon="3.32442">
        <ele>299.45794677734</ele>
        <time>2016-04-03T09:01:29.000Z</time>
      </trkpt>
      <trkpt lat="46.98994" lon="3.32445">
        <ele>299.56036376953</ele>
        <time>2016-04-03T09:01:31.000Z</time>
      </trkpt>
      <trkpt lat="46.98992" lon="3.32447">
        <ele>299.64898681641</ele>
        <time>2016-04-03T09:01:34.000Z</time>
      </trkpt>
      <trkpt lat="46.9899" lon="3.32449">
        <ele>299.7165222168</ele>
        <time>2016-04-03T09:01:36.000Z</time>
      </trkpt>
      <trkpt lat="46.98988" lon="3.32454">
        <ele>299.79971313477</ele>
        <time>2016-04-03T09:01:39.000Z</time>
      </trkpt>
      <trkpt lat="46.98985" lon="3.32458">
        <ele>299.88690185547</ele>
        <time>2016-04-03T09:01:42.000Z</time>
      </trkpt>
      <trkpt lat="46.98984" lon="3.32462">
        <ele>299.98013305664</ele>
        <time>2016-04-03T09:01:45.000Z</time>
      </trkpt>
      <trkpt lat="46.98981" lon="3.32464">
        <ele>300.06759643555</ele>
        <time>2016-04-03T09:01:48.000Z</time>
      </trkpt>
      <trkpt lat="46.98978" lon="3.32465">
        <ele>300.15219116211</ele>
        <time>2016-04-03T09:01:50.000Z</time>
      </trkpt>
      <trkpt lat="46.98976" lon="3.32466">
        <ele>300.21990966797</ele>
        <time>2016-04-03T09:01:53.000Z</time>
      </trkpt>
      <trkpt lat="46.98973" lon="3.32466">
        <ele>300.26699829102</ele>
        <time>2016-04-03T09:01:56.000Z</time>
      </trkpt>
      <trkpt lat="46.9897" lon="3.32465">
        <ele>300.29376220703</ele>
        <time>2016-04-03T09:02:00.000Z</time>
      </trkpt>
      <trkpt lat="46.98967" lon="3.32463">
        <ele>300.30474853516</ele>
        <time>2016-04-03T09:02:02.000Z</time>
      </trkpt>
      <trkpt lat="46.98964" lon="3.32461">
        <ele>300.30325317383</ele>
        <time>2016-04-03T09:02:04.000Z</time>
      </trkpt>
      <trkpt lat="46.98961" lon="3.32459">
        <ele>300.29193115234</ele>
        <time>2016-04-03T09:02:06.000Z</time>
      </trkpt>
      <trkpt lat="46.98957" lon="3.32454">
        <ele>300.26300048828</ele>
        <time>2016-04-03T09:02:09.000Z</time>
      </trkpt>
      <trkpt lat="46.98954" lon="3.3245">
        <ele>300.22552490234</ele>
        <time>2016-04-03T09:02:12.000Z</time>
      </trkpt>
      <trkpt lat="46.98952" lon="3.32445">
        <ele>300.18103027344</ele>
        <time>2016-04-03T09:02:15.000Z</time>
      </trkpt>
      <trkpt lat="46.98949" lon="3.32443">
        <ele>300.13726806641</ele>
        <time>2016-04-03T09:02:18.000Z</time>
      </trkpt>
      <trkpt lat="46.98947" lon="3.3244">
        <ele>300.08941650391</ele>
        <time>2016-04-03T09:02:20.000Z</time>
      </trkpt>
      <trkpt lat="46.98945" lon="3.32436">
        <ele>300.04669189453</ele>
        <time>2016-04-03T09:02:23.000Z</time>
      </trkpt>
      <trkpt lat="46.98944" lon="3.32434">
        <ele>300.01104736328</ele>
        <time>2016-04-03T09:02:25.000Z</time>
      </trkpt>
      <trkpt lat="46.98943" lon="3.32432">
        <ele>299.98056030273</ele>
        <time>2016-04-03T09:02:28.000Z</time>
      </trkpt>
      <trkpt lat="46.98942" lon="3.32428">
        <ele>299.94366455078</ele>
        <time>2016-04-03T09:02:30.000Z</time>
      </trkpt>
      <trkpt lat="46.98941" lon="3.32423">
        <ele>299.90130615234</ele>
        <time>2016-04-03T09:02:34.000Z</time>
      </trkpt>
      <trkpt lat="46.98941" lon="3.32419">
        <ele>299.85577392578</ele>
        <time>2016-04-03T09:02:35.000Z</time>
      </trkpt>
      <trkpt lat="46.9894" lon="3.32412">
        <ele>299.77813720703</ele>
        <time>2016-04-03T09:02:39.000Z</time>
      </trkpt>
      <trkpt lat="46.98938" lon="3.32409">
        <ele>299.69207763672</ele>
        <time>2016-04-03T09:02:40.000Z</time>
      </trkpt>
      <trkpt lat="46.98935" lon="3.32404">
        <ele>299.58810424805</ele>
        <time>2016-04-03T09:02:44.000Z</time>
      </trkpt>
      <trkpt lat="46.98935" lon="3.32401">
        <ele>299.47744750977</ele>
        <time>2016-04-03T09:02:45.000Z</time>
      </trkpt>
      <trkpt lat="46.98933" lon="3.32398">
        <ele>299.36410522461</ele>
        <time>2016-04-03T09:02:47.000Z</time>
      </trkpt>
      <trkpt lat="46.9893" lon="3.32394">
        <ele>299.26580810547</ele>
        <time>2016-04-03T09:02:50.000Z</time>
      </trkpt>
      <trkpt lat="46.98928" lon="3.3239">
        <ele>299.15957641602</ele>
        <time>2016-04-03T09:02:52.000Z</time>
      </trkpt>
      <trkpt lat="46.98928" lon="3.32387">
        <ele>299.06127929688</ele>
        <time>2016-04-03T09:02:54.000Z</time>
      </trkpt>
      <trkpt lat="46.98927" lon="3.32384">
        <ele>298.95941162109</ele>
        <time>2016-04-03T09:02:56.000Z</time>
      </trkpt>
      <trkpt lat="46.98924" lon="3.32379">
        <ele>298.84490966797</ele>
        <time>2016-04-03T09:02:59.000Z</time>
      </trkpt>
      <trkpt lat="46.98923" lon="3.32377">
        <ele>298.73614501953</ele>
        <time>2016-04-03T09:03:01.000Z</time>
      </trkpt>
      <trkpt lat="46.98921" lon="3.32372">
        <ele>298.61776733398</ele>
        <time>2016-04-03T09:03:04.000Z</time>
      </trkpt>
      <trkpt lat="46.9892" lon="3.32369">
        <ele>298.49810791016</ele>
        <time>2016-04-03T09:03:07.000Z</time>
      </trkpt>
      <trkpt lat="46.9892" lon="3.32366">
        <ele>298.38003540039</ele>
        <time>2016-04-03T09:03:08.000Z</time>
      </trkpt>
      <trkpt lat="46.98919" lon="3.32364">
        <ele>298.28082275391</ele>
        <time>2016-04-03T09:03:11.000Z</time>
      </trkpt>
      <trkpt lat="46.98917" lon="3.3236">
        <ele>298.16387939453</ele>
        <time>2016-04-03T09:03:14.000Z</time>
      </trkpt>
      <trkpt lat="46.98914" lon="3.32354">
        <ele>298.05401611328</ele>
        <time>2016-04-03T09:03:16.000Z</time>
      </trkpt>
      <trkpt lat="46.98912" lon="3.32348">
        <ele>297.93872070312</ele>
        <time>2016-04-03T09:03:19.000Z</time>
      </trkpt>
      <trkpt lat="46.98911" lon="3.32345">
        <ele>297.82723999023</ele>
        <time>2016-04-03T09:03:21.000Z</time>
      </trkpt>
      <trkpt lat="46.98909" lon="3.32341">
        <ele>297.70733642578</ele>
        <time>2016-04-03T09:03:23.000Z</time>
      </trkpt>
      <trkpt lat="46.98909" lon="3.32336">
        <ele>297.59210205078</ele>
        <time>2016-04-03T09:03:26.000Z</time>
      </trkpt>
      <trkpt lat="46.98907" lon="3.32333">
        <ele>297.49505615234</ele>
        <time>2016-04-03T09:03:29.000Z</time>
      </trkpt>
      <trkpt lat="46.98906" lon="3.3233">
        <ele>297.42715454102</ele>
        <time>2016-04-03T09:03:30.000Z</time>
      </trkpt>
      <trkpt lat="46.98904" lon="3.32325">
        <ele>297.38522338867</ele>
        <time>2016-04-03T09:03:33.000Z</time>
      </trkpt>
      <trkpt lat="46.98902" lon="3.32322">
        <ele>297.36917114258</ele>
        <time>2016-04-03T09:03:35.000Z</time>
      </trkpt>
      <trkpt lat="46.98899" lon="3.32317">
        <ele>297.39605712891</ele>
        <time>2016-04-03T09:03:38.000Z</time>
      </trkpt>
      <trkpt lat="46.98897" lon="3.32312">
        <ele>297.4296875</ele>
        <time>2016-04-03T09:03:41.000Z</time>
      </trkpt>
      <trkpt lat="46.98896" lon="3.32309">
        <ele>297.46212768555</ele>
        <time>2016-04-03T09:03:43.000Z</time>
      </trkpt>
      <trkpt lat="46.98896" lon="3.32308">
        <ele>297.48770141602</ele>
        <time>2016-04-03T09:03:46.000Z</time>
      </trkpt>
      <trkpt lat="46.98894" lon="3.32302">
        <ele>297.51098632812</ele>
        <time>2016-04-03T09:03:49.000Z</time>
      </trkpt>
      <trkpt lat="46.98892" lon="3.32298">
        <ele>297.52484130859</ele>
        <time>2016-04-03T09:03:51.000Z</time>
      </trkpt>
      <trkpt lat="46.98892" lon="3.32293">
        <ele>297.53512573242</ele>
        <time>2016-04-03T09:03:54.000Z</time>
      </trkpt>
      <trkpt lat="46.9889" lon="3.3229">
        <ele>297.55844116211</ele>
        <time>2016-04-03T09:03:57.000Z</time>
      </trkpt>
      <trkpt lat="46.98888" lon="3.32287">
        <ele>297.59426879883</ele>
        <time>2016-04-03T09:03:59.000Z</time>
      </trkpt>
      <trkpt lat="46.98886" lon="3.32284">
        <ele>297.62976074219</ele>
        <time>2016-04-03T09:04:01.000Z</time>
      </trkpt>
      <trkpt lat="46.98885" lon="3.32279">
        <ele>297.66571044922</ele>
        <time>2016-04-03T09:04:04.000Z</time>
      </trkpt>
      <trkpt lat="46.98883" lon="3.32276">
        <ele>297.71231079102</ele>
        <time>2016-04-03T09:04:06.000Z</time>
      </trkpt>
      <trkpt lat="46.98883" lon="3.32272">
        <ele>297.73867797852</ele>
        <time>2016-04-03T09:04:08.000Z</time>
      </trkpt>
      <trkpt lat="46.98883" lon="3.3227">
        <ele>297.75588989258</ele>
        <time>2016-04-03T09:04:10.000Z</time>
      </trkpt>
      <trkpt lat="46.98882" lon="3.32268">
        <ele>297.77133178711</ele>
        <time>2016-04-03T09:04:14.000Z</time>
      </trkpt>
      <trkpt lat="46.9888" lon="3.32264">
        <ele>297.79418945312</ele>
        <time>2016-04-03T09:04:15.000Z</time>
      </trkpt>
      <trkpt lat="46.98877" lon="3.32255">
        <ele>297.82162475586</ele>
        <time>2016-04-03T09:04:19.000Z</time>
      </trkpt>
      <trkpt lat="46.98874" lon="3.32251">
        <ele>297.88467407227</ele>
        <time>2016-04-03T09:04:22.000Z</time>
      </trkpt>
      <trkpt lat="46.98871" lon="3.32249">
        <ele>297.96588134766</ele>
        <time>2016-04-03T09:04:23.000Z</time>
      </trkpt>
      <trkpt lat="46.98867" lon="3.32245">
        <ele>298.05581665039</ele>
        <time>2016-04-03T09:04:26.000Z</time>
      </trkpt>
      <trkpt lat="46.98864" lon="3.32243">
        <ele>298.15280151367</ele>
        <time>2016-04-03T09:04:28.000Z</time>
      </trkpt>
      <trkpt lat="46.98859" lon="3.32242">
        <ele>298.27111816406</ele>
        <time>2016-04-03T09:04:32.000Z</time>
      </trkpt>
      <trkpt lat="46.98859" lon="3.32239">
        <ele>298.34432983398</ele>
        <time>2016-04-03T09:04:33.000Z</time>
      </trkpt>
      <trkpt lat="46.98859" lon="3.32238">
        <ele>298.39059448242</ele>
        <time>2016-04-03T09:04:35.000Z</time>
      </trkpt>
      <trkpt lat="46.98859" lon="3.32232">
        <ele>298.392578125</ele>
        <time>2016-04-03T09:04:37.000Z</time>
      </trkpt>
      <trkpt lat="46.98859" lon="3.32226">
        <ele>298.33941650391</ele>
        <time>2016-04-03T09:04:40.000Z</time>
      </trkpt>
      <trkpt lat="46.98859" lon="3.32221">
        <ele>298.22351074219</ele>
        <time>2016-04-03T09:04:43.000Z</time>
      </trkpt>
      <trkpt lat="46.9886" lon="3.32218">
        <ele>298.09686279297</ele>
        <time>2016-04-03T09:04:45.000Z</time>
      </trkpt>
      <trkpt lat="46.98858" lon="3.32212">
        <ele>297.95755004883</ele>
        <time>2016-04-03T09:04:48.000Z</time>
      </trkpt>
      <trkpt lat="46.98856" lon="3.32209">
        <ele>297.84375</ele>
        <time>2016-04-03T09:04:51.000Z</time>
      </trkpt>
      <trkpt lat="46.98855" lon="3.32201">
        <ele>297.72378540039</ele>
        <time>2016-04-03T09:04:54.000Z</time>
      </trkpt>
      <trkpt lat="46.98855" lon="3.32198">
        <ele>297.62084960938</ele>
        <time>2016-04-03T09:04:58.000Z</time>
      </trkpt>
      <trkpt lat="46.98854" lon="3.32195">
        <ele>297.52783203125</ele>
        <time>2016-04-03T09:05:00.000Z</time>
      </trkpt>
      <trkpt lat="46.98853" lon="3.32191">
        <ele>297.43920898438</ele>
        <time>2016-04-03T09:05:05.000Z</time>
      </trkpt>
      <trkpt lat="46.98851" lon="3.32186">
        <ele>297.33709716797</ele>
        <time>2016-04-03T09:05:05.000Z</time>
      </trkpt>
      <trkpt lat="46.98849" lon="3.32181">
        <ele>297.25494384766</ele>
        <time>2016-04-03T09:05:09.000Z</time>
      </trkpt>
      <trkpt lat="46.98848" lon="3.32178">
        <ele>297.17465209961</ele>
        <time>2016-04-03T09:05:10.000Z</time>
      </trkpt>
      <trkpt lat="46.98844" lon="3.32174">
        <ele>297.10467529297</ele>
        <time>2016-04-03T09:05:13.000Z</time>
      </trkpt>
      <trkpt lat="46.98843" lon="3.32171">
        <ele>297.03524780273</ele>
        <time>2016-04-03T09:05:15.000Z</time>
      </trkpt>
      <trkpt lat="46.98841" lon="3.32169">
        <ele>296.97845458984</ele>
        <time>2016-04-03T09:05:17.000Z</time>
      </trkpt>
      <trkpt lat="46.98839" lon="3.32165">
        <ele>296.91900634766</ele>
        <time>2016-04-03T09:05:20.000Z</time>
      </trkpt>
      <trkpt lat="46.98837" lon="3.32162">
        <ele>296.83267211914</ele>
        <time>2016-04-03T09:05:22.000Z</time>
      </trkpt>
      <trkpt lat="46.98835" lon="3.32159">
        <ele>296.72344970703</ele>
        <time>2016-04-03T09:05:26.000Z</time>
      </trkpt>
      <trkpt lat="46.98834" lon="3.32158">
        <ele>296.6142578125</ele>
        <time>2016-04-03T09:05:37.000Z</time>
      </trkpt>
      <trkpt lat="46.98831" lon="3.32156">
        <ele>296.49887084961</ele>
        <time>2016-04-03T09:05:41.000Z</time>
      </trkpt>
      <trkpt lat="46.98829" lon="3.32156">
        <ele>296.42770385742</ele>
        <time>2016-04-03T09:05:42.000Z</time>
      </trkpt>
      <trkpt lat="46.98829" lon="3.32153">
        <ele>296.34222412109</ele>
        <time>2016-04-03T09:05:47.000Z</time>
      </trkpt>
      <trkpt lat="46.9883" lon="3.32149">
        <ele>296.22640991211</ele>
        <time>2016-04-03T09:05:49.000Z</time>
      </trkpt>
      <trkpt lat="46.98831" lon="3.32145">
        <ele>296.06280517578</ele>
        <time>2016-04-03T09:05:53.000Z</time>
      </trkpt>
      <trkpt lat="46.98831" lon="3.32139">
        <ele>295.82681274414</ele>
        <time>2016-04-03T09:05:58.000Z</time>
      </trkpt>
      <trkpt lat="46.9883" lon="3.32135">
        <ele>295.52163696289</ele>
        <time>2016-04-03T09:06:04.000Z</time>
      </trkpt>
      <trkpt lat="46.98829" lon="3.32132">
        <ele>295.24884033203</ele>
        <time>2016-04-03T09:06:09.000Z</time>
      </trkpt>
      <trkpt lat="46.98827" lon="3.3213">
        <ele>295.01913452148</ele>
        <time>2016-04-03T09:06:09.000Z</time>
      </trkpt>
      <trkpt lat="46.98824" lon="3.32126">
        <ele>294.83148193359</ele>
        <time>2016-04-03T09:06:10.000Z</time>
      </trkpt>
      <trkpt lat="46.98822" lon="3.32122">
        <ele>294.69873046875</ele>
        <time>2016-04-03T09:06:11.000Z</time>
      </trkpt>
      <trkpt lat="46.9882" lon="3.3212">
        <ele>294.61065673828</ele>
        <time>2016-04-03T09:06:11.000Z</time>
      </trkpt>
      <trkpt lat="46.98819" lon="3.32118">
        <ele>294.53424072266</ele>
        <time>2016-04-03T09:06:13.000Z</time>
      </trkpt>
      <trkpt lat="46.98817" lon="3.32114">
        <ele>294.44805908203</ele>
        <time>2016-04-03T09:06:14.000Z</time>
      </trkpt>
      <trkpt lat="46.98816" lon="3.32107">
        <ele>294.30532836914</ele>
        <time>2016-04-03T09:06:14.000Z</time>
      </trkpt>
      <trkpt lat="46.98816" lon="3.32104">
        <ele>294.16351318359</ele>
        <time>2016-04-03T09:06:15.000Z</time>
      </trkpt>
      <trkpt lat="46.98813" lon="3.321">
        <ele>294.015625</ele>
        <time>2016-04-03T09:06:15.000Z</time>
      </trkpt>
      <trkpt lat="46.9881" lon="3.32094">
        <ele>293.85223388672</ele>
        <time>2016-04-03T09:06:16.000Z</time>
      </trkpt>
      <trkpt lat="46.98808" lon="3.32092">
        <ele>293.71850585938</ele>
        <time>2016-04-03T09:06:17.000Z</time>
      </trkpt>
      <trkpt lat="46.98806" lon="3.32089">
        <ele>293.654296875</ele>
        <time>2016-04-03T09:06:20.000Z</time>
      </trkpt>
      <trkpt lat="46.98804" lon="3.32085">
        <ele>293.61480712891</ele>
        <time>2016-04-03T09:06:24.000Z</time>
      </trkpt>
      <trkpt lat="46.98801" lon="3.3208">
        <ele>293.58752441406</ele>
        <time>2016-04-03T09:06:26.000Z</time>
      </trkpt>
      <trkpt lat="46.98799" lon="3.32076">
        <ele>293.57986450195</ele>
        <time>2016-04-03T09:06:29.000Z</time>
      </trkpt>
      <trkpt lat="46.98796" lon="3.32069">
        <ele>293.55609130859</ele>
        <time>2016-04-03T09:06:32.000Z</time>
      </trkpt>
      <trkpt lat="46.98796" lon="3.32065">
        <ele>293.52066040039</ele>
        <time>2016-04-03T09:06:35.000Z</time>
      </trkpt>
      <trkpt lat="46.98794" lon="3.32059">
        <ele>293.46453857422</ele>
        <time>2016-04-03T09:06:37.000Z</time>
      </trkpt>
      <trkpt lat="46.98792" lon="3.32056">
        <ele>293.41107177734</ele>
        <time>2016-04-03T09:06:39.000Z</time>
      </trkpt>
      <trkpt lat="46.98792" lon="3.32054">
        <ele>293.35736083984</ele>
        <time>2016-04-03T09:06:43.000Z</time>
      </trkpt>
      <trkpt lat="46.9879" lon="3.32052">
        <ele>293.31420898438</ele>
        <time>2016-04-03T09:06:43.000Z</time>
      </trkpt>
      <trkpt lat="46.98788" lon="3.32047">
        <ele>293.28012084961</ele>
        <time>2016-04-03T09:06:46.000Z</time>
      </trkpt>
      <trkpt lat="46.98786" lon="3.32043">
        <ele>293.26702880859</ele>
        <time>2016-04-03T09:06:49.000Z</time>
      </trkpt>
      <trkpt lat="46.98784" lon="3.3204">
        <ele>293.26568603516</ele>
        <time>2016-04-03T09:06:52.000Z</time>
      </trkpt>
      <trkpt lat="46.98782" lon="3.32037">
        <ele>293.26763916016</ele>
        <time>2016-04-03T09:06:57.000Z</time>
      </trkpt>
      <trkpt lat="46.98781" lon="3.32034">
        <ele>293.259765625</ele>
        <time>2016-04-03T09:07:00.000Z</time>
      </trkpt>
      <trkpt lat="46.98779" lon="3.32027">
        <ele>293.22283935547</ele>
        <time>2016-04-03T09:07:01.000Z</time>
      </trkpt>
      <trkpt lat="46.98777" lon="3.32021">
        <ele>293.17425537109</ele>
        <time>2016-04-03T09:07:03.000Z</time>
      </trkpt>
      <trkpt lat="46.98776" lon="3.32017">
        <ele>293.09149169922</ele>
        <time>2016-04-03T09:07:06.000Z</time>
      </trkpt>
      <trkpt lat="46.98773" lon="3.32013">
        <ele>293.01580810547</ele>
        <time>2016-04-03T09:07:09.000Z</time>
      </trkpt>
      <trkpt lat="46.98771" lon="3.32008">
        <ele>292.93609619141</ele>
        <time>2016-04-03T09:07:19.000Z</time>
      </trkpt>
      <trkpt lat="46.9877" lon="3.32004">
        <ele>292.87237548828</ele>
        <time>2016-04-03T09:07:21.000Z</time>
      </trkpt>
      <trkpt lat="46.98768" lon="3.31999">
        <ele>292.80590820312</ele>
        <time>2016-04-03T09:07:25.000Z</time>
      </trkpt>
      <trkpt lat="46.98764" lon="3.31992">
        <ele>292.69766235352</ele>
        <time>2016-04-03T09:07:25.000Z</time>
      </trkpt>
      <trkpt lat="46.98763" lon="3.31987">
        <ele>292.52450561523</ele>
        <time>2016-04-03T09:07:40.000Z</time>
      </trkpt>
      <trkpt lat="46.98762" lon="3.31984">
        <ele>292.33929443359</ele>
        <time>2016-04-03T09:07:41.000Z</time>
      </trkpt>
      <trkpt lat="46.98762" lon="3.31982">
        <ele>292.13888549805</ele>
        <time>2016-04-03T09:07:42.000Z</time>
      </trkpt>
      <trkpt lat="46.98762" lon="3.31977">
        <ele>291.89041137695</ele>
        <time>2016-04-03T09:07:44.000Z</time>
      </trkpt>
      <trkpt lat="46.98761" lon="3.31974">
        <ele>291.6647644043</ele>
        <time>2016-04-03T09:07:45.000Z</time>
      </trkpt>
      <trkpt lat="46.98759" lon="3.3197">
        <ele>291.45205688477</ele>
        <time>2016-04-03T09:07:45.000Z</time>
      </trkpt>
      <trkpt lat="46.98758" lon="3.31965">
        <ele>291.20574951172</ele>
        <time>2016-04-03T09:07:46.000Z</time>
      </trkpt>
      <trkpt lat="46.98755" lon="3.31959">
        <ele>290.91497802734</ele>
        <time>2016-04-03T09:07:47.000Z</time>
      </trkpt>
      <trkpt lat="46.98753" lon="3.31955">
        <ele>290.65145874023</ele>
        <time>2016-04-03T09:07:47.000Z</time>
      </trkpt>
      <trkpt lat="46.9875" lon="3.31949">
        <ele>290.35726928711</ele>
        <time>2016-04-03T09:07:49.000Z</time>
      </trkpt>
      <trkpt lat="46.98748" lon="3.31947">
        <ele>290.0830078125</ele>
        <time>2016-04-03T09:07:50.000Z</time>
      </trkpt>
      <trkpt lat="46.98748" lon="3.31944">
        <ele>289.82830810547</ele>
        <time>2016-04-03T09:07:52.000Z</time>
      </trkpt>
      <trkpt lat="46.98746" lon="3.31941">
        <ele>289.62045288086</ele>
        <time>2016-04-03T09:07:55.000Z</time>
      </trkpt>
      <trkpt lat="46.98743" lon="3.31936">
        <ele>289.40399169922</ele>
        <time>2016-04-03T09:07:58.000Z</time>
      </trkpt>
      <trkpt lat="46.98742" lon="3.31933">
        <ele>289.21875</ele>
        <time>2016-04-03T09:08:00.000Z</time>
      </trkpt>
      <trkpt lat="46.98741" lon="3.3193">
        <ele>289.04095458984</ele>
        <time>2016-04-03T09:08:02.000Z</time>
      </trkpt>
      <trkpt lat="46.9874" lon="3.31927">
        <ele>288.87640380859</ele>
        <time>2016-04-03T09:08:04.000Z</time>
      </trkpt>
      <trkpt lat="46.98737" lon="3.31925">
        <ele>288.73294067383</ele>
        <time>2016-04-03T09:08:06.000Z</time>
      </trkpt>
      <trkpt lat="46.98735" lon="3.31919">
        <ele>288.58660888672</ele>
        <time>2016-04-03T09:08:09.000Z</time>
      </trkpt>
      <trkpt lat="46.98733" lon="3.31914">
        <ele>288.4436340332</ele>
        <time>2016-04-03T09:08:12.000Z</time>
      </trkpt>
      <trkpt lat="46.98732" lon="3.3191">
        <ele>288.28668212891</ele>
        <time>2016-04-03T09:08:14.000Z</time>
      </trkpt>
      <trkpt lat="46.98732" lon="3.31905">
        <ele>288.09649658203</ele>
        <time>2016-04-03T09:08:17.000Z</time>
      </trkpt>
      <trkpt lat="46.98733" lon="3.31901">
        <ele>287.86846923828</ele>
        <time>2016-04-03T09:08:19.000Z</time>
      </trkpt>
      <trkpt lat="46.98733" lon="3.31896">
        <ele>287.64144897461</ele>
        <time>2016-04-03T09:08:22.000Z</time>
      </trkpt>
      <trkpt lat="46.98732" lon="3.31893">
        <ele>287.4206237793</ele>
        <time>2016-04-03T09:08:26.000Z</time>
      </trkpt>
      <trkpt lat="46.98731" lon="3.3189">
        <ele>287.21615600586</ele>
        <time>2016-04-03T09:08:28.000Z</time>
      </trkpt>
      <trkpt lat="46.9873" lon="3.31886">
        <ele>287.04867553711</ele>
        <time>2016-04-03T09:08:31.000Z</time>
      </trkpt>
      <trkpt lat="46.98726" lon="3.31881">
        <ele>286.91693115234</ele>
        <time>2016-04-03T09:08:34.000Z</time>
      </trkpt>
      <trkpt lat="46.98724" lon="3.31877">
        <ele>286.83432006836</ele>
        <time>2016-04-03T09:08:36.000Z</time>
      </trkpt>
      <trkpt lat="46.9872" lon="3.31874">
        <ele>286.78375244141</ele>
        <time>2016-04-03T09:08:39.000Z</time>
      </trkpt>
      <trkpt lat="46.98719" lon="3.3187">
        <ele>286.71615600586</ele>
        <time>2016-04-03T09:08:42.000Z</time>
      </trkpt>
      <trkpt lat="46.98717" lon="3.31866">
        <ele>286.65191650391</ele>
        <time>2016-04-03T09:08:45.000Z</time>
      </trkpt>
      <trkpt lat="46.98715" lon="3.31863">
        <ele>286.58941650391</ele>
        <time>2016-04-03T09:08:48.000Z</time>
      </trkpt>
      <trkpt lat="46.98713" lon="3.3186">
        <ele>286.5041809082</ele>
        <time>2016-04-03T09:08:51.000Z</time>
      </trkpt>
      <trkpt lat="46.98711" lon="3.31855">
        <ele>286.38171386719</ele>
        <time>2016-04-03T09:08:53.000Z</time>
      </trkpt>
      <trkpt lat="46.98708" lon="3.31848">
        <ele>286.24285888672</ele>
        <time>2016-04-03T09:08:56.000Z</time>
      </trkpt>
      <trkpt lat="46.98706" lon="3.31845">
        <ele>286.11065673828</ele>
        <time>2016-04-03T09:08:58.000Z</time>
      </trkpt>
      <trkpt lat="46.98703" lon="3.3184">
        <ele>285.95779418945</ele>
        <time>2016-04-03T09:09:01.000Z</time>
      </trkpt>
      <trkpt lat="46.98701" lon="3.31836">
        <ele>285.80700683594</ele>
        <time>2016-04-03T09:09:04.000Z</time>
      </trkpt>
      <trkpt lat="46.98699" lon="3.31833">
        <ele>285.66714477539</ele>
        <time>2016-04-03T09:09:07.000Z</time>
      </trkpt>
      <trkpt lat="46.98697" lon="3.31829">
        <ele>285.58538818359</ele>
        <time>2016-04-03T09:09:10.000Z</time>
      </trkpt>
      <trkpt lat="46.98695" lon="3.31826">
        <ele>285.52700805664</ele>
        <time>2016-04-03T09:09:14.000Z</time>
      </trkpt>
      <trkpt lat="46.98694" lon="3.31824">
        <ele>285.50573730469</ele>
        <time>2016-04-03T09:09:15.000Z</time>
      </trkpt>
      <trkpt lat="46.98692" lon="3.3182">
        <ele>285.51129150391</ele>
        <time>2016-04-03T09:09:18.000Z</time>
      </trkpt>
      <trkpt lat="46.98691" lon="3.31817">
        <ele>285.53405761719</ele>
        <time>2016-04-03T09:09:20.000Z</time>
      </trkpt>
      <trkpt lat="46.98688" lon="3.31813">
        <ele>285.55242919922</ele>
        <time>2016-04-03T09:09:24.000Z</time>
      </trkpt>
      <trkpt lat="46.98685" lon="3.31811">
        <ele>285.57028198242</ele>
        <time>2016-04-03T09:09:26.000Z</time>
      </trkpt>
      <trkpt lat="46.98682" lon="3.31808">
        <ele>285.58862304688</ele>
        <time>2016-04-03T09:09:28.000Z</time>
      </trkpt>
      <trkpt lat="46.98678" lon="3.31804">
        <ele>285.60116577148</ele>
        <time>2016-04-03T09:09:30.000Z</time>
      </trkpt>
      <trkpt lat="46.98677" lon="3.31801">
        <ele>285.60775756836</ele>
        <time>2016-04-03T09:09:32.000Z</time>
      </trkpt>
      <trkpt lat="46.98674" lon="3.31796">
        <ele>285.5930480957</ele>
        <time>2016-04-03T09:09:36.000Z</time>
      </trkpt>
      <trkpt lat="46.98672" lon="3.31794">
        <ele>285.56271362305</ele>
        <time>2016-04-03T09:09:37.000Z</time>
      </trkpt>
      <trkpt lat="46.98671" lon="3.31791">
        <ele>285.51559448242</ele>
        <time>2016-04-03T09:09:39.000Z</time>
      </trkpt>
      <trkpt lat="46.98669" lon="3.31787">
        <ele>285.45132446289</ele>
        <time>2016-04-03T09:09:42.000Z</time>
      </trkpt>
      <trkpt lat="46.98667" lon="3.31785">
        <ele>285.38397216797</ele>
        <time>2016-04-03T09:09:44.000Z</time>
      </trkpt>
      <trkpt lat="46.98665" lon="3.3178">
        <ele>285.31024169922</ele>
        <time>2016-04-03T09:09:48.000Z</time>
      </trkpt>
      <trkpt lat="46.98663" lon="3.31778">
        <ele>285.23590087891</ele>
        <time>2016-04-03T09:09:49.000Z</time>
      </trkpt>
      <trkpt lat="46.98662" lon="3.31775">
        <ele>285.16519165039</ele>
        <time>2016-04-03T09:09:51.000Z</time>
      </trkpt>
      <trkpt lat="46.98659" lon="3.31771">
        <ele>285.09393310547</ele>
        <time>2016-04-03T09:09:54.000Z</time>
      </trkpt>
      <trkpt lat="46.98656" lon="3.31768">
        <ele>285.02728271484</ele>
        <time>2016-04-03T09:09:57.000Z</time>
      </trkpt>
      <trkpt lat="46.98653" lon="3.31765">
        <ele>284.97915649414</ele>
        <time>2016-04-03T09:10:00.000Z</time>
      </trkpt>
      <trkpt lat="46.98651" lon="3.3176">
        <ele>284.91278076172</ele>
        <time>2016-04-03T09:10:03.000Z</time>
      </trkpt>
      <trkpt lat="46.98648" lon="3.31758">
        <ele>284.85568237305</ele>
        <time>2016-04-03T09:10:06.000Z</time>
      </trkpt>
      <trkpt lat="46.98648" lon="3.31757">
        <ele>284.81219482422</ele>
        <time>2016-04-03T09:10:08.000Z</time>
      </trkpt>
      <trkpt lat="46.98645" lon="3.31756">
        <ele>284.78039550781</ele>
        <time>2016-04-03T09:10:11.000Z</time>
      </trkpt>
      <trkpt lat="46.98643" lon="3.31756">
        <ele>284.76123046875</ele>
        <time>2016-04-03T09:10:14.000Z</time>
      </trkpt>
      <trkpt lat="46.98641" lon="3.31754">
        <ele>284.76504516602</ele>
        <time>2016-04-03T09:10:17.000Z</time>
      </trkpt>
      <trkpt lat="46.98638" lon="3.31751">
        <ele>284.76132202148</ele>
        <time>2016-04-03T09:10:20.000Z</time>
      </trkpt>
      <trkpt lat="46.98636" lon="3.31749">
        <ele>284.75811767578</ele>
        <time>2016-04-03T09:10:23.000Z</time>
      </trkpt>
      <trkpt lat="46.98635" lon="3.31749">
        <ele>284.75341796875</ele>
        <time>2016-04-03T09:10:25.000Z</time>
      </trkpt>
      <trkpt lat="46.98632" lon="3.31746">
        <ele>284.74490356445</ele>
        <time>2016-04-03T09:10:28.000Z</time>
      </trkpt>
      <trkpt lat="46.98629" lon="3.31745">
        <ele>284.74533081055</ele>
        <time>2016-04-03T09:10:30.000Z</time>
      </trkpt>
      <trkpt lat="46.98627" lon="3.31745">
        <ele>284.76428222656</ele>
        <time>2016-04-03T09:10:36.000Z</time>
      </trkpt>
      <trkpt lat="46.98624" lon="3.31744">
        <ele>284.79260253906</ele>
        <time>2016-04-03T09:10:37.000Z</time>
      </trkpt>
      <trkpt lat="46.98621" lon="3.31738">
        <ele>284.80969238281</ele>
        <time>2016-04-03T09:10:39.000Z</time>
      </trkpt>
      <trkpt lat="46.9862" lon="3.31735">
        <ele>284.81213378906</ele>
        <time>2016-04-03T09:10:41.000Z</time>
      </trkpt>
      <trkpt lat="46.98619" lon="3.31732">
        <ele>284.79455566406</ele>
        <time>2016-04-03T09:10:44.000Z</time>
      </trkpt>
      <trkpt lat="46.98621" lon="3.31731">
        <ele>284.75903320312</ele>
        <time>2016-04-03T09:10:48.000Z</time>
      </trkpt>
      <trkpt lat="46.98621" lon="3.3173">
        <ele>284.70788574219</ele>
        <time>2016-04-03T09:10:59.000Z</time>
      </trkpt>
      <trkpt lat="46.98622" lon="3.31729">
        <ele>284.65637207031</ele>
        <time>2016-04-03T09:11:03.000Z</time>
      </trkpt>
      <trkpt lat="46.98622" lon="3.31729">
        <ele>284.65637207031</ele>
        <time>2016-04-03T09:11:24.000Z</time>
      </trkpt>
      <trkpt lat="46.98621" lon="3.31726">
        <ele>284.60607910156</ele>
        <time>2016-04-03T09:12:11.000Z</time>
      </trkpt>
      <trkpt lat="46.98621" lon="3.31724">
        <ele>284.56127929688</ele>
        <time>2016-04-03T09:12:14.000Z</time>
      </trkpt>
      <trkpt lat="46.98621" lon="3.31722">
        <ele>284.51416015625</ele>
        <time>2016-04-03T09:12:17.000Z</time>
      </trkpt>
      <trkpt lat="46.98619" lon="3.31717">
        <ele>284.46423339844</ele>
        <time>2016-04-03T09:12:20.000Z</time>
      </trkpt>
      <trkpt lat="46.98614" lon="3.3171">
        <ele>284.41516113281</ele>
        <time>2016-04-03T09:12:23.000Z</time>
      </trkpt>
      <trkpt lat="46.98611" lon="3.31706">
        <ele>284.37121582031</ele>
        <time>2016-04-03T09:12:26.000Z</time>
      </trkpt>
      <trkpt lat="46.98609" lon="3.31705">
        <ele>284.33764648438</ele>
        <time>2016-04-03T09:12:29.000Z</time>
      </trkpt>
      <trkpt lat="46.98607" lon="3.31703">
        <ele>284.31469726562</ele>
        <time>2016-04-03T09:12:31.000Z</time>
      </trkpt>
      <trkpt lat="46.98605" lon="3.31697">
        <ele>284.28735351562</ele>
        <time>2016-04-03T09:12:34.000Z</time>
      </trkpt>
      <trkpt lat="46.98602" lon="3.31693">
        <ele>284.26440429688</ele>
        <time>2016-04-03T09:12:37.000Z</time>
      </trkpt>
      <trkpt lat="46.986" lon="3.31691">
        <ele>284.24304199219</ele>
        <time>2016-04-03T09:12:40.000Z</time>
      </trkpt>
      <trkpt lat="46.986" lon="3.31689">
        <ele>284.20983886719</ele>
        <time>2016-04-03T09:12:45.000Z</time>
      </trkpt>
      <trkpt lat="46.98598" lon="3.31681">
        <ele>284.14672851562</ele>
        <time>2016-04-03T09:12:47.000Z</time>
      </trkpt>
      <trkpt lat="46.98595" lon="3.31676">
        <ele>284.08959960938</ele>
        <time>2016-04-03T09:12:50.000Z</time>
      </trkpt>
      <trkpt lat="46.98594" lon="3.31673">
        <ele>284.02917480469</ele>
        <time>2016-04-03T09:12:52.000Z</time>
      </trkpt>
      <trkpt lat="46.98593" lon="3.31668">
        <ele>283.95471191406</ele>
        <time>2016-04-03T09:12:55.000Z</time>
      </trkpt>
      <trkpt lat="46.98591" lon="3.31663">
        <ele>283.87536621094</ele>
        <time>2016-04-03T09:12:57.000Z</time>
      </trkpt>
      <trkpt lat="46.98589" lon="3.3166">
        <ele>283.82043457031</ele>
        <time>2016-04-03T09:12:59.000Z</time>
      </trkpt>
      <trkpt lat="46.98586" lon="3.31655">
        <ele>283.76147460938</ele>
        <time>2016-04-03T09:13:03.000Z</time>
      </trkpt>
      <trkpt lat="46.98585" lon="3.31652">
        <ele>283.70153808594</ele>
        <time>2016-04-03T09:13:06.000Z</time>
      </trkpt>
      <trkpt lat="46.98584" lon="3.3165">
        <ele>283.65637207031</ele>
        <time>2016-04-03T09:13:07.000Z</time>
      </trkpt>
      <trkpt lat="46.9858" lon="3.31647">
        <ele>283.62854003906</ele>
        <time>2016-04-03T09:13:12.000Z</time>
      </trkpt>
      <trkpt lat="46.98576" lon="3.31644">
        <ele>283.61193847656</ele>
        <time>2016-04-03T09:13:13.000Z</time>
      </trkpt>
      <trkpt lat="46.98574" lon="3.31639">
        <ele>283.595703125</ele>
        <time>2016-04-03T09:13:15.000Z</time>
      </trkpt>
      <trkpt lat="46.98572" lon="3.31634">
        <ele>283.5703125</ele>
        <time>2016-04-03T09:13:18.000Z</time>
      </trkpt>
      <trkpt lat="46.98571" lon="3.3163">
        <ele>283.53662109375</ele>
        <time>2016-04-03T09:13:20.000Z</time>
      </trkpt>
      <trkpt lat="46.98569" lon="3.31625">
        <ele>283.48681640625</ele>
        <time>2016-04-03T09:13:23.000Z</time>
      </trkpt>
      <trkpt lat="46.98568" lon="3.31621">
        <ele>283.416015625</ele>
        <time>2016-04-03T09:13:26.000Z</time>
      </trkpt>
      <trkpt lat="46.98563" lon="3.31617">
        <ele>283.36206054688</ele>
        <time>2016-04-03T09:13:29.000Z</time>
      </trkpt>
      <trkpt lat="46.98561" lon="3.31614">
        <ele>283.31860351562</ele>
        <time>2016-04-03T09:13:32.000Z</time>
      </trkpt>
      <trkpt lat="46.9856" lon="3.31611">
        <ele>283.2763671875</ele>
        <time>2016-04-03T09:13:35.000Z</time>
      </trkpt>
      <trkpt lat="46.98559" lon="3.31603">
        <ele>283.21740722656</ele>
        <time>2016-04-03T09:13:39.000Z</time>
      </trkpt>
      <trkpt lat="46.98558" lon="3.31597">
        <ele>283.15173339844</ele>
        <time>2016-04-03T09:13:44.000Z</time>
      </trkpt>
      <trkpt lat="46.98555" lon="3.31591">
        <ele>283.06604003906</ele>
        <time>2016-04-03T09:13:46.000Z</time>
      </trkpt>
      <trkpt lat="46.98555" lon="3.31583">
        <ele>282.95028686523</ele>
        <time>2016-04-03T09:13:50.000Z</time>
      </trkpt>
      <trkpt lat="46.98553" lon="3.31578">
        <ele>282.82495117188</ele>
        <time>2016-04-03T09:13:52.000Z</time>
      </trkpt>
      <trkpt lat="46.98552" lon="3.31576">
        <ele>282.72552490234</ele>
        <time>2016-04-03T09:13:56.000Z</time>
      </trkpt>
      <trkpt lat="46.9855" lon="3.31574">
        <ele>282.64453125</ele>
        <time>2016-04-03T09:13:57.000Z</time>
      </trkpt>
      <trkpt lat="46.9855" lon="3.31572">
        <ele>282.57437133789</ele>
        <time>2016-04-03T09:14:01.000Z</time>
      </trkpt>
      <trkpt lat="46.98548" lon="3.31567">
        <ele>282.52279663086</ele>
        <time>2016-04-03T09:14:02.000Z</time>
      </trkpt>
      <trkpt lat="46.98547" lon="3.31564">
        <ele>282.47915649414</ele>
        <time>2016-04-03T09:14:04.000Z</time>
      </trkpt>
      <trkpt lat="46.98547" lon="3.31561">
        <ele>282.4267578125</ele>
        <time>2016-04-03T09:14:07.000Z</time>
      </trkpt>
      <trkpt lat="46.98547" lon="3.31558">
        <ele>282.36450195312</ele>
        <time>2016-04-03T09:14:09.000Z</time>
      </trkpt>
      <trkpt lat="46.98547" lon="3.31553">
        <ele>282.2868347168</ele>
        <time>2016-04-03T09:14:13.000Z</time>
      </trkpt>
      <trkpt lat="46.98546" lon="3.31551">
        <ele>282.21633911133</ele>
        <time>2016-04-03T09:14:14.000Z</time>
      </trkpt>
      <trkpt lat="46.98544" lon="3.31546">
        <ele>282.15005493164</ele>
        <time>2016-04-03T09:14:16.000Z</time>
      </trkpt>
      <trkpt lat="46.98542" lon="3.31541">
        <ele>282.08123779297</ele>
        <time>2016-04-03T09:14:19.000Z</time>
      </trkpt>
      <trkpt lat="46.9854" lon="3.31537">
        <ele>282.02716064453</ele>
        <time>2016-04-03T09:14:22.000Z</time>
      </trkpt>
      <trkpt lat="46.98536" lon="3.3153">
        <ele>281.98986816406</ele>
        <time>2016-04-03T09:14:24.000Z</time>
      </trkpt>
      <trkpt lat="46.98535" lon="3.31526">
        <ele>281.95596313477</ele>
        <time>2016-04-03T09:14:26.000Z</time>
      </trkpt>
      <trkpt lat="46.98535" lon="3.31519">
        <ele>281.89596557617</ele>
        <time>2016-04-03T09:14:29.000Z</time>
      </trkpt>
      <trkpt lat="46.98535" lon="3.31515">
        <ele>281.83258056641</ele>
        <time>2016-04-03T09:14:31.000Z</time>
      </trkpt>
      <trkpt lat="46.98535" lon="3.31508">
        <ele>281.74285888672</ele>
        <time>2016-04-03T09:14:34.000Z</time>
      </trkpt>
      <trkpt lat="46.98534" lon="3.31503">
        <ele>281.64593505859</ele>
        <time>2016-04-03T09:14:37.000Z</time>
      </trkpt>
      <trkpt lat="46.98531" lon="3.315">
        <ele>281.56402587891</ele>
        <time>2016-04-03T09:14:40.000Z</time>
      </trkpt>
      <trkpt lat="46.98529" lon="3.31494">
        <ele>281.5383605957</ele>
        <time>2016-04-03T09:14:43.000Z</time>
      </trkpt>
      <trkpt lat="46.98529" lon="3.31487">
        <ele>281.53546142578</ele>
        <time>2016-04-03T09:14:46.000Z</time>
      </trkpt>
      <trkpt lat="46.98528" lon="3.31485">
        <ele>281.5693359375</ele>
        <time>2016-04-03T09:14:50.000Z</time>
      </trkpt>
      <trkpt lat="46.98525" lon="3.31481">
        <ele>281.63934326172</ele>
        <time>2016-04-03T09:14:54.000Z</time>
      </trkpt>
      <trkpt lat="46.98522" lon="3.31473">
        <ele>281.74249267578</ele>
        <time>2016-04-03T09:14:57.000Z</time>
      </trkpt>
      <trkpt lat="46.98518" lon="3.31469">
        <ele>281.87475585938</ele>
        <time>2016-04-03T09:15:01.000Z</time>
      </trkpt>
      <trkpt lat="46.98515" lon="3.31466">
        <ele>282.04150390625</ele>
        <time>2016-04-03T09:15:02.000Z</time>
      </trkpt>
      <trkpt lat="46.98513" lon="3.31464">
        <ele>282.22882080078</ele>
        <time>2016-04-03T09:15:04.000Z</time>
      </trkpt>
      <trkpt lat="46.9851" lon="3.31459">
        <ele>282.44256591797</ele>
        <time>2016-04-03T09:15:07.000Z</time>
      </trkpt>
      <trkpt lat="46.98508" lon="3.31456">
        <ele>282.64682006836</ele>
        <time>2016-04-03T09:15:10.000Z</time>
      </trkpt>
      <trkpt lat="46.98509" lon="3.31454">
        <ele>282.78607177734</ele>
        <time>2016-04-03T09:15:12.000Z</time>
      </trkpt>
      <trkpt lat="46.98508" lon="3.31453">
        <ele>282.90658569336</ele>
        <time>2016-04-03T09:15:19.000Z</time>
      </trkpt>
      <trkpt lat="46.9851" lon="3.31449">
        <ele>282.97061157227</ele>
        <time>2016-04-03T09:15:37.000Z</time>
      </trkpt>
      <trkpt lat="46.9851" lon="3.31446">
        <ele>282.98443603516</ele>
        <time>2016-04-03T09:15:40.000Z</time>
      </trkpt>
      <trkpt lat="46.9851" lon="3.31441">
        <ele>282.96887207031</ele>
        <time>2016-04-03T09:15:42.000Z</time>
      </trkpt>
      <trkpt lat="46.98511" lon="3.31438">
        <ele>282.96551513672</ele>
        <time>2016-04-03T09:15:46.000Z</time>
      </trkpt>
      <trkpt lat="46.98506" lon="3.31429">
        <ele>283.02532958984</ele>
        <time>2016-04-03T09:15:51.000Z</time>
      </trkpt>
      <trkpt lat="46.98504" lon="3.31423">
        <ele>283.1589050293</ele>
        <time>2016-04-03T09:15:56.000Z</time>
      </trkpt>
      <trkpt lat="46.98503" lon="3.31417">
        <ele>283.32009887695</ele>
        <time>2016-04-03T09:15:58.000Z</time>
      </trkpt>
      <trkpt lat="46.98503" lon="3.31415">
        <ele>283.47021484375</ele>
        <time>2016-04-03T09:16:02.000Z</time>
      </trkpt>
      <trkpt lat="46.985" lon="3.31409">
        <ele>283.62921142578</ele>
        <time>2016-04-03T09:16:04.000Z</time>
      </trkpt>
      <trkpt lat="46.98496" lon="3.31404">
        <ele>283.72973632812</ele>
        <time>2016-04-03T09:16:06.000Z</time>
      </trkpt>
      <trkpt lat="46.98491" lon="3.31397">
        <ele>283.78948974609</ele>
        <time>2016-04-03T09:16:08.000Z</time>
      </trkpt>
      <trkpt lat="46.98486" lon="3.31394">
        <ele>283.87524414062</ele>
        <time>2016-04-03T09:16:12.000Z</time>
      </trkpt>
      <trkpt lat="46.98484" lon="3.31391">
        <ele>283.97155761719</ele>
        <time>2016-04-03T09:16:14.000Z</time>
      </trkpt>
      <trkpt lat="46.98478" lon="3.31386">
        <ele>284.10699462891</ele>
        <time>2016-04-03T09:16:18.000Z</time>
      </trkpt>
      <trkpt lat="46.98476" lon="3.31385">
        <ele>284.22698974609</ele>
        <time>2016-04-03T09:16:21.000Z</time>
      </trkpt>
      <trkpt lat="46.98474" lon="3.31379">
        <ele>284.32525634766</ele>
        <time>2016-04-03T09:16:24.000Z</time>
      </trkpt>
      <trkpt lat="46.98471" lon="3.31371">
        <ele>284.34094238281</ele>
        <time>2016-04-03T09:16:27.000Z</time>
      </trkpt>
      <trkpt lat="46.98468" lon="3.31365">
        <ele>284.3408203125</ele>
        <time>2016-04-03T09:16:31.000Z</time>
      </trkpt>
      <trkpt lat="46.98468" lon="3.31359">
        <ele>284.25131225586</ele>
        <time>2016-04-03T09:16:34.000Z</time>
      </trkpt>
      <trkpt lat="46.98468" lon="3.31348">
        <ele>284.07122802734</ele>
        <time>2016-04-03T09:16:37.000Z</time>
      </trkpt>
      <trkpt lat="46.98466" lon="3.31345">
        <ele>283.89691162109</ele>
        <time>2016-04-03T09:16:39.000Z</time>
      </trkpt>
      <trkpt lat="46.98465" lon="3.31343">
        <ele>283.74676513672</ele>
        <time>2016-04-03T09:16:42.000Z</time>
      </trkpt>
      <trkpt lat="46.98463" lon="3.31337">
        <ele>283.58258056641</ele>
        <time>2016-04-03T09:16:45.000Z</time>
      </trkpt>
      <trkpt lat="46.98461" lon="3.31332">
        <ele>283.44659423828</ele>
        <time>2016-04-03T09:16:48.000Z</time>
      </trkpt>
      <trkpt lat="46.98459" lon="3.31326">
        <ele>283.37954711914</ele>
        <time>2016-04-03T09:16:51.000Z</time>
      </trkpt>
      <trkpt lat="46.98458" lon="3.31321">
        <ele>283.28887939453</ele>
        <time>2016-04-03T09:16:54.000Z</time>
      </trkpt>
      <trkpt lat="46.98457" lon="3.31318">
        <ele>283.19482421875</ele>
        <time>2016-04-03T09:16:57.000Z</time>
      </trkpt>
      <trkpt lat="46.98456" lon="3.31311">
        <ele>283.09576416016</ele>
        <time>2016-04-03T09:17:00.000Z</time>
      </trkpt>
      <trkpt lat="46.98456" lon="3.31309">
        <ele>282.98867797852</ele>
        <time>2016-04-03T09:17:02.000Z</time>
      </trkpt>
      <trkpt lat="46.98458" lon="3.31306">
        <ele>282.85107421875</ele>
        <time>2016-04-03T09:17:06.000Z</time>
      </trkpt>
      <trkpt lat="46.98459" lon="3.31304">
        <ele>282.72186279297</ele>
        <time>2016-04-03T09:17:08.000Z</time>
      </trkpt>
      <trkpt lat="46.98462" lon="3.31297">
        <ele>282.5126953125</ele>
        <time>2016-04-03T09:17:12.000Z</time>
      </trkpt>
      <trkpt lat="46.98463" lon="3.31292">
        <ele>282.28750610352</ele>
        <time>2016-04-03T09:17:13.000Z</time>
      </trkpt>
      <trkpt lat="46.98463" lon="3.31291">
        <ele>282.07696533203</ele>
        <time>2016-04-03T09:17:17.000Z</time>
      </trkpt>
      <trkpt lat="46.98462" lon="3.31285">
        <ele>281.87939453125</ele>
        <time>2016-04-03T09:17:19.000Z</time>
      </trkpt>
      <trkpt lat="46.9846" lon="3.31278">
        <ele>281.67864990234</ele>
        <time>2016-04-03T09:17:21.000Z</time>
      </trkpt>
      <trkpt lat="46.98457" lon="3.31269">
        <ele>281.53695678711</ele>
        <time>2016-04-03T09:17:24.000Z</time>
      </trkpt>
      <trkpt lat="46.98455" lon="3.3126">
        <ele>281.4013671875</ele>
        <time>2016-04-03T09:17:28.000Z</time>
      </trkpt>
      <trkpt lat="46.98454" lon="3.31253">
        <ele>281.24359130859</ele>
        <time>2016-04-03T09:17:30.000Z</time>
      </trkpt>
      <trkpt lat="46.98454" lon="3.31251">
        <ele>281.10311889648</ele>
        <time>2016-04-03T09:17:32.000Z</time>
      </trkpt>
      <trkpt lat="46.98453" lon="3.31248">
        <ele>280.96551513672</ele>
        <time>2016-04-03T09:17:34.000Z</time>
      </trkpt>
      <trkpt lat="46.98451" lon="3.31244">
        <ele>280.84381103516</ele>
        <time>2016-04-03T09:17:36.000Z</time>
      </trkpt>
      <trkpt lat="46.98447" lon="3.31237">
        <ele>280.74731445312</ele>
        <time>2016-04-03T09:17:40.000Z</time>
      </trkpt>
      <trkpt lat="46.98446" lon="3.31235">
        <ele>280.66326904297</ele>
        <time>2016-04-03T09:17:41.000Z</time>
      </trkpt>
      <trkpt lat="46.98445" lon="3.31231">
        <ele>280.57168579102</ele>
        <time>2016-04-03T09:17:44.000Z</time>
      </trkpt>
      <trkpt lat="46.98446" lon="3.31227">
        <ele>280.45745849609</ele>
        <time>2016-04-03T09:17:47.000Z</time>
      </trkpt>
      <trkpt lat="46.98444" lon="3.31223">
        <ele>280.33441162109</ele>
        <time>2016-04-03T09:17:51.000Z</time>
      </trkpt>
      <trkpt lat="46.98443" lon="3.3122">
        <ele>280.21044921875</ele>
        <time>2016-04-03T09:17:52.000Z</time>
      </trkpt>
      <trkpt lat="46.98442" lon="3.31214">
        <ele>280.05584716797</ele>
        <time>2016-04-03T09:17:55.000Z</time>
      </trkpt>
      <trkpt lat="46.98442" lon="3.31212">
        <ele>279.89437866211</ele>
        <time>2016-04-03T09:17:58.000Z</time>
      </trkpt>
      <trkpt lat="46.98443" lon="3.31208">
        <ele>279.73022460938</ele>
        <time>2016-04-03T09:18:00.000Z</time>
      </trkpt>
      <trkpt lat="46.98443" lon="3.31203">
        <ele>279.54751586914</ele>
        <time>2016-04-03T09:18:03.000Z</time>
      </trkpt>
      <trkpt lat="46.98443" lon="3.31196">
        <ele>279.31655883789</ele>
        <time>2016-04-03T09:18:06.000Z</time>
      </trkpt>
      <trkpt lat="46.98443" lon="3.31193">
        <ele>279.10198974609</ele>
        <time>2016-04-03T09:18:09.000Z</time>
      </trkpt>
      <trkpt lat="46.98442" lon="3.3119">
        <ele>278.89389038086</ele>
        <time>2016-04-03T09:18:11.000Z</time>
      </trkpt>
      <trkpt lat="46.9844" lon="3.31185">
        <ele>278.69027709961</ele>
        <time>2016-04-03T09:18:14.000Z</time>
      </trkpt>
      <trkpt lat="46.9844" lon="3.31183">
        <ele>278.51196289062</ele>
        <time>2016-04-03T09:18:16.000Z</time>
      </trkpt>
      <trkpt lat="46.98439" lon="3.31176">
        <ele>278.341796875</ele>
        <time>2016-04-03T09:18:20.000Z</time>
      </trkpt>
      <trkpt lat="46.98438" lon="3.31174">
        <ele>278.1865234375</ele>
        <time>2016-04-03T09:18:21.000Z</time>
      </trkpt>
      <trkpt lat="46.98437" lon="3.31173">
        <ele>278.04052734375</ele>
        <time>2016-04-03T09:18:25.000Z</time>
      </trkpt>
      <trkpt lat="46.98436" lon="3.3117">
        <ele>277.91540527344</ele>
        <time>2016-04-03T09:18:26.000Z</time>
      </trkpt>
      <trkpt lat="46.98434" lon="3.31164">
        <ele>277.75115966797</ele>
        <time>2016-04-03T09:18:28.000Z</time>
      </trkpt>
      <trkpt lat="46.98431" lon="3.31157">
        <ele>277.56970214844</ele>
        <time>2016-04-03T09:18:31.000Z</time>
      </trkpt>
      <trkpt lat="46.98429" lon="3.31154">
        <ele>277.36734008789</ele>
        <time>2016-04-03T09:18:33.000Z</time>
      </trkpt>
      <trkpt lat="46.98427" lon="3.31147">
        <ele>277.10491943359</ele>
        <time>2016-04-03T09:18:37.000Z</time>
      </trkpt>
      <trkpt lat="46.98426" lon="3.31145">
        <ele>276.83743286133</ele>
        <time>2016-04-03T09:18:38.000Z</time>
      </trkpt>
      <trkpt lat="46.98426" lon="3.31142">
        <ele>276.59060668945</ele>
        <time>2016-04-03T09:18:40.000Z</time>
      </trkpt>
      <trkpt lat="46.98426" lon="3.31137">
        <ele>276.36114501953</ele>
        <time>2016-04-03T09:18:43.000Z</time>
      </trkpt>
      <trkpt lat="46.98425" lon="3.31132">
        <ele>276.10986328125</ele>
        <time>2016-04-03T09:18:46.000Z</time>
      </trkpt>
      <trkpt lat="46.98424" lon="3.31129">
        <ele>275.90826416016</ele>
        <time>2016-04-03T09:18:48.000Z</time>
      </trkpt>
      <trkpt lat="46.98422" lon="3.31125">
        <ele>275.69183349609</ele>
        <time>2016-04-03T09:18:51.000Z</time>
      </trkpt>
      <trkpt lat="46.9842" lon="3.31122">
        <ele>275.48406982422</ele>
        <time>2016-04-03T09:18:54.000Z</time>
      </trkpt>
      <trkpt lat="46.98419" lon="3.31119">
        <ele>275.31036376953</ele>
        <time>2016-04-03T09:18:56.000Z</time>
      </trkpt>
      <trkpt lat="46.98417" lon="3.31115">
        <ele>275.16943359375</ele>
        <time>2016-04-03T09:19:00.000Z</time>
      </trkpt>
      <trkpt lat="46.98415" lon="3.31107">
        <ele>274.96478271484</ele>
        <time>2016-04-03T09:19:08.000Z</time>
      </trkpt>
      <trkpt lat="46.98414" lon="3.31097">
        <ele>274.68252563477</ele>
        <time>2016-04-03T09:19:11.000Z</time>
      </trkpt>
      <trkpt lat="46.98415" lon="3.31094">
        <ele>274.38607788086</ele>
        <time>2016-04-03T09:19:16.000Z</time>
      </trkpt>
      <trkpt lat="46.98411" lon="3.31089">
        <ele>274.06430053711</ele>
        <time>2016-04-03T09:19:22.000Z</time>
      </trkpt>
      <trkpt lat="46.98407" lon="3.31086">
        <ele>273.73678588867</ele>
        <time>2016-04-03T09:19:24.000Z</time>
      </trkpt>
      <trkpt lat="46.98405" lon="3.31084">
        <ele>273.47961425781</ele>
        <time>2016-04-03T09:19:27.000Z</time>
      </trkpt>
      <trkpt lat="46.98402" lon="3.31078">
        <ele>273.23187255859</ele>
        <time>2016-04-03T09:19:32.000Z</time>
      </trkpt>
      <trkpt lat="46.98392" lon="3.31073">
        <ele>272.93002319336</ele>
        <time>2016-04-03T09:19:34.000Z</time>
      </trkpt>
      <trkpt lat="46.98389" lon="3.3107">
        <ele>272.62054443359</ele>
        <time>2016-04-03T09:19:44.000Z</time>
      </trkpt>
      <trkpt lat="46.98384" lon="3.31059">
        <ele>272.12606811523</ele>
        <time>2016-04-03T09:19:47.000Z</time>
      </trkpt>
      <trkpt lat="46.98383" lon="3.31055">
        <ele>271.55767822266</ele>
        <time>2016-04-03T09:19:49.000Z</time>
      </trkpt>
      <trkpt lat="46.9838" lon="3.31051">
        <ele>271.02044677734</ele>
        <time>2016-04-03T09:19:52.000Z</time>
      </trkpt>
      <trkpt lat="46.98378" lon="3.31048">
        <ele>270.52355957031</ele>
        <time>2016-04-03T09:19:54.000Z</time>
      </trkpt>
      <trkpt lat="46.98377" lon="3.31046">
        <ele>270.03387451172</ele>
        <time>2016-04-03T09:19:56.000Z</time>
      </trkpt>
      <trkpt lat="46.98375" lon="3.31044">
        <ele>269.73062133789</ele>
        <time>2016-04-03T09:20:00.000Z</time>
      </trkpt>
      <trkpt lat="46.98373" lon="3.3104">
        <ele>269.44146728516</ele>
        <time>2016-04-03T09:20:01.000Z</time>
      </trkpt>
      <trkpt lat="46.98372" lon="3.31038">
        <ele>269.18634033203</ele>
        <time>2016-04-03T09:20:03.000Z</time>
      </trkpt>
      <trkpt lat="46.9837" lon="3.31034">
        <ele>268.90704345703</ele>
        <time>2016-04-03T09:20:06.000Z</time>
      </trkpt>
      <trkpt lat="46.9837" lon="3.31032">
        <ele>268.63458251953</ele>
        <time>2016-04-03T09:20:09.000Z</time>
      </trkpt>
      <trkpt lat="46.98368" lon="3.31028">
        <ele>268.29565429688</ele>
        <time>2016-04-03T09:20:12.000Z</time>
      </trkpt>
      <trkpt lat="46.98367" lon="3.31022">
        <ele>267.92138671875</ele>
        <time>2016-04-03T09:20:15.000Z</time>
      </trkpt>
      <trkpt lat="46.98365" lon="3.31019">
        <ele>267.53051757812</ele>
        <time>2016-04-03T09:20:17.000Z</time>
      </trkpt>
      <trkpt lat="46.98364" lon="3.31014">
        <ele>267.11065673828</ele>
        <time>2016-04-03T09:20:19.000Z</time>
      </trkpt>
      <trkpt lat="46.98362" lon="3.3101">
        <ele>266.63647460938</ele>
        <time>2016-04-03T09:20:22.000Z</time>
      </trkpt>
      <trkpt lat="46.98362" lon="3.31007">
        <ele>266.20220947266</ele>
        <time>2016-04-03T09:20:24.000Z</time>
      </trkpt>
      <trkpt lat="46.9836" lon="3.31002">
        <ele>265.77740478516</ele>
        <time>2016-04-03T09:20:28.000Z</time>
      </trkpt>
      <trkpt lat="46.98359" lon="3.30997">
        <ele>265.29507446289</ele>
        <time>2016-04-03T09:20:29.000Z</time>
      </trkpt>
      <trkpt lat="46.98359" lon="3.30991">
        <ele>264.78143310547</ele>
        <time>2016-04-03T09:20:33.000Z</time>
      </trkpt>
      <trkpt lat="46.98359" lon="3.30988">
        <ele>264.28964233398</ele>
        <time>2016-04-03T09:20:34.000Z</time>
      </trkpt>
      <trkpt lat="46.98357" lon="3.3098">
        <ele>263.66180419922</ele>
        <time>2016-04-03T09:20:38.000Z</time>
      </trkpt>
      <trkpt lat="46.98357" lon="3.30977">
        <ele>263.05877685547</ele>
        <time>2016-04-03T09:20:39.000Z</time>
      </trkpt>
      <trkpt lat="46.98357" lon="3.30973">
        <ele>262.46166992188</ele>
        <time>2016-04-03T09:20:42.000Z</time>
      </trkpt>
      <trkpt lat="46.98357" lon="3.30969">
        <ele>261.9294128418</ele>
        <time>2016-04-03T09:20:44.000Z</time>
      </trkpt>
      <trkpt lat="46.98356" lon="3.30965">
        <ele>261.36566162109</ele>
        <time>2016-04-03T09:20:47.000Z</time>
      </trkpt>
      <trkpt lat="46.98354" lon="3.30959">
        <ele>260.84466552734</ele>
        <time>2016-04-03T09:20:50.000Z</time>
      </trkpt>
      <trkpt lat="46.98353" lon="3.30953">
        <ele>260.26123046875</ele>
        <time>2016-04-03T09:20:53.000Z</time>
      </trkpt>
      <trkpt lat="46.98352" lon="3.30949">
        <ele>259.69241333008</ele>
        <time>2016-04-03T09:20:56.000Z</time>
      </trkpt>
      <trkpt lat="46.98353" lon="3.30945">
        <ele>259.09912109375</ele>
        <time>2016-04-03T09:20:59.000Z</time>
      </trkpt>
      <trkpt lat="46.98353" lon="3.3094">
        <ele>258.49563598633</ele>
        <time>2016-04-03T09:21:02.000Z</time>
      </trkpt>
      <trkpt lat="46.98354" lon="3.30938">
        <ele>257.98287963867</ele>
        <time>2016-04-03T09:21:06.000Z</time>
      </trkpt>
      <trkpt lat="46.98354" lon="3.30934">
        <ele>257.52615356445</ele>
        <time>2016-04-03T09:21:07.000Z</time>
      </trkpt>
      <trkpt lat="46.98354" lon="3.30927">
        <ele>256.97747802734</ele>
        <time>2016-04-03T09:21:11.000Z</time>
      </trkpt>
      <trkpt lat="46.98354" lon="3.30923">
        <ele>256.44152832031</ele>
        <time>2016-04-03T09:21:12.000Z</time>
      </trkpt>
      <trkpt lat="46.98353" lon="3.30921">
        <ele>255.97280883789</ele>
        <time>2016-04-03T09:21:15.000Z</time>
      </trkpt>
      <trkpt lat="46.98352" lon="3.3092">
        <ele>255.53507995605</ele>
        <time>2016-04-03T09:21:17.000Z</time>
      </trkpt>
      <trkpt lat="46.98352" lon="3.30918">
        <ele>255.13117980957</ele>
        <time>2016-04-03T09:21:23.000Z</time>
      </trkpt>
      <trkpt lat="46.98352" lon="3.30916">
        <ele>254.88610839844</ele>
        <time>2016-04-03T09:21:26.000Z</time>
      </trkpt>
      <trkpt lat="46.98354" lon="3.30912">
        <ele>254.65434265137</ele>
        <time>2016-04-03T09:21:44.000Z</time>
      </trkpt>
      <trkpt lat="46.98355" lon="3.30907">
        <ele>254.37983703613</ele>
        <time>2016-04-03T09:21:47.000Z</time>
      </trkpt>
      <trkpt lat="46.98355" lon="3.30903">
        <ele>254.05635070801</ele>
        <time>2016-04-03T09:21:48.000Z</time>
      </trkpt>
      <trkpt lat="46.98354" lon="3.30893">
        <ele>253.63012695312</ele>
        <time>2016-04-03T09:21:56.000Z</time>
      </trkpt>
      <trkpt lat="46.98354" lon="3.30888">
        <ele>253.15791320801</ele>
        <time>2016-04-03T09:21:58.000Z</time>
      </trkpt>
      <trkpt lat="46.98354" lon="3.30885">
        <ele>252.68896484375</ele>
        <time>2016-04-03T09:21:59.000Z</time>
      </trkpt>
      <trkpt lat="46.98355" lon="3.30882">
        <ele>252.27087402344</ele>
        <time>2016-04-03T09:22:03.000Z</time>
      </trkpt>
      <trkpt lat="46.98355" lon="3.30878">
        <ele>251.86454772949</ele>
        <time>2016-04-03T09:22:04.000Z</time>
      </trkpt>
      <trkpt lat="46.98355" lon="3.30875">
        <ele>251.55114746094</ele>
        <time>2016-04-03T09:22:05.000Z</time>
      </trkpt>
      <trkpt lat="46.98355" lon="3.30872">
        <ele>251.27201843262</ele>
        <time>2016-04-03T09:22:05.000Z</time>
      </trkpt>
      <trkpt lat="46.98355" lon="3.30872">
        <ele>251.27201843262</ele>
        <time>2016-04-03T09:22:26.000Z</time>
      </trkpt>
      <trkpt lat="46.98355" lon="3.30871">
        <ele>251.03593444824</ele>
        <time>2016-04-03T09:22:36.000Z</time>
      </trkpt>
      <trkpt lat="46.98355" lon="3.30867">
        <ele>250.78388977051</ele>
        <time>2016-04-03T09:22:38.000Z</time>
      </trkpt>
      <trkpt lat="46.98356" lon="3.30862">
        <ele>250.50952148438</ele>
        <time>2016-04-03T09:22:41.000Z</time>
      </trkpt>
      <trkpt lat="46.98356" lon="3.30858">
        <ele>250.21781921387</ele>
        <time>2016-04-03T09:22:43.000Z</time>
      </trkpt>
      <trkpt lat="46.98357" lon="3.30854">
        <ele>249.90864562988</ele>
        <time>2016-04-03T09:22:51.000Z</time>
      </trkpt>
      <trkpt lat="46.98358" lon="3.30851">
        <ele>249.56384277344</ele>
        <time>2016-04-03T09:22:51.000Z</time>
      </trkpt>
      <trkpt lat="46.98358" lon="3.30847">
        <ele>249.20751953125</ele>
        <time>2016-04-03T09:22:53.000Z</time>
      </trkpt>
      <trkpt lat="46.98359" lon="3.30843">
        <ele>248.86616516113</ele>
        <time>2016-04-03T09:22:54.000Z</time>
      </trkpt>
      <trkpt lat="46.9836" lon="3.30836">
        <ele>248.482421875</ele>
        <time>2016-04-03T09:22:58.000Z</time>
      </trkpt>
      <trkpt lat="46.98361" lon="3.30832">
        <ele>248.09585571289</ele>
        <time>2016-04-03T09:22:59.000Z</time>
      </trkpt>
      <trkpt lat="46.98361" lon="3.30828">
        <ele>247.73709106445</ele>
        <time>2016-04-03T09:23:05.000Z</time>
      </trkpt>
      <trkpt lat="46.98362" lon="3.30823">
        <ele>247.40966796875</ele>
        <time>2016-04-03T09:23:16.000Z</time>
      </trkpt>
      <trkpt lat="46.98363" lon="3.3082">
        <ele>247.12890625</ele>
        <time>2016-04-03T09:23:16.000Z</time>
      </trkpt>
      <trkpt lat="46.98363" lon="3.30815">
        <ele>246.92570495605</ele>
        <time>2016-04-03T09:23:17.000Z</time>
      </trkpt>
      <trkpt lat="46.98364" lon="3.30811">
        <ele>246.75076293945</ele>
        <time>2016-04-03T09:23:19.000Z</time>
      </trkpt>
      <trkpt lat="46.98364" lon="3.30808">
        <ele>246.58529663086</ele>
        <time>2016-04-03T09:23:28.000Z</time>
      </trkpt>
      <trkpt lat="46.98365" lon="3.30801">
        <ele>246.40151977539</ele>
        <time>2016-04-03T09:23:34.000Z</time>
      </trkpt>
      <trkpt lat="46.98365" lon="3.30796">
        <ele>246.20455932617</ele>
        <time>2016-04-03T09:23:36.000Z</time>
      </trkpt>
      <trkpt lat="46.98366" lon="3.30793">
        <ele>246.02188110352</ele>
        <time>2016-04-03T09:23:37.000Z</time>
      </trkpt>
      <trkpt lat="46.98367" lon="3.30789">
        <ele>245.8381652832</ele>
        <time>2016-04-03T09:23:37.000Z</time>
      </trkpt>
      <trkpt lat="46.98368" lon="3.30785">
        <ele>245.64888000488</ele>
        <time>2016-04-03T09:23:38.000Z</time>
      </trkpt>
      <trkpt lat="46.98368" lon="3.3078">
        <ele>245.47651672363</ele>
        <time>2016-04-03T09:23:39.000Z</time>
      </trkpt>
      <trkpt lat="46.98369" lon="3.30776">
        <ele>245.31645202637</ele>
        <time>2016-04-03T09:23:39.000Z</time>
      </trkpt>
      <trkpt lat="46.9837" lon="3.30771">
        <ele>245.14184570312</ele>
        <time>2016-04-03T09:23:41.000Z</time>
      </trkpt>
      <trkpt lat="46.98371" lon="3.30768">
        <ele>244.97904968262</ele>
        <time>2016-04-03T09:23:41.000Z</time>
      </trkpt>
      <trkpt lat="46.98371" lon="3.30766">
        <ele>244.83203125</ele>
        <time>2016-04-03T09:23:42.000Z</time>
      </trkpt>
      <trkpt lat="46.98372" lon="3.30761">
        <ele>244.68745422363</ele>
        <time>2016-04-03T09:23:43.000Z</time>
      </trkpt>
      <trkpt lat="46.98372" lon="3.30758">
        <ele>244.5458984375</ele>
        <time>2016-04-03T09:23:45.000Z</time>
      </trkpt>
      <trkpt lat="46.98373" lon="3.30755">
        <ele>244.42729187012</ele>
        <time>2016-04-03T09:23:48.000Z</time>
      </trkpt>
      <trkpt lat="46.98374" lon="3.30752">
        <ele>244.30937194824</ele>
        <time>2016-04-03T09:23:50.000Z</time>
      </trkpt>
      <trkpt lat="46.98375" lon="3.30749">
        <ele>244.18598937988</ele>
        <time>2016-04-03T09:23:52.000Z</time>
      </trkpt>
      <trkpt lat="46.98377" lon="3.30745">
        <ele>244.07412719727</ele>
        <time>2016-04-03T09:23:55.000Z</time>
      </trkpt>
      <trkpt lat="46.98378" lon="3.30741">
        <ele>243.96577453613</ele>
        <time>2016-04-03T09:23:58.000Z</time>
      </trkpt>
      <trkpt lat="46.98378" lon="3.30739">
        <ele>243.86087036133</ele>
        <time>2016-04-03T09:24:00.000Z</time>
      </trkpt>
      <trkpt lat="46.98379" lon="3.30734">
        <ele>243.75288391113</ele>
        <time>2016-04-03T09:24:04.000Z</time>
      </trkpt>
      <trkpt lat="46.9838" lon="3.30728">
        <ele>243.63066101074</ele>
        <time>2016-04-03T09:24:06.000Z</time>
      </trkpt>
      <trkpt lat="46.9838" lon="3.30724">
        <ele>243.50881958008</ele>
        <time>2016-04-03T09:24:09.000Z</time>
      </trkpt>
      <trkpt lat="46.9838" lon="3.30721">
        <ele>243.39111328125</ele>
        <time>2016-04-03T09:24:11.000Z</time>
      </trkpt>
      <trkpt lat="46.98379" lon="3.30717">
        <ele>243.26203918457</ele>
        <time>2016-04-03T09:24:14.000Z</time>
      </trkpt>
      <trkpt lat="46.98378" lon="3.30713">
        <ele>243.13684082031</ele>
        <time>2016-04-03T09:24:16.000Z</time>
      </trkpt>
      <trkpt lat="46.98377" lon="3.30708">
        <ele>243.01620483398</ele>
        <time>2016-04-03T09:24:20.000Z</time>
      </trkpt>
      <trkpt lat="46.98376" lon="3.30705">
        <ele>242.90278625488</ele>
        <time>2016-04-03T09:24:21.000Z</time>
      </trkpt>
      <trkpt lat="46.98375" lon="3.30703">
        <ele>242.79008483887</ele>
        <time>2016-04-03T09:24:24.000Z</time>
      </trkpt>
      <trkpt lat="46.98373" lon="3.30701">
        <ele>242.68757629395</ele>
        <time>2016-04-03T09:24:26.000Z</time>
      </trkpt>
      <trkpt lat="46.98371" lon="3.307">
        <ele>242.59976196289</ele>
        <time>2016-04-03T09:24:28.000Z</time>
      </trkpt>
      <trkpt lat="46.98367" lon="3.307">
        <ele>242.53237915039</ele>
        <time>2016-04-03T09:24:31.000Z</time>
      </trkpt>
      <trkpt lat="46.98365" lon="3.307">
        <ele>242.48149108887</ele>
        <time>2016-04-03T09:24:33.000Z</time>
      </trkpt>
      <trkpt lat="46.98362" lon="3.30701">
        <ele>242.44924926758</ele>
        <time>2016-04-03T09:24:37.000Z</time>
      </trkpt>
      <trkpt lat="46.98359" lon="3.30702">
        <ele>242.4345703125</ele>
        <time>2016-04-03T09:24:38.000Z</time>
      </trkpt>
      <trkpt lat="46.98355" lon="3.30702">
        <ele>242.42207336426</ele>
        <time>2016-04-03T09:24:42.000Z</time>
      </trkpt>
      <trkpt lat="46.98352" lon="3.30702">
        <ele>242.41586303711</ele>
        <time>2016-04-03T09:24:43.000Z</time>
      </trkpt>
      <trkpt lat="46.98349" lon="3.30702">
        <ele>242.40563964844</ele>
        <time>2016-04-03T09:24:47.000Z</time>
      </trkpt>
      <trkpt lat="46.98347" lon="3.30701">
        <ele>242.38418579102</ele>
        <time>2016-04-03T09:24:48.000Z</time>
      </trkpt>
      <trkpt lat="46.98344" lon="3.30701">
        <ele>242.35665893555</ele>
        <time>2016-04-03T09:24:50.000Z</time>
      </trkpt>
      <trkpt lat="46.98341" lon="3.30701">
        <ele>242.33239746094</ele>
        <time>2016-04-03T09:24:53.000Z</time>
      </trkpt>
      <trkpt lat="46.98338" lon="3.30701">
        <ele>242.30453491211</ele>
        <time>2016-04-03T09:24:55.000Z</time>
      </trkpt>
      <trkpt lat="46.98334" lon="3.30701">
        <ele>242.28059387207</ele>
        <time>2016-04-03T09:24:58.000Z</time>
      </trkpt>
      <trkpt lat="46.98332" lon="3.30701">
        <ele>242.27531433105</ele>
        <time>2016-04-03T09:25:00.000Z</time>
      </trkpt>
      <trkpt lat="46.9833" lon="3.30702">
        <ele>242.28926086426</ele>
        <time>2016-04-03T09:25:02.000Z</time>
      </trkpt>
      <trkpt lat="46.98326" lon="3.30704">
        <ele>242.35025024414</ele>
        <time>2016-04-03T09:25:05.000Z</time>
      </trkpt>
      <trkpt lat="46.98324" lon="3.30705">
        <ele>242.44282531738</ele>
        <time>2016-04-03T09:25:08.000Z</time>
      </trkpt>
      <trkpt lat="46.98322" lon="3.30706">
        <ele>242.5581817627</ele>
        <time>2016-04-03T09:25:10.000Z</time>
      </trkpt>
      <trkpt lat="46.98319" lon="3.30706">
        <ele>242.6833190918</ele>
        <time>2016-04-03T09:25:13.000Z</time>
      </trkpt>
      <trkpt lat="46.98317" lon="3.30706">
        <ele>242.81100463867</ele>
        <time>2016-04-03T09:25:16.000Z</time>
      </trkpt>
      <trkpt lat="46.98315" lon="3.30707">
        <ele>242.91110229492</ele>
        <time>2016-04-03T09:25:19.000Z</time>
      </trkpt>
      <trkpt lat="46.98314" lon="3.30707">
        <ele>242.99967956543</ele>
        <time>2016-04-03T09:25:22.000Z</time>
      </trkpt>
      <trkpt lat="46.98312" lon="3.30709">
        <ele>243.08959960938</ele>
        <time>2016-04-03T09:25:27.000Z</time>
      </trkpt>
      <trkpt lat="46.98308" lon="3.3071">
        <ele>243.19979858398</ele>
        <time>2016-04-03T09:25:30.000Z</time>
      </trkpt>
      <trkpt lat="46.98306" lon="3.30711">
        <ele>243.32205200195</ele>
        <time>2016-04-03T09:25:33.000Z</time>
      </trkpt>
      <trkpt lat="46.98302" lon="3.30714">
        <ele>243.47671508789</ele>
        <time>2016-04-03T09:25:36.000Z</time>
      </trkpt>
      <trkpt lat="46.983" lon="3.30716">
        <ele>243.65243530273</ele>
        <time>2016-04-03T09:25:39.000Z</time>
      </trkpt>
      <trkpt lat="46.98298" lon="3.30718">
        <ele>243.83609008789</ele>
        <time>2016-04-03T09:25:43.000Z</time>
      </trkpt>
      <trkpt lat="46.98296" lon="3.30719">
        <ele>244.00556945801</ele>
        <time>2016-04-03T09:25:45.000Z</time>
      </trkpt>
      <trkpt lat="46.98294" lon="3.3072">
        <ele>244.17993164062</ele>
        <time>2016-04-03T09:25:47.000Z</time>
      </trkpt>
      <trkpt lat="46.98292" lon="3.30721">
        <ele>244.32901000977</ele>
        <time>2016-04-03T09:25:49.000Z</time>
      </trkpt>
      <trkpt lat="46.98289" lon="3.30723">
        <ele>244.48554992676</ele>
        <time>2016-04-03T09:25:52.000Z</time>
      </trkpt>
      <trkpt lat="46.98286" lon="3.30726">
        <ele>244.6634979248</ele>
        <time>2016-04-03T09:25:55.000Z</time>
      </trkpt>
      <trkpt lat="46.98284" lon="3.30727">
        <ele>244.83654785156</ele>
        <time>2016-04-03T09:25:57.000Z</time>
      </trkpt>
      <trkpt lat="46.98281" lon="3.30728">
        <ele>245.01489257812</ele>
        <time>2016-04-03T09:26:04.000Z</time>
      </trkpt>
      <trkpt lat="46.98278" lon="3.30731">
        <ele>245.22192382812</ele>
        <time>2016-04-03T09:26:08.000Z</time>
      </trkpt>
      <trkpt lat="46.98275" lon="3.30733">
        <ele>245.43029785156</ele>
        <time>2016-04-03T09:26:12.000Z</time>
      </trkpt>
      <trkpt lat="46.98272" lon="3.30735">
        <ele>245.64262390137</ele>
        <time>2016-04-03T09:26:13.000Z</time>
      </trkpt>
      <trkpt lat="46.98269" lon="3.30735">
        <ele>245.85417175293</ele>
        <time>2016-04-03T09:26:15.000Z</time>
      </trkpt>
      <trkpt lat="46.98266" lon="3.30736">
        <ele>246.06973266602</ele>
        <time>2016-04-03T09:26:15.000Z</time>
      </trkpt>
      <trkpt lat="46.98265" lon="3.30736">
        <ele>246.24885559082</ele>
        <time>2016-04-03T09:26:18.000Z</time>
      </trkpt>
      <trkpt lat="46.98262" lon="3.30737">
        <ele>246.40653991699</ele>
        <time>2016-04-03T09:26:18.000Z</time>
      </trkpt>
      <trkpt lat="46.98259" lon="3.30738">
        <ele>246.54931640625</ele>
        <time>2016-04-03T09:26:20.000Z</time>
      </trkpt>
      <trkpt lat="46.98258" lon="3.30739">
        <ele>246.70170593262</ele>
        <time>2016-04-03T09:26:24.000Z</time>
      </trkpt>
      <trkpt lat="46.98257" lon="3.30739">
        <ele>246.81655883789</ele>
        <time>2016-04-03T09:26:27.000Z</time>
      </trkpt>
      <trkpt lat="46.98254" lon="3.30739">
        <ele>246.94235229492</ele>
        <time>2016-04-03T09:26:30.000Z</time>
      </trkpt>
      <trkpt lat="46.98251" lon="3.3074">
        <ele>247.08193969727</ele>
        <time>2016-04-03T09:26:32.000Z</time>
      </trkpt>
      <trkpt lat="46.98249" lon="3.3074">
        <ele>247.19760131836</ele>
        <time>2016-04-03T09:26:34.000Z</time>
      </trkpt>
      <trkpt lat="46.98246" lon="3.30741">
        <ele>247.3158416748</ele>
        <time>2016-04-03T09:26:36.000Z</time>
      </trkpt>
      <trkpt lat="46.98243" lon="3.30742">
        <ele>247.46524047852</ele>
        <time>2016-04-03T09:26:40.000Z</time>
      </trkpt>
      <trkpt lat="46.9824" lon="3.30743">
        <ele>247.61811828613</ele>
        <time>2016-04-03T09:26:41.000Z</time>
      </trkpt>
      <trkpt lat="46.98237" lon="3.30744">
        <ele>247.7700958252</ele>
        <time>2016-04-03T09:26:44.000Z</time>
      </trkpt>
      <trkpt lat="46.98233" lon="3.30745">
        <ele>247.94790649414</ele>
        <time>2016-04-03T09:26:48.000Z</time>
      </trkpt>
      <trkpt lat="46.9823" lon="3.30747">
        <ele>248.13577270508</ele>
        <time>2016-04-03T09:26:49.000Z</time>
      </trkpt>
      <trkpt lat="46.98226" lon="3.30749">
        <ele>248.33752441406</ele>
        <time>2016-04-03T09:26:52.000Z</time>
      </trkpt>
      <trkpt lat="46.98223" lon="3.30751">
        <ele>248.56196594238</ele>
        <time>2016-04-03T09:26:54.000Z</time>
      </trkpt>
      <trkpt lat="46.9822" lon="3.30754">
        <ele>248.80526733398</ele>
        <time>2016-04-03T09:26:58.000Z</time>
      </trkpt>
      <trkpt lat="46.98218" lon="3.30754">
        <ele>249.02963256836</ele>
        <time>2016-04-03T09:26:59.000Z</time>
      </trkpt>
      <trkpt lat="46.98215" lon="3.30756">
        <ele>249.25923156738</ele>
        <time>2016-04-03T09:27:03.000Z</time>
      </trkpt>
      <trkpt lat="46.98212" lon="3.30758">
        <ele>249.47888183594</ele>
        <time>2016-04-03T09:27:04.000Z</time>
      </trkpt>
      <trkpt lat="46.98211" lon="3.30759">
        <ele>249.6741027832</ele>
        <time>2016-04-03T09:27:06.000Z</time>
      </trkpt>
      <trkpt lat="46.98208" lon="3.30761">
        <ele>249.87145996094</ele>
        <time>2016-04-03T09:27:09.000Z</time>
      </trkpt>
      <trkpt lat="46.98204" lon="3.30762">
        <ele>250.08052062988</ele>
        <time>2016-04-03T09:27:12.000Z</time>
      </trkpt>
      <trkpt lat="46.98203" lon="3.30763">
        <ele>250.27529907227</ele>
        <time>2016-04-03T09:27:15.000Z</time>
      </trkpt>
      <trkpt lat="46.98199" lon="3.30765">
        <ele>250.48820495605</ele>
        <time>2016-04-03T09:27:18.000Z</time>
      </trkpt>
      <trkpt lat="46.98196" lon="3.30766">
        <ele>250.71598815918</ele>
        <time>2016-04-03T09:27:20.000Z</time>
      </trkpt>
      <trkpt lat="46.98194" lon="3.30767">
        <ele>250.91040039062</ele>
        <time>2016-04-03T09:27:22.000Z</time>
      </trkpt>
      <trkpt lat="46.98192" lon="3.30768">
        <ele>251.09883117676</ele>
        <time>2016-04-03T09:27:25.000Z</time>
      </trkpt>
      <trkpt lat="46.98186" lon="3.3077">
        <ele>251.34204101562</ele>
        <time>2016-04-03T09:27:29.000Z</time>
      </trkpt>
      <trkpt lat="46.98184" lon="3.30771">
        <ele>251.55595397949</ele>
        <time>2016-04-03T09:27:31.000Z</time>
      </trkpt>
      <trkpt lat="46.98183" lon="3.30771">
        <ele>251.73188781738</ele>
        <time>2016-04-03T09:27:33.000Z</time>
      </trkpt>
      <trkpt lat="46.98179" lon="3.30771">
        <ele>251.9235534668</ele>
        <time>2016-04-03T09:27:41.000Z</time>
      </trkpt>
      <trkpt lat="46.98177" lon="3.30772">
        <ele>252.1187286377</ele>
        <time>2016-04-03T09:27:44.000Z</time>
      </trkpt>
      <trkpt lat="46.98174" lon="3.30775">
        <ele>252.29653930664</ele>
        <time>2016-04-03T09:27:47.000Z</time>
      </trkpt>
      <trkpt lat="46.98171" lon="3.30776">
        <ele>252.4967956543</ele>
        <time>2016-04-03T09:27:50.000Z</time>
      </trkpt>
      <trkpt lat="46.98166" lon="3.3078">
        <ele>252.79586791992</ele>
        <time>2016-04-03T09:27:53.000Z</time>
      </trkpt>
      <trkpt lat="46.98163" lon="3.3078">
        <ele>253.08749389648</ele>
        <time>2016-04-03T09:27:56.000Z</time>
      </trkpt>
      <trkpt lat="46.9816" lon="3.30782">
        <ele>253.43241882324</ele>
        <time>2016-04-03T09:27:59.000Z</time>
      </trkpt>
      <trkpt lat="46.98158" lon="3.30784">
        <ele>253.76208496094</ele>
        <time>2016-04-03T09:28:03.000Z</time>
      </trkpt>
      <trkpt lat="46.98152" lon="3.30787">
        <ele>254.1755065918</ele>
        <time>2016-04-03T09:28:04.000Z</time>
      </trkpt>
      <trkpt lat="46.98148" lon="3.30788">
        <ele>254.54121398926</ele>
        <time>2016-04-03T09:28:07.000Z</time>
      </trkpt>
      <trkpt lat="46.98145" lon="3.30789">
        <ele>254.94213867188</ele>
        <time>2016-04-03T09:28:10.000Z</time>
      </trkpt>
      <trkpt lat="46.98142" lon="3.3079">
        <ele>255.31465148926</ele>
        <time>2016-04-03T09:28:13.000Z</time>
      </trkpt>
      <trkpt lat="46.98139" lon="3.30792">
        <ele>255.70674133301</ele>
        <time>2016-04-03T09:28:16.000Z</time>
      </trkpt>
      <trkpt lat="46.98135" lon="3.30794">
        <ele>256.04733276367</ele>
        <time>2016-04-03T09:28:20.000Z</time>
      </trkpt>
      <trkpt lat="46.98131" lon="3.30795">
        <ele>256.40182495117</ele>
        <time>2016-04-03T09:28:22.000Z</time>
      </trkpt>
      <trkpt lat="46.98129" lon="3.30795">
        <ele>256.73330688477</ele>
        <time>2016-04-03T09:28:26.000Z</time>
      </trkpt>
      <trkpt lat="46.98126" lon="3.30796">
        <ele>257.06463623047</ele>
        <time>2016-04-03T09:28:27.000Z</time>
      </trkpt>
      <trkpt lat="46.98122" lon="3.30796">
        <ele>257.36779785156</ele>
        <time>2016-04-03T09:28:31.000Z</time>
      </trkpt>
      <trkpt lat="46.98119" lon="3.30796">
        <ele>257.63940429688</ele>
        <time>2016-04-03T09:28:33.000Z</time>
      </trkpt>
      <trkpt lat="46.98114" lon="3.30797">
        <ele>257.90356445312</ele>
        <time>2016-04-03T09:28:37.000Z</time>
      </trkpt>
      <trkpt lat="46.98112" lon="3.30797">
        <ele>258.16229248047</ele>
        <time>2016-04-03T09:28:38.000Z</time>
      </trkpt>
      <trkpt lat="46.98108" lon="3.30797">
        <ele>258.43890380859</ele>
        <time>2016-04-03T09:28:41.000Z</time>
      </trkpt>
      <trkpt lat="46.98105" lon="3.30799">
        <ele>258.73843383789</ele>
        <time>2016-04-03T09:28:44.000Z</time>
      </trkpt>
      <trkpt lat="46.98103" lon="3.30801">
        <ele>259.04452514648</ele>
        <time>2016-04-03T09:28:46.000Z</time>
      </trkpt>
      <trkpt lat="46.981" lon="3.30802">
        <ele>259.36978149414</ele>
        <time>2016-04-03T09:28:50.000Z</time>
      </trkpt>
      <trkpt lat="46.98099" lon="3.30802">
        <ele>259.66610717773</ele>
        <time>2016-04-03T09:28:52.000Z</time>
      </trkpt>
      <trkpt lat="46.98096" lon="3.30804">
        <ele>259.98104858398</ele>
        <time>2016-04-03T09:28:55.000Z</time>
      </trkpt>
      <trkpt lat="46.98094" lon="3.30806">
        <ele>260.29974365234</ele>
        <time>2016-04-03T09:28:57.000Z</time>
      </trkpt>
      <trkpt lat="46.98092" lon="3.30809">
        <ele>260.64651489258</ele>
        <time>2016-04-03T09:29:01.000Z</time>
      </trkpt>
      <trkpt lat="46.98089" lon="3.3081">
        <ele>260.98809814453</ele>
        <time>2016-04-03T09:29:04.000Z</time>
      </trkpt>
      <trkpt lat="46.98084" lon="3.30814">
        <ele>261.470703125</ele>
        <time>2016-04-03T09:29:06.000Z</time>
      </trkpt>
      <trkpt lat="46.98079" lon="3.30817">
        <ele>261.97982788086</ele>
        <time>2016-04-03T09:29:09.000Z</time>
      </trkpt>
      <trkpt lat="46.98078" lon="3.30818">
        <ele>262.44869995117</ele>
        <time>2016-04-03T09:29:11.000Z</time>
      </trkpt>
      <trkpt lat="46.98075" lon="3.30823">
        <ele>262.96212768555</ele>
        <time>2016-04-03T09:29:14.000Z</time>
      </trkpt>
      <trkpt lat="46.98072" lon="3.30826">
        <ele>263.48025512695</ele>
        <time>2016-04-03T09:29:17.000Z</time>
      </trkpt>
      <trkpt lat="46.98071" lon="3.30826">
        <ele>263.85571289062</ele>
        <time>2016-04-03T09:29:19.000Z</time>
      </trkpt>
      <trkpt lat="46.98069" lon="3.30825">
        <ele>264.11065673828</ele>
        <time>2016-04-03T09:29:22.000Z</time>
      </trkpt>
      <trkpt lat="46.98065" lon="3.30826">
        <ele>264.36422729492</ele>
        <time>2016-04-03T09:29:25.000Z</time>
      </trkpt>
      <trkpt lat="46.98063" lon="3.30826">
        <ele>264.50650024414</ele>
        <time>2016-04-03T09:29:28.000Z</time>
      </trkpt>
      <trkpt lat="46.98059" lon="3.30825">
        <ele>264.57574462891</ele>
        <time>2016-04-03T09:29:31.000Z</time>
      </trkpt>
      <trkpt lat="46.98056" lon="3.30826">
        <ele>264.67559814453</ele>
        <time>2016-04-03T09:29:34.000Z</time>
      </trkpt>
      <trkpt lat="46.98052" lon="3.30828">
        <ele>264.83581542969</ele>
        <time>2016-04-03T09:29:38.000Z</time>
      </trkpt>
      <trkpt lat="46.9805" lon="3.3083">
        <ele>265.00360107422</ele>
        <time>2016-04-03T09:29:40.000Z</time>
      </trkpt>
      <trkpt lat="46.98048" lon="3.3083">
        <ele>265.17709350586</ele>
        <time>2016-04-03T09:29:42.000Z</time>
      </trkpt>
      <trkpt lat="46.98044" lon="3.30832">
        <ele>265.38949584961</ele>
        <time>2016-04-03T09:29:45.000Z</time>
      </trkpt>
      <trkpt lat="46.98041" lon="3.30833">
        <ele>265.59625244141</ele>
        <time>2016-04-03T09:29:48.000Z</time>
      </trkpt>
      <trkpt lat="46.98038" lon="3.30835">
        <ele>265.79437255859</ele>
        <time>2016-04-03T09:29:52.000Z</time>
      </trkpt>
      <trkpt lat="46.98036" lon="3.30837">
        <ele>265.98919677734</ele>
        <time>2016-04-03T09:29:54.000Z</time>
      </trkpt>
      <trkpt lat="46.98033" lon="3.30839">
        <ele>266.19662475586</ele>
        <time>2016-04-03T09:29:57.000Z</time>
      </trkpt>
      <trkpt lat="46.9803" lon="3.3084">
        <ele>266.37582397461</ele>
        <time>2016-04-03T09:30:00.000Z</time>
      </trkpt>
      <trkpt lat="46.98029" lon="3.3084">
        <ele>266.53817749023</ele>
        <time>2016-04-03T09:30:02.000Z</time>
      </trkpt>
      <trkpt lat="46.98027" lon="3.30841">
        <ele>266.66104125977</ele>
        <time>2016-04-03T09:30:05.000Z</time>
      </trkpt>
      <trkpt lat="46.98024" lon="3.30842">
        <ele>266.78430175781</ele>
        <time>2016-04-03T09:30:08.000Z</time>
      </trkpt>
      <trkpt lat="46.98021" lon="3.30845">
        <ele>266.91543579102</ele>
        <time>2016-04-03T09:30:11.000Z</time>
      </trkpt>
      <trkpt lat="46.98018" lon="3.30845">
        <ele>267.03805541992</ele>
        <time>2016-04-03T09:30:13.000Z</time>
      </trkpt>
      <trkpt lat="46.98016" lon="3.30845">
        <ele>267.1611328125</ele>
        <time>2016-04-03T09:30:15.000Z</time>
      </trkpt>
      <trkpt lat="46.98013" lon="3.30846">
        <ele>267.29885864258</ele>
        <time>2016-04-03T09:30:18.000Z</time>
      </trkpt>
      <trkpt lat="46.9801" lon="3.30849">
        <ele>267.43685913086</ele>
        <time>2016-04-03T09:30:20.000Z</time>
      </trkpt>
      <trkpt lat="46.98009" lon="3.30849">
        <ele>267.54370117188</ele>
        <time>2016-04-03T09:30:22.000Z</time>
      </trkpt>
      <trkpt lat="46.98005" lon="3.3085">
        <ele>267.66613769531</ele>
        <time>2016-04-03T09:30:25.000Z</time>
      </trkpt>
      <trkpt lat="46.98003" lon="3.30852">
        <ele>267.80261230469</ele>
        <time>2016-04-03T09:30:29.000Z</time>
      </trkpt>
      <trkpt lat="46.98001" lon="3.30853">
        <ele>267.93414306641</ele>
        <time>2016-04-03T09:30:30.000Z</time>
      </trkpt>
      <trkpt lat="46.97998" lon="3.30855">
        <ele>268.06646728516</ele>
        <time>2016-04-03T09:30:34.000Z</time>
      </trkpt>
      <trkpt lat="46.97995" lon="3.30857">
        <ele>268.24243164062</ele>
        <time>2016-04-03T09:30:37.000Z</time>
      </trkpt>
      <trkpt lat="46.9799" lon="3.30858">
        <ele>268.44836425781</ele>
        <time>2016-04-03T09:30:39.000Z</time>
      </trkpt>
      <trkpt lat="46.97987" lon="3.30859">
        <ele>268.66006469727</ele>
        <time>2016-04-03T09:30:41.000Z</time>
      </trkpt>
      <trkpt lat="46.97984" lon="3.30859">
        <ele>268.88739013672</ele>
        <time>2016-04-03T09:30:45.000Z</time>
      </trkpt>
      <trkpt lat="46.9798" lon="3.30858">
        <ele>269.1025390625</ele>
        <time>2016-04-03T09:30:47.000Z</time>
      </trkpt>
      <trkpt lat="46.97977" lon="3.3086">
        <ele>269.31164550781</ele>
        <time>2016-04-03T09:30:51.000Z</time>
      </trkpt>
      <trkpt lat="46.97974" lon="3.30862">
        <ele>269.50946044922</ele>
        <time>2016-04-03T09:30:53.000Z</time>
      </trkpt>
      <trkpt lat="46.97971" lon="3.30863">
        <ele>269.72088623047</ele>
        <time>2016-04-03T09:30:57.000Z</time>
      </trkpt>
      <trkpt lat="46.97969" lon="3.30863">
        <ele>269.9169921875</ele>
        <time>2016-04-03T09:30:58.000Z</time>
      </trkpt>
      <trkpt lat="46.97967" lon="3.30864">
        <ele>270.11090087891</ele>
        <time>2016-04-03T09:31:01.000Z</time>
      </trkpt>
      <trkpt lat="46.97964" lon="3.30864">
        <ele>270.27749633789</ele>
        <time>2016-04-03T09:31:03.000Z</time>
      </trkpt>
      <trkpt lat="46.9796" lon="3.30864">
        <ele>270.43984985352</ele>
        <time>2016-04-03T09:31:06.000Z</time>
      </trkpt>
      <trkpt lat="46.97957" lon="3.30865">
        <ele>270.58950805664</ele>
        <time>2016-04-03T09:31:08.000Z</time>
      </trkpt>
      <trkpt lat="46.97955" lon="3.30866">
        <ele>270.76037597656</ele>
        <time>2016-04-03T09:31:11.000Z</time>
      </trkpt>
      <trkpt lat="46.97953" lon="3.30869">
        <ele>270.95904541016</ele>
        <time>2016-04-03T09:31:14.000Z</time>
      </trkpt>
      <trkpt lat="46.9795" lon="3.3087">
        <ele>271.16784667969</ele>
        <time>2016-04-03T09:31:16.000Z</time>
      </trkpt>
      <trkpt lat="46.97948" lon="3.30871">
        <ele>271.36444091797</ele>
        <time>2016-04-03T09:31:19.000Z</time>
      </trkpt>
      <trkpt lat="46.97945" lon="3.30872">
        <ele>271.57318115234</ele>
        <time>2016-04-03T09:31:22.000Z</time>
      </trkpt>
      <trkpt lat="46.97943" lon="3.30873">
        <ele>271.77069091797</ele>
        <time>2016-04-03T09:31:24.000Z</time>
      </trkpt>
      <trkpt lat="46.97937" lon="3.30874">
        <ele>271.98559570312</ele>
        <time>2016-04-03T09:31:27.000Z</time>
      </trkpt>
      <trkpt lat="46.97934" lon="3.30876">
        <ele>272.21350097656</ele>
        <time>2016-04-03T09:31:30.000Z</time>
      </trkpt>
      <trkpt lat="46.97933" lon="3.30877">
        <ele>272.43579101562</ele>
        <time>2016-04-03T09:31:34.000Z</time>
      </trkpt>
      <trkpt lat="46.97932" lon="3.3088">
        <ele>272.65386962891</ele>
        <time>2016-04-03T09:31:35.000Z</time>
      </trkpt>
      <trkpt lat="46.97932" lon="3.30881">
        <ele>272.85308837891</ele>
        <time>2016-04-03T09:31:38.000Z</time>
      </trkpt>
      <trkpt lat="46.97931" lon="3.30882">
        <ele>273.00238037109</ele>
        <time>2016-04-03T09:31:41.000Z</time>
      </trkpt>
      <trkpt lat="46.97924" lon="3.30888">
        <ele>273.23809814453</ele>
        <time>2016-04-03T09:31:44.000Z</time>
      </trkpt>
      <trkpt lat="46.97923" lon="3.30888">
        <ele>273.46490478516</ele>
        <time>2016-04-03T09:31:46.000Z</time>
      </trkpt>
      <trkpt lat="46.97921" lon="3.30889">
        <ele>273.67144775391</ele>
        <time>2016-04-03T09:31:48.000Z</time>
      </trkpt>
      <trkpt lat="46.97918" lon="3.3089">
        <ele>273.91156005859</ele>
        <time>2016-04-03T09:31:51.000Z</time>
      </trkpt>
      <trkpt lat="46.97915" lon="3.30891">
        <ele>274.16897583008</ele>
        <time>2016-04-03T09:31:54.000Z</time>
      </trkpt>
      <trkpt lat="46.97911" lon="3.30892">
        <ele>274.33047485352</ele>
        <time>2016-04-03T09:31:57.000Z</time>
      </trkpt>
      <trkpt lat="46.97908" lon="3.30891">
        <ele>274.47787475586</ele>
        <time>2016-04-03T09:31:59.000Z</time>
      </trkpt>
      <trkpt lat="46.97905" lon="3.3089">
        <ele>274.60797119141</ele>
        <time>2016-04-03T09:32:02.000Z</time>
      </trkpt>
      <trkpt lat="46.97902" lon="3.30889">
        <ele>274.68948364258</ele>
        <time>2016-04-03T09:32:05.000Z</time>
      </trkpt>
      <trkpt lat="46.97897" lon="3.30888">
        <ele>274.75018310547</ele>
        <time>2016-04-03T09:32:08.000Z</time>
      </trkpt>
      <trkpt lat="46.97894" lon="3.30888">
        <ele>274.79086303711</ele>
        <time>2016-04-03T09:32:11.000Z</time>
      </trkpt>
      <trkpt lat="46.97894" lon="3.30888">
        <ele>274.79086303711</ele>
        <time>2016-04-03T09:32:32.000Z</time>
      </trkpt>
      <trkpt lat="46.97898" lon="3.30892">
        <ele>274.86199951172</ele>
        <time>2016-04-03T09:32:38.000Z</time>
      </trkpt>
      <trkpt lat="46.97902" lon="3.30896">
        <ele>274.93975830078</ele>
        <time>2016-04-03T09:32:42.000Z</time>
      </trkpt>
      <trkpt lat="46.97902" lon="3.30896">
        <ele>274.93975830078</ele>
        <time>2016-04-03T09:33:02.000Z</time>
      </trkpt>
      <trkpt lat="46.979" lon="3.30897">
        <ele>275.03897094727</ele>
        <time>2016-04-03T09:34:27.000Z</time>
      </trkpt>
      <trkpt lat="46.979" lon="3.30897">
        <ele>275.03897094727</ele>
        <time>2016-04-03T09:34:47.000Z</time>
      </trkpt>
      <trkpt lat="46.97901" lon="3.30894">
        <ele>275.09292602539</ele>
        <time>2016-04-03T09:35:13.000Z</time>
      </trkpt>
      <trkpt lat="46.97899" lon="3.30894">
        <ele>275.13754272461</ele>
        <time>2016-04-03T09:35:28.000Z</time>
      </trkpt>
      <trkpt lat="46.9789" lon="3.30894">
        <ele>275.19833374023</ele>
        <time>2016-04-03T09:35:31.000Z</time>
      </trkpt>
      <trkpt lat="46.97887" lon="3.30895">
        <ele>275.27673339844</ele>
        <time>2016-04-03T09:35:33.000Z</time>
      </trkpt>
      <trkpt lat="46.97883" lon="3.30895">
        <ele>275.35452270508</ele>
        <time>2016-04-03T09:35:36.000Z</time>
      </trkpt>
      <trkpt lat="46.97877" lon="3.30896">
        <ele>275.50430297852</ele>
        <time>2016-04-03T09:35:42.000Z</time>
      </trkpt>
      <trkpt lat="46.97875" lon="3.30896">
        <ele>275.65753173828</ele>
        <time>2016-04-03T09:35:44.000Z</time>
      </trkpt>
      <trkpt lat="46.97871" lon="3.30898">
        <ele>275.794921875</ele>
        <time>2016-04-03T09:35:47.000Z</time>
      </trkpt>
      <trkpt lat="46.97869" lon="3.30894">
        <ele>275.87341308594</ele>
        <time>2016-04-03T09:35:50.000Z</time>
      </trkpt>
      <trkpt lat="46.97869" lon="3.30892">
        <ele>275.91976928711</ele>
        <time>2016-04-03T09:35:52.000Z</time>
      </trkpt>
      <trkpt lat="46.97867" lon="3.30891">
        <ele>275.91409301758</ele>
        <time>2016-04-03T09:35:55.000Z</time>
      </trkpt>
      <trkpt lat="46.97863" lon="3.30888">
        <ele>275.88922119141</ele>
        <time>2016-04-03T09:35:58.000Z</time>
      </trkpt>
      <trkpt lat="46.97861" lon="3.30888">
        <ele>275.84283447266</ele>
        <time>2016-04-03T09:36:02.000Z</time>
      </trkpt>
      <trkpt lat="46.97857" lon="3.30885">
        <ele>275.81768798828</ele>
        <time>2016-04-03T09:36:04.000Z</time>
      </trkpt>
      <trkpt lat="46.97853" lon="3.30883">
        <ele>275.81195068359</ele>
        <time>2016-04-03T09:36:07.000Z</time>
      </trkpt>
      <trkpt lat="46.97849" lon="3.30882">
        <ele>275.82470703125</ele>
        <time>2016-04-03T09:36:09.000Z</time>
      </trkpt>
      <trkpt lat="46.97848" lon="3.30881">
        <ele>275.83929443359</ele>
        <time>2016-04-03T09:36:12.000Z</time>
      </trkpt>
      <trkpt lat="46.97846" lon="3.30879">
        <ele>275.83843994141</ele>
        <time>2016-04-03T09:36:19.000Z</time>
      </trkpt>
      <trkpt lat="46.97847" lon="3.30882">
        <ele>275.86471557617</ele>
        <time>2016-04-03T09:36:24.000Z</time>
      </trkpt>
      <trkpt lat="46.97847" lon="3.30884">
        <ele>275.90191650391</ele>
        <time>2016-04-03T09:36:25.000Z</time>
      </trkpt>
      <trkpt lat="46.97846" lon="3.30886">
        <ele>275.95776367188</ele>
        <time>2016-04-03T09:36:28.000Z</time>
      </trkpt>
      <trkpt lat="46.97845" lon="3.30887">
        <ele>276.03521728516</ele>
        <time>2016-04-03T09:36:31.000Z</time>
      </trkpt>
      <trkpt lat="46.97846" lon="3.30889">
        <ele>276.12973022461</ele>
        <time>2016-04-03T09:36:33.000Z</time>
      </trkpt>
      <trkpt lat="46.97845" lon="3.30892">
        <ele>276.23428344727</ele>
        <time>2016-04-03T09:36:43.000Z</time>
      </trkpt>
      <trkpt lat="46.97843" lon="3.30892">
        <ele>276.34161376953</ele>
        <time>2016-04-03T09:36:46.000Z</time>
      </trkpt>
      <trkpt lat="46.97839" lon="3.30897">
        <ele>276.48580932617</ele>
        <time>2016-04-03T09:36:49.000Z</time>
      </trkpt>
      <trkpt lat="46.97835" lon="3.30897">
        <ele>276.64154052734</ele>
        <time>2016-04-03T09:36:52.000Z</time>
      </trkpt>
      <trkpt lat="46.97831" lon="3.30901">
        <ele>276.85040283203</ele>
        <time>2016-04-03T09:36:55.000Z</time>
      </trkpt>
      <trkpt lat="46.97825" lon="3.30906">
        <ele>277.12045288086</ele>
        <time>2016-04-03T09:36:58.000Z</time>
      </trkpt>
      <trkpt lat="46.97823" lon="3.30908">
        <ele>277.40124511719</ele>
        <time>2016-04-03T09:37:00.000Z</time>
      </trkpt>
      <trkpt lat="46.9782" lon="3.30911">
        <ele>277.67901611328</ele>
        <time>2016-04-03T09:37:03.000Z</time>
      </trkpt>
      <trkpt lat="46.97816" lon="3.30913">
        <ele>277.96469116211</ele>
        <time>2016-04-03T09:37:05.000Z</time>
      </trkpt>
      <trkpt lat="46.97812" lon="3.30914">
        <ele>278.22943115234</ele>
        <time>2016-04-03T09:37:09.000Z</time>
      </trkpt>
      <trkpt lat="46.97811" lon="3.30914">
        <ele>278.41070556641</ele>
        <time>2016-04-03T09:37:11.000Z</time>
      </trkpt>
      <trkpt lat="46.97808" lon="3.30915">
        <ele>278.59185791016</ele>
        <time>2016-04-03T09:37:15.000Z</time>
      </trkpt>
      <trkpt lat="46.97805" lon="3.30919">
        <ele>278.75436401367</ele>
        <time>2016-04-03T09:37:16.000Z</time>
      </trkpt>
      <trkpt lat="46.97804" lon="3.3092">
        <ele>278.90560913086</ele>
        <time>2016-04-03T09:37:21.000Z</time>
      </trkpt>
      <trkpt lat="46.97802" lon="3.30921">
        <ele>279.02996826172</ele>
        <time>2016-04-03T09:37:22.000Z</time>
      </trkpt>
      <trkpt lat="46.97797" lon="3.30929">
        <ele>279.23617553711</ele>
        <time>2016-04-03T09:37:26.000Z</time>
      </trkpt>
      <trkpt lat="46.97794" lon="3.30933">
        <ele>279.45098876953</ele>
        <time>2016-04-03T09:37:28.000Z</time>
      </trkpt>
      <trkpt lat="46.9779" lon="3.30936">
        <ele>279.662109375</ele>
        <time>2016-04-03T09:37:31.000Z</time>
      </trkpt>
      <trkpt lat="46.97787" lon="3.30939">
        <ele>279.86981201172</ele>
        <time>2016-04-03T09:37:33.000Z</time>
      </trkpt>
      <trkpt lat="46.97786" lon="3.3094">
        <ele>280.07455444336</ele>
        <time>2016-04-03T09:37:36.000Z</time>
      </trkpt>
      <trkpt lat="46.97785" lon="3.30941">
        <ele>280.19879150391</ele>
        <time>2016-04-03T09:37:38.000Z</time>
      </trkpt>
      <trkpt lat="46.97781" lon="3.30947">
        <ele>280.32409667969</ele>
        <time>2016-04-03T09:37:41.000Z</time>
      </trkpt>
      <trkpt lat="46.97778" lon="3.30948">
        <ele>280.42462158203</ele>
        <time>2016-04-03T09:37:43.000Z</time>
      </trkpt>
      <trkpt lat="46.97776" lon="3.30949">
        <ele>280.50927734375</ele>
        <time>2016-04-03T09:37:45.000Z</time>
      </trkpt>
      <trkpt lat="46.97771" lon="3.3095">
        <ele>280.59448242188</ele>
        <time>2016-04-03T09:37:48.000Z</time>
      </trkpt>
      <trkpt lat="46.97769" lon="3.30952">
        <ele>280.67993164062</ele>
        <time>2016-04-03T09:37:50.000Z</time>
      </trkpt>
      <trkpt lat="46.97767" lon="3.30954">
        <ele>280.73608398438</ele>
        <time>2016-04-03T09:37:53.000Z</time>
      </trkpt>
      <trkpt lat="46.97765" lon="3.30959">
        <ele>280.79336547852</ele>
        <time>2016-04-03T09:37:56.000Z</time>
      </trkpt>
      <trkpt lat="46.97763" lon="3.30962">
        <ele>280.85052490234</ele>
        <time>2016-04-03T09:37:59.000Z</time>
      </trkpt>
      <trkpt lat="46.97762" lon="3.30965">
        <ele>280.8996887207</ele>
        <time>2016-04-03T09:38:04.000Z</time>
      </trkpt>
      <trkpt lat="46.9776" lon="3.30972">
        <ele>280.94793701172</ele>
        <time>2016-04-03T09:38:06.000Z</time>
      </trkpt>
      <trkpt lat="46.9776" lon="3.30974">
        <ele>280.98916625977</ele>
        <time>2016-04-03T09:38:09.000Z</time>
      </trkpt>
      <trkpt lat="46.97759" lon="3.30977">
        <ele>281.01776123047</ele>
        <time>2016-04-03T09:38:11.000Z</time>
      </trkpt>
      <trkpt lat="46.97759" lon="3.30981">
        <ele>281.04473876953</ele>
        <time>2016-04-03T09:38:15.000Z</time>
      </trkpt>
      <trkpt lat="46.97759" lon="3.30984">
        <ele>281.07113647461</ele>
        <time>2016-04-03T09:38:17.000Z</time>
      </trkpt>
      <trkpt lat="46.97759" lon="3.30986">
        <ele>281.08978271484</ele>
        <time>2016-04-03T09:38:19.000Z</time>
      </trkpt>
      <trkpt lat="46.9776" lon="3.3099">
        <ele>281.11157226562</ele>
        <time>2016-04-03T09:38:22.000Z</time>
      </trkpt>
      <trkpt lat="46.9776" lon="3.30992">
        <ele>281.13491821289</ele>
        <time>2016-04-03T09:38:24.000Z</time>
      </trkpt>
      <trkpt lat="46.9776" lon="3.30994">
        <ele>281.15542602539</ele>
        <time>2016-04-03T09:38:27.000Z</time>
      </trkpt>
      <trkpt lat="46.97759" lon="3.30996">
        <ele>281.16943359375</ele>
        <time>2016-04-03T09:38:30.000Z</time>
      </trkpt>
      <trkpt lat="46.97757" lon="3.31">
        <ele>281.17584228516</ele>
        <time>2016-04-03T09:38:31.000Z</time>
      </trkpt>
      <trkpt lat="46.97755" lon="3.31003">
        <ele>281.17504882812</ele>
        <time>2016-04-03T09:38:33.000Z</time>
      </trkpt>
      <trkpt lat="46.97754" lon="3.31006">
        <ele>281.17602539062</ele>
        <time>2016-04-03T09:38:37.000Z</time>
      </trkpt>
      <trkpt lat="46.97754" lon="3.31008">
        <ele>281.17352294922</ele>
        <time>2016-04-03T09:38:38.000Z</time>
      </trkpt>
      <trkpt lat="46.97751" lon="3.31015">
        <ele>281.17715454102</ele>
        <time>2016-04-03T09:38:41.000Z</time>
      </trkpt>
      <trkpt lat="46.97749" lon="3.31019">
        <ele>281.18374633789</ele>
        <time>2016-04-03T09:38:44.000Z</time>
      </trkpt>
      <trkpt lat="46.97747" lon="3.31024">
        <ele>281.19686889648</ele>
        <time>2016-04-03T09:38:47.000Z</time>
      </trkpt>
      <trkpt lat="46.97747" lon="3.31027">
        <ele>281.20809936523</ele>
        <time>2016-04-03T09:38:50.000Z</time>
      </trkpt>
      <trkpt lat="46.97746" lon="3.31032">
        <ele>281.22982788086</ele>
        <time>2016-04-03T09:38:54.000Z</time>
      </trkpt>
      <trkpt lat="46.97745" lon="3.31038">
        <ele>281.25549316406</ele>
        <time>2016-04-03T09:38:55.000Z</time>
      </trkpt>
      <trkpt lat="46.97744" lon="3.31042">
        <ele>281.29052734375</ele>
        <time>2016-04-03T09:38:58.000Z</time>
      </trkpt>
      <trkpt lat="46.97742" lon="3.31045">
        <ele>281.31811523438</ele>
        <time>2016-04-03T09:39:03.000Z</time>
      </trkpt>
      <trkpt lat="46.9774" lon="3.31051">
        <ele>281.34466552734</ele>
        <time>2016-04-03T09:39:06.000Z</time>
      </trkpt>
      <trkpt lat="46.97739" lon="3.31055">
        <ele>281.36309814453</ele>
        <time>2016-04-03T09:39:07.000Z</time>
      </trkpt>
      <trkpt lat="46.97738" lon="3.31061">
        <ele>281.38217163086</ele>
        <time>2016-04-03T09:39:10.000Z</time>
      </trkpt>
      <trkpt lat="46.97738" lon="3.31063">
        <ele>281.39910888672</ele>
        <time>2016-04-03T09:39:13.000Z</time>
      </trkpt>
      <trkpt lat="46.97736" lon="3.31064">
        <ele>281.41650390625</ele>
        <time>2016-04-03T09:39:15.000Z</time>
      </trkpt>
      <trkpt lat="46.97737" lon="3.31073">
        <ele>281.45611572266</ele>
        <time>2016-04-03T09:39:18.000Z</time>
      </trkpt>
      <trkpt lat="46.97739" lon="3.3108">
        <ele>281.51892089844</ele>
        <time>2016-04-03T09:39:22.000Z</time>
      </trkpt>
      <trkpt lat="46.97738" lon="3.31086">
        <ele>281.59255981445</ele>
        <time>2016-04-03T09:39:24.000Z</time>
      </trkpt>
      <trkpt lat="46.97738" lon="3.31089">
        <ele>281.67178344727</ele>
        <time>2016-04-03T09:39:26.000Z</time>
      </trkpt>
      <trkpt lat="46.97737" lon="3.31091">
        <ele>281.75598144531</ele>
        <time>2016-04-03T09:39:29.000Z</time>
      </trkpt>
      <trkpt lat="46.97732" lon="3.31096">
        <ele>281.81643676758</ele>
        <time>2016-04-03T09:39:32.000Z</time>
      </trkpt>
      <trkpt lat="46.97729" lon="3.31099">
        <ele>281.85339355469</ele>
        <time>2016-04-03T09:39:34.000Z</time>
      </trkpt>
      <trkpt lat="46.97728" lon="3.31103">
        <ele>281.87780761719</ele>
        <time>2016-04-03T09:39:37.000Z</time>
      </trkpt>
      <trkpt lat="46.97726" lon="3.31104">
        <ele>281.89270019531</ele>
        <time>2016-04-03T09:39:40.000Z</time>
      </trkpt>
      <trkpt lat="46.97725" lon="3.31105">
        <ele>281.90380859375</ele>
        <time>2016-04-03T09:39:43.000Z</time>
      </trkpt>
      <trkpt lat="46.97724" lon="3.31105">
        <ele>281.90942382812</ele>
        <time>2016-04-03T09:39:47.000Z</time>
      </trkpt>
      <trkpt lat="46.9772" lon="3.31116">
        <ele>281.943359375</ele>
        <time>2016-04-03T09:39:49.000Z</time>
      </trkpt>
      <trkpt lat="46.97717" lon="3.31124">
        <ele>281.99401855469</ele>
        <time>2016-04-03T09:39:52.000Z</time>
      </trkpt>
      <trkpt lat="46.97717" lon="3.31125">
        <ele>282.05053710938</ele>
        <time>2016-04-03T09:39:54.000Z</time>
      </trkpt>
      <trkpt lat="46.97715" lon="3.31133">
        <ele>282.13854980469</ele>
        <time>2016-04-03T09:39:57.000Z</time>
      </trkpt>
      <trkpt lat="46.97715" lon="3.31137">
        <ele>282.24536132812</ele>
        <time>2016-04-03T09:40:00.000Z</time>
      </trkpt>
      <trkpt lat="46.97714" lon="3.3114">
        <ele>282.33435058594</ele>
        <time>2016-04-03T09:40:04.000Z</time>
      </trkpt>
      <trkpt lat="46.97713" lon="3.31142">
        <ele>282.40454101562</ele>
        <time>2016-04-03T09:40:05.000Z</time>
      </trkpt>
      <trkpt lat="46.97713" lon="3.31147">
        <ele>282.49462890625</ele>
        <time>2016-04-03T09:40:09.000Z</time>
      </trkpt>
      <trkpt lat="46.97714" lon="3.31152">
        <ele>282.5771484375</ele>
        <time>2016-04-03T09:40:10.000Z</time>
      </trkpt>
      <trkpt lat="46.97713" lon="3.31155">
        <ele>282.65600585938</ele>
        <time>2016-04-03T09:40:13.000Z</time>
      </trkpt>
      <trkpt lat="46.97712" lon="3.31165">
        <ele>282.76672363281</ele>
        <time>2016-04-03T09:40:16.000Z</time>
      </trkpt>
      <trkpt lat="46.97713" lon="3.31169">
        <ele>282.88629150391</ele>
        <time>2016-04-03T09:40:18.000Z</time>
      </trkpt>
      <trkpt lat="46.97714" lon="3.31174">
        <ele>282.98992919922</ele>
        <time>2016-04-03T09:40:21.000Z</time>
      </trkpt>
      <trkpt lat="46.97715" lon="3.31178">
        <ele>283.07592773438</ele>
        <time>2016-04-03T09:40:23.000Z</time>
      </trkpt>
      <trkpt lat="46.97715" lon="3.31184">
        <ele>283.15679931641</ele>
        <time>2016-04-03T09:40:26.000Z</time>
      </trkpt>
      <trkpt lat="46.97714" lon="3.31185">
        <ele>283.19427490234</ele>
        <time>2016-04-03T09:40:36.000Z</time>
      </trkpt>
      <trkpt lat="46.97714" lon="3.31188">
        <ele>283.21966552734</ele>
        <time>2016-04-03T09:40:40.000Z</time>
      </trkpt>
      <trkpt lat="46.97711" lon="3.31195">
        <ele>283.23034667969</ele>
        <time>2016-04-03T09:40:45.000Z</time>
      </trkpt>
      <trkpt lat="46.9771" lon="3.31203">
        <ele>283.24032592773</ele>
        <time>2016-04-03T09:40:53.000Z</time>
      </trkpt>
      <trkpt lat="46.9771" lon="3.31208">
        <ele>283.24935913086</ele>
        <time>2016-04-03T09:40:54.000Z</time>
      </trkpt>
      <trkpt lat="46.97711" lon="3.31213">
        <ele>283.26852416992</ele>
        <time>2016-04-03T09:40:55.000Z</time>
      </trkpt>
      <trkpt lat="46.97713" lon="3.31218">
        <ele>283.2951965332</ele>
        <time>2016-04-03T09:40:56.000Z</time>
      </trkpt>
      <trkpt lat="46.97714" lon="3.31221">
        <ele>283.33319091797</ele>
        <time>2016-04-03T09:40:56.000Z</time>
      </trkpt>
      <trkpt lat="46.97716" lon="3.31228">
        <ele>283.37725830078</ele>
        <time>2016-04-03T09:40:57.000Z</time>
      </trkpt>
      <trkpt lat="46.97717" lon="3.31235">
        <ele>283.42657470703</ele>
        <time>2016-04-03T09:40:58.000Z</time>
      </trkpt>
      <trkpt lat="46.97716" lon="3.31237">
        <ele>283.4658203125</ele>
        <time>2016-04-03T09:40:58.000Z</time>
      </trkpt>
      <trkpt lat="46.97713" lon="3.31239">
        <ele>283.48983764648</ele>
        <time>2016-04-03T09:41:03.000Z</time>
      </trkpt>
      <trkpt lat="46.97712" lon="3.3124">
        <ele>283.50424194336</ele>
        <time>2016-04-03T09:41:07.000Z</time>
      </trkpt>
      <trkpt lat="46.97706" lon="3.31248">
        <ele>283.50201416016</ele>
        <time>2016-04-03T09:41:17.000Z</time>
      </trkpt>
      <trkpt lat="46.97703" lon="3.31254">
        <ele>283.48760986328</ele>
        <time>2016-04-03T09:41:20.000Z</time>
      </trkpt>
      <trkpt lat="46.97701" lon="3.3126">
        <ele>283.47442626953</ele>
        <time>2016-04-03T09:41:23.000Z</time>
      </trkpt>
      <trkpt lat="46.97698" lon="3.31267">
        <ele>283.46401977539</ele>
        <time>2016-04-03T09:41:26.000Z</time>
      </trkpt>
      <trkpt lat="46.97698" lon="3.31269">
        <ele>283.45785522461</ele>
        <time>2016-04-03T09:41:28.000Z</time>
      </trkpt>
      <trkpt lat="46.97697" lon="3.31272">
        <ele>283.45803833008</ele>
        <time>2016-04-03T09:41:31.000Z</time>
      </trkpt>
      <trkpt lat="46.97696" lon="3.31282">
        <ele>283.46508789062</ele>
        <time>2016-04-03T09:41:34.000Z</time>
      </trkpt>
      <trkpt lat="46.97694" lon="3.31287">
        <ele>283.46688842773</ele>
        <time>2016-04-03T09:41:37.000Z</time>
      </trkpt>
      <trkpt lat="46.97694" lon="3.31291">
        <ele>283.47344970703</ele>
        <time>2016-04-03T09:41:40.000Z</time>
      </trkpt>
      <trkpt lat="46.97693" lon="3.31294">
        <ele>283.47869873047</ele>
        <time>2016-04-03T09:41:42.000Z</time>
      </trkpt>
      <trkpt lat="46.97692" lon="3.31297">
        <ele>283.47894287109</ele>
        <time>2016-04-03T09:41:45.000Z</time>
      </trkpt>
      <trkpt lat="46.97691" lon="3.31298">
        <ele>283.47259521484</ele>
        <time>2016-04-03T09:41:47.000Z</time>
      </trkpt>
      <trkpt lat="46.97689" lon="3.313">
        <ele>283.46368408203</ele>
        <time>2016-04-03T09:41:51.000Z</time>
      </trkpt>
      <trkpt lat="46.97688" lon="3.31302">
        <ele>283.45208740234</ele>
        <time>2016-04-03T09:41:52.000Z</time>
      </trkpt>
      <trkpt lat="46.97688" lon="3.31304">
        <ele>283.43902587891</ele>
        <time>2016-04-03T09:41:55.000Z</time>
      </trkpt>
      <trkpt lat="46.97684" lon="3.31312">
        <ele>283.41790771484</ele>
        <time>2016-04-03T09:41:58.000Z</time>
      </trkpt>
      <trkpt lat="46.97684" lon="3.31317">
        <ele>283.40084838867</ele>
        <time>2016-04-03T09:42:01.000Z</time>
      </trkpt>
      <trkpt lat="46.97682" lon="3.31321">
        <ele>283.38558959961</ele>
        <time>2016-04-03T09:42:05.000Z</time>
      </trkpt>
      <trkpt lat="46.9768" lon="3.31322">
        <ele>283.35784912109</ele>
        <time>2016-04-03T09:42:08.000Z</time>
      </trkpt>
      <trkpt lat="46.97678" lon="3.31323">
        <ele>283.32220458984</ele>
        <time>2016-04-03T09:42:10.000Z</time>
      </trkpt>
      <trkpt lat="46.97673" lon="3.31327">
        <ele>283.27874755859</ele>
        <time>2016-04-03T09:42:14.000Z</time>
      </trkpt>
      <trkpt lat="46.9767" lon="3.31335">
        <ele>283.21957397461</ele>
        <time>2016-04-03T09:42:16.000Z</time>
      </trkpt>
      <trkpt lat="46.9767" lon="3.31344">
        <ele>283.14254760742</ele>
        <time>2016-04-03T09:42:19.000Z</time>
      </trkpt>
      <trkpt lat="46.9767" lon="3.31347">
        <ele>283.06805419922</ele>
        <time>2016-04-03T09:42:22.000Z</time>
      </trkpt>
      <trkpt lat="46.97667" lon="3.31352">
        <ele>282.97567749023</ele>
        <time>2016-04-03T09:42:25.000Z</time>
      </trkpt>
      <trkpt lat="46.9766" lon="3.31357">
        <ele>282.84121704102</ele>
        <time>2016-04-03T09:42:28.000Z</time>
      </trkpt>
      <trkpt lat="46.97655" lon="3.31365">
        <ele>282.66693115234</ele>
        <time>2016-04-03T09:42:31.000Z</time>
      </trkpt>
      <trkpt lat="46.97656" lon="3.31371">
        <ele>282.50708007812</ele>
        <time>2016-04-03T09:42:37.000Z</time>
      </trkpt>
      <trkpt lat="46.97655" lon="3.31376">
        <ele>282.33618164062</ele>
        <time>2016-04-03T09:42:41.000Z</time>
      </trkpt>
      <trkpt lat="46.97655" lon="3.31381">
        <ele>282.18008422852</ele>
        <time>2016-04-03T09:42:43.000Z</time>
      </trkpt>
      <trkpt lat="46.97654" lon="3.31382">
        <ele>282.07604980469</ele>
        <time>2016-04-03T09:42:48.000Z</time>
      </trkpt>
      <trkpt lat="46.97653" lon="3.31385">
        <ele>282.01135253906</ele>
        <time>2016-04-03T09:42:50.000Z</time>
      </trkpt>
      <trkpt lat="46.97654" lon="3.31387">
        <ele>281.95501708984</ele>
        <time>2016-04-03T09:42:54.000Z</time>
      </trkpt>
      <trkpt lat="46.97654" lon="3.31387">
        <ele>281.95501708984</ele>
        <time>2016-04-03T09:43:15.000Z</time>
      </trkpt>
      <trkpt lat="46.97655" lon="3.31385">
        <ele>281.93927001953</ele>
        <time>2016-04-03T09:43:34.000Z</time>
      </trkpt>
      <trkpt lat="46.97656" lon="3.31385">
        <ele>281.93963623047</ele>
        <time>2016-04-03T09:43:35.000Z</time>
      </trkpt>
      <trkpt lat="46.97655" lon="3.3139">
        <ele>281.93301391602</ele>
        <time>2016-04-03T09:43:36.000Z</time>
      </trkpt>
      <trkpt lat="46.97654" lon="3.31394">
        <ele>281.91448974609</ele>
        <time>2016-04-03T09:43:38.000Z</time>
      </trkpt>
      <trkpt lat="46.97653" lon="3.31399">
        <ele>281.88275146484</ele>
        <time>2016-04-03T09:43:41.000Z</time>
      </trkpt>
      <trkpt lat="46.97652" lon="3.31405">
        <ele>281.80773925781</ele>
        <time>2016-04-03T09:43:43.000Z</time>
      </trkpt>
      <trkpt lat="46.97651" lon="3.31407">
        <ele>281.7177734375</ele>
        <time>2016-04-03T09:43:45.000Z</time>
      </trkpt>
      <trkpt lat="46.97651" lon="3.3141">
        <ele>281.63427734375</ele>
        <time>2016-04-03T09:43:47.000Z</time>
      </trkpt>
      <trkpt lat="46.9765" lon="3.31414">
        <ele>281.55975341797</ele>
        <time>2016-04-03T09:43:50.000Z</time>
      </trkpt>
      <trkpt lat="46.97648" lon="3.31419">
        <ele>281.47872924805</ele>
        <time>2016-04-03T09:43:53.000Z</time>
      </trkpt>
      <trkpt lat="46.97647" lon="3.31421">
        <ele>281.41326904297</ele>
        <time>2016-04-03T09:43:55.000Z</time>
      </trkpt>
      <trkpt lat="46.97646" lon="3.31425">
        <ele>281.34439086914</ele>
        <time>2016-04-03T09:43:58.000Z</time>
      </trkpt>
      <trkpt lat="46.97643" lon="3.3143">
        <ele>281.25689697266</ele>
        <time>2016-04-03T09:44:01.000Z</time>
      </trkpt>
      <trkpt lat="46.97643" lon="3.31434">
        <ele>281.18194580078</ele>
        <time>2016-04-03T09:44:03.000Z</time>
      </trkpt>
      <trkpt lat="46.97643" lon="3.31437">
        <ele>281.11923217773</ele>
        <time>2016-04-03T09:44:05.000Z</time>
      </trkpt>
      <trkpt lat="46.97643" lon="3.31442">
        <ele>281.06130981445</ele>
        <time>2016-04-03T09:44:09.000Z</time>
      </trkpt>
      <trkpt lat="46.97644" lon="3.31446">
        <ele>281.01568603516</ele>
        <time>2016-04-03T09:44:10.000Z</time>
      </trkpt>
      <trkpt lat="46.97644" lon="3.31449">
        <ele>281.00140380859</ele>
        <time>2016-04-03T09:44:12.000Z</time>
      </trkpt>
      <trkpt lat="46.97645" lon="3.31453">
        <ele>280.99411010742</ele>
        <time>2016-04-03T09:44:16.000Z</time>
      </trkpt>
      <trkpt lat="46.97645" lon="3.31455">
        <ele>280.9921875</ele>
        <time>2016-04-03T09:44:17.000Z</time>
      </trkpt>
      <trkpt lat="46.97645" lon="3.31457">
        <ele>280.98706054688</ele>
        <time>2016-04-03T09:44:20.000Z</time>
      </trkpt>
      <trkpt lat="46.97643" lon="3.31463">
        <ele>280.95971679688</ele>
        <time>2016-04-03T09:44:23.000Z</time>
      </trkpt>
      <trkpt lat="46.9764" lon="3.31467">
        <ele>280.89495849609</ele>
        <time>2016-04-03T09:44:26.000Z</time>
      </trkpt>
      <trkpt lat="46.97639" lon="3.31469">
        <ele>280.81314086914</ele>
        <time>2016-04-03T09:44:29.000Z</time>
      </trkpt>
      <trkpt lat="46.97638" lon="3.31473">
        <ele>280.71817016602</ele>
        <time>2016-04-03T09:44:32.000Z</time>
      </trkpt>
      <trkpt lat="46.97636" lon="3.31484">
        <ele>280.58563232422</ele>
        <time>2016-04-03T09:44:35.000Z</time>
      </trkpt>
      <trkpt lat="46.97635" lon="3.31488">
        <ele>280.46090698242</ele>
        <time>2016-04-03T09:44:38.000Z</time>
      </trkpt>
      <trkpt lat="46.97634" lon="3.31491">
        <ele>280.35458374023</ele>
        <time>2016-04-03T09:44:41.000Z</time>
      </trkpt>
      <trkpt lat="46.97633" lon="3.31494">
        <ele>280.24786376953</ele>
        <time>2016-04-03T09:44:43.000Z</time>
      </trkpt>
      <trkpt lat="46.97632" lon="3.315">
        <ele>280.12655639648</ele>
        <time>2016-04-03T09:44:46.000Z</time>
      </trkpt>
      <trkpt lat="46.97631" lon="3.31504">
        <ele>280.02865600586</ele>
        <time>2016-04-03T09:44:49.000Z</time>
      </trkpt>
      <trkpt lat="46.9763" lon="3.3151">
        <ele>279.92349243164</ele>
        <time>2016-04-03T09:44:52.000Z</time>
      </trkpt>
      <trkpt lat="46.97631" lon="3.31515">
        <ele>279.82788085938</ele>
        <time>2016-04-03T09:44:54.000Z</time>
      </trkpt>
      <trkpt lat="46.9763" lon="3.31518">
        <ele>279.72479248047</ele>
        <time>2016-04-03T09:44:56.000Z</time>
      </trkpt>
      <trkpt lat="46.97629" lon="3.3152">
        <ele>279.63800048828</ele>
        <time>2016-04-03T09:45:00.000Z</time>
      </trkpt>
      <trkpt lat="46.97627" lon="3.31523">
        <ele>279.54858398438</ele>
        <time>2016-04-03T09:45:04.000Z</time>
      </trkpt>
      <trkpt lat="46.97626" lon="3.31531">
        <ele>279.44833374023</ele>
        <time>2016-04-03T09:45:11.000Z</time>
      </trkpt>
      <trkpt lat="46.97625" lon="3.31535">
        <ele>279.33734130859</ele>
        <time>2016-04-03T09:45:13.000Z</time>
      </trkpt>
      <trkpt lat="46.97623" lon="3.3154">
        <ele>279.21173095703</ele>
        <time>2016-04-03T09:45:16.000Z</time>
      </trkpt>
      <trkpt lat="46.97622" lon="3.31544">
        <ele>279.07452392578</ele>
        <time>2016-04-03T09:45:18.000Z</time>
      </trkpt>
      <trkpt lat="46.9762" lon="3.31549">
        <ele>278.91900634766</ele>
        <time>2016-04-03T09:45:22.000Z</time>
      </trkpt>
      <trkpt lat="46.97618" lon="3.31553">
        <ele>278.77465820312</ele>
        <time>2016-04-03T09:45:23.000Z</time>
      </trkpt>
      <trkpt lat="46.97618" lon="3.31557">
        <ele>278.63812255859</ele>
        <time>2016-04-03T09:45:25.000Z</time>
      </trkpt>
      <trkpt lat="46.97618" lon="3.31562">
        <ele>278.52661132812</ele>
        <time>2016-04-03T09:45:28.000Z</time>
      </trkpt>
      <trkpt lat="46.97619" lon="3.31565">
        <ele>278.43676757812</ele>
        <time>2016-04-03T09:45:30.000Z</time>
      </trkpt>
      <trkpt lat="46.97618" lon="3.31569">
        <ele>278.37005615234</ele>
        <time>2016-04-03T09:45:34.000Z</time>
      </trkpt>
      <trkpt lat="46.97618" lon="3.31572">
        <ele>278.31387329102</ele>
        <time>2016-04-03T09:45:36.000Z</time>
      </trkpt>
      <trkpt lat="46.97617" lon="3.31574">
        <ele>278.25219726562</ele>
        <time>2016-04-03T09:45:39.000Z</time>
      </trkpt>
      <trkpt lat="46.97617" lon="3.3158">
        <ele>278.19470214844</ele>
        <time>2016-04-03T09:45:42.000Z</time>
      </trkpt>
      <trkpt lat="46.97618" lon="3.31585">
        <ele>278.13128662109</ele>
        <time>2016-04-03T09:45:45.000Z</time>
      </trkpt>
      <trkpt lat="46.97616" lon="3.31589">
        <ele>278.05642700195</ele>
        <time>2016-04-03T09:45:47.000Z</time>
      </trkpt>
      <trkpt lat="46.97613" lon="3.31594">
        <ele>277.94946289062</ele>
        <time>2016-04-03T09:45:50.000Z</time>
      </trkpt>
      <trkpt lat="46.97612" lon="3.31596">
        <ele>277.83731079102</ele>
        <time>2016-04-03T09:45:51.000Z</time>
      </trkpt>
      <trkpt lat="46.9761" lon="3.31599">
        <ele>277.7138671875</ele>
        <time>2016-04-03T09:45:53.000Z</time>
      </trkpt>
      <trkpt lat="46.97608" lon="3.31603">
        <ele>277.56060791016</ele>
        <time>2016-04-03T09:45:56.000Z</time>
      </trkpt>
      <trkpt lat="46.97606" lon="3.31606">
        <ele>277.41430664062</ele>
        <time>2016-04-03T09:45:58.000Z</time>
      </trkpt>
      <trkpt lat="46.97605" lon="3.31609">
        <ele>277.29180908203</ele>
        <time>2016-04-03T09:46:01.000Z</time>
      </trkpt>
      <trkpt lat="46.97601" lon="3.31613">
        <ele>277.14715576172</ele>
        <time>2016-04-03T09:46:03.000Z</time>
      </trkpt>
      <trkpt lat="46.97601" lon="3.31618">
        <ele>277.01007080078</ele>
        <time>2016-04-03T09:46:07.000Z</time>
      </trkpt>
      <trkpt lat="46.97601" lon="3.31623">
        <ele>276.90539550781</ele>
        <time>2016-04-03T09:46:08.000Z</time>
      </trkpt>
      <trkpt lat="46.97601" lon="3.31628">
        <ele>276.81842041016</ele>
        <time>2016-04-03T09:46:11.000Z</time>
      </trkpt>
      <trkpt lat="46.97602" lon="3.31633">
        <ele>276.75164794922</ele>
        <time>2016-04-03T09:46:14.000Z</time>
      </trkpt>
      <trkpt lat="46.97602" lon="3.3164">
        <ele>276.71917724609</ele>
        <time>2016-04-03T09:46:17.000Z</time>
      </trkpt>
      <trkpt lat="46.97601" lon="3.31647">
        <ele>276.67950439453</ele>
        <time>2016-04-03T09:46:20.000Z</time>
      </trkpt>
      <trkpt lat="46.976" lon="3.3165">
        <ele>276.63641357422</ele>
        <time>2016-04-03T09:46:24.000Z</time>
      </trkpt>
      <trkpt lat="46.97599" lon="3.31656">
        <ele>276.58117675781</ele>
        <time>2016-04-03T09:46:26.000Z</time>
      </trkpt>
      <trkpt lat="46.97599" lon="3.3166">
        <ele>276.52099609375</ele>
        <time>2016-04-03T09:46:29.000Z</time>
      </trkpt>
      <trkpt lat="46.97598" lon="3.31663">
        <ele>276.46307373047</ele>
        <time>2016-04-03T09:46:32.000Z</time>
      </trkpt>
      <trkpt lat="46.97597" lon="3.31667">
        <ele>276.41152954102</ele>
        <time>2016-04-03T09:46:35.000Z</time>
      </trkpt>
      <trkpt lat="46.97596" lon="3.31669">
        <ele>276.35955810547</ele>
        <time>2016-04-03T09:46:37.000Z</time>
      </trkpt>
      <trkpt lat="46.97595" lon="3.31671">
        <ele>276.30532836914</ele>
        <time>2016-04-03T09:46:40.000Z</time>
      </trkpt>
      <trkpt lat="46.97594" lon="3.31676">
        <ele>276.22909545898</ele>
        <time>2016-04-03T09:46:42.000Z</time>
      </trkpt>
      <trkpt lat="46.97593" lon="3.3168">
        <ele>276.13647460938</ele>
        <time>2016-04-03T09:46:45.000Z</time>
      </trkpt>
      <trkpt lat="46.97592" lon="3.31685">
        <ele>276.02746582031</ele>
        <time>2016-04-03T09:46:48.000Z</time>
      </trkpt>
      <trkpt lat="46.97591" lon="3.31688">
        <ele>275.91198730469</ele>
        <time>2016-04-03T09:46:51.000Z</time>
      </trkpt>
      <trkpt lat="46.97591" lon="3.31689">
        <ele>275.80725097656</ele>
        <time>2016-04-03T09:46:52.000Z</time>
      </trkpt>
      <trkpt lat="46.97588" lon="3.31698">
        <ele>275.67150878906</ele>
        <time>2016-04-03T09:46:55.000Z</time>
      </trkpt>
      <trkpt lat="46.97587" lon="3.31703">
        <ele>275.5322265625</ele>
        <time>2016-04-03T09:46:58.000Z</time>
      </trkpt>
      <trkpt lat="46.97586" lon="3.31709">
        <ele>275.38940429688</ele>
        <time>2016-04-03T09:47:00.000Z</time>
      </trkpt>
      <trkpt lat="46.97586" lon="3.31714">
        <ele>275.23828125</ele>
        <time>2016-04-03T09:47:03.000Z</time>
      </trkpt>
      <trkpt lat="46.97584" lon="3.3172">
        <ele>275.05554199219</ele>
        <time>2016-04-03T09:47:05.000Z</time>
      </trkpt>
      <trkpt lat="46.97583" lon="3.31724">
        <ele>274.90628051758</ele>
        <time>2016-04-03T09:47:08.000Z</time>
      </trkpt>
      <trkpt lat="46.97583" lon="3.31726">
        <ele>274.77386474609</ele>
        <time>2016-04-03T09:47:11.000Z</time>
      </trkpt>
      <trkpt lat="46.97581" lon="3.3173">
        <ele>274.63934326172</ele>
        <time>2016-04-03T09:47:14.000Z</time>
      </trkpt>
      <trkpt lat="46.9758" lon="3.31733">
        <ele>274.5065612793</ele>
        <time>2016-04-03T09:47:15.000Z</time>
      </trkpt>
      <trkpt lat="46.97579" lon="3.31736">
        <ele>274.38806152344</ele>
        <time>2016-04-03T09:47:19.000Z</time>
      </trkpt>
      <trkpt lat="46.97578" lon="3.3174">
        <ele>274.2607421875</ele>
        <time>2016-04-03T09:47:21.000Z</time>
      </trkpt>
      <trkpt lat="46.97579" lon="3.31746">
        <ele>274.13220214844</ele>
        <time>2016-04-03T09:47:24.000Z</time>
      </trkpt>
      <trkpt lat="46.97579" lon="3.31748">
        <ele>274.02575683594</ele>
        <time>2016-04-03T09:47:26.000Z</time>
      </trkpt>
      <trkpt lat="46.9758" lon="3.31755">
        <ele>273.94134521484</ele>
        <time>2016-04-03T09:47:30.000Z</time>
      </trkpt>
      <trkpt lat="46.97581" lon="3.31759">
        <ele>273.89471435547</ele>
        <time>2016-04-03T09:47:31.000Z</time>
      </trkpt>
      <trkpt lat="46.97581" lon="3.31762">
        <ele>273.88159179688</ele>
        <time>2016-04-03T09:47:33.000Z</time>
      </trkpt>
      <trkpt lat="46.97581" lon="3.31765">
        <ele>273.87860107422</ele>
        <time>2016-04-03T09:47:36.000Z</time>
      </trkpt>
      <trkpt lat="46.9758" lon="3.31774">
        <ele>273.86901855469</ele>
        <time>2016-04-03T09:47:39.000Z</time>
      </trkpt>
      <trkpt lat="46.97578" lon="3.31778">
        <ele>273.84664916992</ele>
        <time>2016-04-03T09:47:41.000Z</time>
      </trkpt>
      <trkpt lat="46.97577" lon="3.3178">
        <ele>273.79809570312</ele>
        <time>2016-04-03T09:47:44.000Z</time>
      </trkpt>
      <trkpt lat="46.97578" lon="3.31787">
        <ele>273.75723266602</ele>
        <time>2016-04-03T09:47:47.000Z</time>
      </trkpt>
      <trkpt lat="46.97577" lon="3.31791">
        <ele>273.70550537109</ele>
        <time>2016-04-03T09:47:49.000Z</time>
      </trkpt>
      <trkpt lat="46.97578" lon="3.31795">
        <ele>273.68133544922</ele>
        <time>2016-04-03T09:47:51.000Z</time>
      </trkpt>
      <trkpt lat="46.97578" lon="3.31798">
        <ele>273.67059326172</ele>
        <time>2016-04-03T09:47:53.000Z</time>
      </trkpt>
      <trkpt lat="46.97578" lon="3.31801">
        <ele>273.66860961914</ele>
        <time>2016-04-03T09:47:55.000Z</time>
      </trkpt>
      <trkpt lat="46.97578" lon="3.31806">
        <ele>273.66287231445</ele>
        <time>2016-04-03T09:47:58.000Z</time>
      </trkpt>
      <trkpt lat="46.97577" lon="3.3181">
        <ele>273.65643310547</ele>
        <time>2016-04-03T09:48:01.000Z</time>
      </trkpt>
      <trkpt lat="46.97574" lon="3.31816">
        <ele>273.59555053711</ele>
        <time>2016-04-03T09:48:03.000Z</time>
      </trkpt>
      <trkpt lat="46.97573" lon="3.31818">
        <ele>273.51831054688</ele>
        <time>2016-04-03T09:48:05.000Z</time>
      </trkpt>
      <trkpt lat="46.97571" lon="3.3182">
        <ele>273.41790771484</ele>
        <time>2016-04-03T09:48:07.000Z</time>
      </trkpt>
      <trkpt lat="46.97569" lon="3.31824">
        <ele>273.28854370117</ele>
        <time>2016-04-03T09:48:11.000Z</time>
      </trkpt>
      <trkpt lat="46.97567" lon="3.31829">
        <ele>273.13180541992</ele>
        <time>2016-04-03T09:48:14.000Z</time>
      </trkpt>
      <trkpt lat="46.97565" lon="3.31832">
        <ele>273.00057983398</ele>
        <time>2016-04-03T09:48:15.000Z</time>
      </trkpt>
      <trkpt lat="46.97565" lon="3.31838">
        <ele>272.87127685547</ele>
        <time>2016-04-03T09:48:18.000Z</time>
      </trkpt>
      <trkpt lat="46.97565" lon="3.31842">
        <ele>272.76336669922</ele>
        <time>2016-04-03T09:48:20.000Z</time>
      </trkpt>
      <trkpt lat="46.97565" lon="3.31845">
        <ele>272.6689453125</ele>
        <time>2016-04-03T09:48:23.000Z</time>
      </trkpt>
      <trkpt lat="46.97566" lon="3.31851">
        <ele>272.62603759766</ele>
        <time>2016-04-03T09:48:26.000Z</time>
      </trkpt>
      <trkpt lat="46.97567" lon="3.31854">
        <ele>272.60772705078</ele>
        <time>2016-04-03T09:48:29.000Z</time>
      </trkpt>
      <trkpt lat="46.97567" lon="3.31858">
        <ele>272.60308837891</ele>
        <time>2016-04-03T09:48:32.000Z</time>
      </trkpt>
      <trkpt lat="46.97568" lon="3.31862">
        <ele>272.59802246094</ele>
        <time>2016-04-03T09:48:34.000Z</time>
      </trkpt>
      <trkpt lat="46.97567" lon="3.31869">
        <ele>272.59243774414</ele>
        <time>2016-04-03T09:48:36.000Z</time>
      </trkpt>
      <trkpt lat="46.97566" lon="3.31873">
        <ele>272.54949951172</ele>
        <time>2016-04-03T09:48:38.000Z</time>
      </trkpt>
      <trkpt lat="46.97564" lon="3.31879">
        <ele>272.45477294922</ele>
        <time>2016-04-03T09:48:41.000Z</time>
      </trkpt>
      <trkpt lat="46.97562" lon="3.31882">
        <ele>272.33380126953</ele>
        <time>2016-04-03T09:48:43.000Z</time>
      </trkpt>
      <trkpt lat="46.9756" lon="3.31888">
        <ele>272.18981933594</ele>
        <time>2016-04-03T09:48:46.000Z</time>
      </trkpt>
      <trkpt lat="46.97558" lon="3.31891">
        <ele>272.02130126953</ele>
        <time>2016-04-03T09:48:49.000Z</time>
      </trkpt>
      <trkpt lat="46.97556" lon="3.31893">
        <ele>271.85394287109</ele>
        <time>2016-04-03T09:48:51.000Z</time>
      </trkpt>
      <trkpt lat="46.97554" lon="3.31898">
        <ele>271.70635986328</ele>
        <time>2016-04-03T09:48:54.000Z</time>
      </trkpt>
      <trkpt lat="46.97553" lon="3.31903">
        <ele>271.55850219727</ele>
        <time>2016-04-03T09:48:57.000Z</time>
      </trkpt>
      <trkpt lat="46.97551" lon="3.31907">
        <ele>271.41510009766</ele>
        <time>2016-04-03T09:49:00.000Z</time>
      </trkpt>
      <trkpt lat="46.97552" lon="3.31911">
        <ele>271.30883789062</ele>
        <time>2016-04-03T09:49:03.000Z</time>
      </trkpt>
      <trkpt lat="46.97552" lon="3.31914">
        <ele>271.22201538086</ele>
        <time>2016-04-03T09:49:05.000Z</time>
      </trkpt>
      <trkpt lat="46.97552" lon="3.31918">
        <ele>271.14495849609</ele>
        <time>2016-04-03T09:49:08.000Z</time>
      </trkpt>
      <trkpt lat="46.9755" lon="3.31922">
        <ele>271.04037475586</ele>
        <time>2016-04-03T09:49:11.000Z</time>
      </trkpt>
      <trkpt lat="46.97549" lon="3.31926">
        <ele>270.92303466797</ele>
        <time>2016-04-03T09:49:14.000Z</time>
      </trkpt>
      <trkpt lat="46.97548" lon="3.31931">
        <ele>270.76141357422</ele>
        <time>2016-04-03T09:49:17.000Z</time>
      </trkpt>
      <trkpt lat="46.97549" lon="3.31936">
        <ele>270.56793212891</ele>
        <time>2016-04-03T09:49:19.000Z</time>
      </trkpt>
      <trkpt lat="46.97548" lon="3.31941">
        <ele>270.34341430664</ele>
        <time>2016-04-03T09:49:22.000Z</time>
      </trkpt>
      <trkpt lat="46.97549" lon="3.31947">
        <ele>270.13787841797</ele>
        <time>2016-04-03T09:49:24.000Z</time>
      </trkpt>
      <trkpt lat="46.97549" lon="3.31954">
        <ele>269.91638183594</ele>
        <time>2016-04-03T09:49:28.000Z</time>
      </trkpt>
      <trkpt lat="46.97546" lon="3.31958">
        <ele>269.66070556641</ele>
        <time>2016-04-03T09:49:30.000Z</time>
      </trkpt>
      <trkpt lat="46.97545" lon="3.3196">
        <ele>269.41046142578</ele>
        <time>2016-04-03T09:49:32.000Z</time>
      </trkpt>
      <trkpt lat="46.97545" lon="3.31963">
        <ele>269.17755126953</ele>
        <time>2016-04-03T09:49:35.000Z</time>
      </trkpt>
      <trkpt lat="46.97542" lon="3.31975">
        <ele>268.84857177734</ele>
        <time>2016-04-03T09:49:38.000Z</time>
      </trkpt>
      <trkpt lat="46.97543" lon="3.31982">
        <ele>268.53170776367</ele>
        <time>2016-04-03T09:49:41.000Z</time>
      </trkpt>
      <trkpt lat="46.97543" lon="3.31985">
        <ele>268.26864624023</ele>
        <time>2016-04-03T09:49:43.000Z</time>
      </trkpt>
      <trkpt lat="46.97542" lon="3.31989">
        <ele>267.99307250977</ele>
        <time>2016-04-03T09:49:46.000Z</time>
      </trkpt>
      <trkpt lat="46.97542" lon="3.31991">
        <ele>267.72451782227</ele>
        <time>2016-04-03T09:49:48.000Z</time>
      </trkpt>
      <trkpt lat="46.97541" lon="3.31993">
        <ele>267.5625</ele>
        <time>2016-04-03T09:49:50.000Z</time>
      </trkpt>
      <trkpt lat="46.97541" lon="3.31994">
        <ele>267.421875</ele>
        <time>2016-04-03T09:49:53.000Z</time>
      </trkpt>
      <trkpt lat="46.97539" lon="3.31999">
        <ele>267.24417114258</ele>
        <time>2016-04-03T09:49:56.000Z</time>
      </trkpt>
      <trkpt lat="46.97538" lon="3.32002">
        <ele>267.06326293945</ele>
        <time>2016-04-03T09:49:58.000Z</time>
      </trkpt>
      <trkpt lat="46.97535" lon="3.32009">
        <ele>266.83538818359</ele>
        <time>2016-04-03T09:50:02.000Z</time>
      </trkpt>
      <trkpt lat="46.97534" lon="3.32013">
        <ele>266.59390258789</ele>
        <time>2016-04-03T09:50:04.000Z</time>
      </trkpt>
      <trkpt lat="46.97532" lon="3.32019">
        <ele>266.3102722168</ele>
        <time>2016-04-03T09:50:07.000Z</time>
      </trkpt>
      <trkpt lat="46.97529" lon="3.32024">
        <ele>266.02816772461</ele>
        <time>2016-04-03T09:50:08.000Z</time>
      </trkpt>
      <trkpt lat="46.97528" lon="3.32026">
        <ele>265.75955200195</ele>
        <time>2016-04-03T09:50:10.000Z</time>
      </trkpt>
      <trkpt lat="46.97526" lon="3.32029">
        <ele>265.52282714844</ele>
        <time>2016-04-03T09:50:12.000Z</time>
      </trkpt>
      <trkpt lat="46.97524" lon="3.32031">
        <ele>265.29364013672</ele>
        <time>2016-04-03T09:50:14.000Z</time>
      </trkpt>
      <trkpt lat="46.97522" lon="3.32033">
        <ele>265.07730102539</ele>
        <time>2016-04-03T09:50:18.000Z</time>
      </trkpt>
      <trkpt lat="46.97519" lon="3.32035">
        <ele>264.86996459961</ele>
        <time>2016-04-03T09:50:20.000Z</time>
      </trkpt>
      <trkpt lat="46.97517" lon="3.32039">
        <ele>264.64743041992</ele>
        <time>2016-04-03T09:50:23.000Z</time>
      </trkpt>
      <trkpt lat="46.97516" lon="3.32043">
        <ele>264.43353271484</ele>
        <time>2016-04-03T09:50:27.000Z</time>
      </trkpt>
      <trkpt lat="46.97515" lon="3.32045">
        <ele>264.23486328125</ele>
        <time>2016-04-03T09:50:29.000Z</time>
      </trkpt>
      <trkpt lat="46.97515" lon="3.32048">
        <ele>264.07162475586</ele>
        <time>2016-04-03T09:50:31.000Z</time>
      </trkpt>
      <trkpt lat="46.97515" lon="3.32052">
        <ele>263.93057250977</ele>
        <time>2016-04-03T09:50:37.000Z</time>
      </trkpt>
      <trkpt lat="46.97514" lon="3.32057">
        <ele>263.79476928711</ele>
        <time>2016-04-03T09:50:37.000Z</time>
      </trkpt>
      <trkpt lat="46.97513" lon="3.32058">
        <ele>263.67779541016</ele>
        <time>2016-04-03T09:50:41.000Z</time>
      </trkpt>
      <trkpt lat="46.9751" lon="3.32063">
        <ele>263.51800537109</ele>
        <time>2016-04-03T09:50:42.000Z</time>
      </trkpt>
      <trkpt lat="46.97509" lon="3.32067">
        <ele>263.34436035156</ele>
        <time>2016-04-03T09:50:45.000Z</time>
      </trkpt>
      <trkpt lat="46.97508" lon="3.32069">
        <ele>263.17504882812</ele>
        <time>2016-04-03T09:50:48.000Z</time>
      </trkpt>
      <trkpt lat="46.97507" lon="3.3207">
        <ele>263.02261352539</ele>
        <time>2016-04-03T09:50:50.000Z</time>
      </trkpt>
      <trkpt lat="46.97505" lon="3.32072">
        <ele>262.85452270508</ele>
        <time>2016-04-03T09:50:53.000Z</time>
      </trkpt>
      <trkpt lat="46.97502" lon="3.32075">
        <ele>262.68954467773</ele>
        <time>2016-04-03T09:50:56.000Z</time>
      </trkpt>
      <trkpt lat="46.97498" lon="3.3208">
        <ele>262.53167724609</ele>
        <time>2016-04-03T09:50:58.000Z</time>
      </trkpt>
      <trkpt lat="46.97496" lon="3.32084">
        <ele>262.43133544922</ele>
        <time>2016-04-03T09:51:00.000Z</time>
      </trkpt>
      <trkpt lat="46.97494" lon="3.32091">
        <ele>262.50109863281</ele>
        <time>2016-04-03T09:51:04.000Z</time>
      </trkpt>
      <trkpt lat="46.97493" lon="3.32094">
        <ele>262.67633056641</ele>
        <time>2016-04-03T09:51:05.000Z</time>
      </trkpt>
      <trkpt lat="46.97491" lon="3.321">
        <ele>263.04727172852</ele>
        <time>2016-04-03T09:51:08.000Z</time>
      </trkpt>
      <trkpt lat="46.97491" lon="3.32103">
        <ele>263.50244140625</ele>
        <time>2016-04-03T09:51:10.000Z</time>
      </trkpt>
      <trkpt lat="46.97489" lon="3.32106">
        <ele>263.998046875</ele>
        <time>2016-04-03T09:51:14.000Z</time>
      </trkpt>
      <trkpt lat="46.97488" lon="3.3211">
        <ele>264.43310546875</ele>
        <time>2016-04-03T09:51:17.000Z</time>
      </trkpt>
      <trkpt lat="46.97487" lon="3.32112">
        <ele>264.8505859375</ele>
        <time>2016-04-03T09:51:19.000Z</time>
      </trkpt>
      <trkpt lat="46.97486" lon="3.32115">
        <ele>265.201171875</ele>
        <time>2016-04-03T09:51:20.000Z</time>
      </trkpt>
      <trkpt lat="46.97485" lon="3.32118">
        <ele>265.56298828125</ele>
        <time>2016-04-03T09:51:22.000Z</time>
      </trkpt>
      <trkpt lat="46.97483" lon="3.32123">
        <ele>265.95458984375</ele>
        <time>2016-04-03T09:51:25.000Z</time>
      </trkpt>
      <trkpt lat="46.97482" lon="3.32125">
        <ele>266.32568359375</ele>
        <time>2016-04-03T09:51:27.000Z</time>
      </trkpt>
      <trkpt lat="46.9748" lon="3.32129">
        <ele>266.73095703125</ele>
        <time>2016-04-03T09:51:30.000Z</time>
      </trkpt>
      <trkpt lat="46.97479" lon="3.32131">
        <ele>267.1142578125</ele>
        <time>2016-04-03T09:51:32.000Z</time>
      </trkpt>
      <trkpt lat="46.97478" lon="3.32134">
        <ele>267.490234375</ele>
        <time>2016-04-03T09:51:36.000Z</time>
      </trkpt>
      <trkpt lat="46.97478" lon="3.32135">
        <ele>267.79541015625</ele>
        <time>2016-04-03T09:51:37.000Z</time>
      </trkpt>
      <trkpt lat="46.97476" lon="3.32137">
        <ele>268.1005859375</ele>
        <time>2016-04-03T09:51:41.000Z</time>
      </trkpt>
      <trkpt lat="46.97474" lon="3.32142">
        <ele>268.42041015625</ele>
        <time>2016-04-03T09:51:43.000Z</time>
      </trkpt>
      <trkpt lat="46.9747" lon="3.32145">
        <ele>268.79638671875</ele>
        <time>2016-04-03T09:51:46.000Z</time>
      </trkpt>
      <trkpt lat="46.97466" lon="3.32147">
        <ele>269.1884765625</ele>
        <time>2016-04-03T09:51:49.000Z</time>
      </trkpt>
      <trkpt lat="46.97462" lon="3.32151">
        <ele>269.67236328125</ele>
        <time>2016-04-03T09:51:53.000Z</time>
      </trkpt>
      <trkpt lat="46.97462" lon="3.32152">
        <ele>270.1181640625</ele>
        <time>2016-04-03T09:51:54.000Z</time>
      </trkpt>
      <trkpt lat="46.97459" lon="3.32152">
        <ele>270.5048828125</ele>
        <time>2016-04-03T09:51:58.000Z</time>
      </trkpt>
      <trkpt lat="46.97456" lon="3.32154">
        <ele>270.85107421875</ele>
        <time>2016-04-03T09:52:00.000Z</time>
      </trkpt>
      <trkpt lat="46.97452" lon="3.32158">
        <ele>271.2294921875</ele>
        <time>2016-04-03T09:52:01.000Z</time>
      </trkpt>
      <trkpt lat="46.9745" lon="3.3216">
        <ele>271.54150390625</ele>
        <time>2016-04-03T09:52:04.000Z</time>
      </trkpt>
      <trkpt lat="46.97448" lon="3.3216">
        <ele>271.8681640625</ele>
        <time>2016-04-03T09:52:07.000Z</time>
      </trkpt>
      <trkpt lat="46.97446" lon="3.32161">
        <ele>272.18701171875</ele>
        <time>2016-04-03T09:52:09.000Z</time>
      </trkpt>
      <trkpt lat="46.97443" lon="3.3216">
        <ele>272.45654296875</ele>
        <time>2016-04-03T09:52:12.000Z</time>
      </trkpt>
      <trkpt lat="46.97438" lon="3.32162">
        <ele>272.7109375</ele>
        <time>2016-04-03T09:52:14.000Z</time>
      </trkpt>
      <trkpt lat="46.97434" lon="3.32163">
        <ele>272.97900390625</ele>
        <time>2016-04-03T09:52:18.000Z</time>
      </trkpt>
      <trkpt lat="46.97433" lon="3.32163">
        <ele>273.21728515625</ele>
        <time>2016-04-03T09:52:19.000Z</time>
      </trkpt>
      <trkpt lat="46.9743" lon="3.32164">
        <ele>273.45263671875</ele>
        <time>2016-04-03T09:52:22.000Z</time>
      </trkpt>
      <trkpt lat="46.97429" lon="3.32165">
        <ele>273.71240234375</ele>
        <time>2016-04-03T09:52:23.000Z</time>
      </trkpt>
      <trkpt lat="46.97427" lon="3.32165">
        <ele>273.89306640625</ele>
        <time>2016-04-03T09:52:26.000Z</time>
      </trkpt>
      <trkpt lat="46.97425" lon="3.32164">
        <ele>274.02197265625</ele>
        <time>2016-04-03T09:52:28.000Z</time>
      </trkpt>
      <trkpt lat="46.97421" lon="3.32166">
        <ele>274.21923828125</ele>
        <time>2016-04-03T09:52:31.000Z</time>
      </trkpt>
      <trkpt lat="46.97418" lon="3.32166">
        <ele>274.41064453125</ele>
        <time>2016-04-03T09:52:33.000Z</time>
      </trkpt>
      <trkpt lat="46.97414" lon="3.32163">
        <ele>274.53713989258</ele>
        <time>2016-04-03T09:52:36.000Z</time>
      </trkpt>
      <trkpt lat="46.97411" lon="3.3216">
        <ele>274.62020874023</ele>
        <time>2016-04-03T09:52:39.000Z</time>
      </trkpt>
      <trkpt lat="46.97408" lon="3.32158">
        <ele>274.66903686523</ele>
        <time>2016-04-03T09:52:42.000Z</time>
      </trkpt>
      <trkpt lat="46.97402" lon="3.32156">
        <ele>274.65731811523</ele>
        <time>2016-04-03T09:52:45.000Z</time>
      </trkpt>
      <trkpt lat="46.97398" lon="3.32156">
        <ele>274.64300537109</ele>
        <time>2016-04-03T09:52:48.000Z</time>
      </trkpt>
      <trkpt lat="46.97397" lon="3.32155">
        <ele>274.65219116211</ele>
        <time>2016-04-03T09:52:50.000Z</time>
      </trkpt>
      <trkpt lat="46.97392" lon="3.32156">
        <ele>274.72698974609</ele>
        <time>2016-04-03T09:52:53.000Z</time>
      </trkpt>
      <trkpt lat="46.9739" lon="3.32155">
        <ele>274.82476806641</ele>
        <time>2016-04-03T09:52:55.000Z</time>
      </trkpt>
      <trkpt lat="46.97387" lon="3.32154">
        <ele>274.92120361328</ele>
        <time>2016-04-03T09:52:58.000Z</time>
      </trkpt>
      <trkpt lat="46.97382" lon="3.32154">
        <ele>275.02130126953</ele>
        <time>2016-04-03T09:53:01.000Z</time>
      </trkpt>
      <trkpt lat="46.97379" lon="3.32155">
        <ele>275.16381835938</ele>
        <time>2016-04-03T09:53:04.000Z</time>
      </trkpt>
      <trkpt lat="46.97375" lon="3.32154">
        <ele>275.28161621094</ele>
        <time>2016-04-03T09:53:07.000Z</time>
      </trkpt>
      <trkpt lat="46.97374" lon="3.32153">
        <ele>275.39776611328</ele>
        <time>2016-04-03T09:53:09.000Z</time>
      </trkpt>
      <trkpt lat="46.9737" lon="3.32152">
        <ele>275.51892089844</ele>
        <time>2016-04-03T09:53:12.000Z</time>
      </trkpt>
      <trkpt lat="46.97368" lon="3.32153">
        <ele>275.62786865234</ele>
        <time>2016-04-03T09:53:14.000Z</time>
      </trkpt>
      <trkpt lat="46.97363" lon="3.32152">
        <ele>275.73138427734</ele>
        <time>2016-04-03T09:53:18.000Z</time>
      </trkpt>
      <trkpt lat="46.97362" lon="3.32153">
        <ele>275.83969116211</ele>
        <time>2016-04-03T09:53:19.000Z</time>
      </trkpt>
      <trkpt lat="46.97361" lon="3.32155">
        <ele>275.97961425781</ele>
        <time>2016-04-03T09:53:28.000Z</time>
      </trkpt>
      <trkpt lat="46.97355" lon="3.32158">
        <ele>276.18310546875</ele>
        <time>2016-04-03T09:53:29.000Z</time>
      </trkpt>
      <trkpt lat="46.97353" lon="3.3216">
        <ele>276.40216064453</ele>
        <time>2016-04-03T09:53:30.000Z</time>
      </trkpt>
      <trkpt lat="46.9735" lon="3.32161">
        <ele>276.61129760742</ele>
        <time>2016-04-03T09:53:31.000Z</time>
      </trkpt>
      <trkpt lat="46.97349" lon="3.32161">
        <ele>276.81451416016</ele>
        <time>2016-04-03T09:53:36.000Z</time>
      </trkpt>
      <trkpt lat="46.97345" lon="3.32159">
        <ele>276.99353027344</ele>
        <time>2016-04-03T09:53:37.000Z</time>
      </trkpt>
      <trkpt lat="46.97341" lon="3.32159">
        <ele>277.11431884766</ele>
        <time>2016-04-03T09:53:38.000Z</time>
      </trkpt>
      <trkpt lat="46.97337" lon="3.32161">
        <ele>277.25015258789</ele>
        <time>2016-04-03T09:53:42.000Z</time>
      </trkpt>
      <trkpt lat="46.97334" lon="3.32161">
        <ele>277.38473510742</ele>
        <time>2016-04-03T09:53:46.000Z</time>
      </trkpt>
      <trkpt lat="46.97332" lon="3.32163">
        <ele>277.53265380859</ele>
        <time>2016-04-03T09:53:47.000Z</time>
      </trkpt>
      <trkpt lat="46.97329" lon="3.32167">
        <ele>277.71636962891</ele>
        <time>2016-04-03T09:53:49.000Z</time>
      </trkpt>
      <trkpt lat="46.97326" lon="3.32168">
        <ele>277.89151000977</ele>
        <time>2016-04-03T09:53:50.000Z</time>
      </trkpt>
      <trkpt lat="46.97323" lon="3.3217">
        <ele>278.04843139648</ele>
        <time>2016-04-03T09:53:53.000Z</time>
      </trkpt>
      <trkpt lat="46.9732" lon="3.3217">
        <ele>278.18856811523</ele>
        <time>2016-04-03T09:53:55.000Z</time>
      </trkpt>
      <trkpt lat="46.97318" lon="3.32171">
        <ele>278.31420898438</ele>
        <time>2016-04-03T09:53:58.000Z</time>
      </trkpt>
      <trkpt lat="46.97316" lon="3.32172">
        <ele>278.40942382812</ele>
        <time>2016-04-03T09:53:59.000Z</time>
      </trkpt>
      <trkpt lat="46.97314" lon="3.32172">
        <ele>278.4892578125</ele>
        <time>2016-04-03T09:54:01.000Z</time>
      </trkpt>
      <trkpt lat="46.97311" lon="3.32172">
        <ele>278.54418945312</ele>
        <time>2016-04-03T09:54:04.000Z</time>
      </trkpt>
      <trkpt lat="46.97308" lon="3.32175">
        <ele>278.64733886719</ele>
        <time>2016-04-03T09:54:07.000Z</time>
      </trkpt>
      <trkpt lat="46.97306" lon="3.32178">
        <ele>278.77673339844</ele>
        <time>2016-04-03T09:54:09.000Z</time>
      </trkpt>
      <trkpt lat="46.97305" lon="3.3218">
        <ele>278.91491699219</ele>
        <time>2016-04-03T09:54:15.000Z</time>
      </trkpt>
      <trkpt lat="46.97301" lon="3.32182">
        <ele>279.10095214844</ele>
        <time>2016-04-03T09:54:17.000Z</time>
      </trkpt>
      <trkpt lat="46.97297" lon="3.32182">
        <ele>279.28076171875</ele>
        <time>2016-04-03T09:54:18.000Z</time>
      </trkpt>
      <trkpt lat="46.97294" lon="3.32183">
        <ele>279.42102050781</ele>
        <time>2016-04-03T09:54:21.000Z</time>
      </trkpt>
      <trkpt lat="46.97292" lon="3.32183">
        <ele>279.53125</ele>
        <time>2016-04-03T09:54:24.000Z</time>
      </trkpt>
      <trkpt lat="46.97291" lon="3.32185">
        <ele>279.64660644531</ele>
        <time>2016-04-03T09:54:27.000Z</time>
      </trkpt>
      <trkpt lat="46.97289" lon="3.32187">
        <ele>279.73803710938</ele>
        <time>2016-04-03T09:54:33.000Z</time>
      </trkpt>
      <trkpt lat="46.97285" lon="3.32188">
        <ele>279.85083007812</ele>
        <time>2016-04-03T09:54:37.000Z</time>
      </trkpt>
      <trkpt lat="46.97281" lon="3.3219">
        <ele>279.984375</ele>
        <time>2016-04-03T09:54:39.000Z</time>
      </trkpt>
      <trkpt lat="46.9728" lon="3.32192">
        <ele>280.13854980469</ele>
        <time>2016-04-03T09:54:41.000Z</time>
      </trkpt>
      <trkpt lat="46.97278" lon="3.32196">
        <ele>280.31945800781</ele>
        <time>2016-04-03T09:54:44.000Z</time>
      </trkpt>
      <trkpt lat="46.97274" lon="3.32198">
        <ele>280.51745605469</ele>
        <time>2016-04-03T09:54:47.000Z</time>
      </trkpt>
      <trkpt lat="46.97271" lon="3.322">
        <ele>280.72412109375</ele>
        <time>2016-04-03T09:54:50.000Z</time>
      </trkpt>
      <trkpt lat="46.97269" lon="3.32201">
        <ele>280.91235351562</ele>
        <time>2016-04-03T09:54:52.000Z</time>
      </trkpt>
      <trkpt lat="46.97266" lon="3.32205">
        <ele>281.12951660156</ele>
        <time>2016-04-03T09:54:55.000Z</time>
      </trkpt>
      <trkpt lat="46.97264" lon="3.32206">
        <ele>281.31127929688</ele>
        <time>2016-04-03T09:54:57.000Z</time>
      </trkpt>
      <trkpt lat="46.97261" lon="3.32209">
        <ele>281.50573730469</ele>
        <time>2016-04-03T09:55:02.000Z</time>
      </trkpt>
      <trkpt lat="46.97259" lon="3.32212">
        <ele>281.70141601562</ele>
        <time>2016-04-03T09:55:02.000Z</time>
      </trkpt>
      <trkpt lat="46.97257" lon="3.32213">
        <ele>281.89953613281</ele>
        <time>2016-04-03T09:55:06.000Z</time>
      </trkpt>
      <trkpt lat="46.97255" lon="3.32214">
        <ele>282.060546875</ele>
        <time>2016-04-03T09:55:07.000Z</time>
      </trkpt>
      <trkpt lat="46.97254" lon="3.32217">
        <ele>282.24072265625</ele>
        <time>2016-04-03T09:55:09.000Z</time>
      </trkpt>
      <trkpt lat="46.97249" lon="3.32222">
        <ele>282.45336914062</ele>
        <time>2016-04-03T09:55:12.000Z</time>
      </trkpt>
      <trkpt lat="46.97247" lon="3.32225">
        <ele>282.68017578125</ele>
        <time>2016-04-03T09:55:15.000Z</time>
      </trkpt>
      <trkpt lat="46.97245" lon="3.32229">
        <ele>282.94055175781</ele>
        <time>2016-04-03T09:55:22.000Z</time>
      </trkpt>
      <trkpt lat="46.97242" lon="3.3223">
        <ele>283.20397949219</ele>
        <time>2016-04-03T09:55:24.000Z</time>
      </trkpt>
      <trkpt lat="46.9724" lon="3.32232">
        <ele>283.451171875</ele>
        <time>2016-04-03T09:55:25.000Z</time>
      </trkpt>
      <trkpt lat="46.97239" lon="3.32234">
        <ele>283.64086914062</ele>
        <time>2016-04-03T09:55:25.000Z</time>
      </trkpt>
      <trkpt lat="46.97237" lon="3.32237">
        <ele>283.82836914062</ele>
        <time>2016-04-03T09:55:27.000Z</time>
      </trkpt>
      <trkpt lat="46.97235" lon="3.3224">
        <ele>284.01501464844</ele>
        <time>2016-04-03T09:55:30.000Z</time>
      </trkpt>
      <trkpt lat="46.97234" lon="3.32241">
        <ele>284.19274902344</ele>
        <time>2016-04-03T09:55:32.000Z</time>
      </trkpt>
      <trkpt lat="46.97232" lon="3.32244">
        <ele>284.39318847656</ele>
        <time>2016-04-03T09:55:35.000Z</time>
      </trkpt>
      <trkpt lat="46.97229" lon="3.32247">
        <ele>284.60107421875</ele>
        <time>2016-04-03T09:55:38.000Z</time>
      </trkpt>
      <trkpt lat="46.97226" lon="3.3225">
        <ele>284.81518554688</ele>
        <time>2016-04-03T09:55:42.000Z</time>
      </trkpt>
      <trkpt lat="46.97225" lon="3.32253">
        <ele>285.00549316406</ele>
        <time>2016-04-03T09:55:45.000Z</time>
      </trkpt>
      <trkpt lat="46.97224" lon="3.32254">
        <ele>285.19302368164</ele>
        <time>2016-04-03T09:55:46.000Z</time>
      </trkpt>
      <trkpt lat="46.9722" lon="3.32257">
        <ele>285.35916137695</ele>
        <time>2016-04-03T09:55:49.000Z</time>
      </trkpt>
      <trkpt lat="46.97218" lon="3.32257">
        <ele>285.49163818359</ele>
        <time>2016-04-03T09:55:53.000Z</time>
      </trkpt>
      <trkpt lat="46.97215" lon="3.32262">
        <ele>285.61141967773</ele>
        <time>2016-04-03T09:55:58.000Z</time>
      </trkpt>
      <trkpt lat="46.97211" lon="3.32266">
        <ele>285.74240112305</ele>
        <time>2016-04-03T09:55:59.000Z</time>
      </trkpt>
      <trkpt lat="46.97208" lon="3.32269">
        <ele>285.88488769531</ele>
        <time>2016-04-03T09:55:59.000Z</time>
      </trkpt>
      <trkpt lat="46.97204" lon="3.32271">
        <ele>286.01715087891</ele>
        <time>2016-04-03T09:56:03.000Z</time>
      </trkpt>
      <trkpt lat="46.97202" lon="3.32273">
        <ele>286.15875244141</ele>
        <time>2016-04-03T09:56:04.000Z</time>
      </trkpt>
      <trkpt lat="46.97199" lon="3.32275">
        <ele>286.27798461914</ele>
        <time>2016-04-03T09:56:09.000Z</time>
      </trkpt>
      <trkpt lat="46.97198" lon="3.32279">
        <ele>286.37939453125</ele>
        <time>2016-04-03T09:56:10.000Z</time>
      </trkpt>
      <trkpt lat="46.97198" lon="3.32283">
        <ele>286.47869873047</ele>
        <time>2016-04-03T09:56:14.000Z</time>
      </trkpt>
      <trkpt lat="46.97195" lon="3.32284">
        <ele>286.56829833984</ele>
        <time>2016-04-03T09:56:15.000Z</time>
      </trkpt>
      <trkpt lat="46.97193" lon="3.32286">
        <ele>286.66070556641</ele>
        <time>2016-04-03T09:56:17.000Z</time>
      </trkpt>
      <trkpt lat="46.97192" lon="3.32291">
        <ele>286.76275634766</ele>
        <time>2016-04-03T09:56:20.000Z</time>
      </trkpt>
      <trkpt lat="46.9719" lon="3.32295">
        <ele>286.86557006836</ele>
        <time>2016-04-03T09:56:23.000Z</time>
      </trkpt>
      <trkpt lat="46.97187" lon="3.323">
        <ele>286.97314453125</ele>
        <time>2016-04-03T09:56:25.000Z</time>
      </trkpt>
      <trkpt lat="46.97186" lon="3.32302">
        <ele>287.08828735352</ele>
        <time>2016-04-03T09:56:27.000Z</time>
      </trkpt>
      <trkpt lat="46.97184" lon="3.32305">
        <ele>287.20013427734</ele>
        <time>2016-04-03T09:56:30.000Z</time>
      </trkpt>
      <trkpt lat="46.97182" lon="3.32308">
        <ele>287.29779052734</ele>
        <time>2016-04-03T09:56:33.000Z</time>
      </trkpt>
      <trkpt lat="46.97179" lon="3.32311">
        <ele>287.38543701172</ele>
        <time>2016-04-03T09:56:36.000Z</time>
      </trkpt>
      <trkpt lat="46.97177" lon="3.32313">
        <ele>287.45166015625</ele>
        <time>2016-04-03T09:56:38.000Z</time>
      </trkpt>
      <trkpt lat="46.97174" lon="3.32315">
        <ele>287.51300048828</ele>
        <time>2016-04-03T09:56:41.000Z</time>
      </trkpt>
      <trkpt lat="46.97173" lon="3.32317">
        <ele>287.56723022461</ele>
        <time>2016-04-03T09:56:43.000Z</time>
      </trkpt>
      <trkpt lat="46.97171" lon="3.32322">
        <ele>287.62750244141</ele>
        <time>2016-04-03T09:56:46.000Z</time>
      </trkpt>
      <trkpt lat="46.97168" lon="3.32326">
        <ele>287.68688964844</ele>
        <time>2016-04-03T09:56:48.000Z</time>
      </trkpt>
      <trkpt lat="46.97165" lon="3.32327">
        <ele>287.74029541016</ele>
        <time>2016-04-03T09:56:53.000Z</time>
      </trkpt>
      <trkpt lat="46.97161" lon="3.32328">
        <ele>287.78741455078</ele>
        <time>2016-04-03T09:56:53.000Z</time>
      </trkpt>
      <trkpt lat="46.9716" lon="3.3233">
        <ele>287.83694458008</ele>
        <time>2016-04-03T09:56:57.000Z</time>
      </trkpt>
      <trkpt lat="46.9716" lon="3.32333">
        <ele>287.88305664062</ele>
        <time>2016-04-03T09:56:58.000Z</time>
      </trkpt>
      <trkpt lat="46.97158" lon="3.32337">
        <ele>287.94470214844</ele>
        <time>2016-04-03T09:57:01.000Z</time>
      </trkpt>
      <trkpt lat="46.97155" lon="3.32343">
        <ele>288.04354858398</ele>
        <time>2016-04-03T09:57:04.000Z</time>
      </trkpt>
      <trkpt lat="46.97153" lon="3.32345">
        <ele>288.14752197266</ele>
        <time>2016-04-03T09:57:06.000Z</time>
      </trkpt>
      <trkpt lat="46.97153" lon="3.32349">
        <ele>288.27374267578</ele>
        <time>2016-04-03T09:57:09.000Z</time>
      </trkpt>
      <trkpt lat="46.97152" lon="3.32353">
        <ele>288.40939331055</ele>
        <time>2016-04-03T09:57:11.000Z</time>
      </trkpt>
      <trkpt lat="46.9715" lon="3.32358">
        <ele>288.54559326172</ele>
        <time>2016-04-03T09:57:15.000Z</time>
      </trkpt>
      <trkpt lat="46.97148" lon="3.32361">
        <ele>288.66192626953</ele>
        <time>2016-04-03T09:57:17.000Z</time>
      </trkpt>
      <trkpt lat="46.97145" lon="3.32364">
        <ele>288.79049682617</ele>
        <time>2016-04-03T09:57:20.000Z</time>
      </trkpt>
      <trkpt lat="46.97144" lon="3.32368">
        <ele>288.90924072266</ele>
        <time>2016-04-03T09:57:24.000Z</time>
      </trkpt>
      <trkpt lat="46.97141" lon="3.32371">
        <ele>289.0212097168</ele>
        <time>2016-04-03T09:57:26.000Z</time>
      </trkpt>
      <trkpt lat="46.97139" lon="3.32374">
        <ele>289.11810302734</ele>
        <time>2016-04-03T09:57:29.000Z</time>
      </trkpt>
      <trkpt lat="46.97136" lon="3.32377">
        <ele>289.20913696289</ele>
        <time>2016-04-03T09:57:32.000Z</time>
      </trkpt>
      <trkpt lat="46.97132" lon="3.32381">
        <ele>289.30029296875</ele>
        <time>2016-04-03T09:57:36.000Z</time>
      </trkpt>
      <trkpt lat="46.97129" lon="3.32383">
        <ele>289.37768554688</ele>
        <time>2016-04-03T09:57:38.000Z</time>
      </trkpt>
      <trkpt lat="46.97126" lon="3.32388">
        <ele>289.46105957031</ele>
        <time>2016-04-03T09:57:42.000Z</time>
      </trkpt>
      <trkpt lat="46.97124" lon="3.3239">
        <ele>289.54302978516</ele>
        <time>2016-04-03T09:57:43.000Z</time>
      </trkpt>
      <trkpt lat="46.97124" lon="3.32392">
        <ele>289.61807250977</ele>
        <time>2016-04-03T09:57:45.000Z</time>
      </trkpt>
      <trkpt lat="46.97122" lon="3.32399">
        <ele>289.70886230469</ele>
        <time>2016-04-03T09:57:48.000Z</time>
      </trkpt>
      <trkpt lat="46.97122" lon="3.32404">
        <ele>289.82562255859</ele>
        <time>2016-04-03T09:57:51.000Z</time>
      </trkpt>
      <trkpt lat="46.97119" lon="3.3241">
        <ele>289.9460144043</ele>
        <time>2016-04-03T09:57:54.000Z</time>
      </trkpt>
      <trkpt lat="46.9712" lon="3.32415">
        <ele>290.08093261719</ele>
        <time>2016-04-03T09:57:57.000Z</time>
      </trkpt>
      <trkpt lat="46.97119" lon="3.32417">
        <ele>290.21762084961</ele>
        <time>2016-04-03T09:57:59.000Z</time>
      </trkpt>
      <trkpt lat="46.97118" lon="3.3242">
        <ele>290.31253051758</ele>
        <time>2016-04-03T09:58:02.000Z</time>
      </trkpt>
      <trkpt lat="46.97117" lon="3.32422">
        <ele>290.36944580078</ele>
        <time>2016-04-03T09:58:06.000Z</time>
      </trkpt>
      <trkpt lat="46.97116" lon="3.32424">
        <ele>290.39599609375</ele>
        <time>2016-04-03T09:58:07.000Z</time>
      </trkpt>
      <trkpt lat="46.97116" lon="3.32427">
        <ele>290.39190673828</ele>
        <time>2016-04-03T09:58:10.000Z</time>
      </trkpt>
      <trkpt lat="46.97115" lon="3.32428">
        <ele>290.37658691406</ele>
        <time>2016-04-03T09:58:12.000Z</time>
      </trkpt>
      <trkpt lat="46.97114" lon="3.3243">
        <ele>290.35952758789</ele>
        <time>2016-04-03T09:58:15.000Z</time>
      </trkpt>
      <trkpt lat="46.97113" lon="3.32437">
        <ele>290.33770751953</ele>
        <time>2016-04-03T09:58:17.000Z</time>
      </trkpt>
      <trkpt lat="46.97109" lon="3.32446">
        <ele>290.29879760742</ele>
        <time>2016-04-03T09:58:20.000Z</time>
      </trkpt>
      <trkpt lat="46.97108" lon="3.3245">
        <ele>290.25140380859</ele>
        <time>2016-04-03T09:58:22.000Z</time>
      </trkpt>
      <trkpt lat="46.97105" lon="3.32455">
        <ele>290.18954467773</ele>
        <time>2016-04-03T09:58:25.000Z</time>
      </trkpt>
      <trkpt lat="46.97104" lon="3.32456">
        <ele>290.12725830078</ele>
        <time>2016-04-03T09:58:27.000Z</time>
      </trkpt>
      <trkpt lat="46.971" lon="3.3246">
        <ele>290.04867553711</ele>
        <time>2016-04-03T09:58:29.000Z</time>
      </trkpt>
      <trkpt lat="46.97097" lon="3.32462">
        <ele>289.97512817383</ele>
        <time>2016-04-03T09:58:32.000Z</time>
      </trkpt>
      <trkpt lat="46.97096" lon="3.32463">
        <ele>289.90292358398</ele>
        <time>2016-04-03T09:58:34.000Z</time>
      </trkpt>
      <trkpt lat="46.97094" lon="3.32464">
        <ele>289.83862304688</ele>
        <time>2016-04-03T09:58:36.000Z</time>
      </trkpt>
      <trkpt lat="46.97092" lon="3.32465">
        <ele>289.76742553711</ele>
        <time>2016-04-03T09:58:38.000Z</time>
      </trkpt>
      <trkpt lat="46.97089" lon="3.32468">
        <ele>289.69799804688</ele>
        <time>2016-04-03T09:58:42.000Z</time>
      </trkpt>
      <trkpt lat="46.97088" lon="3.3247">
        <ele>289.63287353516</ele>
        <time>2016-04-03T09:58:43.000Z</time>
      </trkpt>
      <trkpt lat="46.97087" lon="3.32474">
        <ele>289.56021118164</ele>
        <time>2016-04-03T09:58:45.000Z</time>
      </trkpt>
      <trkpt lat="46.97085" lon="3.32477">
        <ele>289.482421875</ele>
        <time>2016-04-03T09:58:48.000Z</time>
      </trkpt>
      <trkpt lat="46.97083" lon="3.32481">
        <ele>289.392578125</ele>
        <time>2016-04-03T09:58:50.000Z</time>
      </trkpt>
      <trkpt lat="46.97078" lon="3.32486">
        <ele>289.27191162109</ele>
        <time>2016-04-03T09:58:54.000Z</time>
      </trkpt>
      <trkpt lat="46.97075" lon="3.32491">
        <ele>289.11099243164</ele>
        <time>2016-04-03T09:58:56.000Z</time>
      </trkpt>
      <trkpt lat="46.97072" lon="3.32494">
        <ele>288.93862915039</ele>
        <time>2016-04-03T09:58:59.000Z</time>
      </trkpt>
      <trkpt lat="46.97071" lon="3.32497">
        <ele>288.76025390625</ele>
        <time>2016-04-03T09:59:01.000Z</time>
      </trkpt>
      <trkpt lat="46.97068" lon="3.32499">
        <ele>288.5732421875</ele>
        <time>2016-04-03T09:59:06.000Z</time>
      </trkpt>
      <trkpt lat="46.97064" lon="3.32501">
        <ele>288.39297485352</ele>
        <time>2016-04-03T09:59:07.000Z</time>
      </trkpt>
      <trkpt lat="46.97063" lon="3.32503">
        <ele>288.23254394531</ele>
        <time>2016-04-03T09:59:09.000Z</time>
      </trkpt>
      <trkpt lat="46.9706" lon="3.32506">
        <ele>288.04800415039</ele>
        <time>2016-04-03T09:59:12.000Z</time>
      </trkpt>
      <trkpt lat="46.97058" lon="3.32507">
        <ele>287.86334228516</ele>
        <time>2016-04-03T09:59:14.000Z</time>
      </trkpt>
      <trkpt lat="46.97057" lon="3.32509">
        <ele>287.68670654297</ele>
        <time>2016-04-03T09:59:26.000Z</time>
      </trkpt>
      <trkpt lat="46.97055" lon="3.32511">
        <ele>287.51556396484</ele>
        <time>2016-04-03T09:59:34.000Z</time>
      </trkpt>
      <trkpt lat="46.97052" lon="3.32517">
        <ele>287.29681396484</ele>
        <time>2016-04-03T09:59:48.000Z</time>
      </trkpt>
      <trkpt lat="46.97052" lon="3.32524">
        <ele>287.07736206055</ele>
        <time>2016-04-03T10:00:02.000Z</time>
      </trkpt>
      <trkpt lat="46.97051" lon="3.32529">
        <ele>286.83248901367</ele>
        <time>2016-04-03T10:00:11.000Z</time>
      </trkpt>
      <trkpt lat="46.97051" lon="3.3253">
        <ele>286.60012817383</ele>
        <time>2016-04-03T10:00:29.000Z</time>
      </trkpt>
      <trkpt lat="46.97051" lon="3.32532">
        <ele>286.39782714844</ele>
        <time>2016-04-03T10:00:31.000Z</time>
      </trkpt>
      <trkpt lat="46.9705" lon="3.32533">
        <ele>286.2451171875</ele>
        <time>2016-04-03T10:00:35.000Z</time>
      </trkpt>
      <trkpt lat="46.97048" lon="3.32534">
        <ele>286.12893676758</ele>
        <time>2016-04-03T10:00:41.000Z</time>
      </trkpt>
      <trkpt lat="46.97046" lon="3.32534">
        <ele>286.03619384766</ele>
        <time>2016-04-03T10:00:42.000Z</time>
      </trkpt>
      <trkpt lat="46.97044" lon="3.32535">
        <ele>285.92156982422</ele>
        <time>2016-04-03T10:00:47.000Z</time>
      </trkpt>
      <trkpt lat="46.97042" lon="3.32537">
        <ele>285.78555297852</ele>
        <time>2016-04-03T10:00:49.000Z</time>
      </trkpt>
      <trkpt lat="46.97038" lon="3.32539">
        <ele>285.61450195312</ele>
        <time>2016-04-03T10:00:50.000Z</time>
      </trkpt>
      <trkpt lat="46.97036" lon="3.3254">
        <ele>285.4365234375</ele>
        <time>2016-04-03T10:00:51.000Z</time>
      </trkpt>
      <trkpt lat="46.97034" lon="3.32541">
        <ele>285.25042724609</ele>
        <time>2016-04-03T10:00:52.000Z</time>
      </trkpt>
      <trkpt lat="46.97031" lon="3.32542">
        <ele>285.04144287109</ele>
        <time>2016-04-03T10:00:55.000Z</time>
      </trkpt>
      <trkpt lat="46.97028" lon="3.32545">
        <ele>284.8088684082</ele>
        <time>2016-04-03T10:00:59.000Z</time>
      </trkpt>
      <trkpt lat="46.97028" lon="3.32545">
        <ele>284.8088684082</ele>
        <time>2016-04-03T10:01:23.000Z</time>
      </trkpt>
      <trkpt lat="46.97025" lon="3.32547">
        <ele>284.59606933594</ele>
        <time>2016-04-03T10:01:29.000Z</time>
      </trkpt>
      <trkpt lat="46.97023" lon="3.3255">
        <ele>284.35293579102</ele>
        <time>2016-04-03T10:01:32.000Z</time>
      </trkpt>
      <trkpt lat="46.9702" lon="3.32553">
        <ele>284.09234619141</ele>
        <time>2016-04-03T10:01:32.000Z</time>
      </trkpt>
      <trkpt lat="46.97018" lon="3.32556">
        <ele>283.83453369141</ele>
        <time>2016-04-03T10:01:33.000Z</time>
      </trkpt>
      <trkpt lat="46.97014" lon="3.32561">
        <ele>283.54360961914</ele>
        <time>2016-04-03T10:01:34.000Z</time>
      </trkpt>
      <trkpt lat="46.9701" lon="3.32565">
        <ele>283.21566772461</ele>
        <time>2016-04-03T10:01:34.000Z</time>
      </trkpt>
      <trkpt lat="46.97008" lon="3.32568">
        <ele>282.88632202148</ele>
        <time>2016-04-03T10:01:35.000Z</time>
      </trkpt>
      <trkpt lat="46.97005" lon="3.32569">
        <ele>282.56680297852</ele>
        <time>2016-04-03T10:01:37.000Z</time>
      </trkpt>
      <trkpt lat="46.97001" lon="3.3257">
        <ele>282.24160766602</ele>
        <time>2016-04-03T10:01:37.000Z</time>
      </trkpt>
      <trkpt lat="46.96999" lon="3.32573">
        <ele>281.95745849609</ele>
        <time>2016-04-03T10:01:38.000Z</time>
      </trkpt>
      <trkpt lat="46.96997" lon="3.32575">
        <ele>281.70098876953</ele>
        <time>2016-04-03T10:01:38.000Z</time>
      </trkpt>
      <trkpt lat="46.96994" lon="3.32575">
        <ele>281.45245361328</ele>
        <time>2016-04-03T10:01:39.000Z</time>
      </trkpt>
      <trkpt lat="46.96991" lon="3.32577">
        <ele>281.1946105957</ele>
        <time>2016-04-03T10:01:39.000Z</time>
      </trkpt>
      <trkpt lat="46.96989" lon="3.32578">
        <ele>280.95452880859</ele>
        <time>2016-04-03T10:01:40.000Z</time>
      </trkpt>
      <trkpt lat="46.96986" lon="3.3258">
        <ele>280.69418334961</ele>
        <time>2016-04-03T10:01:40.000Z</time>
      </trkpt>
      <trkpt lat="46.96984" lon="3.32581">
        <ele>280.45254516602</ele>
        <time>2016-04-03T10:01:42.000Z</time>
      </trkpt>
      <trkpt lat="46.96981" lon="3.32582">
        <ele>280.2138671875</ele>
        <time>2016-04-03T10:01:44.000Z</time>
      </trkpt>
      <trkpt lat="46.96977" lon="3.32584">
        <ele>279.93170166016</ele>
        <time>2016-04-03T10:01:46.000Z</time>
      </trkpt>
      <trkpt lat="46.96975" lon="3.32585">
        <ele>279.662109375</ele>
        <time>2016-04-03T10:01:49.000Z</time>
      </trkpt>
      <trkpt lat="46.96972" lon="3.32589">
        <ele>279.38641357422</ele>
        <time>2016-04-03T10:01:51.000Z</time>
      </trkpt>
      <trkpt lat="46.96968" lon="3.32593">
        <ele>279.07061767578</ele>
        <time>2016-04-03T10:01:54.000Z</time>
      </trkpt>
      <trkpt lat="46.96966" lon="3.32598">
        <ele>278.74438476562</ele>
        <time>2016-04-03T10:02:02.000Z</time>
      </trkpt>
      <trkpt lat="46.96964" lon="3.32599">
        <ele>278.47229003906</ele>
        <time>2016-04-03T10:02:03.000Z</time>
      </trkpt>
      <trkpt lat="46.96961" lon="3.32604">
        <ele>278.15762329102</ele>
        <time>2016-04-03T10:02:04.000Z</time>
      </trkpt>
      <trkpt lat="46.96959" lon="3.32607">
        <ele>277.86874389648</ele>
        <time>2016-04-03T10:02:05.000Z</time>
      </trkpt>
      <trkpt lat="46.96957" lon="3.32611">
        <ele>277.61041259766</ele>
        <time>2016-04-03T10:02:08.000Z</time>
      </trkpt>
      <trkpt lat="46.96955" lon="3.32614">
        <ele>277.36480712891</ele>
        <time>2016-04-03T10:02:11.000Z</time>
      </trkpt>
      <trkpt lat="46.96953" lon="3.3262">
        <ele>277.08673095703</ele>
        <time>2016-04-03T10:02:14.000Z</time>
      </trkpt>
      <trkpt lat="46.96953" lon="3.32626">
        <ele>276.84045410156</ele>
        <time>2016-04-03T10:02:19.000Z</time>
      </trkpt>
      <trkpt lat="46.96951" lon="3.32628">
        <ele>276.61553955078</ele>
        <time>2016-04-03T10:02:26.000Z</time>
      </trkpt>
      <trkpt lat="46.96951" lon="3.32632">
        <ele>276.40228271484</ele>
        <time>2016-04-03T10:02:28.000Z</time>
      </trkpt>
      <trkpt lat="46.9695" lon="3.32644">
        <ele>276.15798950195</ele>
        <time>2016-04-03T10:02:36.000Z</time>
      </trkpt>
      <trkpt lat="46.96949" lon="3.3265">
        <ele>275.93588256836</ele>
        <time>2016-04-03T10:02:38.000Z</time>
      </trkpt>
      <trkpt lat="46.96947" lon="3.32654">
        <ele>275.70147705078</ele>
        <time>2016-04-03T10:02:42.000Z</time>
      </trkpt>
      <trkpt lat="46.96947" lon="3.32658">
        <ele>275.47018432617</ele>
        <time>2016-04-03T10:02:43.000Z</time>
      </trkpt>
      <trkpt lat="46.96944" lon="3.32666">
        <ele>275.20303344727</ele>
        <time>2016-04-03T10:02:46.000Z</time>
      </trkpt>
      <trkpt lat="46.96943" lon="3.32669">
        <ele>274.95541381836</ele>
        <time>2016-04-03T10:02:49.000Z</time>
      </trkpt>
      <trkpt lat="46.96941" lon="3.32672">
        <ele>274.69088745117</ele>
        <time>2016-04-03T10:02:52.000Z</time>
      </trkpt>
      <trkpt lat="46.96939" lon="3.32676">
        <ele>274.41299438477</ele>
        <time>2016-04-03T10:02:54.000Z</time>
      </trkpt>
      <trkpt lat="46.96938" lon="3.32682">
        <ele>274.06976318359</ele>
        <time>2016-04-03T10:02:58.000Z</time>
      </trkpt>
      <trkpt lat="46.96936" lon="3.32686">
        <ele>273.73394775391</ele>
        <time>2016-04-03T10:03:00.000Z</time>
      </trkpt>
      <trkpt lat="46.96935" lon="3.32689">
        <ele>273.39855957031</ele>
        <time>2016-04-03T10:03:04.000Z</time>
      </trkpt>
      <trkpt lat="46.96933" lon="3.32692">
        <ele>273.07080078125</ele>
        <time>2016-04-03T10:03:06.000Z</time>
      </trkpt>
      <trkpt lat="46.96932" lon="3.32697">
        <ele>272.73114013672</ele>
        <time>2016-04-03T10:03:09.000Z</time>
      </trkpt>
      <trkpt lat="46.9693" lon="3.327">
        <ele>272.42718505859</ele>
        <time>2016-04-03T10:03:11.000Z</time>
      </trkpt>
      <trkpt lat="46.96929" lon="3.32702">
        <ele>272.14004516602</ele>
        <time>2016-04-03T10:03:13.000Z</time>
      </trkpt>
      <trkpt lat="46.96926" lon="3.32706">
        <ele>271.8427734375</ele>
        <time>2016-04-03T10:03:16.000Z</time>
      </trkpt>
      <trkpt lat="46.96925" lon="3.32708">
        <ele>271.55346679688</ele>
        <time>2016-04-03T10:03:18.000Z</time>
      </trkpt>
      <trkpt lat="46.96923" lon="3.32711">
        <ele>271.28186035156</ele>
        <time>2016-04-03T10:03:21.000Z</time>
      </trkpt>
      <trkpt lat="46.96922" lon="3.32713">
        <ele>271.02215576172</ele>
        <time>2016-04-03T10:03:23.000Z</time>
      </trkpt>
      <trkpt lat="46.96921" lon="3.32716">
        <ele>270.76397705078</ele>
        <time>2016-04-03T10:03:28.000Z</time>
      </trkpt>
      <trkpt lat="46.96919" lon="3.32718">
        <ele>270.52261352539</ele>
        <time>2016-04-03T10:03:31.000Z</time>
      </trkpt>
      <trkpt lat="46.96917" lon="3.32722">
        <ele>270.25354003906</ele>
        <time>2016-04-03T10:03:33.000Z</time>
      </trkpt>
      <trkpt lat="46.96913" lon="3.32727">
        <ele>269.98693847656</ele>
        <time>2016-04-03T10:03:36.000Z</time>
      </trkpt>
      <trkpt lat="46.96911" lon="3.3273">
        <ele>269.72705078125</ele>
        <time>2016-04-03T10:03:39.000Z</time>
      </trkpt>
      <trkpt lat="46.96909" lon="3.32733">
        <ele>269.46597290039</ele>
        <time>2016-04-03T10:03:43.000Z</time>
      </trkpt>
      <trkpt lat="46.96907" lon="3.32736">
        <ele>269.22222900391</ele>
        <time>2016-04-03T10:03:45.000Z</time>
      </trkpt>
      <trkpt lat="46.96905" lon="3.32741">
        <ele>268.99429321289</ele>
        <time>2016-04-03T10:03:55.000Z</time>
      </trkpt>
      <trkpt lat="46.96904" lon="3.32742">
        <ele>268.8154296875</ele>
        <time>2016-04-03T10:03:57.000Z</time>
      </trkpt>
      <trkpt lat="46.96902" lon="3.32744">
        <ele>268.64208984375</ele>
        <time>2016-04-03T10:04:00.000Z</time>
      </trkpt>
      <trkpt lat="46.96901" lon="3.32751">
        <ele>268.43005371094</ele>
        <time>2016-04-03T10:04:03.000Z</time>
      </trkpt>
      <trkpt lat="46.96897" lon="3.32757">
        <ele>268.15155029297</ele>
        <time>2016-04-03T10:04:06.000Z</time>
      </trkpt>
      <trkpt lat="46.96894" lon="3.32759">
        <ele>267.89300537109</ele>
        <time>2016-04-03T10:04:08.000Z</time>
      </trkpt>
      <trkpt lat="46.9689" lon="3.32763">
        <ele>267.57403564453</ele>
        <time>2016-04-03T10:04:11.000Z</time>
      </trkpt>
      <trkpt lat="46.96886" lon="3.32764">
        <ele>267.24713134766</ele>
        <time>2016-04-03T10:04:14.000Z</time>
      </trkpt>
      <trkpt lat="46.96883" lon="3.32767">
        <ele>266.94583129883</ele>
        <time>2016-04-03T10:04:17.000Z</time>
      </trkpt>
      <trkpt lat="46.96881" lon="3.32769">
        <ele>266.69799804688</ele>
        <time>2016-04-03T10:04:20.000Z</time>
      </trkpt>
      <trkpt lat="46.9688" lon="3.32771">
        <ele>266.45831298828</ele>
        <time>2016-04-03T10:04:22.000Z</time>
      </trkpt>
      <trkpt lat="46.96878" lon="3.32775">
        <ele>266.20477294922</ele>
        <time>2016-04-03T10:04:25.000Z</time>
      </trkpt>
      <trkpt lat="46.96875" lon="3.3278">
        <ele>265.88958740234</ele>
        <time>2016-04-03T10:04:28.000Z</time>
      </trkpt>
      <trkpt lat="46.96874" lon="3.32781">
        <ele>265.59796142578</ele>
        <time>2016-04-03T10:04:30.000Z</time>
      </trkpt>
      <trkpt lat="46.96874" lon="3.32782">
        <ele>265.33032226562</ele>
        <time>2016-04-03T10:04:34.000Z</time>
      </trkpt>
      <trkpt lat="46.96872" lon="3.32785">
        <ele>265.03988647461</ele>
        <time>2016-04-03T10:04:35.000Z</time>
      </trkpt>
      <trkpt lat="46.96869" lon="3.32789">
        <ele>264.74603271484</ele>
        <time>2016-04-03T10:04:40.000Z</time>
      </trkpt>
      <trkpt lat="46.96868" lon="3.32793">
        <ele>264.45175170898</ele>
        <time>2016-04-03T10:04:45.000Z</time>
      </trkpt>
      <trkpt lat="46.96865" lon="3.32796">
        <ele>264.13043212891</ele>
        <time>2016-04-03T10:04:47.000Z</time>
      </trkpt>
      <trkpt lat="46.96864" lon="3.32798">
        <ele>263.78402709961</ele>
        <time>2016-04-03T10:05:02.000Z</time>
      </trkpt>
      <trkpt lat="46.96863" lon="3.32797">
        <ele>263.48770141602</ele>
        <time>2016-04-03T10:05:03.000Z</time>
      </trkpt>
      <trkpt lat="46.96862" lon="3.32797">
        <ele>263.28033447266</ele>
        <time>2016-04-03T10:05:05.000Z</time>
      </trkpt>
      <trkpt lat="46.96861" lon="3.32798">
        <ele>263.1428527832</ele>
        <time>2016-04-03T10:05:19.000Z</time>
      </trkpt>
      <trkpt lat="46.96859" lon="3.32799">
        <ele>263.04449462891</ele>
        <time>2016-04-03T10:05:24.000Z</time>
      </trkpt>
      <trkpt lat="46.96857" lon="3.32799">
        <ele>262.96200561523</ele>
        <time>2016-04-03T10:05:28.000Z</time>
      </trkpt>
      <trkpt lat="46.96856" lon="3.32799">
        <ele>262.88983154297</ele>
        <time>2016-04-03T10:05:29.000Z</time>
      </trkpt>
      <trkpt lat="46.96853" lon="3.32798">
        <ele>262.8147277832</ele>
        <time>2016-04-03T10:05:30.000Z</time>
      </trkpt>
      <trkpt lat="46.96848" lon="3.32801">
        <ele>262.67733764648</ele>
        <time>2016-04-03T10:05:30.000Z</time>
      </trkpt>
      <trkpt lat="46.96844" lon="3.32802">
        <ele>262.51678466797</ele>
        <time>2016-04-03T10:05:33.000Z</time>
      </trkpt>
      <trkpt lat="46.96841" lon="3.32805">
        <ele>262.30325317383</ele>
        <time>2016-04-03T10:05:33.000Z</time>
      </trkpt>
      <trkpt lat="46.96838" lon="3.32806">
        <ele>262.04028320312</ele>
        <time>2016-04-03T10:05:34.000Z</time>
      </trkpt>
      <trkpt lat="46.96834" lon="3.32808">
        <ele>261.69161987305</ele>
        <time>2016-04-03T10:05:35.000Z</time>
      </trkpt>
      <trkpt lat="46.9683" lon="3.32813">
        <ele>261.32968139648</ele>
        <time>2016-04-03T10:05:35.000Z</time>
      </trkpt>
      <trkpt lat="46.96827" lon="3.32814">
        <ele>260.96392822266</ele>
        <time>2016-04-03T10:05:36.000Z</time>
      </trkpt>
      <trkpt lat="46.96824" lon="3.32817">
        <ele>260.62609863281</ele>
        <time>2016-04-03T10:05:39.000Z</time>
      </trkpt>
      <trkpt lat="46.96823" lon="3.32818">
        <ele>260.30508422852</ele>
        <time>2016-04-03T10:05:41.000Z</time>
      </trkpt>
      <trkpt lat="46.96819" lon="3.32821">
        <ele>259.99502563477</ele>
        <time>2016-04-03T10:05:44.000Z</time>
      </trkpt>
      <trkpt lat="46.96818" lon="3.32823">
        <ele>259.74533081055</ele>
        <time>2016-04-03T10:05:47.000Z</time>
      </trkpt>
      <trkpt lat="46.96815" lon="3.32828">
        <ele>259.43011474609</ele>
        <time>2016-04-03T10:05:51.000Z</time>
      </trkpt>
      <trkpt lat="46.96813" lon="3.32831">
        <ele>259.09283447266</ele>
        <time>2016-04-03T10:05:52.000Z</time>
      </trkpt>
      <trkpt lat="46.96811" lon="3.32833">
        <ele>258.72625732422</ele>
        <time>2016-04-03T10:05:56.000Z</time>
      </trkpt>
      <trkpt lat="46.96807" lon="3.32837">
        <ele>258.37908935547</ele>
        <time>2016-04-03T10:05:58.000Z</time>
      </trkpt>
      <trkpt lat="46.96805" lon="3.32838">
        <ele>258.05484008789</ele>
        <time>2016-04-03T10:06:00.000Z</time>
      </trkpt>
      <trkpt lat="46.96801" lon="3.3284">
        <ele>257.810546875</ele>
        <time>2016-04-03T10:06:03.000Z</time>
      </trkpt>
      <trkpt lat="46.96798" lon="3.32842">
        <ele>257.61022949219</ele>
        <time>2016-04-03T10:06:06.000Z</time>
      </trkpt>
      <trkpt lat="46.96796" lon="3.32843">
        <ele>257.45346069336</ele>
        <time>2016-04-03T10:06:14.000Z</time>
      </trkpt>
      <trkpt lat="46.96793" lon="3.32846">
        <ele>257.29992675781</ele>
        <time>2016-04-03T10:06:15.000Z</time>
      </trkpt>
      <trkpt lat="46.96791" lon="3.32849">
        <ele>257.11849975586</ele>
        <time>2016-04-03T10:06:16.000Z</time>
      </trkpt>
      <trkpt lat="46.9679" lon="3.3285">
        <ele>256.94552612305</ele>
        <time>2016-04-03T10:06:18.000Z</time>
      </trkpt>
      <trkpt lat="46.96789" lon="3.32851">
        <ele>256.79193115234</ele>
        <time>2016-04-03T10:06:21.000Z</time>
      </trkpt>
      <trkpt lat="46.96786" lon="3.32853">
        <ele>256.60928344727</ele>
        <time>2016-04-03T10:06:28.000Z</time>
      </trkpt>
      <trkpt lat="46.96785" lon="3.32854">
        <ele>256.45825195312</ele>
        <time>2016-04-03T10:06:28.000Z</time>
      </trkpt>
      <trkpt lat="46.96782" lon="3.32858">
        <ele>256.28375244141</ele>
        <time>2016-04-03T10:06:29.000Z</time>
      </trkpt>
      <trkpt lat="46.96777" lon="3.32863">
        <ele>256.04891967773</ele>
        <time>2016-04-03T10:06:33.000Z</time>
      </trkpt>
      <trkpt lat="46.96775" lon="3.32865">
        <ele>255.78530883789</ele>
        <time>2016-04-03T10:06:34.000Z</time>
      </trkpt>
      <trkpt lat="46.96773" lon="3.32868">
        <ele>255.50119018555</ele>
        <time>2016-04-03T10:06:36.000Z</time>
      </trkpt>
      <trkpt lat="46.9677" lon="3.32873">
        <ele>255.14431762695</ele>
        <time>2016-04-03T10:06:39.000Z</time>
      </trkpt>
      <trkpt lat="46.96769" lon="3.32876">
        <ele>254.8127746582</ele>
        <time>2016-04-03T10:06:42.000Z</time>
      </trkpt>
      <trkpt lat="46.96769" lon="3.3288">
        <ele>254.48776245117</ele>
        <time>2016-04-03T10:06:45.000Z</time>
      </trkpt>
      <trkpt lat="46.96768" lon="3.32886">
        <ele>254.08547973633</ele>
        <time>2016-04-03T10:06:48.000Z</time>
      </trkpt>
      <trkpt lat="46.96767" lon="3.32891">
        <ele>253.65351867676</ele>
        <time>2016-04-03T10:06:51.000Z</time>
      </trkpt>
      <trkpt lat="46.96768" lon="3.32895">
        <ele>253.25617980957</ele>
        <time>2016-04-03T10:06:53.000Z</time>
      </trkpt>
      <trkpt lat="46.96767" lon="3.32901">
        <ele>252.79521179199</ele>
        <time>2016-04-03T10:06:57.000Z</time>
      </trkpt>
      <trkpt lat="46.96768" lon="3.32905">
        <ele>252.33312988281</ele>
        <time>2016-04-03T10:07:00.000Z</time>
      </trkpt>
      <trkpt lat="46.96768" lon="3.32908">
        <ele>251.93830871582</ele>
        <time>2016-04-03T10:07:01.000Z</time>
      </trkpt>
      <trkpt lat="46.96767" lon="3.32911">
        <ele>251.57751464844</ele>
        <time>2016-04-03T10:07:03.000Z</time>
      </trkpt>
      <trkpt lat="46.96767" lon="3.32917">
        <ele>251.17050170898</ele>
        <time>2016-04-03T10:07:06.000Z</time>
      </trkpt>
      <trkpt lat="46.96767" lon="3.32922">
        <ele>250.84658813477</ele>
        <time>2016-04-03T10:07:09.000Z</time>
      </trkpt>
      <trkpt lat="46.96767" lon="3.32928">
        <ele>250.56591796875</ele>
        <time>2016-04-03T10:07:12.000Z</time>
      </trkpt>
      <trkpt lat="46.96769" lon="3.32931">
        <ele>250.32563781738</ele>
        <time>2016-04-03T10:07:14.000Z</time>
      </trkpt>
      <trkpt lat="46.96771" lon="3.32934">
        <ele>250.14054870605</ele>
        <time>2016-04-03T10:07:17.000Z</time>
      </trkpt>
      <trkpt lat="46.96773" lon="3.32935">
        <ele>250.06315612793</ele>
        <time>2016-04-03T10:07:19.000Z</time>
      </trkpt>
      <trkpt lat="46.96775" lon="3.32936">
        <ele>250.02737426758</ele>
        <time>2016-04-03T10:07:22.000Z</time>
      </trkpt>
      <trkpt lat="46.96777" lon="3.32935">
        <ele>250.037109375</ele>
        <time>2016-04-03T10:07:24.000Z</time>
      </trkpt>
      <trkpt lat="46.96778" lon="3.32935">
        <ele>250.06637573242</ele>
        <time>2016-04-03T10:07:26.000Z</time>
      </trkpt>
      <trkpt lat="46.96781" lon="3.32935">
        <ele>250.11650085449</ele>
        <time>2016-04-03T10:07:30.000Z</time>
      </trkpt>
      <trkpt lat="46.96784" lon="3.32936">
        <ele>250.17866516113</ele>
        <time>2016-04-03T10:07:32.000Z</time>
      </trkpt>
      <trkpt lat="46.96786" lon="3.32936">
        <ele>250.23896789551</ele>
        <time>2016-04-03T10:07:34.000Z</time>
      </trkpt>
      <trkpt lat="46.96789" lon="3.32935">
        <ele>250.31240844727</ele>
        <time>2016-04-03T10:07:37.000Z</time>
      </trkpt>
      <trkpt lat="46.96795" lon="3.32936">
        <ele>250.40641784668</ele>
        <time>2016-04-03T10:07:40.000Z</time>
      </trkpt>
      <trkpt lat="46.96797" lon="3.32936">
        <ele>250.49673461914</ele>
        <time>2016-04-03T10:07:42.000Z</time>
      </trkpt>
      <trkpt lat="46.96801" lon="3.3294">
        <ele>250.5754699707</ele>
        <time>2016-04-03T10:07:45.000Z</time>
      </trkpt>
      <trkpt lat="46.96802" lon="3.32943">
        <ele>250.6421661377</ele>
        <time>2016-04-03T10:07:47.000Z</time>
      </trkpt>
      <trkpt lat="46.96803" lon="3.32946">
        <ele>250.6767578125</ele>
        <time>2016-04-03T10:07:51.000Z</time>
      </trkpt>
      <trkpt lat="46.96802" lon="3.32949">
        <ele>250.66313171387</ele>
        <time>2016-04-03T10:07:52.000Z</time>
      </trkpt>
      <trkpt lat="46.96803" lon="3.32952">
        <ele>250.6272277832</ele>
        <time>2016-04-03T10:07:54.000Z</time>
      </trkpt>
      <trkpt lat="46.96802" lon="3.32957">
        <ele>250.56533813477</ele>
        <time>2016-04-03T10:07:57.000Z</time>
      </trkpt>
      <trkpt lat="46.96802" lon="3.32959">
        <ele>250.49630737305</ele>
        <time>2016-04-03T10:08:01.000Z</time>
      </trkpt>
      <trkpt lat="46.96804" lon="3.3296">
        <ele>250.44624328613</ele>
        <time>2016-04-03T10:08:04.000Z</time>
      </trkpt>
      <trkpt lat="46.96804" lon="3.32961">
        <ele>250.41674804688</ele>
        <time>2016-04-03T10:08:07.000Z</time>
      </trkpt>
      <trkpt lat="46.96804" lon="3.32963">
        <ele>250.38290405273</ele>
        <time>2016-04-03T10:08:15.000Z</time>
      </trkpt>
      <trkpt lat="46.96803" lon="3.32971">
        <ele>250.33340454102</ele>
        <time>2016-04-03T10:08:19.000Z</time>
      </trkpt>
      <trkpt lat="46.96803" lon="3.32975">
        <ele>250.2769317627</ele>
        <time>2016-04-03T10:08:21.000Z</time>
      </trkpt>
      <trkpt lat="46.96803" lon="3.3298">
        <ele>250.19387817383</ele>
        <time>2016-04-03T10:08:22.000Z</time>
      </trkpt>
      <trkpt lat="46.96803" lon="3.32986">
        <ele>250.07632446289</ele>
        <time>2016-04-03T10:08:25.000Z</time>
      </trkpt>
      <trkpt lat="46.96804" lon="3.3299">
        <ele>249.96948242188</ele>
        <time>2016-04-03T10:08:27.000Z</time>
      </trkpt>
      <trkpt lat="46.96806" lon="3.32994">
        <ele>249.89395141602</ele>
        <time>2016-04-03T10:08:30.000Z</time>
      </trkpt>
      <trkpt lat="46.96807" lon="3.33">
        <ele>249.83139038086</ele>
        <time>2016-04-03T10:08:33.000Z</time>
      </trkpt>
      <trkpt lat="46.96809" lon="3.33006">
        <ele>249.79618835449</ele>
        <time>2016-04-03T10:08:36.000Z</time>
      </trkpt>
      <trkpt lat="46.9681" lon="3.33013">
        <ele>249.79679870605</ele>
        <time>2016-04-03T10:08:40.000Z</time>
      </trkpt>
      <trkpt lat="46.96812" lon="3.33021">
        <ele>249.80126953125</ele>
        <time>2016-04-03T10:08:42.000Z</time>
      </trkpt>
      <trkpt lat="46.96812" lon="3.33023">
        <ele>249.81387329102</ele>
        <time>2016-04-03T10:08:44.000Z</time>
      </trkpt>
      <trkpt lat="46.96812" lon="3.33027">
        <ele>249.82124328613</ele>
        <time>2016-04-03T10:08:47.000Z</time>
      </trkpt>
      <trkpt lat="46.96812" lon="3.3303">
        <ele>249.81620788574</ele>
        <time>2016-04-03T10:08:50.000Z</time>
      </trkpt>
      <trkpt lat="46.96812" lon="3.33037">
        <ele>249.79936218262</ele>
        <time>2016-04-03T10:08:52.000Z</time>
      </trkpt>
      <trkpt lat="46.96811" lon="3.33041">
        <ele>249.77029418945</ele>
        <time>2016-04-03T10:08:54.000Z</time>
      </trkpt>
      <trkpt lat="46.96811" lon="3.33046">
        <ele>249.73501586914</ele>
        <time>2016-04-03T10:08:57.000Z</time>
      </trkpt>
      <trkpt lat="46.96811" lon="3.33049">
        <ele>249.70487976074</ele>
        <time>2016-04-03T10:08:59.000Z</time>
      </trkpt>
      <trkpt lat="46.96811" lon="3.33055">
        <ele>249.67092895508</ele>
        <time>2016-04-03T10:09:02.000Z</time>
      </trkpt>
      <trkpt lat="46.9681" lon="3.33059">
        <ele>249.63793945312</ele>
        <time>2016-04-03T10:09:04.000Z</time>
      </trkpt>
      <trkpt lat="46.9681" lon="3.33063">
        <ele>249.6083984375</ele>
        <time>2016-04-03T10:09:06.000Z</time>
      </trkpt>
      <trkpt lat="46.9681" lon="3.33068">
        <ele>249.57975769043</ele>
        <time>2016-04-03T10:09:09.000Z</time>
      </trkpt>
      <trkpt lat="46.9681" lon="3.33072">
        <ele>249.5495300293</ele>
        <time>2016-04-03T10:09:12.000Z</time>
      </trkpt>
      <trkpt lat="46.96809" lon="3.33076">
        <ele>249.52030944824</ele>
        <time>2016-04-03T10:09:15.000Z</time>
      </trkpt>
      <trkpt lat="46.96809" lon="3.3308">
        <ele>249.49209594727</ele>
        <time>2016-04-03T10:09:17.000Z</time>
      </trkpt>
      <trkpt lat="46.96808" lon="3.33085">
        <ele>249.46603393555</ele>
        <time>2016-04-03T10:09:20.000Z</time>
      </trkpt>
      <trkpt lat="46.96806" lon="3.33092">
        <ele>249.45248413086</ele>
        <time>2016-04-03T10:09:23.000Z</time>
      </trkpt>
      <trkpt lat="46.96804" lon="3.33096">
        <ele>249.4449005127</ele>
        <time>2016-04-03T10:09:25.000Z</time>
      </trkpt>
      <trkpt lat="46.96803" lon="3.33101">
        <ele>249.44750976562</ele>
        <time>2016-04-03T10:09:28.000Z</time>
      </trkpt>
      <trkpt lat="46.96801" lon="3.33109">
        <ele>249.46569824219</ele>
        <time>2016-04-03T10:09:32.000Z</time>
      </trkpt>
      <trkpt lat="46.968" lon="3.33112">
        <ele>249.49320983887</ele>
        <time>2016-04-03T10:09:33.000Z</time>
      </trkpt>
      <trkpt lat="46.96799" lon="3.33117">
        <ele>249.51835632324</ele>
        <time>2016-04-03T10:09:36.000Z</time>
      </trkpt>
      <trkpt lat="46.96798" lon="3.3312">
        <ele>249.54472351074</ele>
        <time>2016-04-03T10:09:38.000Z</time>
      </trkpt>
      <trkpt lat="46.96796" lon="3.33126">
        <ele>249.56970214844</ele>
        <time>2016-04-03T10:09:42.000Z</time>
      </trkpt>
      <trkpt lat="46.96793" lon="3.3313">
        <ele>249.58247375488</ele>
        <time>2016-04-03T10:09:44.000Z</time>
      </trkpt>
      <trkpt lat="46.96791" lon="3.33134">
        <ele>249.58996582031</ele>
        <time>2016-04-03T10:09:48.000Z</time>
      </trkpt>
      <trkpt lat="46.96789" lon="3.33136">
        <ele>249.58818054199</ele>
        <time>2016-04-03T10:09:49.000Z</time>
      </trkpt>
      <trkpt lat="46.96785" lon="3.33142">
        <ele>249.57678222656</ele>
        <time>2016-04-03T10:09:53.000Z</time>
      </trkpt>
      <trkpt lat="46.96782" lon="3.33145">
        <ele>249.55781555176</ele>
        <time>2016-04-03T10:09:54.000Z</time>
      </trkpt>
      <trkpt lat="46.9678" lon="3.3315">
        <ele>249.54443359375</ele>
        <time>2016-04-03T10:09:57.000Z</time>
      </trkpt>
      <trkpt lat="46.96779" lon="3.33153">
        <ele>249.5322265625</ele>
        <time>2016-04-03T10:09:59.000Z</time>
      </trkpt>
      <trkpt lat="46.96777" lon="3.33156">
        <ele>249.52307128906</ele>
        <time>2016-04-03T10:10:02.000Z</time>
      </trkpt>
      <trkpt lat="46.96774" lon="3.3316">
        <ele>249.51696777344</ele>
        <time>2016-04-03T10:10:05.000Z</time>
      </trkpt>
      <trkpt lat="46.96772" lon="3.33164">
        <ele>249.51411437988</ele>
        <time>2016-04-03T10:10:07.000Z</time>
      </trkpt>
      <trkpt lat="46.96769" lon="3.33169">
        <ele>249.50405883789</ele>
        <time>2016-04-03T10:10:11.000Z</time>
      </trkpt>
      <trkpt lat="46.96768" lon="3.33173">
        <ele>249.49150085449</ele>
        <time>2016-04-03T10:10:13.000Z</time>
      </trkpt>
      <trkpt lat="46.96766" lon="3.33176">
        <ele>249.47431945801</ele>
        <time>2016-04-03T10:10:15.000Z</time>
      </trkpt>
      <trkpt lat="46.96764" lon="3.33178">
        <ele>249.44950866699</ele>
        <time>2016-04-03T10:10:18.000Z</time>
      </trkpt>
      <trkpt lat="46.96761" lon="3.33181">
        <ele>249.41242980957</ele>
        <time>2016-04-03T10:10:21.000Z</time>
      </trkpt>
      <trkpt lat="46.96758" lon="3.33184">
        <ele>249.36276245117</ele>
        <time>2016-04-03T10:10:24.000Z</time>
      </trkpt>
      <trkpt lat="46.96754" lon="3.33188">
        <ele>249.29769897461</ele>
        <time>2016-04-03T10:10:27.000Z</time>
      </trkpt>
      <trkpt lat="46.9675" lon="3.33192">
        <ele>249.20639038086</ele>
        <time>2016-04-03T10:10:30.000Z</time>
      </trkpt>
      <trkpt lat="46.96747" lon="3.33193">
        <ele>249.09541320801</ele>
        <time>2016-04-03T10:10:32.000Z</time>
      </trkpt>
      <trkpt lat="46.96744" lon="3.33194">
        <ele>248.9563293457</ele>
        <time>2016-04-03T10:10:35.000Z</time>
      </trkpt>
      <trkpt lat="46.96741" lon="3.33196">
        <ele>248.79707336426</ele>
        <time>2016-04-03T10:10:37.000Z</time>
      </trkpt>
      <trkpt lat="46.96738" lon="3.33199">
        <ele>248.60751342773</ele>
        <time>2016-04-03T10:10:40.000Z</time>
      </trkpt>
      <trkpt lat="46.96735" lon="3.33201">
        <ele>248.42240905762</ele>
        <time>2016-04-03T10:10:43.000Z</time>
      </trkpt>
      <trkpt lat="46.96732" lon="3.33205">
        <ele>248.21887207031</ele>
        <time>2016-04-03T10:10:46.000Z</time>
      </trkpt>
      <trkpt lat="46.96729" lon="3.33207">
        <ele>248.02395629883</ele>
        <time>2016-04-03T10:10:47.000Z</time>
      </trkpt>
      <trkpt lat="46.96727" lon="3.33209">
        <ele>247.83801269531</ele>
        <time>2016-04-03T10:10:49.000Z</time>
      </trkpt>
      <trkpt lat="46.96724" lon="3.33212">
        <ele>247.66006469727</ele>
        <time>2016-04-03T10:10:52.000Z</time>
      </trkpt>
      <trkpt lat="46.96722" lon="3.33214">
        <ele>247.47012329102</ele>
        <time>2016-04-03T10:10:56.000Z</time>
      </trkpt>
      <trkpt lat="46.96719" lon="3.33215">
        <ele>247.2956237793</ele>
        <time>2016-04-03T10:10:57.000Z</time>
      </trkpt>
      <trkpt lat="46.96716" lon="3.33217">
        <ele>247.11471557617</ele>
        <time>2016-04-03T10:11:00.000Z</time>
      </trkpt>
      <trkpt lat="46.96714" lon="3.33218">
        <ele>246.92758178711</ele>
        <time>2016-04-03T10:11:03.000Z</time>
      </trkpt>
      <trkpt lat="46.96711" lon="3.33219">
        <ele>246.74140930176</ele>
        <time>2016-04-03T10:11:06.000Z</time>
      </trkpt>
      <trkpt lat="46.96709" lon="3.33219">
        <ele>246.56660461426</ele>
        <time>2016-04-03T10:11:08.000Z</time>
      </trkpt>
      <trkpt lat="46.96706" lon="3.3322">
        <ele>246.39126586914</ele>
        <time>2016-04-03T10:11:11.000Z</time>
      </trkpt>
      <trkpt lat="46.96704" lon="3.33222">
        <ele>246.2200012207</ele>
        <time>2016-04-03T10:11:13.000Z</time>
      </trkpt>
      <trkpt lat="46.96701" lon="3.33225">
        <ele>246.03482055664</ele>
        <time>2016-04-03T10:11:16.000Z</time>
      </trkpt>
      <trkpt lat="46.96698" lon="3.33228">
        <ele>245.84497070312</ele>
        <time>2016-04-03T10:11:19.000Z</time>
      </trkpt>
      <trkpt lat="46.96695" lon="3.33231">
        <ele>245.63845825195</ele>
        <time>2016-04-03T10:11:22.000Z</time>
      </trkpt>
      <trkpt lat="46.96694" lon="3.33235">
        <ele>245.4447479248</ele>
        <time>2016-04-03T10:11:25.000Z</time>
      </trkpt>
      <trkpt lat="46.96692" lon="3.33238">
        <ele>245.25280761719</ele>
        <time>2016-04-03T10:11:28.000Z</time>
      </trkpt>
      <trkpt lat="46.96691" lon="3.33243">
        <ele>245.0885925293</ele>
        <time>2016-04-03T10:11:31.000Z</time>
      </trkpt>
      <trkpt lat="46.9669" lon="3.33246">
        <ele>244.93891906738</ele>
        <time>2016-04-03T10:11:33.000Z</time>
      </trkpt>
      <trkpt lat="46.96689" lon="3.33252">
        <ele>244.80825805664</ele>
        <time>2016-04-03T10:11:36.000Z</time>
      </trkpt>
      <trkpt lat="46.96687" lon="3.33259">
        <ele>244.66313171387</ele>
        <time>2016-04-03T10:11:39.000Z</time>
      </trkpt>
      <trkpt lat="46.96686" lon="3.33263">
        <ele>244.52157592773</ele>
        <time>2016-04-03T10:11:42.000Z</time>
      </trkpt>
      <trkpt lat="46.96684" lon="3.33268">
        <ele>244.35888671875</ele>
        <time>2016-04-03T10:11:46.000Z</time>
      </trkpt>
      <trkpt lat="46.96683" lon="3.3327">
        <ele>244.20016479492</ele>
        <time>2016-04-03T10:11:47.000Z</time>
      </trkpt>
      <trkpt lat="46.96681" lon="3.33274">
        <ele>244.03482055664</ele>
        <time>2016-04-03T10:11:49.000Z</time>
      </trkpt>
      <trkpt lat="46.96679" lon="3.33279">
        <ele>243.85800170898</ele>
        <time>2016-04-03T10:11:52.000Z</time>
      </trkpt>
      <trkpt lat="46.96677" lon="3.33283">
        <ele>243.67849731445</ele>
        <time>2016-04-03T10:11:55.000Z</time>
      </trkpt>
      <trkpt lat="46.96677" lon="3.33286">
        <ele>243.52795410156</ele>
        <time>2016-04-03T10:11:57.000Z</time>
      </trkpt>
      <trkpt lat="46.96677" lon="3.33288">
        <ele>243.39697265625</ele>
        <time>2016-04-03T10:11:59.000Z</time>
      </trkpt>
      <trkpt lat="46.96677" lon="3.33289">
        <ele>243.29397583008</ele>
        <time>2016-04-03T10:12:09.000Z</time>
      </trkpt>
      <trkpt lat="46.96677" lon="3.33291">
        <ele>243.23452758789</ele>
        <time>2016-04-03T10:12:12.000Z</time>
      </trkpt>
      <trkpt lat="46.96677" lon="3.33294">
        <ele>243.20541381836</ele>
        <time>2016-04-03T10:12:15.000Z</time>
      </trkpt>
      <trkpt lat="46.96677" lon="3.33298">
        <ele>243.17890930176</ele>
        <time>2016-04-03T10:12:17.000Z</time>
      </trkpt>
      <trkpt lat="46.96675" lon="3.33305">
        <ele>243.11288452148</ele>
        <time>2016-04-03T10:12:20.000Z</time>
      </trkpt>
      <trkpt lat="46.96676" lon="3.3331">
        <ele>243.04653930664</ele>
        <time>2016-04-03T10:12:23.000Z</time>
      </trkpt>
      <trkpt lat="46.96675" lon="3.33315">
        <ele>242.95732116699</ele>
        <time>2016-04-03T10:12:26.000Z</time>
      </trkpt>
      <trkpt lat="46.96674" lon="3.33317">
        <ele>242.85507202148</ele>
        <time>2016-04-03T10:12:28.000Z</time>
      </trkpt>
      <trkpt lat="46.96672" lon="3.33321">
        <ele>242.73049926758</ele>
        <time>2016-04-03T10:12:32.000Z</time>
      </trkpt>
      <trkpt lat="46.96672" lon="3.33324">
        <ele>242.63374328613</ele>
        <time>2016-04-03T10:12:33.000Z</time>
      </trkpt>
      <trkpt lat="46.96671" lon="3.33327">
        <ele>242.52436828613</ele>
        <time>2016-04-03T10:12:35.000Z</time>
      </trkpt>
      <trkpt lat="46.9667" lon="3.3333">
        <ele>242.423828125</ele>
        <time>2016-04-03T10:12:38.000Z</time>
      </trkpt>
      <trkpt lat="46.96669" lon="3.33335">
        <ele>242.32182312012</ele>
        <time>2016-04-03T10:12:41.000Z</time>
      </trkpt>
      <trkpt lat="46.96669" lon="3.33339">
        <ele>242.23690795898</ele>
        <time>2016-04-03T10:12:44.000Z</time>
      </trkpt>
      <trkpt lat="46.96669" lon="3.33343">
        <ele>242.1604309082</ele>
        <time>2016-04-03T10:12:47.000Z</time>
      </trkpt>
      <trkpt lat="46.96668" lon="3.33346">
        <ele>242.08515930176</ele>
        <time>2016-04-03T10:12:50.000Z</time>
      </trkpt>
      <trkpt lat="46.96667" lon="3.33349">
        <ele>242.0113067627</ele>
        <time>2016-04-03T10:12:54.000Z</time>
      </trkpt>
      <trkpt lat="46.96666" lon="3.33352">
        <ele>241.92514038086</ele>
        <time>2016-04-03T10:12:56.000Z</time>
      </trkpt>
      <trkpt lat="46.96664" lon="3.33353">
        <ele>241.82897949219</ele>
        <time>2016-04-03T10:12:58.000Z</time>
      </trkpt>
      <trkpt lat="46.9666" lon="3.33357">
        <ele>241.66452026367</ele>
        <time>2016-04-03T10:13:07.000Z</time>
      </trkpt>
      <trkpt lat="46.96659" lon="3.33358">
        <ele>241.49536132812</ele>
        <time>2016-04-03T10:13:09.000Z</time>
      </trkpt>
      <trkpt lat="46.96659" lon="3.33358">
        <ele>241.49536132812</ele>
        <time>2016-04-03T10:13:30.000Z</time>
      </trkpt>
      <trkpt lat="46.96656" lon="3.33359">
        <ele>241.29565429688</ele>
        <time>2016-04-03T10:13:40.000Z</time>
      </trkpt>
      <trkpt lat="46.96656" lon="3.33359">
        <ele>241.29565429688</ele>
        <time>2016-04-03T10:13:50.000Z</time>
      </trkpt>
    </trkseg>
  </trk>
</gpx>